# Wetter Temperatur Luftdruck Luftfeuchtigkeit Sichtweite Windgeschwindigkeit Windrichtung Zeit
1 Clear 21 1021 46 10000 3.6 140 13:25 22.04.2021
2 Clear 21 1021 45 10000 2.57 140 12:56 22.04.2021
3 Clear 21 1020 43 10000 2.57 160 12:37 22.04.2021
4 Clear 21 1020 43 10000 2.57 160 12:37 22.04.2021
5 Clear 22 1020 43 10000 2.57 160 12:19 22.04.2021
6 Clear 23 1020 40 10000 3.09 140 11:43 22.04.2021
7 Clear 23 1019 38 10000 4.12 120 11:22 22.04.2021
8 Clear 23 1019 38 10000 4.63 120 10:43 22.04.2021
9 Clear 23 1019 38 10000 4.63 120 10:43 22.04.2021
10 Clear 24 1020 35 10000 4.12 110 10:21 22.04.2021
11 Clear 24 1020 35 10000 4.63 90 09:41 22.04.2021
12 Clear 25 1020 35 10000 4.63 90 09:19 22.04.2021
13 Clear 25 1020 33 10000 5.66 90 08:38 22.04.2021
14 Clear 25 1020 33 10000 5.66 90 08:18 22.04.2021
15 Clear 24 1021 35 10000 5.14 60 07:37 22.04.2021
16 Clear 24 1021 35 10000 5.14 60 07:18 22.04.2021
17 Clear 23 1022 43 10000 6.17 40 06:22 22.04.2021
18 Clear 23 1023 46 10000 6.69 60 05:24 22.04.2021
19 Clear 17 1024 67 10000 5.66 60 02:49 22.04.2021
20 Clear 15 1023 77 10000 7.2 80 00:41 22.04.2021
21 Clear 15 1023 77 10000 7.2 80 23:42 21.04.2021
22 Clear 15 1023 77 10000 7.2 80 23:22 21.04.2021
23 Clear 15 1022 77 10000 4.63 90 22:41 21.04.2021
24 Clear 16 1022 77 10000 4.63 90 22:23 21.04.2021
25 Clear 16 1023 72 10000 5.66 90 21:42 21.04.2021
26 Clear 16 1023 72 10000 5.66 90 21:23 21.04.2021
27 Clear 16 1023 67 10000 5.14 90 20:38 21.04.2021
28 Clear 16 1023 67 10000 5.14 90 20:18 21.04.2021
29 Clear 16 1023 59 10000 4.12 80 19:38 21.04.2021
30 Clear 16 1023 59 10000 4.12 80 19:20 21.04.2021
31 Clear 16 1023 58 10000 4.12 110 18:44 21.04.2021
32 Clear 15 1023 67 10000 4.12 160 18:22 21.04.2021
33 Clear 15 1023 71 10000 2.57 90 17:46 21.04.2021
34 Clear 15 1024 67 10000 1.54 70 17:24 21.04.2021
35 Clear 16 1024 63 10000 1.54 80 16:42 21.04.2021
36 Clear 17 1024 63 10000 2.57 110 15:56 21.04.2021
37 Clear 18 1023 59 10000 3.09 110 15:37 21.04.2021
38 Clear 18 1023 55 10000 3.6 90 14:46 21.04.2021
39 Clear 19 1023 59 10000 3.6 100 14:28 21.04.2021
40 Clear 20 1023 59 10000 3.6 110 13:51 21.04.2021
41 Clear 20 1023 59 10000 3.6 110 13:51 21.04.2021
42 Clouds 21 1023 56 10000 3.6 150 13:23 21.04.2021
43 Clear 21 1022 49 10000 3.6 130 12:52 21.04.2021
44 Clear 22 1022 43 10000 3.09 110 12:28 21.04.2021
45 Clear 23 1022 40 10000 4.63 100 11:47 21.04.2021
46 Clear 24 1022 36 10000 3.6 110 11:25 21.04.2021
47 Clear 25 1022 34 10000 4.12 120 10:42 21.04.2021
48 Clear 26 1021 34 10000 3.6 120 09:58 21.04.2021
49 Clear 26 1021 34 10000 4.63 90 09:33 21.04.2021
50 Clear 26 1021 34 10000 3.6 90 08:53 21.04.2021
51 Clear 26 1021 36 10000 3.6 130 08:27 21.04.2021
52 Clear 26 1022 36 10000 3.09 140 07:58 21.04.2021
53 Clear 25 1022 38 10000 4.63 110 07:29 21.04.2021
54 Clouds 25 1023 43 10000 4.63 60 06:23 21.04.2021
55 Clear 18 1023 68 10000 3.6 30 02:56 21.04.2021
56 Clear 15 1022 77 10000 1.54 230 00:28 21.04.2021
57 Clear 14 1022 88 10000 2.06 290 23:41 20.04.2021
58 Clear 14 1022 94 10000 2.06 340 22:50 20.04.2021
59 Clear 14 1022 94 10000 2.06 340 22:50 20.04.2021
60 Clear 14 1021 94 10000 3.09 170 22:24 20.04.2021
61 Clear 14 1021 94 10000 3.6 134 21:59 20.04.2021
62 Clear 14 1022 88 10000 4.12 190 21:40 20.04.2021
63 Clear 15 1022 88 10000 4.12 190 21:22 20.04.2021
64 Clear 14 1021 88 10000 3.6 210 20:41 20.04.2021
65 Clear 14 1021 88 10000 3.6 210 20:21 20.04.2021
66 Clear 14 1021 88 10000 3.6 210 19:50 20.04.2021
67 Clear 14 1021 88 10000 3.6 210 19:50 20.04.2021
68 Clear 15 1021 88 10000 3.6 210 19:29 20.04.2021
69 Clear 15 1021 94 10000 4.12 200 18:47 20.04.2021
70 Clear 15 1021 82 10000 3.09 210 18:29 20.04.2021
71 Clear 15 1021 88 10000 2.06 220 17:41 20.04.2021
72 Clear 16 1021 82 10000 2.57 210 16:53 20.04.2021
73 Clear 16 1021 77 10000 3.09 210 16:34 20.04.2021
74 Clear 17 1021 72 10000 4.63 190 15:40 20.04.2021
75 Clear 18 1021 72 10000 4.63 190 15:19 20.04.2021
76 Clear 18 1021 68 10000 5.66 190 14:45 20.04.2021
77 Clear 18 1021 68 10000 5.66 190 14:22 20.04.2021
78 Clear 19 1021 68 10000 6.69 200 13:28 20.04.2021
79 Clear 20 1020 64 10000 6.69 210 12:55 20.04.2021
80 Clouds 20 1020 68 10000 5.66 210 12:24 20.04.2021
81 Clouds 21 1020 68 10000 7.2 220 11:46 20.04.2021
82 Clouds 22 1020 64 10000 6.69 210 11:25 20.04.2021
83 Clouds 23 1019 60 10000 6.17 220 10:47 20.04.2021
84 Clear 24 1019 47 10000 6.69 240 10:24 20.04.2021
85 Clear 25 1019 41 10000 3.6 220 09:45 20.04.2021
86 Clear 25 1019 44 10000 4.63 220 08:59 20.04.2021
87 Clear 25 1019 41 10000 2.57 190 08:35 20.04.2021
88 Clear 25 1019 43 10000 3.09 200 07:53 20.04.2021
89 Clear 25 1019 41 10000 3.09 190 07:21 20.04.2021
90 Clouds 24 1020 49 10000 4.12 80 05:42 20.04.2021
91 Clouds 22 1021 56 10000 6.69 80 04:43 20.04.2021
92 Clouds 19 1021 68 10000 8.23 90 02:58 20.04.2021
93 Clouds 14 1020 94 10000 2.06 120 00:50 20.04.2021
94 Clouds 14 1019 100 9000 2.57 10 23:52 19.04.2021
95 Smoke 13 1019 93 5000 2.06 350 23:29 19.04.2021
96 Smoke 13 1019 100 5000 2.06 360 22:37 19.04.2021
97 Smoke 14 1019 100 3000 2.06 310 21:59 19.04.2021
98 Smoke 13 1019 100 3000 2.06 310 21:37 19.04.2021
99 Smoke 13 1019 100 3000 0.51 10 21:19 19.04.2021
100 Smoke 14 1019 93 3000 1.54 20 20:40 19.04.2021
101 Smoke 14 1019 93 3000 2.06 30 20:20 19.04.2021
102 Smoke 14 1019 93 5000 2.06 230 19:43 19.04.2021
103 Smoke 14 1019 87 5000 2.55 135 19:24 19.04.2021
104 Smoke 14 1019 87 5000 2.55 135 18:47 19.04.2021
105 Clouds 14 1019 94 8000 0.51 10 18:23 19.04.2021
106 Clouds 15 1019 88 9000 2.49 146 17:55 19.04.2021
107 Clear 15 1019 88 10000 3.04 150 17:29 19.04.2021
108 Clear 16 1019 88 10000 2.06 190 16:57 19.04.2021
109 Clear 16 1019 88 10000 2.06 190 16:57 19.04.2021
110 Clear 16 1019 88 10000 1.54 190 16:38 19.04.2021
111 Clear 16 1019 88 10000 1.54 190 16:20 19.04.2021
112 Clear 17 1019 72 10000 4.63 190 15:40 19.04.2021
113 Clear 17 1019 72 10000 4.63 190 15:20 19.04.2021
114 Clear 18 1018 72 10000 4.63 200 14:37 19.04.2021
115 Clear 18 1018 72 10000 4.63 200 14:18 19.04.2021
116 Clear 19 1018 68 10000 5.14 210 13:36 19.04.2021
117 Clear 19 1018 68 10000 5.14 210 13:18 19.04.2021
118 Clouds 19 1018 60 10000 5.14 220 12:40 19.04.2021
119 Clouds 20 1018 60 10000 5.14 220 12:20 19.04.2021
120 Clear 20 1017 60 10000 5.66 240 11:52 19.04.2021
121 Clear 21 1017 56 10000 5.66 240 11:21 19.04.2021
122 Clear 21 1017 56 10000 5.66 240 10:45 19.04.2021
123 Clear 22 1017 53 10000 6.69 250 10:20 19.04.2021
124 Clear 22 1018 56 10000 6.69 240 09:48 19.04.2021
125 Clouds 23 1017 38 10000 3.6 250 09:26 19.04.2021
126 Clouds 23 1017 43 10000 4.63 210 08:45 19.04.2021
127 Clouds 24 1017 43 10000 4.63 210 08:22 19.04.2021
128 Clouds 23 1018 46 10000 6.69 200 07:45 19.04.2021
129 Rain 22 1018 49 10000 6.69 190 07:18 19.04.2021
130 Rain 22 1019 52 10000 5.14 190 05:41 19.04.2021
131 Smoke 14 1020 87 5000 2.06 170 01:50 19.04.2021
132 Rain 13 1019 93 6000 2.57 210 00:42 19.04.2021
133 Rain 13 1019 87 8000 2.57 200 23:22 18.04.2021
134 Rain 13 1019 93 10000 2.57 230 22:58 18.04.2021
135 Clear 13 1019 82 10000 3.09 190 22:34 18.04.2021
136 Clear 14 1019 88 10000 2.06 200 21:57 18.04.2021
137 Rain 13 1019 87 9000 4.64 168 21:29 18.04.2021
138 Clouds 14 1019 82 9000 1.54 180 20:55 18.04.2021
139 Clouds 14 1019 87 10000 0.51 220 20:37 18.04.2021
140 Clouds 15 1019 87 10000 0.51 220 20:18 18.04.2021
141 Clear 15 1019 82 10000 2.57 190 19:39 18.04.2021
142 Rain 15 1019 82 10000 2.57 190 19:19 18.04.2021
143 Clear 16 1020 82 10000 3.6 190 18:45 18.04.2021
144 Rain 17 1020 77 10000 3.6 190 18:25 18.04.2021
145 Clear 17 1020 67 10000 3.6 180 17:46 18.04.2021
146 Clear 17 1020 67 10000 3.6 180 17:27 18.04.2021
147 Clear 18 1021 63 10000 4.12 190 16:47 18.04.2021
148 Clear 18 1021 59 10000 5.14 190 16:29 18.04.2021
149 Clear 19 1021 55 10000 5.14 200 15:46 18.04.2021
150 Rain 19 1021 55 10000 5.14 200 15:27 18.04.2021
151 Rain 19 1021 52 10000 5.66 200 14:52 18.04.2021
152 Rain 20 1021 52 10000 5.66 190 14:23 18.04.2021
153 Clear 20 1021 49 10000 5.14 200 13:56 18.04.2021
154 Clear 21 1020 46 10000 4.63 210 13:34 18.04.2021
155 Clear 22 1020 43 10000 5.66 210 12:51 18.04.2021
156 Clear 22 1020 38 10000 5.66 210 12:29 18.04.2021
157 Clear 23 1020 35 10000 7.2 210 11:44 18.04.2021
158 Clear 24 1019 36 10000 6.69 240 11:21 18.04.2021
159 Clear 25 1019 31 10000 7.72 240 10:48 18.04.2021
160 Clear 26 1019 29 10000 7.72 240 10:23 18.04.2021
161 Clear 27 1019 21 10000 3.09 190 09:53 18.04.2021
162 Clear 27 1019 21 10000 3.09 190 09:53 18.04.2021
163 Clear 28 1019 23 10000 2.06 150 09:34 18.04.2021
164 Clear 28 1019 23 10000 2.06 150 09:34 18.04.2021
165 Clear 28 1019 21 10000 2.57 80 08:57 18.04.2021
166 Clear 28 1020 21 10000 2.57 110 08:35 18.04.2021
167 Rain 28 1020 23 10000 3.09 90 07:58 18.04.2021
168 Rain 28 1021 21 10000 3.09 100 07:37 18.04.2021
169 Rain 27 1023 29 10000 3.09 60 05:42 18.04.2021
170 Rain 26 1023 29 10000 3.09 60 05:24 18.04.2021
171 Clear 20 1024 48 10000 4.12 40 02:39 18.04.2021
172 Clear 20 1024 48 10000 4.12 40 02:39 18.04.2021
173 Clear 19 1024 48 10000 4.12 40 02:20 18.04.2021
174 Rain 15 1024 55 10000 1.54 330 00:37 18.04.2021
175 Clear 16 1023 51 10000 3.09 10 23:37 17.04.2021
176 Clear 16 1023 51 10000 2.06 350 22:51 17.04.2021
177 Rain 17 1023 51 10000 1.54 60 22:31 17.04.2021
178 Clear 16 1023 51 10000 3.09 40 21:50 17.04.2021
179 Clear 16 1023 51 10000 3.09 60 21:28 17.04.2021
180 Rain 17 1023 48 10000 3.6 80 20:47 17.04.2021
181 Rain 17 1023 48 10000 4.12 70 20:27 17.04.2021
182 Clear 17 1024 48 10000 3.6 70 19:44 17.04.2021
183 Clear 17 1024 48 10000 2.57 40 19:20 17.04.2021
184 Clear 17 1024 48 10000 2.57 50 18:55 17.04.2021
185 Rain 17 1024 48 10000 2.73 99 18:26 17.04.2021
186 Rain 17 1024 62 10000 2.06 40 17:49 17.04.2021
187 Clear 16 1024 67 10000 0.51 40 17:30 17.04.2021
188 Clear 17 1024 67 10000 0.51 360 16:42 17.04.2021
189 Clear 16 1024 67 10000 0.51 360 16:23 17.04.2021
190 Clouds 18 1024 58 9000 2.06 240 15:38 17.04.2021
191 Clear 19 1024 51 10000 2.57 240 14:44 17.04.2021
192 Clouds 20 1024 59 10000 3.6 170 14:20 17.04.2021
193 Clouds 21 1024 56 10000 3.6 180 13:44 17.04.2021
194 Clear 21 1024 40 10000 3.6 170 12:55 17.04.2021
195 Clear 22 1023 35 10000 3.09 140 12:34 17.04.2021
196 Clear 24 1023 29 10000 5.14 130 11:53 17.04.2021
197 Clouds 25 1023 27 9000 6.17 130 11:33 17.04.2021
198 Clouds 25 1023 27 9000 6.17 130 11:33 17.04.2021
199 Clear 26 1023 27 10000 5.66 130 10:57 17.04.2021
200 Clear 26 1023 22 10000 3.6 90 10:38 17.04.2021
201 Clear 27 1023 20 10000 4.12 70 09:51 17.04.2021
202 Clear 27 1023 20 10000 4.12 70 09:51 17.04.2021
203 Clear 28 1023 22 10000 4.12 30 08:55 17.04.2021
204 Clear 28 1023 21 10000 3.09 120 08:33 17.04.2021
205 Clear 27 1023 21 10000 3.09 90 07:51 17.04.2021
206 Clear 27 1025 29 10000 3.6 70 06:26 17.04.2021
207 Clear 22 1026 46 10000 5.66 70 03:47 17.04.2021
208 Clear 15 1025 58 10000 4.12 70 00:58 17.04.2021
209 Clear 15 1025 59 10000 5.66 90 00:37 17.04.2021
210 Clear 15 1025 59 10000 5.66 90 00:18 17.04.2021
211 Clear 15 1025 55 10000 4.12 90 23:34 16.04.2021
212 Clear 16 1025 55 10000 5.66 70 22:52 16.04.2021
213 Clear 16 1025 55 10000 6.17 80 22:24 16.04.2021
214 Clear 17 1025 51 10000 5.66 70 21:57 16.04.2021
215 Clear 17 1025 51 10000 6.17 80 21:39 16.04.2021
216 Clear 17 1025 51 10000 6.69 90 20:56 16.04.2021
217 Clear 17 1025 51 10000 6.69 100 20:37 16.04.2021
218 Clear 17 1025 48 10000 6.17 110 19:58 16.04.2021
219 Clear 18 1025 48 10000 6.69 120 19:40 16.04.2021
220 Clear 18 1025 48 10000 6.69 120 19:18 16.04.2021
221 Clear 18 1026 48 10000 6.17 100 18:25 16.04.2021
222 Clear 19 1025 45 10000 6.69 100 17:48 16.04.2021
223 Clear 19 1025 45 10000 7.72 110 17:19 16.04.2021
224 Clear 19 1025 45 10000 7.2 110 16:44 16.04.2021
225 Clear 19 1026 42 10000 7.2 100 16:26 16.04.2021
226 Clear 19 1026 42 10000 6.69 110 15:54 16.04.2021
227 Clear 19 1025 45 10000 6.17 110 15:29 16.04.2021
228 Clear 19 1025 45 10000 5.14 110 14:43 16.04.2021
229 Clear 19 1025 45 10000 4.63 120 14:20 16.04.2021
230 Clear 20 1025 43 10000 4.63 130 13:54 16.04.2021
231 Clear 20 1025 49 10000 4.63 150 13:22 16.04.2021
232 Clear 21 1024 46 10000 4.63 150 12:53 16.04.2021
233 Clear 22 1024 43 10000 4.12 160 12:29 16.04.2021
234 Clear 23 1024 38 10000 5.14 150 11:58 16.04.2021
235 Clear 24 1024 35 10000 5.66 160 11:27 16.04.2021
236 Clear 25 1024 33 10000 4.63 160 10:59 16.04.2021
237 Clear 25 1024 31 10000 4.12 150 10:39 16.04.2021
238 Clear 25 1024 31 10000 4.12 150 10:19 16.04.2021
239 Clear 26 1024 29 10000 4.63 140 09:43 16.04.2021
240 Clear 26 1024 29 10000 2.57 150 09:20 16.04.2021
241 Clear 26 1023 31 10000 3.6 130 08:41 16.04.2021
242 Clear 25 1023 31 10000 3.6 130 08:18 16.04.2021
243 Clear 25 1024 33 10000 4.63 80 07:37 16.04.2021
244 Clear 24 1025 38 10000 5.14 70 06:59 16.04.2021
245 Clear 24 1025 38 10000 5.66 80 06:24 16.04.2021
246 Clear 21 1026 59 10000 5.66 90 04:22 16.04.2021
247 Clear 16 1026 77 10000 3.6 30 01:37 16.04.2021
248 Clear 15 1025 72 10000 4.12 70 00:41 16.04.2021
249 Clear 15 1025 72 10000 4.12 70 00:20 16.04.2021
250 Clear 15 1025 72 10000 3.6 50 23:41 15.04.2021
251 Clear 15 1025 72 10000 3.6 50 23:23 15.04.2021
252 Clear 14 1025 72 10000 2.57 60 22:40 15.04.2021
253 Clear 14 1025 72 10000 2.57 60 22:22 15.04.2021
254 Clear 12 1025 87 10000 2.06 10 21:42 15.04.2021
255 Clear 12 1025 87 10000 2.06 10 21:22 15.04.2021
256 Clear 11 1025 87 10000 1.03 20 20:45 15.04.2021
257 Clear 11 1025 87 10000 1.03 20 20:24 15.04.2021
258 Clear 11 1025 82 10000 3.43 94 19:45 15.04.2021
259 Clear 13 1025 82 10000 3.2 100 19:27 15.04.2021
260 Clear 14 1025 82 10000 3.2 100 18:43 15.04.2021
261 Clear 14 1025 82 10000 2.73 122 18:21 15.04.2021
262 Clear 14 1025 76 10000 2.57 110 17:55 15.04.2021
263 Clear 15 1026 71 10000 2.06 70 17:36 15.04.2021
264 Clear 15 1026 71 10000 2.06 70 17:36 15.04.2021
265 Clear 15 1026 72 10000 3.6 90 16:58 15.04.2021
266 Clear 16 1026 63 10000 3.09 80 16:40 15.04.2021
267 Clear 16 1026 63 10000 3.09 80 16:21 15.04.2021
268 Clear 16 1025 63 10000 3.6 100 15:44 15.04.2021
269 Clear 17 1025 63 10000 3.09 100 15:25 15.04.2021
270 Clear 18 1025 52 10000 4.12 110 14:41 15.04.2021
271 Clear 18 1025 52 10000 4.12 110 14:22 15.04.2021
272 Clear 19 1024 48 10000 4.12 120 13:42 15.04.2021
273 Clear 19 1024 48 10000 4.12 120 13:18 15.04.2021
274 Clear 20 1024 40 10000 4.12 110 12:40 15.04.2021
275 Clear 21 1024 40 10000 4.12 110 12:21 15.04.2021
276 Clear 21 1024 40 10000 4.12 110 12:21 15.04.2021
277 Clear 22 1024 38 10000 4.63 130 11:45 15.04.2021
278 Clear 23 1023 35 10000 4.63 130 11:23 15.04.2021
279 Clear 24 1023 33 10000 3.09 150 10:49 15.04.2021
280 Clear 25 1023 31 10000 3.09 140 10:27 15.04.2021
281 Clear 25 1023 31 10000 3.09 100 09:46 15.04.2021
282 Clear 25 1023 31 10000 2.06 60 09:18 15.04.2021
283 Clear 25 1023 33 10000 2.57 90 08:42 15.04.2021
284 Clear 24 1024 33 10000 3.09 160 07:52 15.04.2021
285 Clear 24 1024 35 10000 3.09 80 07:22 15.04.2021
286 Clear 24 1024 35 10000 3.09 80 07:22 15.04.2021
287 Clear 23 1025 38 10000 3.09 70 06:38 15.04.2021
288 Clear 23 1025 38 10000 3.09 70 06:20 15.04.2021
289 Clouds 22 1026 46 10000 7.2 90 04:51 15.04.2021
290 Clouds 12 1026 87 10000 1.54 330 00:54 15.04.2021
291 Clouds 12 1026 93 10000 1.03 330 23:40 14.04.2021
292 Clouds 12 1026 93 10000 1.03 330 23:19 14.04.2021
293 Clouds 12 1026 87 10000 2.72 113 22:43 14.04.2021
294 Clear 12 1025 87 10000 3.6 180 22:23 14.04.2021
295 Clear 13 1025 82 10000 3.6 200 21:44 14.04.2021
296 Clear 13 1025 82 10000 3.6 200 21:26 14.04.2021
297 Clear 13 1026 77 10000 4.12 200 20:56 14.04.2021
298 Clear 13 1026 88 10000 4.63 210 20:33 14.04.2021
299 Clear 13 1026 93 10000 3.6 210 19:51 14.04.2021
300 Clear 13 1026 87 10000 2.57 190 19:20 14.04.2021
301 Clear 13 1026 87 10000 3.27 145 18:56 14.04.2021
302 Clear 13 1026 87 10000 3.89 155 18:22 14.04.2021
303 Clear 14 1026 82 10000 3.89 155 17:58 14.04.2021
304 Clear 14 1026 82 10000 2.06 170 17:25 14.04.2021
305 Clear 15 1026 77 10000 3.6 190 16:54 14.04.2021
306 Clear 16 1026 72 10000 4.12 200 16:26 14.04.2021
307 Clear 16 1025 67 10000 5.66 180 15:42 14.04.2021
308 Clear 16 1025 67 10000 5.66 180 15:24 14.04.2021
309 Clear 17 1025 67 10000 6.17 190 14:49 14.04.2021
310 Clear 17 1025 67 10000 6.69 190 14:27 14.04.2021
311 Clear 18 1025 63 10000 6.69 190 13:58 14.04.2021
312 Clear 18 1025 63 10000 6.69 200 13:37 14.04.2021
313 Clear 19 1024 63 10000 5.14 220 12:39 14.04.2021
314 Clear 20 1023 52 10000 7.72 210 11:44 14.04.2021
315 Clear 21 1024 52 10000 6.69 210 11:25 14.04.2021
316 Clear 21 1023 52 10000 6.69 220 10:55 14.04.2021
317 Clouds 22 1023 49 10000 6.69 210 10:33 14.04.2021
318 Clear 23 1023 35 10000 3.6 170 09:42 14.04.2021
319 Clear 23 1023 35 10000 3.6 170 09:21 14.04.2021
320 Clear 23 1023 38 10000 5.14 200 08:46 14.04.2021
321 Clear 23 1023 38 10000 4.63 200 08:22 14.04.2021
322 Clouds 22 1024 37 10000 3.6 130 07:25 14.04.2021
323 Clouds 22 1025 43 10000 3.6 170 06:26 14.04.2021
324 Clouds 20 1026 48 10000 3.09 120 04:53 14.04.2021
325 Clear 12 1026 82 10000 2.57 50 01:52 14.04.2021
326 Clear 10 1025 82 10000 2.57 20 00:40 14.04.2021
327 Clear 11 1025 87 10000 2.06 350 23:55 13.04.2021
328 Clear 11 1025 87 10000 2.57 360 23:30 13.04.2021
329 Clear 11 1025 82 10000 2.57 30 22:43 13.04.2021
330 Clear 11 1025 82 10000 2.57 10 22:19 13.04.2021
331 Clear 12 1025 87 10000 0.51 340 21:46 13.04.2021
332 Clear 12 1025 76 10000 2.73 126 21:28 13.04.2021
333 Clear 12 1025 71 10000 1.54 110 20:43 13.04.2021
334 Clear 11 1025 87 10000 2.64 131 20:23 13.04.2021
335 Clear 12 1025 87 10000 2.06 70 19:48 13.04.2021
336 Clear 12 1024 87 10000 2.57 190 19:24 13.04.2021
337 Clear 13 1024 76 10000 2.06 180 18:44 13.04.2021
338 Clear 13 1024 82 10000 2.57 210 18:23 13.04.2021
339 Clear 14 1024 72 10000 4.12 190 17:37 13.04.2021
340 Clear 14 1024 72 10000 3.6 190 17:18 13.04.2021
341 Clear 15 1024 72 10000 3.6 190 16:44 13.04.2021
342 Clear 15 1024 67 10000 3.6 200 16:21 13.04.2021
343 Clear 15 1024 67 10000 4.63 200 15:44 13.04.2021
344 Clear 15 1024 67 10000 4.63 200 15:44 13.04.2021
345 Clear 15 1024 67 10000 4.63 200 15:44 13.04.2021
346 Clear 15 1024 67 10000 5.14 190 15:22 13.04.2021
347 Clear 16 1023 63 10000 5.66 190 14:46 13.04.2021
348 Clear 16 1023 59 10000 5.14 200 14:19 13.04.2021
349 Clear 17 1023 59 10000 5.66 200 13:45 13.04.2021
350 Clear 17 1022 55 10000 6.69 210 13:24 13.04.2021
351 Clear 18 1022 52 10000 5.66 210 12:56 13.04.2021
352 Clear 18 1021 48 10000 6.17 220 12:27 13.04.2021
353 Clear 19 1021 45 10000 5.66 210 11:55 13.04.2021
354 Clear 20 1021 40 10000 5.66 210 11:29 13.04.2021
355 Clear 21 1020 40 10000 7.72 170 10:47 13.04.2021
356 Clear 21 1020 40 10000 9.26 180 10:21 13.04.2021
357 Clouds 21 1021 37 10000 6.69 190 09:56 13.04.2021
358 Clear 21 1020 37 10000 6.17 200 09:36 13.04.2021
359 Clear 21 1020 37 10000 7.2 200 08:54 13.04.2021
360 Clear 22 1020 35 10000 7.2 230 08:36 13.04.2021
361 Clear 22 1020 35 10000 7.2 230 08:18 13.04.2021
362 Clouds 21 1021 42 10000 7.72 200 07:35 13.04.2021
363 Clouds 20 1021 46 10000 7.2 190 06:31 13.04.2021
364 Clouds 19 1021 52 10000 7.2 200 04:45 13.04.2021
365 Clouds 13 1019 87 10000 2.57 50 01:38 13.04.2021
366 Clouds 12 1018 87 10000 2.06 30 00:18 13.04.2021
367 Clouds 13 1018 87 10000 0.51 110 23:42 12.04.2021
368 Clouds 13 1018 87 10000 0.51 110 23:20 12.04.2021
369 Clouds 13 1017 87 10000 2.06 200 22:38 12.04.2021
370 Clouds 13 1017 93 10000 0.51 200 21:56 12.04.2021
371 Drizzle 14 1017 77 10000 2.57 190 21:36 12.04.2021
372 Drizzle 14 1017 77 10000 2.57 190 21:18 12.04.2021
373 Clouds 13 1017 82 10000 2.57 190 20:38 12.04.2021
374 Clouds 14 1017 82 10000 2.57 190 20:20 12.04.2021
375 Clouds 14 1017 82 10000 2.57 190 20:20 12.04.2021
376 Clear 14 1016 71 10000 2.06 190 19:43 12.04.2021
377 Clear 14 1016 71 10000 2.06 190 19:22 12.04.2021
378 Clear 14 1016 67 10000 3.6 160 18:56 12.04.2021
379 Clear 15 1016 63 10000 5.66 190 18:37 12.04.2021
380 Clear 15 1016 63 10000 5.66 190 18:18 12.04.2021
381 Clear 15 1015 63 10000 7.2 190 17:42 12.04.2021
382 Clear 15 1015 63 10000 7.2 190 17:20 12.04.2021
383 Clear 16 1015 63 10000 5.66 200 16:43 12.04.2021
384 Clear 16 1015 63 10000 5.66 190 16:24 12.04.2021
385 Clear 17 1015 59 10000 8.75 190 15:47 12.04.2021
386 Clear 17 1015 59 10000 8.75 190 15:21 12.04.2021
387 Clear 17 1014 63 10000 8.23 190 14:49 12.04.2021
388 Clear 18 1013 63 10000 6.69 190 14:29 12.04.2021
389 Clear 18 1013 63 10000 7.2 200 13:43 12.04.2021
390 Clear 18 1013 68 10000 7.2 200 13:21 12.04.2021
391 Clear 18 1012 68 10000 8.23 200 12:44 12.04.2021
392 Clouds 19 1011 63 10000 8.23 210 12:23 12.04.2021
393 Clouds 19 1011 63 10000 8.23 230 11:51 12.04.2021
394 Clouds 20 1009 60 10000 9.26 220 10:54 12.04.2021
395 Clouds 20 1009 64 10000 9.26 220 10:28 12.04.2021
396 Clouds 21 1009 64 10000 9.77 210 09:59 12.04.2021
397 Clouds 21 1008 68 10000 8.75 210 09:40 12.04.2021
398 Clouds 21 1008 68 10000 11.32 210 08:59 12.04.2021
399 Clouds 21 1007 73 10000 10.29 210 08:27 12.04.2021
400 Clouds 22 1006 68 10000 9.26 210 07:31 12.04.2021
401 Clouds 21 1006 73 10000 8.75 210 06:47 12.04.2021
402 Clouds 21 1005 88 10000 7.72 210 05:50 12.04.2021
403 Clouds 20 1004 88 10000 5.14 210 03:58 12.04.2021
404 Drizzle 18 1000 94 10000 3.6 250 00:46 12.04.2021
405 Clouds 18 999 94 6000 3.6 220 00:23 12.04.2021
406 Clouds 18 998 94 5000 4.63 210 23:44 11.04.2021
407 Clouds 18 998 94 4000 6.17 210 23:23 11.04.2021
408 Clouds 18 997 94 6000 4.12 220 22:39 11.04.2021
409 Clouds 18 996 94 10000 2.57 230 22:20 11.04.2021
410 Clouds 19 996 82 10000 2.57 360 21:45 11.04.2021
411 Clouds 19 995 77 10000 4.12 60 21:25 11.04.2021
412 Clouds 20 995 77 10000 4.12 60 20:49 11.04.2021
413 Clouds 20 995 77 10000 4.12 60 20:25 11.04.2021
414 Clouds 20 995 68 10000 5.66 70 19:44 11.04.2021
415 Clouds 20 995 68 10000 5.66 70 19:21 11.04.2021
416 Clouds 20 996 72 10000 7.72 80 18:58 11.04.2021
417 Clouds 20 997 77 10000 6.17 80 18:40 11.04.2021
418 Clouds 19 997 77 10000 6.17 80 18:22 11.04.2021
419 Clouds 19 999 77 10000 7.72 90 17:43 11.04.2021
420 Clouds 19 999 77 10000 7.72 90 17:24 11.04.2021
421 Clouds 19 1001 77 10000 5.66 90 16:46 11.04.2021
422 Clouds 19 1001 77 10000 5.66 90 16:22 11.04.2021
423 Clouds 19 1003 64 10000 6.69 70 15:47 11.04.2021
424 Clouds 21 1003 64 10000 6.69 70 15:26 11.04.2021
425 Clouds 22 1001 64 10000 8.75 80 14:52 11.04.2021
426 Clouds 22 1001 64 10000 8.75 80 14:30 11.04.2021
427 Clear 22 1001 64 10000 9.77 70 13:47 11.04.2021
428 Clear 22 1001 64 10000 9.77 70 13:28 11.04.2021
429 Clear 22 1001 64 10000 11.32 70 12:44 11.04.2021
430 Clear 22 1002 68 10000 9.77 70 12:20 11.04.2021
431 Clear 22 1003 64 10000 7.72 70 11:48 11.04.2021
432 Clear 22 1003 64 10000 7.72 70 11:22 11.04.2021
433 Clear 22 1003 68 10000 8.75 80 10:47 11.04.2021
434 Clear 22 1004 64 10000 9.77 80 10:26 11.04.2021
435 Clear 23 1004 64 10000 9.26 80 09:51 11.04.2021
436 Clear 22 1004 73 10000 8.75 80 09:30 11.04.2021
437 Clouds 20 1005 73 10000 8.23 70 08:40 11.04.2021
438 Clouds 19 1006 77 10000 8.75 70 07:57 11.04.2021
439 Clouds 18 1007 82 10000 8.23 70 07:21 11.04.2021
440 Clouds 17 1009 88 5000 6.17 70 05:55 11.04.2021
441 Clouds 17 1010 88 9000 7.72 70 05:23 11.04.2021
442 Clouds 17 1010 88 9000 6.17 70 04:51 11.04.2021
443 Clouds 17 1011 88 6000 8.75 70 04:33 11.04.2021
444 Clouds 18 1012 77 10000 7.2 70 01:27 11.04.2021
445 Rain 18 1012 77 10000 6.69 70 00:32 11.04.2021
446 Clouds 17 1013 77 10000 5.14 70 23:46 10.04.2021
447 Clouds 18 1012 63 10000 5.66 80 22:57 10.04.2021
448 Clouds 19 1013 52 10000 6.17 70 22:30 10.04.2021
449 Clouds 20 1013 46 10000 8.23 60 21:54 10.04.2021
450 Clouds 21 1013 40 10000 3.09 60 21:32 10.04.2021
451 Clouds 22 1013 38 10000 8.23 70 20:57 10.04.2021
452 Clouds 23 1013 35 10000 7.2 50 20:37 10.04.2021
453 Clouds 23 1013 33 10000 6.17 60 20:19 10.04.2021
454 Clouds 24 1014 33 10000 7.72 60 19:42 10.04.2021
455 Clouds 24 1014 33 10000 7.72 60 19:24 10.04.2021
456 Clouds 25 1014 29 10000 4.12 80 18:42 10.04.2021
457 Clouds 25 1014 29 10000 4.12 80 18:24 10.04.2021
458 Clear 25 1015 29 10000 5.14 80 17:36 10.04.2021
459 Clear 25 1015 29 10000 7.2 70 16:50 10.04.2021
460 Clear 25 1015 29 10000 7.2 70 16:25 10.04.2021
461 Clear 25 1015 29 10000 7.72 90 15:52 10.04.2021
462 Clear 25 1015 29 10000 7.72 90 14:57 10.04.2021
463 Clear 25 1015 31 10000 5.14 100 14:37 10.04.2021
464 Clear 25 1016 31 10000 4.12 90 13:58 10.04.2021
465 Clear 25 1015 33 10000 5.14 90 13:36 10.04.2021
466 Clear 26 1015 31 10000 5.66 70 12:43 10.04.2021
467 Clear 26 1015 31 10000 5.66 70 12:20 10.04.2021
468 Clear 27 1015 29 10000 6.69 90 11:45 10.04.2021
469 Clear 27 1015 29 10000 7.2 80 11:22 10.04.2021
470 Clear 27 1015 32 10000 8.23 90 10:51 10.04.2021
471 Clear 27 1015 30 10000 8.75 100 10:30 10.04.2021
472 Clear 28 1015 30 10000 9.77 80 09:44 10.04.2021
473 Clear 28 1015 30 10000 9.77 80 09:19 10.04.2021
474 Clear 28 1015 30 10000 9.77 80 09:18 10.04.2021
475 Clear 27 1016 30 10000 9.77 70 08:34 10.04.2021
476 Clear 27 1017 32 10000 8.75 80 07:56 10.04.2021
477 Clear 27 1017 32 10000 9.77 80 07:26 10.04.2021
478 Clouds 26 1018 38 10000 8.23 70 06:29 10.04.2021
479 Rain 24 1019 41 10000 10.29 90 05:34 10.04.2021
480 Rain 22 1020 56 10000 9.77 80 03:41 10.04.2021
481 Clear 20 1019 63 10000 9.77 90 02:42 10.04.2021
482 Rain 18 1019 67 10000 9.26 80 01:27 10.04.2021
483 Clear 17 1018 72 10000 11.32 90 00:32 10.04.2021
484 Clear 17 1018 72 10000 11.32 90 00:32 10.04.2021
485 Rain 17 1018 72 10000 9.26 80 23:53 09.04.2021
486 Clear 18 1018 72 10000 9.77 90 23:30 09.04.2021
487 Rain 18 1018 68 10000 9.26 100 22:53 09.04.2021
488 Clear 18 1018 68 10000 9.26 100 22:34 09.04.2021
489 Clear 18 1018 72 10000 8.23 90 21:40 09.04.2021
490 Rain 18 1017 72 10000 8.23 100 21:22 09.04.2021
491 Clear 18 1017 72 10000 7.72 100 20:46 09.04.2021
492 Clear 18 1017 72 10000 8.75 100 20:24 09.04.2021
493 Clear 18 1017 72 10000 8.23 100 19:58 09.04.2021
494 Clear 18 1017 72 10000 8.23 100 19:40 09.04.2021
495 Clear 18 1017 72 10000 8.75 100 19:22 09.04.2021
496 Clear 18 1017 72 10000 8.23 100 18:42 09.04.2021
497 Clear 19 1018 68 10000 8.75 100 18:23 09.04.2021
498 Clear 19 1017 68 10000 9.77 110 17:44 09.04.2021
499 Clear 19 1018 68 10000 10.29 100 17:25 09.04.2021
500 Clear 19 1018 68 10000 8.75 110 16:41 09.04.2021
501 Clear 20 1018 64 10000 6.69 110 16:20 09.04.2021
502 Clear 20 1018 64 10000 6.69 120 15:42 09.04.2021
503 Clear 20 1018 64 10000 6.69 120 15:23 09.04.2021
504 Clear 21 1018 60 10000 6.17 130 14:46 09.04.2021
505 Clear 22 1018 60 10000 5.14 140 14:20 09.04.2021
506 Clear 23 1018 49 10000 4.12 150 13:43 09.04.2021
507 Clear 23 1018 49 10000 4.12 150 13:22 09.04.2021
508 Clear 23 1017 49 10000 4.63 130 12:47 09.04.2021
509 Clear 25 1017 44 10000 5.66 110 11:57 09.04.2021
510 Clear 25 1016 44 10000 9.26 110 11:28 09.04.2021
511 Clear 26 1016 41 10000 7.72 110 10:53 09.04.2021
512 Clear 26 1016 41 10000 8.75 120 10:34 09.04.2021
513 Clear 26 1016 41 10000 10.29 130 09:55 09.04.2021
514 Clouds 26 1016 39 10000 9.26 110 09:27 09.04.2021
515 Clouds 26 1016 41 10000 8.23 110 08:54 09.04.2021
516 Clouds 26 1016 41 10000 8.75 110 08:23 09.04.2021
517 Clouds 26 1017 47 10000 7.72 100 07:21 09.04.2021
518 Clouds 24 1018 53 10000 8.75 90 06:21 09.04.2021
519 Clouds 21 1019 64 10000 7.2 120 03:56 09.04.2021
520 Clouds 20 1019 68 10000 6.69 120 03:30 09.04.2021
521 Clouds 17 1017 72 10000 5.66 120 00:38 09.04.2021
522 Clouds 17 1018 72 10000 5.14 130 00:20 09.04.2021
523 Clouds 17 1017 72 10000 3.6 150 23:31 08.04.2021
524 Clouds 17 1017 72 10000 2.57 160 22:47 08.04.2021
525 Clouds 17 1017 67 10000 2.57 180 22:27 08.04.2021
526 Clouds 17 1017 67 10000 5.66 130 21:58 08.04.2021
527 Clouds 18 1017 63 10000 4.12 170 21:38 08.04.2021
528 Clouds 18 1017 63 10000 4.12 170 21:20 08.04.2021
529 Clouds 18 1017 63 10000 7.72 120 20:53 08.04.2021
530 Clouds 18 1017 63 10000 6.69 130 20:34 08.04.2021
531 Clouds 18 1017 63 10000 6.17 110 19:57 08.04.2021
532 Clear 18 1017 68 10000 5.66 140 19:24 08.04.2021
533 Clouds 18 1017 63 10000 6.17 130 18:56 08.04.2021
534 Clouds 18 1017 63 10000 5.66 120 18:24 08.04.2021
535 Clouds 18 1017 63 10000 7.72 140 17:52 08.04.2021
536 Clouds 18 1017 63 10000 6.69 140 17:26 08.04.2021
537 Clouds 19 1017 63 10000 6.17 130 16:57 08.04.2021
538 Clouds 19 1017 63 10000 5.14 150 16:36 08.04.2021
539 Clouds 19 1017 63 10000 5.14 150 16:36 08.04.2021
540 Clouds 19 1017 63 10000 5.14 150 15:55 08.04.2021
541 Clouds 19 1017 63 10000 7.72 140 15:36 08.04.2021
542 Clouds 20 1017 63 10000 7.72 140 15:18 08.04.2021
543 Clear 20 1016 60 10000 6.17 140 14:39 08.04.2021
544 Clear 20 1016 60 10000 6.17 140 14:19 08.04.2021
545 Clouds 21 1016 56 10000 6.69 150 13:43 08.04.2021
546 Clear 22 1015 49 10000 7.72 160 13:23 08.04.2021
547 Clear 22 1015 49 10000 7.2 150 12:45 08.04.2021
548 Clear 23 1014 46 10000 6.69 150 12:26 08.04.2021
549 Clear 23 1014 43 10000 6.69 130 11:47 08.04.2021
550 Clear 25 1013 41 10000 6.69 130 11:20 08.04.2021
551 Clear 25 1013 44 10000 6.17 140 10:43 08.04.2021
552 Clear 25 1013 44 10000 6.17 140 10:24 08.04.2021
553 Clear 25 1013 41 10000 7.2 120 09:43 08.04.2021
554 Clear 25 1013 41 10000 7.72 130 08:51 08.04.2021
555 Clear 25 1013 38 10000 7.72 130 08:30 08.04.2021
556 Clear 25 1013 44 10000 7.72 130 07:59 08.04.2021
557 Clouds 25 1013 44 10000 7.72 140 07:39 08.04.2021
558 Clear 23 1014 53 10000 7.2 170 04:44 08.04.2021
559 Clear 18 1013 63 10000 3.6 140 01:21 08.04.2021
560 Clear 18 1013 63 10000 3.6 140 01:21 08.04.2021
561 Clear 18 1013 63 10000 5.66 140 00:29 08.04.2021
562 Clouds 18 1013 68 10000 8.23 150 23:45 07.04.2021
563 Clouds 18 1013 88 10000 3.09 170 23:22 07.04.2021
564 Clouds 19 1012 94 10000 3.09 160 22:54 07.04.2021
565 Clear 19 1012 94 10000 2.57 170 22:35 07.04.2021
566 Clear 19 1013 88 10000 2.57 150 21:47 07.04.2021
567 Clouds 19 1013 88 10000 1.54 210 21:26 07.04.2021
568 Clear 20 1013 83 10000 3.09 200 20:47 07.04.2021
569 Clouds 20 1013 83 10000 3.6 210 20:26 07.04.2021
570 Clouds 20 1013 83 10000 4.12 190 19:46 07.04.2021
571 Clouds 20 1013 83 10000 4.12 200 19:26 07.04.2021
572 Clouds 20 1013 83 10000 2.57 190 18:49 07.04.2021
573 Clouds 20 1013 83 10000 3.6 210 18:21 07.04.2021
574 Clouds 21 1014 78 10000 3.6 210 17:56 07.04.2021
575 Clouds 21 1013 78 10000 4.12 210 17:37 07.04.2021
576 Clouds 21 1013 83 10000 4.63 200 16:58 07.04.2021
577 Clouds 21 1013 83 10000 4.12 190 16:38 07.04.2021
578 Clouds 21 1013 83 10000 4.12 190 16:19 07.04.2021
579 Clouds 21 1013 83 10000 4.12 190 16:19 07.04.2021
580 Clouds 21 1013 73 10000 4.63 210 15:40 07.04.2021
581 Clouds 22 1013 73 10000 4.63 190 14:58 07.04.2021
582 Clouds 22 1013 78 10000 4.63 220 14:32 07.04.2021
583 Clouds 22 1012 73 10000 3.6 210 13:53 07.04.2021
584 Clouds 22 1012 73 10000 3.6 210 13:53 07.04.2021
585 Clouds 22 1012 73 10000 3.6 210 13:27 07.04.2021
586 Clouds 22 1012 68 10000 3.09 210 12:56 07.04.2021
587 Clear 23 1012 64 10000 3.09 220 12:25 07.04.2021
588 Clear 23 1012 64 10000 4.63 210 11:56 07.04.2021
589 Clear 23 1012 64 10000 4.12 200 11:28 07.04.2021
590 Clear 23 1013 60 10000 4.12 250 10:53 07.04.2021
591 Clear 23 1013 68 10000 5.14 250 10:21 07.04.2021
592 Clear 23 1012 64 10000 6.69 250 09:44 07.04.2021
593 Clear 23 1012 60 10000 5.66 250 09:25 07.04.2021
594 Clear 24 1013 53 10000 3.09 280 08:42 07.04.2021
595 Clear 25 1013 53 10000 3.09 280 08:21 07.04.2021
596 Clear 25 1013 50 10000 2.57 230 07:43 07.04.2021
597 Clear 26 1013 50 10000 2.57 230 07:24 07.04.2021
598 Clear 26 1013 57 10000 2.57 330 06:27 07.04.2021
599 Clear 23 1014 64 10000 2.06 70 04:23 07.04.2021
600 Clear 19 1014 82 10000 2.06 90 00:21 07.04.2021
601 Clear 19 1014 88 10000 2.57 30 23:46 06.04.2021
602 Clear 19 1013 82 10000 2.57 310 23:21 06.04.2021
603 Clear 20 1013 82 10000 0.51 90 22:40 06.04.2021
604 Clear 20 1013 82 10000 0.51 90 22:19 06.04.2021
605 Clear 20 1014 82 10000 1.23 153 21:41 06.04.2021
606 Clear 20 1014 82 10000 1.62 181 21:22 06.04.2021
607 Clouds 20 1014 82 10000 1.54 20 20:53 06.04.2021
608 Clouds 20 1014 83 10000 1.31 226 20:24 06.04.2021
609 Clouds 20 1014 77 10000 1.54 20 19:52 06.04.2021
610 Clouds 20 1014 83 10000 2.06 20 19:34 06.04.2021
611 Clouds 20 1014 77 10000 2.57 70 18:52 06.04.2021
612 Clouds 21 1014 77 10000 2.06 90 18:33 06.04.2021
613 Clouds 21 1015 77 10000 2.06 40 17:57 06.04.2021
614 Clouds 21 1015 77 10000 2.57 70 17:38 06.04.2021
615 Clouds 21 1015 77 10000 2.57 70 17:18 06.04.2021
616 Clouds 21 1015 77 10000 0.51 320 16:41 06.04.2021
617 Clouds 21 1015 77 10000 0.51 230 15:49 06.04.2021
618 Clouds 21 1015 78 10000 2.06 280 15:24 06.04.2021
619 Clouds 22 1014 73 10000 2.57 270 14:40 06.04.2021
620 Clouds 22 1014 73 10000 2.57 270 14:21 06.04.2021
621 Clouds 22 1014 73 10000 2.57 260 13:46 06.04.2021
622 Clouds 22 1014 73 10000 2.57 250 13:25 06.04.2021
623 Clouds 23 1014 68 10000 4.12 260 12:43 06.04.2021
624 Clouds 23 1014 68 10000 4.12 270 12:24 06.04.2021
625 Clouds 23 1014 68 10000 4.12 270 11:54 06.04.2021
626 Clouds 23 1014 68 10000 5.14 260 11:36 06.04.2021
627 Clouds 23 1014 68 10000 5.14 260 11:18 06.04.2021
628 Clear 24 1013 57 10000 4.63 260 10:38 06.04.2021
629 Clear 24 1013 57 10000 4.63 260 10:19 06.04.2021
630 Clear 25 1012 47 10000 5.66 250 09:42 06.04.2021
631 Clear 26 1012 44 10000 3.6 270 08:48 06.04.2021
632 Clouds 26 1012 44 10000 4.63 270 08:19 06.04.2021
633 Clouds 27 1013 44 10000 2.57 300 06:56 06.04.2021
634 Clouds 26 1013 47 10000 2.57 270 06:23 06.04.2021
635 Clouds 23 1014 68 10000 3.09 10 03:43 06.04.2021
636 Clouds 13 1013 94 10000 2.57 10 00:47 06.04.2021
637 Clouds 13 1013 94 10000 2.57 20 00:21 06.04.2021
638 Clouds 14 1013 100 10000 2.57 30 23:48 05.04.2021
639 Clouds 14 1013 94 10000 2.57 40 23:24 05.04.2021
640 Clouds 14 1012 100 10000 2.57 10 22:53 05.04.2021
641 Clouds 14 1012 100 10000 2.57 10 22:32 05.04.2021
642 Clouds 15 1012 94 10000 2.57 10 21:45 05.04.2021
643 Clouds 15 1012 94 10000 1.41 309 21:23 05.04.2021
644 Clouds 16 1012 94 10000 1.41 309 20:48 05.04.2021
645 Clouds 16 1012 94 10000 2.57 50 20:30 05.04.2021
646 Clouds 16 1013 94 10000 2.06 30 19:44 05.04.2021
647 Clouds 17 1013 94 10000 2.06 30 19:25 05.04.2021
648 Clouds 17 1013 88 10000 2.06 70 18:55 05.04.2021
649 Clouds 17 1013 94 10000 2.57 20 18:37 05.04.2021
650 Clouds 17 1013 94 10000 2.57 20 18:18 05.04.2021
651 Clouds 18 1013 88 10000 2.57 290 17:45 05.04.2021
652 Clouds 18 1013 88 10000 2.57 290 17:21 05.04.2021
653 Clouds 18 1013 88 10000 2.57 290 17:21 05.04.2021
654 Clouds 18 1013 82 10000 2.06 280 16:44 05.04.2021
655 Clouds 18 1013 82 10000 2.06 280 16:21 05.04.2021
656 Clouds 19 1013 77 10000 2.06 280 15:54 05.04.2021
657 Clouds 20 1013 73 10000 1.54 270 15:30 05.04.2021
658 Clouds 21 1013 73 10000 2.57 250 14:54 05.04.2021
659 Clouds 21 1013 68 10000 3.09 250 14:35 05.04.2021
660 Clouds 21 1013 68 10000 3.6 240 13:32 05.04.2021
661 Clouds 22 1013 64 10000 4.63 240 12:57 05.04.2021
662 Clouds 22 1013 68 10000 4.12 230 12:37 05.04.2021
663 Clouds 23 1013 68 10000 4.12 230 12:19 05.04.2021
664 Clouds 23 1012 64 10000 4.63 240 11:42 05.04.2021
665 Clouds 24 1012 64 10000 4.63 240 11:22 05.04.2021
666 Clouds 25 1012 61 10000 4.63 250 10:45 05.04.2021
667 Clouds 25 1012 65 10000 4.63 230 10:26 05.04.2021
668 Clouds 25 1012 61 10000 4.63 250 09:47 05.04.2021
669 Clouds 26 1012 57 10000 4.63 270 09:23 05.04.2021
670 Clouds 26 1012 61 10000 5.14 240 08:45 05.04.2021
671 Clouds 27 1012 61 10000 5.14 240 08:25 05.04.2021
672 Clouds 27 1012 54 10000 2.57 250 07:36 05.04.2021
673 Clouds 26 1013 61 10000 4.12 250 06:20 05.04.2021
674 Clouds 17 1013 94 10000 2.06 30 01:41 05.04.2021
675 Clouds 17 1013 94 10000 2.06 10 00:49 05.04.2021
676 Clouds 17 1013 94 10000 2.34 209 23:51 04.04.2021
677 Clear 17 1013 94 10000 1.54 80 23:24 04.04.2021
678 Clear 17 1012 94 10000 2.57 80 22:51 04.04.2021
679 Clear 17 1012 88 10000 2.06 70 22:30 04.04.2021
680 Clear 18 1013 82 10000 0.51 80 21:28 04.04.2021
681 Clear 18 1013 88 10000 3.09 200 20:57 04.04.2021
682 Clear 18 1013 82 10000 2.57 200 20:30 04.04.2021
683 Clear 18 1013 82 10000 2.57 200 20:30 04.04.2021
684 Clear 18 1013 82 10000 2.57 200 20:30 04.04.2021
685 Clear 19 1012 82 10000 2.57 220 19:57 04.04.2021
686 Clear 19 1013 82 10000 2.57 210 19:36 04.04.2021
687 Clear 20 1013 82 10000 2.57 180 19:18 04.04.2021
688 Clear 20 1013 73 10000 3.09 210 18:42 04.04.2021
689 Clear 20 1013 73 10000 3.09 210 18:21 04.04.2021
690 Clear 21 1013 68 10000 3.09 210 17:44 04.04.2021
691 Clear 21 1013 64 10000 3.6 210 17:23 04.04.2021
692 Clear 22 1013 60 10000 4.63 210 16:43 04.04.2021
693 Clear 22 1013 60 10000 4.63 210 16:18 04.04.2021
694 Clear 23 1014 56 10000 4.63 210 15:34 04.04.2021
695 Clear 23 1014 53 10000 4.63 210 14:46 04.04.2021
696 Clear 24 1014 53 10000 5.14 210 14:27 04.04.2021
697 Clear 24 1013 50 10000 5.66 210 13:47 04.04.2021
698 Clear 25 1013 50 10000 5.66 220 13:23 04.04.2021
699 Clear 25 1012 54 10000 5.66 250 12:41 04.04.2021
700 Clear 26 1012 54 10000 5.66 250 12:23 04.04.2021
701 Clear 28 1011 35 10000 4.63 110 11:42 04.04.2021
702 Clear 29 1011 35 10000 4.63 110 11:23 04.04.2021
703 Clear 30 1011 33 10000 3.6 120 10:43 04.04.2021
704 Clear 31 1011 35 10000 5.66 90 09:54 04.04.2021
705 Clear 31 1011 33 10000 4.63 100 09:25 04.04.2021
706 Clear 31 1011 37 10000 7.2 90 08:53 04.04.2021
707 Clear 30 1011 37 10000 7.2 100 08:35 04.04.2021
708 Clear 30 1011 37 10000 7.2 100 08:35 04.04.2021
709 Clear 30 1011 39 10000 8.75 100 07:50 04.04.2021
710 Clear 28 1013 44 10000 8.75 110 06:36 04.04.2021
711 Clear 27 1014 50 10000 6.17 110 05:33 04.04.2021
712 Rain 19 1016 72 10000 2.57 160 01:28 04.04.2021
713 Clear 18 1016 77 10000 4.12 140 00:20 04.04.2021
714 Clear 18 1016 82 10000 1.03 140 23:47 03.04.2021
715 Clear 18 1015 77 10000 2.57 150 23:23 03.04.2021
716 Clear 18 1015 82 10000 6.69 180 22:51 03.04.2021
717 Clear 19 1016 82 10000 4.63 180 22:21 03.04.2021
718 Clear 19 1016 88 10000 3.09 210 21:47 03.04.2021
719 Clear 19 1016 82 10000 4.12 130 21:24 03.04.2021
720 Clear 19 1017 88 10000 1.03 300 20:49 03.04.2021
721 Clear 19 1017 88 10000 1.03 300 20:28 03.04.2021
722 Rain 20 1016 73 10000 2.57 90 19:51 03.04.2021
723 Clear 21 1016 68 10000 4.63 110 19:25 03.04.2021
724 Clear 21 1016 68 10000 2.57 100 18:51 03.04.2021
725 Clear 21 1016 64 10000 2.57 150 18:32 03.04.2021
726 Clear 21 1015 68 10000 3.6 120 17:53 03.04.2021
727 Clear 21 1015 73 10000 3.09 60 17:25 03.04.2021
728 Clouds 21 1013 73 10000 9.77 150 16:51 03.04.2021
729 Clouds 22 1013 73 10000 9.77 150 16:22 03.04.2021
730 Clear 23 1016 57 10000 2.57 140 15:50 03.04.2021
731 Clear 23 1016 57 10000 2.57 140 15:23 03.04.2021
732 Clear 24 1015 57 10000 3.09 120 14:44 03.04.2021
733 Clear 24 1015 57 10000 3.09 120 14:24 03.04.2021
734 Rain 24 1015 57 10000 1.54 90 13:51 03.04.2021
735 Clear 24 1015 60 10000 3.6 110 13:24 03.04.2021
736 Clouds 24 1014 64 10000 4.63 120 12:56 03.04.2021
737 Clear 25 1015 57 10000 1.03 110 12:32 03.04.2021
738 Clouds 26 1013 53 10000 3.6 100 11:39 03.04.2021
739 Clouds 26 1013 53 10000 3.6 100 11:19 03.04.2021
740 Clouds 27 1013 50 10000 5.14 90 10:43 03.04.2021
741 Clouds 27 1013 50 10000 5.14 90 10:22 03.04.2021
742 Clouds 28 1013 47 10000 5.66 70 09:29 03.04.2021
743 Clear 29 1013 44 10000 6.17 80 08:58 03.04.2021
744 Rain 29 1013 45 10000 4.12 100 08:31 03.04.2021
745 Clear 30 1013 45 10000 4.63 90 07:29 03.04.2021
746 Clouds 30 1014 40 10000 4.12 40 06:50 03.04.2021
747 Clear 25 1016 60 10000 6.69 80 03:53 03.04.2021
748 Clouds 23 1016 64 10000 4.12 150 02:52 03.04.2021
749 Clouds 22 1017 68 10000 3.6 100 02:26 03.04.2021
750 Clear 19 1015 82 10000 2.57 130 00:29 03.04.2021
751 Clear 20 1015 73 10000 3.09 120 23:53 02.04.2021
752 Clear 19 1014 77 10000 5.66 120 23:26 02.04.2021
753 Clear 19 1014 82 10000 4.12 160 22:55 02.04.2021
754 Clear 18 1014 88 10000 3.6 190 22:36 02.04.2021
755 Rain 18 1014 88 10000 3.09 210 21:46 02.04.2021
756 Rain 19 1014 88 10000 3.09 210 21:26 02.04.2021
757 Clouds 19 1013 88 10000 4.12 180 20:54 02.04.2021
758 Clouds 19 1014 88 10000 3.6 210 20:35 02.04.2021
759 Clouds 19 1014 83 10000 5.66 190 19:59 02.04.2021
760 Clouds 20 1014 83 10000 5.14 190 19:39 02.04.2021
761 Rain 20 1014 83 10000 5.14 190 19:21 02.04.2021
762 Rain 20 1014 83 10000 5.14 210 18:41 02.04.2021
763 Rain 20 1014 83 10000 5.14 210 18:41 02.04.2021
764 Rain 21 1014 83 10000 5.14 210 18:20 02.04.2021
765 Rain 21 1013 88 10000 4.12 220 17:40 02.04.2021
766 Rain 21 1013 83 10000 3.6 210 16:53 02.04.2021
767 Clouds 22 1013 83 10000 3.6 210 16:22 02.04.2021
768 Rain 22 1013 88 10000 5.14 210 15:42 02.04.2021
769 Rain 23 1013 78 10000 4.63 220 14:57 02.04.2021
770 Rain 23 1013 83 10000 5.14 210 14:33 02.04.2021
771 Clear 24 1012 65 10000 5.66 260 13:44 02.04.2021
772 Clouds 24 1011 78 10000 5.14 240 13:25 02.04.2021
773 Rain 27 1010 42 10000 3.6 280 12:41 02.04.2021
774 Clear 28 1010 42 10000 3.6 280 12:20 02.04.2021
775 Rain 29 1010 45 10000 4.12 270 11:56 02.04.2021
776 Rain 30 1010 37 10000 3.6 260 11:21 02.04.2021
777 Rain 30 1009 35 10000 1.03 240 10:51 02.04.2021
778 Clear 31 1009 40 10000 2.06 290 10:30 02.04.2021
779 Rain 30 1010 42 10000 2.06 290 09:53 02.04.2021
780 Rain 30 1010 45 10000 3.09 280 09:27 02.04.2021
781 Rain 30 1010 51 10000 4.63 280 08:58 02.04.2021
782 Rain 30 1010 48 10000 4.12 250 08:33 02.04.2021
783 Rain 29 1011 39 10000 4.12 260 07:31 02.04.2021
784 Rain 30 1011 45 10000 3.6 250 06:53 02.04.2021
785 Rain 29 1011 51 10000 4.12 260 05:57 02.04.2021
786 Clear 23 1010 60 10000 2.57 340 02:45 02.04.2021
787 Rain 17 1009 88 10000 1.03 40 00:53 02.04.2021
788 Rain 17 1009 82 10000 1.54 80 00:23 02.04.2021
789 Clear 17 1008 82 10000 2.06 10 23:40 01.04.2021
790 Clear 18 1008 82 10000 2.57 100 22:59 01.04.2021
791 Rain 18 1008 82 10000 2.57 100 22:20 01.04.2021
792 Clear 18 1008 77 10000 2.57 30 21:51 01.04.2021
793 Clear 19 1007 77 10000 1.66 128 21:28 01.04.2021
794 Clear 19 1007 77 10000 2.57 290 20:49 01.04.2021
795 Clear 20 1007 77 10000 2.06 175 20:26 01.04.2021
796 Clear 21 1007 68 10000 3.09 270 19:56 01.04.2021
797 Clear 21 1006 68 10000 2.06 320 19:35 01.04.2021
798 Clear 21 1007 64 10000 2.06 165 18:46 01.04.2021
799 Clear 22 1007 60 10000 2.57 160 18:19 01.04.2021
800 Clear 22 1007 53 10000 3.09 170 17:52 01.04.2021
801 Clear 23 1007 53 10000 3.6 210 17:33 01.04.2021
802 Clear 24 1007 57 10000 3.09 210 16:53 01.04.2021
803 Clear 24 1008 57 10000 2.57 190 16:30 01.04.2021
804 Clear 25 1008 50 10000 3.6 190 15:47 01.04.2021
805 Clear 26 1008 50 10000 3.6 200 15:20 01.04.2021
806 Clear 26 1008 50 10000 4.12 200 14:46 01.04.2021
807 Clear 27 1008 44 10000 3.6 200 14:26 01.04.2021
808 Clear 27 1008 44 10000 3.6 160 13:56 01.04.2021
809 Clear 28 1007 39 10000 3.6 160 13:31 01.04.2021
810 Clear 29 1007 39 10000 5.14 160 12:54 01.04.2021
811 Clear 30 1007 33 10000 7.2 180 12:32 01.04.2021
812 Clear 31 1006 31 10000 8.23 180 11:50 01.04.2021
813 Clear 32 1006 31 10000 8.23 180 11:25 01.04.2021
814 Clear 32 1007 29 10000 8.75 190 10:58 01.04.2021
815 Clear 33 1007 29 10000 5.66 160 10:40 01.04.2021
816 Clear 33 1007 29 10000 5.66 160 10:21 01.04.2021
817 Clear 33 1007 27 10000 5.66 190 09:30 01.04.2021
818 Clear 33 1007 27 10000 5.66 190 09:30 01.04.2021
819 Clear 33 1007 29 10000 4.63 160 08:40 01.04.2021
820 Rain 33 1007 29 10000 4.63 160 08:19 01.04.2021
821 Rain 31 1008 31 10000 3.09 120 07:21 01.04.2021
822 Clear 31 1009 37 10000 3.09 90 06:50 01.04.2021
823 Rain 24 1011 57 10000 6.17 100 03:52 01.04.2021
824 Clear 22 1012 64 10000 5.14 130 02:29 01.04.2021
825 Rain 21 1012 68 10000 4.63 180 23:51 31.03.2021
826 Rain 21 1012 68 10000 4.63 180 23:32 31.03.2021
827 Rain 21 1012 68 10000 4.12 180 22:42 31.03.2021
828 Rain 21 1012 68 10000 4.12 180 22:21 31.03.2021
829 Rain 22 1012 64 10000 5.66 150 21:47 31.03.2021
830 Rain 22 1012 64 10000 5.14 190 21:24 31.03.2021
831 Rain 22 1012 64 10000 4.63 130 20:58 31.03.2021
832 Clear 22 1013 64 10000 4.12 120 20:40 31.03.2021
833 Rain 22 1013 64 10000 4.12 120 20:19 31.03.2021
834 Clear 22 1013 64 10000 5.66 100 19:41 31.03.2021
835 Clear 22 1013 64 10000 5.66 100 19:19 31.03.2021
836 Clear 22 1013 64 10000 5.66 100 19:19 31.03.2021
837 Rain 22 1013 73 10000 4.12 160 18:51 31.03.2021
838 Clear 22 1013 78 10000 4.12 180 18:22 31.03.2021
839 Clear 22 1014 83 10000 2.57 220 17:37 31.03.2021
840 Clear 22 1014 83 10000 2.57 220 17:18 31.03.2021
841 Rain 22 1014 78 10000 3.6 200 16:49 31.03.2021
842 Rain 22 1014 78 10000 3.6 200 16:49 31.03.2021
843 Clear 22 1014 83 10000 3.6 210 16:29 31.03.2021
844 Rain 22 1014 83 9000 4.12 200 15:51 31.03.2021
845 Clear 22 1014 73 10000 4.63 200 15:20 31.03.2021
846 Clear 23 1014 73 10000 4.12 210 14:46 31.03.2021
847 Clouds 23 1014 73 10000 6.17 190 14:24 31.03.2021
848 Clouds 23 1014 73 10000 6.17 190 14:24 31.03.2021
849 Clouds 23 1014 73 10000 6.17 190 14:24 31.03.2021
850 Clear 23 1014 73 10000 4.63 210 13:43 31.03.2021
851 Clear 23 1014 73 10000 5.14 200 13:19 31.03.2021
852 Clouds 23 1013 73 10000 6.69 200 12:37 31.03.2021
853 Clouds 23 1013 73 10000 6.69 200 12:18 31.03.2021
854 Clouds 23 1013 83 10000 6.17 210 11:22 31.03.2021
855 Clouds 24 1013 61 10000 5.66 220 10:48 31.03.2021
856 Clear 25 1013 50 10000 5.14 190 10:27 31.03.2021
857 Clear 25 1013 50 10000 6.17 200 09:45 31.03.2021
858 Clear 26 1013 47 10000 6.69 190 09:26 31.03.2021
859 Clear 25 1013 53 10000 8.23 200 08:41 31.03.2021
860 Clear 25 1013 53 10000 8.23 200 08:21 31.03.2021
861 Clear 24 1013 64 10000 5.66 230 07:19 31.03.2021
862 Clouds 24 1014 69 10000 4.12 150 04:34 31.03.2021
863 Clear 21 1015 88 10000 3.09 230 02:32 31.03.2021
864 Clouds 20 1014 88 10000 2.33 152 00:54 31.03.2021
865 Clear 20 1014 88 10000 0.51 240 00:22 31.03.2021
866 Clouds 20 1014 88 10000 2.27 164 23:54 30.03.2021
867 Clear 20 1014 83 10000 2.57 200 23:19 30.03.2021
868 Clear 20 1014 83 10000 2.57 170 22:47 30.03.2021
869 Clear 20 1014 83 10000 4.63 190 22:29 30.03.2021
870 Clear 20 1014 83 10000 4.12 180 21:55 30.03.2021
871 Clear 20 1014 83 10000 3.6 170 21:24 30.03.2021
872 Clear 20 1014 83 10000 4.63 180 20:58 30.03.2021
873 Clear 20 1014 88 10000 5.14 190 20:30 30.03.2021
874 Clear 20 1014 88 10000 5.14 190 19:52 30.03.2021
875 Clear 20 1014 88 10000 5.14 190 19:29 30.03.2021
876 Clear 20 1014 88 10000 4.12 190 18:47 30.03.2021
877 Clear 21 1014 83 10000 4.12 210 18:24 30.03.2021
878 Clear 21 1015 83 10000 3.6 210 17:42 30.03.2021
879 Clear 21 1015 83 10000 3.6 210 17:24 30.03.2021
880 Clear 21 1015 83 10000 3.6 200 16:46 30.03.2021
881 Clear 21 1015 83 10000 3.6 200 16:25 30.03.2021
882 Clear 22 1015 78 10000 4.63 210 15:22 30.03.2021
883 Clear 22 1014 73 10000 4.12 220 14:59 30.03.2021
884 Clear 22 1014 73 10000 3.6 220 14:40 30.03.2021
885 Clear 22 1014 73 10000 3.6 220 14:19 30.03.2021
886 Clear 23 1014 69 10000 3.6 220 13:42 30.03.2021
887 Clear 23 1014 73 10000 4.12 240 12:58 30.03.2021
888 Clear 24 1014 65 10000 4.63 260 12:39 30.03.2021
889 Clear 24 1014 65 10000 4.63 260 12:19 30.03.2021
890 Clear 26 1014 47 10000 4.63 250 11:24 30.03.2021
891 Clear 28 1014 54 10000 4.63 260 10:59 30.03.2021
892 Clear 29 1014 51 10000 4.12 270 10:37 30.03.2021
893 Clear 28 1014 51 10000 4.12 270 10:18 30.03.2021
894 Clear 29 1013 51 10000 4.12 250 09:38 30.03.2021
895 Clear 29 1014 48 10000 4.12 270 09:20 30.03.2021
896 Clear 29 1014 51 10000 5.14 270 08:39 30.03.2021
897 Clouds 29 1014 51 10000 5.14 280 07:53 30.03.2021
898 Clouds 29 1014 51 10000 5.14 290 07:22 30.03.2021
899 Clouds 29 1015 61 10000 4.12 280 05:53 30.03.2021
900 Clouds 28 1015 61 10000 3.09 340 05:19 30.03.2021
901 Clouds 21 1014 94 10000 3.09 10 00:58 30.03.2021
902 Clouds 21 1013 88 10000 2.57 360 23:51 29.03.2021
903 Clouds 22 1014 83 10000 3.09 30 22:54 29.03.2021
904 Clouds 23 1013 83 10000 2.57 330 22:32 29.03.2021
905 Clouds 23 1013 68 10000 2.06 10 21:51 29.03.2021
906 Clouds 23 1013 68 10000 2.06 360 21:31 29.03.2021
907 Clear 23 1012 73 10000 2.06 40 20:50 29.03.2021
908 Clear 23 1013 73 10000 2.06 20 20:28 29.03.2021
909 Clear 23 1013 73 10000 2.06 10 19:50 29.03.2021
910 Clouds 24 1013 57 10000 3.6 30 19:25 29.03.2021
911 Clear 23 1013 57 10000 3.09 30 18:51 29.03.2021
912 Clear 23 1012 56 10000 2.57 50 18:27 29.03.2021
913 Clear 23 1012 56 10000 0.95 351 17:52 29.03.2021
914 Clear 24 1012 56 10000 0.95 351 17:32 29.03.2021
915 Clear 24 1012 53 10000 2.06 340 16:45 29.03.2021
916 Clear 24 1012 53 10000 2.57 330 16:24 29.03.2021
917 Clear 24 1012 56 10000 1.68 177 15:36 29.03.2021
918 Clear 25 1012 56 10000 2.73 195 15:18 29.03.2021
919 Clear 25 1012 50 10000 0.51 260 14:46 29.03.2021
920 Clear 26 1012 44 10000 2.57 250 13:55 29.03.2021
921 Clear 27 1012 39 10000 2.57 280 13:33 29.03.2021
922 Clear 28 1011 36 10000 1.33 229 12:55 29.03.2021
923 Clear 29 1011 30 10000 1.54 250 12:36 29.03.2021
924 Clear 31 1011 27 10000 3.09 250 11:43 29.03.2021
925 Clear 32 1011 25 10000 4.12 270 11:25 29.03.2021
926 Clear 34 1010 23 10000 3.09 260 10:43 29.03.2021
927 Clear 35 1010 23 10000 3.6 250 10:18 29.03.2021
928 Clear 35 1010 21 10000 5.66 270 09:31 29.03.2021
929 Clear 36 1010 21 10000 6.69 280 08:30 29.03.2021
930 Clear 38 1009 19 10000 6.69 270 07:54 29.03.2021
931 Clear 38 1010 16 10000 4.63 350 06:57 29.03.2021
932 Clear 37 1011 16 10000 4.63 360 05:45 29.03.2021
933 Clear 22 1013 49 10000 3.09 200 02:27 29.03.2021
934 Clear 19 1013 63 10000 1.54 60 00:26 29.03.2021
935 Clear 19 1013 63 10000 2.57 190 23:55 28.03.2021
936 Clear 20 1013 59 10000 3.09 170 23:24 28.03.2021
937 Clear 19 1014 63 10000 3.09 220 22:42 28.03.2021
938 Clear 19 1014 63 10000 3.09 220 22:24 28.03.2021
939 Clear 19 1013 67 10000 1.54 210 21:46 28.03.2021
940 Clear 17 1013 59 10000 3.09 200 21:24 28.03.2021
941 Clear 18 1013 59 10000 3.09 240 20:51 28.03.2021
942 Clear 17 1012 63 10000 1.93 145 20:33 28.03.2021
943 Clear 17 1013 63 10000 0.51 20 19:55 28.03.2021
944 Clear 17 1012 59 10000 1.26 148 19:37 28.03.2021
945 Clear 17 1012 59 10000 1.59 132 19:18 28.03.2021
946 Clear 19 1012 59 10000 2.06 190 18:37 28.03.2021
947 Clear 20 1012 52 10000 2.57 210 17:59 28.03.2021
948 Clear 20 1012 55 10000 2.57 210 17:36 28.03.2021
949 Clear 20 1012 55 10000 2.57 200 16:55 28.03.2021
950 Clear 21 1012 46 10000 3.09 210 16:27 28.03.2021
951 Clear 22 1012 43 10000 3.09 210 15:50 28.03.2021
952 Clear 22 1012 43 10000 4.63 200 15:24 28.03.2021
953 Clear 23 1013 46 10000 3.6 210 14:40 28.03.2021
954 Clear 23 1013 41 10000 3.6 230 13:59 28.03.2021
955 Clear 24 1013 46 10000 3.09 210 13:34 28.03.2021
956 Clear 25 1012 36 10000 3.6 240 12:55 28.03.2021
957 Clear 26 1012 28 10000 3.6 230 12:34 28.03.2021
958 Clear 28 1012 28 10000 3.6 220 11:50 28.03.2021
959 Clear 29 1012 26 10000 3.6 220 11:32 28.03.2021
960 Clear 30 1012 25 10000 4.12 250 10:47 28.03.2021
961 Clear 30 1012 27 10000 4.63 260 10:29 28.03.2021
962 Clear 31 1012 25 10000 4.12 260 09:50 28.03.2021
963 Clear 31 1012 25 10000 4.63 250 09:27 28.03.2021
964 Clear 32 1012 24 10000 4.63 250 08:48 28.03.2021
965 Clear 32 1012 20 10000 3.6 270 08:23 28.03.2021
966 Clear 32 1012 21 10000 3.09 250 07:38 28.03.2021
967 Clear 29 1013 30 10000 3.09 320 05:33 28.03.2021
968 Clear 24 1014 46 10000 5.66 80 03:26 28.03.2021
969 Clear 17 1014 63 10000 4.12 50 00:34 28.03.2021
970 Clear 17 1014 67 10000 5.14 70 23:50 27.03.2021
971 Clear 17 1013 67 10000 5.14 60 23:32 27.03.2021
972 Clear 16 1013 77 10000 1.54 330 22:40 27.03.2021
973 Clear 16 1013 77 10000 1.54 330 22:20 27.03.2021
974 Clear 15 1013 88 10000 2.57 340 21:41 27.03.2021
975 Clear 15 1013 88 10000 2.57 340 21:41 27.03.2021
976 Clear 15 1013 88 10000 2.57 340 21:20 27.03.2021
977 Clear 15 1013 87 10000 2.57 320 20:55 27.03.2021
978 Clear 15 1013 87 10000 2.57 320 20:55 27.03.2021
979 Clear 14 1013 93 10000 2.06 320 20:36 27.03.2021
980 Clear 15 1014 94 10000 2.17 130 19:45 27.03.2021
981 Clear 15 1014 87 10000 2.23 138 19:24 27.03.2021
982 Clouds 15 1014 94 10000 1.54 170 18:56 27.03.2021
983 Clear 15 1014 88 10000 2.06 190 18:37 27.03.2021
984 Clear 16 1014 88 10000 2.06 190 18:18 27.03.2021
985 Clear 17 1015 82 10000 3.09 180 17:28 27.03.2021
986 Clear 17 1015 82 10000 3.09 180 16:53 27.03.2021
987 Clear 17 1015 72 10000 3.09 190 16:31 27.03.2021
988 Clear 18 1015 72 10000 4.12 190 15:58 27.03.2021
989 Clear 18 1015 68 10000 4.12 190 15:36 27.03.2021
990 Clear 19 1015 68 10000 5.66 200 14:54 27.03.2021
991 Clear 19 1015 64 10000 5.66 200 14:19 27.03.2021
992 Clear 20 1015 60 10000 4.63 210 13:26 27.03.2021
993 Clear 20 1014 56 10000 5.66 210 12:56 27.03.2021
994 Clouds 21 1014 64 10000 4.12 210 12:31 27.03.2021
995 Clear 22 1014 46 10000 4.63 230 11:47 27.03.2021
996 Clear 23 1013 43 10000 4.63 230 11:27 27.03.2021
997 Clear 25 1013 38 10000 5.14 230 10:47 27.03.2021
998 Clear 25 1013 38 10000 5.14 240 10:24 27.03.2021
999 Clear 26 1013 32 10000 5.66 230 09:29 27.03.2021
1000 Clear 27 1013 30 10000 5.66 240 08:48 27.03.2021
1001 Clear 27 1013 30 10000 5.66 210 08:30 27.03.2021
1002 Clear 27 1013 30 10000 5.66 280 07:35 27.03.2021
1003 Clear 28 1013 30 10000 4.63 270 06:47 27.03.2021
1004 Clear 28 1013 29 10000 3.6 260 06:28 27.03.2021
1005 Clear 26 1015 38 10000 3.6 190 04:40 27.03.2021
1006 Clear 16 1016 82 10000 2.57 40 00:54 27.03.2021
1007 Clear 13 1016 94 10000 2.57 190 00:30 27.03.2021
1008 Clear 13 1016 93 10000 3.09 190 23:54 26.03.2021
1009 Clear 13 1016 87 10000 3.09 220 23:21 26.03.2021
1010 Clear 13 1015 82 10000 2.57 210 22:35 26.03.2021
1011 Clear 13 1014 93 10000 2.57 70 21:37 26.03.2021
1012 Clear 13 1014 93 10000 2.57 70 21:18 26.03.2021
1013 Clear 14 1014 82 10000 2.57 180 20:38 26.03.2021
1014 Clear 14 1014 82 10000 2.57 180 20:19 26.03.2021
1015 Clear 15 1014 87 10000 1.03 190 19:47 26.03.2021
1016 Clear 15 1015 87 10000 2.06 210 19:28 26.03.2021
1017 Clear 15 1015 82 10000 2.06 210 18:42 26.03.2021
1018 Clear 16 1015 82 10000 2.06 210 18:20 26.03.2021
1019 Clear 16 1015 77 10000 3.09 180 17:46 26.03.2021
1020 Clear 17 1015 72 10000 3.09 200 16:56 26.03.2021
1021 Clear 18 1015 63 10000 4.12 210 16:33 26.03.2021
1022 Clear 18 1015 63 10000 4.12 190 15:53 26.03.2021
1023 Clear 19 1015 59 10000 4.12 190 15:21 26.03.2021
1024 Clear 19 1016 60 10000 5.66 190 14:31 26.03.2021
1025 Clear 20 1015 56 10000 6.17 210 13:38 26.03.2021
1026 Clear 21 1015 56 10000 5.66 210 12:54 26.03.2021
1027 Clear 21 1015 60 10000 5.14 210 12:32 26.03.2021
1028 Clear 22 1014 49 10000 5.66 220 11:35 26.03.2021
1029 Clear 23 1014 50 10000 6.69 230 10:55 26.03.2021
1030 Clear 24 1014 47 10000 7.2 230 10:35 26.03.2021
1031 Clear 25 1013 44 10000 6.69 210 09:44 26.03.2021
1032 Clear 25 1013 41 10000 6.17 220 09:19 26.03.2021
1033 Clear 26 1013 41 10000 6.17 230 08:38 26.03.2021
1034 Clear 26 1013 41 10000 6.17 230 08:20 26.03.2021
1035 Clear 27 1013 34 10000 2.06 270 07:23 26.03.2021
1036 Clear 27 1014 34 10000 3.6 120 06:58 26.03.2021
1037 Clear 27 1014 34 10000 3.6 120 06:58 26.03.2021
1038 Clear 27 1014 34 10000 1.54 260 06:30 26.03.2021
1039 Clear 26 1015 38 10000 3.09 150 05:26 26.03.2021
1040 Clear 20 1016 60 10000 2.69 87 01:58 26.03.2021
1041 Clear 14 1016 88 10000 2.46 96 00:27 26.03.2021
1042 Clear 13 1015 82 10000 2.06 150 23:44 25.03.2021
1043 Clear 12 1015 93 10000 2.57 20 22:56 25.03.2021
1044 Clear 12 1014 93 10000 0.51 40 22:28 25.03.2021
1045 Rain 12 1014 93 10000 2.77 117 21:51 25.03.2021
1046 Clear 12 1014 87 10000 0.51 10 21:33 25.03.2021
1047 Clear 12 1014 93 10000 2.57 30 20:45 25.03.2021
1048 Clear 13 1014 93 10000 2.57 10 20:25 25.03.2021
1049 Clear 13 1014 93 10000 2.06 180 19:45 25.03.2021
1050 Clear 13 1014 93 10000 2.06 180 19:27 25.03.2021
1051 Clear 13 1014 93 10000 3.83 148 18:47 25.03.2021
1052 Rain 13 1014 93 10000 2.57 210 18:26 25.03.2021
1053 Rain 13 1014 93 10000 2.57 210 18:26 25.03.2021
1054 Clear 14 1014 87 10000 4.32 156 17:45 25.03.2021
1055 Rain 14 1014 82 10000 0.51 70 17:27 25.03.2021
1056 Clear 15 1014 82 10000 3.09 180 16:50 25.03.2021
1057 Rain 15 1014 76 10000 2.57 180 16:29 25.03.2021
1058 Clear 16 1015 67 10000 3.09 190 15:43 25.03.2021
1059 Clear 17 1015 67 10000 3.09 190 15:20 25.03.2021
1060 Clear 17 1015 63 10000 3.6 190 14:46 25.03.2021
1061 Clear 18 1014 59 10000 5.14 210 13:49 25.03.2021
1062 Clear 19 1014 59 10000 5.66 210 13:23 25.03.2021
1063 Clear 19 1013 68 10000 5.14 210 12:42 25.03.2021
1064 Clouds 19 1013 60 10000 6.69 220 12:20 25.03.2021
1065 Clouds 20 1013 60 10000 6.17 220 11:52 25.03.2021
1066 Clear 20 1013 60 10000 6.69 220 11:30 25.03.2021
1067 Clear 21 1012 49 10000 7.72 220 10:54 25.03.2021
1068 Rain 22 1012 40 10000 7.72 220 10:25 25.03.2021
1069 Clear 23 1012 49 10000 7.2 210 09:56 25.03.2021
1070 Rain 23 1012 46 10000 8.23 220 09:38 25.03.2021
1071 Clear 24 1011 38 10000 8.75 230 08:54 25.03.2021
1072 Clear 24 1011 31 10000 8.23 230 08:21 25.03.2021
1073 Clear 25 1011 29 10000 8.23 240 07:19 25.03.2021
1074 Clear 25 1011 31 10000 6.69 260 06:25 25.03.2021
1075 Clear 25 1012 29 10000 3.6 250 05:49 25.03.2021
1076 Clear 20 1013 45 10000 2.06 180 02:48 25.03.2021
1077 Clear 12 1013 93 10000 2.57 300 00:24 25.03.2021
1078 Clear 10 1013 93 10000 2.57 350 23:51 24.03.2021
1079 Clear 10 1013 93 10000 1.54 360 23:28 24.03.2021
1080 Clouds 12 1013 93 10000 1.54 160 22:48 24.03.2021
1081 Clear 11 1012 93 10000 2.06 210 22:27 24.03.2021
1082 Clouds 13 1012 87 10000 2.57 170 21:42 24.03.2021
1083 Clouds 13 1012 87 10000 2.57 170 21:23 24.03.2021
1084 Clouds 13 1012 88 10000 3.6 180 20:43 24.03.2021
1085 Clouds 13 1012 88 10000 3.6 180 20:20 24.03.2021
1086 Clouds 14 1012 88 10000 3.6 190 19:46 24.03.2021
1087 Clouds 14 1012 94 10000 3.6 190 19:28 24.03.2021
1088 Clear 14 1012 82 10000 3.09 200 18:46 24.03.2021
1089 Clear 15 1012 77 10000 4.12 210 18:20 24.03.2021
1090 Clear 16 1013 77 10000 3.09 190 17:43 24.03.2021
1091 Clear 16 1013 77 10000 3.09 190 17:25 24.03.2021
1092 Clear 16 1013 72 10000 3.6 200 16:51 24.03.2021
1093 Clear 17 1014 72 10000 4.12 210 16:27 24.03.2021
1094 Clear 17 1014 72 10000 5.14 190 15:44 24.03.2021
1095 Clear 17 1014 67 10000 7.2 190 15:25 24.03.2021
1096 Clear 18 1014 63 10000 7.2 190 14:47 24.03.2021
1097 Clear 18 1014 63 10000 8.23 190 14:25 24.03.2021
1098 Clear 18 1014 63 10000 8.23 190 14:25 24.03.2021
1099 Clear 19 1014 59 10000 7.72 190 13:52 24.03.2021
1100 Clear 19 1014 59 10000 6.69 200 13:27 24.03.2021
1101 Clear 19 1013 52 10000 6.17 220 12:42 24.03.2021
1102 Clear 19 1014 63 10000 5.14 200 12:21 24.03.2021
1103 Clear 20 1013 49 10000 7.2 210 11:42 24.03.2021
1104 Clear 21 1012 46 10000 7.2 220 10:58 24.03.2021
1105 Clear 22 1012 46 10000 7.2 230 10:36 24.03.2021
1106 Clear 23 1012 40 10000 7.2 240 09:58 24.03.2021
1107 Clear 23 1012 38 10000 6.69 230 09:38 24.03.2021
1108 Clear 23 1012 38 10000 6.69 230 09:18 24.03.2021
1109 Clear 24 1013 31 10000 3.09 210 08:47 24.03.2021
1110 Clear 25 1013 31 10000 3.09 210 08:24 24.03.2021
1111 Clear 25 1013 29 10000 4.63 110 07:31 24.03.2021
1112 Clear 25 1014 31 10000 2.57 110 06:51 24.03.2021
1113 Rain 21 1017 42 10000 6.69 70 03:21 24.03.2021
1114 Clear 16 1018 58 10000 3.6 80 00:45 24.03.2021
1115 Clear 14 1017 62 10000 6.69 100 23:53 23.03.2021
1116 Clear 14 1016 58 10000 7.72 110 23:20 23.03.2021
1117 Clear 14 1016 55 10000 9.77 100 22:51 23.03.2021
1118 Clear 14 1016 55 10000 9.26 110 22:27 23.03.2021
1119 Clear 14 1016 55 10000 8.23 110 21:47 23.03.2021
1120 Clear 14 1016 58 10000 8.23 110 21:29 23.03.2021
1121 Clear 15 1016 55 10000 8.75 110 20:47 23.03.2021
1122 Clear 15 1016 55 10000 6.69 110 20:25 23.03.2021
1123 Clear 15 1016 51 10000 5.14 120 19:50 23.03.2021
1124 Clear 15 1016 51 10000 4.63 130 19:26 23.03.2021
1125 Clear 15 1016 51 10000 4.63 130 19:26 23.03.2021
1126 Clear 15 1016 51 10000 3.09 180 18:47 23.03.2021
1127 Clear 15 1016 51 10000 4.63 180 18:24 23.03.2021
1128 Clear 16 1017 48 10000 5.14 170 17:50 23.03.2021
1129 Clear 16 1017 48 10000 6.17 170 17:23 23.03.2021
1130 Clear 16 1017 48 10000 5.66 160 16:59 23.03.2021
1131 Clear 16 1017 48 10000 5.14 170 16:25 23.03.2021
1132 Clear 17 1017 48 10000 5.66 190 15:47 23.03.2021
1133 Clear 17 1017 48 10000 5.66 190 15:21 23.03.2021
1134 Clear 18 1017 48 10000 7.2 190 14:40 23.03.2021
1135 Clear 18 1017 48 10000 7.2 190 14:18 23.03.2021
1136 Clear 18 1016 45 10000 8.23 200 13:43 23.03.2021
1137 Clear 19 1016 48 10000 7.2 200 13:21 23.03.2021
1138 Clear 19 1016 37 10000 6.17 210 12:43 23.03.2021
1139 Clear 20 1015 32 10000 6.17 170 12:23 23.03.2021
1140 Clear 20 1015 33 10000 6.69 180 11:47 23.03.2021
1141 Clear 22 1014 31 10000 5.14 190 10:56 23.03.2021
1142 Clear 22 1014 31 10000 5.14 190 10:56 23.03.2021
1143 Clear 23 1014 29 10000 4.63 150 10:38 23.03.2021
1144 Clear 23 1014 29 10000 4.63 150 10:20 23.03.2021
1145 Clear 24 1014 29 10000 5.66 130 09:42 23.03.2021
1146 Clear 24 1014 29 10000 5.66 130 09:21 23.03.2021
1147 Clear 25 1014 29 10000 4.12 180 08:40 23.03.2021
1148 Clear 24 1014 27 10000 4.63 180 08:22 23.03.2021
1149 Clear 24 1014 27 10000 4.63 180 07:48 23.03.2021
1150 Clear 24 1015 27 10000 4.12 150 07:20 23.03.2021
1151 Rain 24 1016 31 10000 5.66 160 06:33 23.03.2021
1152 Rain 20 1018 42 10000 8.23 150 03:23 23.03.2021
1153 Rain 19 1018 52 10000 6.69 160 02:20 23.03.2021
1154 Clouds 14 1017 58 10000 5.66 190 23:44 22.03.2021
1155 Rain 14 1017 55 10000 5.14 190 22:56 22.03.2021
1156 Rain 14 1017 55 10000 5.14 180 22:38 22.03.2021
1157 Clear 15 1017 55 10000 5.14 180 22:20 22.03.2021
1158 Rain 15 1017 55 5000 6.17 180 21:41 22.03.2021
1159 Rain 15 1017 55 5000 6.17 180 21:22 22.03.2021
1160 Rain 16 1017 51 10000 6.69 180 20:41 22.03.2021
1161 Rain 16 1017 51 10000 6.69 180 20:22 22.03.2021
1162 Rain 16 1016 51 10000 6.17 170 19:54 22.03.2021
1163 Rain 16 1016 55 10000 6.69 170 19:34 22.03.2021
1164 Clear 17 1017 55 10000 7.72 170 18:47 22.03.2021
1165 Clear 17 1017 55 10000 6.69 170 18:29 22.03.2021
1166 Clear 18 1016 55 10000 6.17 170 17:59 22.03.2021
1167 Clear 18 1016 55 10000 6.17 170 17:41 22.03.2021
1168 Clear 18 1016 55 10000 6.17 170 17:19 22.03.2021
1169 Clear 18 1016 59 10000 5.14 160 16:44 22.03.2021
1170 Clear 19 1016 59 10000 5.66 150 16:18 22.03.2021
1171 Clouds 19 1016 59 10000 6.17 160 15:38 22.03.2021
1172 Clouds 19 1016 59 10000 6.17 160 15:18 22.03.2021
1173 Clouds 20 1016 56 10000 6.69 170 14:50 22.03.2021
1174 Clear 20 1016 60 10000 6.69 160 14:31 22.03.2021
1175 Clouds 20 1015 64 10000 6.17 170 13:47 22.03.2021
1176 Clouds 21 1015 64 10000 6.17 170 13:25 22.03.2021
1177 Clear 22 1014 56 10000 6.69 160 12:53 22.03.2021
1178 Clear 22 1014 56 10000 6.69 160 12:24 22.03.2021
1179 Clouds 23 1014 53 10000 7.72 190 11:48 22.03.2021
1180 Clear 23 1013 50 10000 9.26 200 11:25 22.03.2021
1181 Clear 24 1012 50 10000 8.23 230 10:44 22.03.2021
1182 Clear 25 1012 50 10000 8.23 230 10:24 22.03.2021
1183 Clear 26 1012 47 10000 8.75 220 09:44 22.03.2021
1184 Clear 26 1012 44 10000 8.75 210 09:23 22.03.2021
1185 Clouds 26 1012 50 10000 8.23 250 08:45 22.03.2021
1186 Clouds 26 1012 50 10000 8.23 250 08:25 22.03.2021
1187 Clouds 26 1012 45 10000 7.2 240 07:46 22.03.2021
1188 Clouds 27 1012 47 10000 7.72 210 06:57 22.03.2021
1189 Clouds 27 1012 44 10000 6.69 220 06:35 22.03.2021
1190 Rain 23 1014 64 10000 7.72 190 02:47 22.03.2021
1191 Clear 19 1013 72 10000 5.14 190 00:33 22.03.2021
1192 Clear 19 1012 72 10000 4.63 180 23:54 21.03.2021
1193 Clear 19 1012 72 10000 6.17 190 23:20 21.03.2021
1194 Clear 19 1012 72 10000 6.69 200 22:56 21.03.2021
1195 Clear 19 1011 72 10000 6.69 190 22:20 21.03.2021
1196 Clear 19 1011 72 10000 7.72 200 21:41 21.03.2021
1197 Clear 20 1011 72 10000 7.72 200 21:22 21.03.2021
1198 Clear 20 1011 72 10000 7.2 200 20:44 21.03.2021
1199 Clear 20 1011 73 10000 7.72 200 20:26 21.03.2021
1200 Clear 20 1011 88 10000 5.14 210 19:54 21.03.2021
1201 Clouds 20 1011 83 10000 3.09 200 19:23 21.03.2021
1202 Clouds 21 1011 77 10000 3.09 200 18:53 21.03.2021
1203 Clouds 21 1011 77 10000 3.09 200 18:27 21.03.2021
1204 Clouds 21 1011 77 10000 3.09 200 18:27 21.03.2021
1205 Clear 22 1010 78 10000 2.57 190 17:48 21.03.2021
1206 Clear 22 1010 78 10000 2.57 190 17:21 21.03.2021
1207 Clouds 22 1011 78 10000 3.09 210 16:59 21.03.2021
1208 Clear 22 1011 78 10000 3.6 220 16:40 21.03.2021
1209 Clear 22 1011 78 10000 3.6 220 16:21 21.03.2021
1210 Clear 23 1010 64 10000 3.6 210 15:41 21.03.2021
1211 Clear 23 1010 64 10000 3.6 210 15:19 21.03.2021
1212 Clear 24 1011 57 10000 3.6 220 14:44 21.03.2021
1213 Rain 24 1011 73 10000 3.09 210 14:26 21.03.2021
1214 Rain 25 1010 47 10000 3.6 210 13:54 21.03.2021
1215 Clear 26 1010 34 10000 4.63 250 13:00 21.03.2021
1216 Clear 26 1010 36 10000 4.63 220 12:41 21.03.2021
1217 Rain 27 1010 36 10000 4.63 220 12:22 21.03.2021
1218 Rain 29 1009 20 10000 4.63 220 11:28 21.03.2021
1219 Clear 30 1009 19 10000 4.12 240 10:59 21.03.2021
1220 Clear 31 1009 19 10000 5.14 250 10:41 21.03.2021
1221 Clear 32 1009 19 10000 5.14 250 10:22 21.03.2021
1222 Clear 33 1009 16 10000 6.17 250 09:44 21.03.2021
1223 Clear 34 1009 15 10000 6.69 270 09:26 21.03.2021
1224 Clear 36 1009 14 10000 6.69 260 08:39 21.03.2021
1225 Clear 35 1009 14 10000 6.69 260 08:21 21.03.2021
1226 Clear 36 1009 14 10000 7.2 260 07:38 21.03.2021
1227 Clear 37 1009 14 10000 7.2 290 06:52 21.03.2021
1228 Clear 36 1010 13 10000 3.09 360 05:25 21.03.2021
1229 Clear 29 1012 23 10000 3.6 40 01:54 21.03.2021
1230 Rain 24 1011 35 10000 4.63 80 00:41 21.03.2021
1231 Rain 24 1011 35 10000 4.63 80 00:21 21.03.2021
1232 Clear 21 1011 35 10000 5.14 80 23:47 20.03.2021
1233 Clear 20 1011 37 10000 4.12 70 23:20 20.03.2021
1234 Clear 22 1011 37 10000 5.14 70 22:54 20.03.2021
1235 Clear 21 1011 35 10000 4.63 70 22:21 20.03.2021
1236 Clear 20 1010 35 10000 5.14 70 21:45 20.03.2021
1237 Clear 20 1010 35 10000 4.63 60 21:24 20.03.2021
1238 Clear 21 1010 38 10000 5.14 60 20:45 20.03.2021
1239 Clear 21 1010 38 10000 5.14 60 20:23 20.03.2021
1240 Clear 22 1010 38 10000 4.12 60 19:49 20.03.2021
1241 Clear 21 1010 38 10000 4.12 60 19:26 20.03.2021
1242 Clear 22 1011 38 10000 2.57 50 18:49 20.03.2021
1243 Clear 22 1011 38 10000 0.51 20 18:26 20.03.2021
1244 Rain 21 1011 52 10000 2.57 360 17:54 20.03.2021
1245 Clear 21 1011 52 10000 1.54 360 17:32 20.03.2021
1246 Clear 22 1011 48 10000 2.41 104 16:47 20.03.2021
1247 Clear 23 1011 45 10000 2.06 10 16:21 20.03.2021
1248 Clear 23 1011 45 10000 2.06 10 16:21 20.03.2021
1249 Clear 24 1011 43 10000 2.69 119 15:59 20.03.2021
1250 Clear 24 1011 37 10000 0.51 70 15:39 20.03.2021
1251 Clear 26 1011 28 10000 4.12 200 14:48 20.03.2021
1252 Rain 26 1011 28 10000 4.12 200 14:28 20.03.2021
1253 Clear 27 1011 24 10000 6.17 190 13:40 20.03.2021
1254 Rain 29 1011 21 10000 4.63 190 12:59 20.03.2021
1255 Clear 29 1011 20 10000 7.72 190 12:27 20.03.2021
1256 Clear 29 1011 20 10000 7.72 190 12:27 20.03.2021
1257 Clear 29 1011 20 10000 7.72 190 12:27 20.03.2021
1258 Rain 31 1011 17 10000 5.14 200 11:50 20.03.2021
1259 Rain 32 1011 16 10000 5.14 210 11:29 20.03.2021
1260 Rain 33 1011 13 10000 5.66 230 10:56 20.03.2021
1261 Rain 33 1010 14 10000 5.66 230 10:37 20.03.2021
1262 Clear 34 1010 14 10000 5.66 230 10:18 20.03.2021
1263 Clear 35 1010 11 10000 2.06 160 09:27 20.03.2021
1264 Clear 36 1010 10 10000 2.57 160 08:58 20.03.2021
1265 Clear 36 1011 9 10000 1.54 310 08:37 20.03.2021
1266 Clear 37 1011 11 10000 3.09 10 07:54 20.03.2021
1267 Clear 37 1011 10 10000 4.63 140 07:32 20.03.2021
1268 Clear 37 1011 11 10000 2.57 80 06:54 20.03.2021
1269 Clear 36 1012 12 10000 1.54 20 06:19 20.03.2021
1270 Clear 34 1014 19 10000 5.66 50 04:00 20.03.2021
1271 Rain 33 1014 22 10000 6.69 50 03:41 20.03.2021
1272 Clear 22 1015 33 10000 5.66 70 00:18 20.03.2021
1273 Clear 21 1014 35 10000 5.14 60 23:31 19.03.2021
1274 Rain 22 1014 35 10000 4.63 60 22:49 19.03.2021
1275 Clear 21 1014 35 10000 4.12 50 22:28 19.03.2021
1276 Clear 21 1014 35 10000 4.12 60 21:56 19.03.2021
1277 Clear 22 1014 37 10000 4.63 50 21:22 19.03.2021
1278 Rain 20 1014 45 10000 2.57 30 20:59 19.03.2021
1279 Rain 19 1014 59 10000 2.06 10 20:39 19.03.2021
1280 Rain 17 1014 59 10000 2.06 10 20:21 19.03.2021
1281 Rain 19 1014 52 10000 2.06 340 19:45 19.03.2021
1282 Rain 19 1014 55 10000 2.06 30 19:20 19.03.2021
1283 Rain 19 1014 55 10000 1.54 340 18:40 19.03.2021
1284 Rain 19 1014 55 10000 1.54 340 18:18 19.03.2021
1285 Rain 19 1014 55 10000 1.54 340 18:18 19.03.2021
1286 Rain 19 1014 55 10000 1.54 350 17:51 19.03.2021
1287 Clear 21 1014 52 10000 2.57 330 17:27 19.03.2021
1288 Rain 22 1015 48 10000 1.54 190 16:52 19.03.2021
1289 Rain 23 1014 48 10000 2.61 128 16:27 19.03.2021
1290 Rain 24 1015 37 10000 2.61 128 15:46 19.03.2021
1291 Rain 24 1015 40 10000 0.51 130 15:22 19.03.2021
1292 Rain 26 1015 27 10000 4.12 190 14:45 19.03.2021
1293 Rain 26 1015 27 10000 4.12 190 14:26 19.03.2021
1294 Clear 28 1015 21 10000 4.63 200 13:39 19.03.2021
1295 Clear 29 1014 20 10000 4.63 200 12:50 19.03.2021
1296 Clear 29 1014 20 10000 5.14 200 12:32 19.03.2021
1297 Rain 32 1014 18 10000 4.63 250 11:40 19.03.2021
1298 Rain 34 1013 15 10000 4.12 240 10:53 19.03.2021
1299 Rain 34 1013 13 10000 2.06 60 10:30 19.03.2021
1300 Clear 36 1013 11 10000 4.12 70 09:49 19.03.2021
1301 Rain 35 1013 11 10000 3.6 90 09:30 19.03.2021
1302 Rain 35 1013 11 10000 3.6 80 08:54 19.03.2021
1303 Clear 35 1013 11 10000 5.66 110 08:36 19.03.2021
1304 Clear 37 1013 9 10000 6.17 60 07:54 19.03.2021
1305 Clear 37 1014 11 10000 7.72 110 07:35 19.03.2021
1306 Clear 37 1014 9 10000 4.63 50 06:43 19.03.2021
1307 Rain 32 1016 18 10000 4.63 20 02:45 19.03.2021
1308 Clouds 24 1016 49 10000 7.2 80 00:26 19.03.2021
1309 Clear 22 1015 53 10000 7.2 80 23:30 18.03.2021
1310 Clear 22 1015 53 10000 5.66 60 22:58 18.03.2021
1311 Rain 22 1015 49 10000 6.17 70 22:27 18.03.2021
1312 Rain 23 1015 53 10000 7.72 70 21:59 18.03.2021
1313 Clear 23 1015 53 10000 7.2 70 21:38 18.03.2021
1314 Rain 24 1015 50 10000 1.54 70 20:43 18.03.2021
1315 Clear 24 1015 50 10000 1.54 70 20:23 18.03.2021
1316 Rain 24 1014 50 10000 2.57 100 19:45 18.03.2021
1317 Rain 24 1015 56 10000 1.54 350 19:24 18.03.2021
1318 Rain 22 1015 88 10000 0.51 340 18:54 18.03.2021
1319 Rain 22 1015 88 10000 0.51 10 18:27 18.03.2021
1320 Rain 20 1015 82 10000 2.01 115 17:47 18.03.2021
1321 Rain 20 1015 82 10000 2.04 117 17:25 18.03.2021
1322 Rain 21 1015 77 10000 0.51 290 16:44 18.03.2021
1323 Rain 22 1015 77 10000 2.57 210 16:23 18.03.2021
1324 Rain 23 1015 73 10000 2.57 210 15:43 18.03.2021
1325 Rain 23 1015 68 10000 2.57 200 15:23 18.03.2021
1326 Rain 23 1015 68 10000 2.57 200 15:23 18.03.2021
1327 Rain 24 1015 64 10000 3.09 190 14:52 18.03.2021
1328 Clear 24 1015 61 10000 3.6 200 14:29 18.03.2021
1329 Rain 24 1015 57 10000 4.12 210 13:48 18.03.2021
1330 Rain 25 1015 69 10000 3.6 200 13:25 18.03.2021
1331 Rain 26 1015 65 10000 3.09 190 12:42 18.03.2021
1332 Rain 26 1014 54 10000 3.6 210 12:24 18.03.2021
1333 Clear 27 1014 54 10000 4.63 220 11:50 18.03.2021
1334 Clear 27 1014 51 10000 4.63 240 11:27 18.03.2021
1335 Rain 29 1014 48 10000 5.14 230 10:44 18.03.2021
1336 Rain 29 1014 45 10000 6.17 230 10:25 18.03.2021
1337 Rain 30 1014 42 10000 5.66 240 09:54 18.03.2021
1338 Rain 30 1013 37 10000 6.17 240 09:28 18.03.2021
1339 Clear 32 1013 37 10000 5.66 220 08:46 18.03.2021
1340 Clear 32 1013 38 10000 5.66 250 08:26 18.03.2021
1341 Clear 32 1014 38 10000 6.69 270 07:48 18.03.2021
1342 Clear 33 1014 31 10000 4.63 280 06:54 18.03.2021
1343 Clear 34 1014 27 10000 2.57 280 06:26 18.03.2021
1344 Clear 33 1015 31 10000 2.57 240 05:40 18.03.2021
1345 Rain 20 1016 88 10000 2.57 230 00:51 18.03.2021
1346 Rain 16 1015 94 10000 2.04 144 23:58 17.03.2021
1347 Clear 18 1015 100 10000 2.02 156 22:43 17.03.2021
1348 Clear 18 1015 100 10000 2.02 156 22:43 17.03.2021
1349 Clear 18 1015 94 10000 1.29 144 22:24 17.03.2021
1350 Clear 18 1015 94 10000 1.29 144 21:52 17.03.2021
1351 Clouds 18 1015 63 10000 2.06 130 21:33 17.03.2021
1352 Clear 18 1015 94 10000 0.51 60 20:55 17.03.2021
1353 Clouds 18 1015 100 10000 2.06 100 20:55 17.03.2021
1354 Clear 18 1015 94 10000 1.45 131 20:37 17.03.2021
1355 Clear 19 1015 94 10000 2 146 20:19 17.03.2021
1356 Clear 19 1014 94 10000 2 146 19:43 17.03.2021
1357 Clear 19 1014 94 10000 1.64 150 19:20 17.03.2021
1358 Clear 19 1014 94 10000 1.64 150 19:20 17.03.2021
1359 Clear 19 1014 94 10000 1.9 155 18:52 17.03.2021
1360 Clear 19 1015 94 10000 2.06 190 18:32 17.03.2021
1361 Rain 20 1015 88 10000 3.09 200 17:42 17.03.2021
1362 Rain 20 1015 88 10000 3.09 200 17:23 17.03.2021
1363 Clear 21 1014 88 10000 4.12 210 16:43 17.03.2021
1364 Clear 21 1014 88 10000 4.12 210 16:21 17.03.2021
1365 Clear 21 1014 88 10000 4.12 210 15:49 17.03.2021
1366 Clear 21 1015 83 10000 4.12 210 15:30 17.03.2021
1367 Clear 22 1015 83 10000 4.12 210 14:40 17.03.2021
1368 Clear 22 1015 83 10000 4.12 210 14:20 17.03.2021
1369 Clear 22 1014 83 10000 4.63 210 13:55 17.03.2021
1370 Clear 22 1014 78 10000 4.63 240 13:26 17.03.2021
1371 Clear 23 1014 78 10000 4.63 230 12:49 17.03.2021
1372 Clear 23 1013 69 10000 4.63 230 12:28 17.03.2021
1373 Clear 24 1013 57 10000 6.69 240 11:42 17.03.2021
1374 Clear 25 1013 57 10000 6.69 240 11:23 17.03.2021
1375 Clear 26 1013 42 10000 5.66 230 10:53 17.03.2021
1376 Clear 27 1012 39 10000 5.14 230 10:24 17.03.2021
1377 Clear 28 1012 48 10000 5.14 270 09:46 17.03.2021
1378 Clear 28 1012 48 10000 5.14 260 09:20 17.03.2021
1379 Clear 29 1012 48 10000 6.17 260 08:53 17.03.2021
1380 Clear 29 1012 39 10000 4.63 250 08:33 17.03.2021
1381 Clear 30 1012 39 10000 6.17 260 07:46 17.03.2021
1382 Clear 29 1012 45 10000 6.17 260 06:59 17.03.2021
1383 Clear 29 1012 39 10000 6.69 270 06:29 17.03.2021
1384 Clear 29 1013 32 10000 3.6 250 04:18 17.03.2021
1385 Clear 27 1014 38 10000 2.06 30 02:41 17.03.2021
1386 Clear 19 1013 67 10000 1.54 10 00:39 17.03.2021
1387 Clear 16 1013 63 10000 3.6 30 23:27 16.03.2021
1388 Clear 16 1013 63 10000 2.57 10 22:46 16.03.2021
1389 Clear 16 1013 72 10000 2.06 10 22:28 16.03.2021
1390 Clear 16 1013 72 10000 2.06 50 21:45 16.03.2021
1391 Clear 16 1013 72 10000 1.54 50 21:26 16.03.2021
1392 Clear 16 1013 67 10000 2.06 80 20:58 16.03.2021
1393 Clear 18 1013 67 10000 1.12 215 20:20 16.03.2021
1394 Clear 18 1012 59 10000 3.09 70 19:52 16.03.2021
1395 Clear 18 1012 59 10000 3.09 70 19:34 16.03.2021
1396 Clear 18 1013 63 10000 2.06 20 18:58 16.03.2021
1397 Clear 20 1012 59 10000 2.57 20 18:39 16.03.2021
1398 Clear 20 1012 59 10000 2.57 20 18:20 16.03.2021
1399 Clear 21 1012 56 10000 2.06 20 17:41 16.03.2021
1400 Clear 21 1012 56 10000 2.06 20 17:22 16.03.2021
1401 Rain 22 1012 56 10000 2.06 20 16:49 16.03.2021
1402 Rain 22 1012 60 10000 3.6 100 16:25 16.03.2021
1403 Rain 22 1012 56 10000 3.09 90 15:46 16.03.2021
1404 Clear 23 1013 53 10000 2.06 100 15:21 16.03.2021
1405 Clear 24 1013 46 10000 3.09 20 14:57 16.03.2021
1406 Clear 24 1013 38 10000 3.09 20 14:39 16.03.2021
1407 Clear 25 1013 38 10000 3.09 20 14:19 16.03.2021
1408 Clear 25 1013 38 10000 3.09 20 14:19 16.03.2021
1409 Rain 26 1013 29 10000 4.12 260 13:45 16.03.2021
1410 Rain 26 1013 29 10000 4.12 260 13:21 16.03.2021
1411 Rain 26 1012 29 10000 3.6 270 12:48 16.03.2021
1412 Rain 27 1012 29 10000 2.06 140 12:29 16.03.2021
1413 Rain 29 1011 20 10000 4.63 130 11:38 16.03.2021
1414 Rain 32 1011 18 10000 4.12 130 10:59 16.03.2021
1415 Clear 33 1011 18 10000 3.6 140 10:27 16.03.2021
1416 Clear 33 1011 17 10000 3.09 80 09:48 16.03.2021
1417 Clear 33 1011 15 10000 2.57 150 09:29 16.03.2021
1418 Rain 34 1011 14 10000 2.06 110 08:58 16.03.2021
1419 Rain 34 1012 17 10000 2.57 90 08:40 16.03.2021
1420 Clear 34 1012 17 10000 2.57 90 08:18 16.03.2021
1421 Rain 33 1012 17 10000 3.09 360 07:33 16.03.2021
1422 Clear 33 1013 16 10000 3.09 30 06:39 16.03.2021
1423 Clear 33 1013 18 10000 5.14 30 05:37 16.03.2021
1424 Clear 32 1013 18 10000 5.14 30 05:18 16.03.2021
1425 Clear 27 1015 22 10000 5.66 40 02:44 16.03.2021
1426 Rain 25 1015 25 10000 5.66 60 01:59 16.03.2021
1427 Clear 23 1015 30 10000 5.66 70 23:55 15.03.2021
1428 Clouds 23 1015 28 10000 6.17 50 23:28 15.03.2021
1429 Clear 22 1015 32 10000 5.66 70 22:50 15.03.2021
1430 Clear 22 1015 30 10000 5.66 80 22:31 15.03.2021
1431 Clear 22 1015 32 10000 6.17 70 21:53 15.03.2021
1432 Clear 22 1014 32 10000 5.14 80 21:33 15.03.2021
1433 Clear 22 1014 30 10000 5.66 70 20:57 15.03.2021
1434 Rain 22 1014 30 10000 5.66 70 20:38 15.03.2021
1435 Rain 22 1014 30 10000 5.66 70 20:38 15.03.2021
1436 Rain 23 1014 30 10000 5.66 70 20:20 15.03.2021
1437 Rain 23 1015 33 10000 6.17 70 19:49 15.03.2021
1438 Rain 23 1015 30 10000 6.69 70 19:30 15.03.2021
1439 Clear 23 1015 31 10000 7.2 70 18:49 15.03.2021
1440 Rain 23 1015 28 10000 7.72 70 18:26 15.03.2021
1441 Clear 22 1015 30 10000 6.17 70 17:55 15.03.2021
1442 Clear 22 1016 31 10000 6.69 80 17:30 15.03.2021
1443 Rain 23 1016 28 10000 7.2 80 16:50 15.03.2021
1444 Rain 23 1016 28 10000 7.2 70 16:31 15.03.2021
1445 Rain 24 1016 28 10000 6.17 70 15:45 15.03.2021
1446 Rain 23 1016 27 10000 5.66 80 15:25 15.03.2021
1447 Rain 23 1016 29 10000 4.63 80 14:43 15.03.2021
1448 Rain 23 1016 29 10000 4.63 80 14:22 15.03.2021
1449 Rain 23 1016 31 10000 3.09 80 13:46 15.03.2021
1450 Rain 23 1016 31 10000 3.09 80 13:46 15.03.2021
1451 Rain 23 1016 33 10000 2.57 100 13:24 15.03.2021
1452 Rain 24 1016 33 10000 3.09 90 12:47 15.03.2021
1453 Rain 25 1016 27 10000 3.6 90 12:19 15.03.2021
1454 Rain 27 1016 21 10000 5.66 90 11:49 15.03.2021
1455 Rain 28 1016 21 10000 5.66 90 11:30 15.03.2021
1456 Rain 29 1015 20 10000 6.17 90 10:54 15.03.2021
1457 Rain 29 1016 20 10000 6.17 70 10:30 15.03.2021
1458 Rain 29 1016 19 10000 7.2 80 09:52 15.03.2021
1459 Rain 30 1016 19 10000 7.2 90 09:33 15.03.2021
1460 Rain 30 1016 18 10000 5.66 90 08:52 15.03.2021
1461 Rain 30 1016 18 10000 5.66 90 08:30 15.03.2021
1462 Rain 30 1016 18 10000 5.66 90 08:30 15.03.2021
1463 Rain 30 1016 20 10000 7.72 90 07:51 15.03.2021
1464 Rain 30 1017 20 10000 5.66 90 07:31 15.03.2021
1465 Clear 29 1017 21 10000 7.72 90 06:40 15.03.2021
1466 Clear 28 1018 23 10000 7.2 80 05:32 15.03.2021
1467 Clear 21 1021 40 10000 5.14 50 01:31 15.03.2021
1468 Clear 18 1020 45 10000 9.77 70 23:54 14.03.2021
1469 Clear 18 1020 48 10000 9.26 80 23:19 14.03.2021
1470 Clouds 18 1020 42 10000 5.14 70 22:46 14.03.2021
1471 Rain 19 1020 45 10000 9.26 70 22:19 14.03.2021
1472 Rain 19 1020 42 10000 9.26 80 21:45 14.03.2021
1473 Rain 19 1020 39 10000 9.77 70 21:18 14.03.2021
1474 Rain 19 1020 39 10000 8.75 70 20:43 14.03.2021
1475 Rain 19 1020 39 10000 7.72 70 20:24 14.03.2021
1476 Rain 20 1020 37 10000 7.72 70 19:43 14.03.2021
1477 Rain 20 1020 37 10000 9.26 80 19:22 14.03.2021
1478 Rain 20 1020 37 10000 9.77 80 18:47 14.03.2021
1479 Rain 20 1020 37 10000 8.23 90 18:22 14.03.2021
1480 Rain 21 1020 35 10000 8.23 90 17:39 14.03.2021
1481 Clear 20 1020 35 10000 6.17 90 17:20 14.03.2021
1482 Clear 21 1020 35 10000 6.17 90 16:46 14.03.2021
1483 Clear 21 1020 35 10000 6.17 100 16:24 14.03.2021
1484 Clear 21 1021 35 10000 6.17 100 15:52 14.03.2021
1485 Clear 21 1021 37 10000 5.66 110 15:25 14.03.2021
1486 Clear 21 1021 37 10000 4.12 120 14:41 14.03.2021
1487 Clear 21 1021 37 10000 4.12 120 14:20 14.03.2021
1488 Clear 21 1021 37 10000 3.6 130 13:48 14.03.2021
1489 Rain 22 1021 40 10000 4.12 140 13:27 14.03.2021
1490 Clear 23 1021 35 10000 4.12 110 12:44 14.03.2021
1491 Clear 24 1020 33 10000 4.12 120 12:26 14.03.2021
1492 Clear 26 1020 25 10000 6.17 90 11:42 14.03.2021
1493 Clear 26 1020 25 10000 6.17 90 11:23 14.03.2021
1494 Rain 27 1019 26 10000 6.17 90 10:38 14.03.2021
1495 Clear 27 1019 26 10000 6.17 90 10:20 14.03.2021
1496 Clear 27 1019 26 10000 7.2 90 09:59 14.03.2021
1497 Clear 28 1020 23 10000 6.69 120 09:41 14.03.2021
1498 Rain 28 1020 24 10000 7.2 110 09:20 14.03.2021
1499 Clear 28 1020 24 10000 6.69 90 08:40 14.03.2021
1500 Rain 28 1020 26 10000 8.75 80 07:59 14.03.2021
1501 Rain 27 1021 28 10000 5.14 80 07:33 14.03.2021
1502 Clear 25 1022 31 10000 7.72 110 05:38 14.03.2021
1503 Clear 25 1022 31 10000 7.72 110 05:38 14.03.2021
1504 Clear 18 1025 55 10000 8.75 90 01:34 14.03.2021
1505 Clear 16 1025 55 10000 8.75 90 00:49 14.03.2021
1506 Clear 15 1025 62 10000 7.72 100 00:18 14.03.2021
1507 Rain 14 1024 62 10000 7.2 90 23:42 13.03.2021
1508 Rain 14 1024 62 10000 7.2 90 23:19 13.03.2021
1509 Rain 14 1024 62 10000 7.2 90 23:19 13.03.2021
1510 Rain 15 1024 58 10000 6.69 100 22:47 13.03.2021
1511 Rain 15 1024 58 10000 6.69 100 22:47 13.03.2021
1512 Rain 15 1024 58 10000 7.2 100 22:23 13.03.2021
1513 Rain 15 1024 63 10000 7.2 110 21:36 13.03.2021
1514 Rain 15 1024 63 10000 7.2 110 21:18 13.03.2021
1515 Rain 16 1024 59 10000 5.66 110 20:46 13.03.2021
1516 Rain 16 1024 59 10000 6.17 110 20:25 13.03.2021
1517 Rain 16 1024 59 10000 7.72 100 19:44 13.03.2021
1518 Rain 17 1024 55 10000 7.2 100 19:24 13.03.2021
1519 Rain 17 1024 52 10000 7.2 100 18:42 13.03.2021
1520 Rain 18 1024 52 10000 6.69 100 18:20 13.03.2021
1521 Rain 18 1024 52 10000 6.69 100 17:51 13.03.2021
1522 Rain 18 1024 48 10000 6.69 110 17:31 13.03.2021
1523 Rain 19 1024 48 10000 5.14 110 16:53 13.03.2021
1524 Rain 19 1024 45 10000 4.12 110 16:35 13.03.2021
1525 Clear 19 1024 45 10000 4.12 110 15:56 13.03.2021
1526 Clear 19 1024 45 10000 3.09 110 15:18 13.03.2021
1527 Clear 20 1024 45 10000 3.09 100 14:41 13.03.2021
1528 Clear 20 1024 45 10000 3.09 100 14:21 13.03.2021
1529 Clear 21 1024 40 10000 4.12 120 13:28 13.03.2021
1530 Clear 22 1024 40 10000 4.63 110 12:52 13.03.2021
1531 Clear 22 1024 37 10000 4.12 110 12:34 13.03.2021
1532 Clear 23 1023 33 10000 6.17 110 11:54 13.03.2021
1533 Clear 24 1023 31 10000 7.72 110 11:32 13.03.2021
1534 Clear 24 1023 31 10000 7.72 100 10:58 13.03.2021
1535 Clear 25 1023 27 10000 7.2 110 10:31 13.03.2021
1536 Clear 25 1023 27 10000 8.23 140 09:59 13.03.2021
1537 Clear 25 1023 27 10000 7.72 90 09:31 13.03.2021
1538 Clear 26 1023 27 10000 6.69 120 08:54 13.03.2021
1539 Clear 25 1023 25 10000 7.72 110 08:21 13.03.2021
1540 Rain 25 1023 29 10000 7.2 130 07:57 13.03.2021
1541 Rain 25 1024 29 10000 7.2 130 07:28 13.03.2021
1542 Clear 23 1026 35 10000 7.2 90 04:45 13.03.2021
1543 Rain 17 1027 59 10000 7.72 100 01:22 13.03.2021
1544 Rain 16 1026 67 10000 5.66 100 00:23 13.03.2021
1545 Clear 15 1025 67 10000 5.66 100 23:33 12.03.2021
1546 Clear 15 1025 67 10000 7.2 110 22:56 12.03.2021
1547 Clear 15 1025 72 10000 4.63 120 22:29 12.03.2021
1548 Clear 15 1025 72 10000 5.14 130 21:56 12.03.2021
1549 Clear 15 1025 67 10000 5.14 120 21:37 12.03.2021
1550 Clear 15 1025 67 10000 5.14 120 21:37 12.03.2021
1551 Clear 16 1025 67 10000 5.14 120 21:18 12.03.2021
1552 Clear 16 1024 67 10000 5.66 130 20:46 12.03.2021
1553 Clear 16 1024 67 10000 5.14 130 20:21 12.03.2021
1554 Rain 17 1024 67 10000 6.17 130 19:44 12.03.2021
1555 Clear 17 1024 63 10000 6.17 120 19:25 12.03.2021
1556 Clouds 18 1024 59 10000 3.6 140 18:43 12.03.2021
1557 Clouds 18 1024 59 10000 3.6 140 18:24 12.03.2021
1558 Rain 18 1023 55 10000 4.63 150 17:41 12.03.2021
1559 Rain 18 1023 55 10000 4.63 150 17:23 12.03.2021
1560 Rain 19 1023 59 10000 4.63 170 16:43 12.03.2021
1561 Rain 19 1023 59 10000 4.63 170 16:18 12.03.2021
1562 Rain 19 1022 55 10000 4.63 160 15:37 12.03.2021
1563 Rain 20 1022 56 10000 4.63 160 14:49 12.03.2021
1564 Rain 20 1022 63 10000 4.63 150 14:22 12.03.2021
1565 Rain 20 1021 63 10000 4.12 160 13:54 12.03.2021
1566 Rain 20 1021 64 10000 4.12 160 13:36 12.03.2021
1567 Rain 21 1021 64 10000 4.12 160 13:18 12.03.2021
1568 Rain 22 1020 56 10000 5.14 150 12:41 12.03.2021
1569 Rain 22 1020 56 10000 5.14 150 12:20 12.03.2021
1570 Rain 23 1020 56 10000 5.66 160 11:51 12.03.2021
1571 Rain 24 1019 49 10000 6.17 150 11:23 12.03.2021
1572 Rain 24 1019 50 10000 7.2 140 10:54 12.03.2021
1573 Rain 24 1019 53 10000 7.2 150 10:26 12.03.2021
1574 Clouds 25 1018 53 10000 5.14 140 09:56 12.03.2021
1575 Clouds 25 1018 53 10000 5.14 140 09:25 12.03.2021
1576 Clouds 25 1018 53 10000 5.14 100 08:45 12.03.2021
1577 Clouds 26 1018 57 10000 5.66 90 07:58 12.03.2021
1578 Clouds 25 1018 60 10000 7.2 140 07:33 12.03.2021
1579 Clouds 25 1018 60 10000 6.69 140 06:51 12.03.2021
1580 Clouds 24 1018 64 10000 7.72 150 06:26 12.03.2021
1581 Clouds 22 1016 94 10000 5.14 180 02:21 12.03.2021
1582 Clouds 21 1016 88 10000 2.57 180 00:19 12.03.2021
1583 Clouds 21 1014 94 10000 3.6 180 23:25 11.03.2021
1584 Clouds 21 1014 94 10000 2.57 210 22:43 11.03.2021
1585 Clouds 21 1014 94 10000 2.57 210 22:24 11.03.2021
1586 Clouds 21 1014 94 10000 2.57 210 21:47 11.03.2021
1587 Clouds 21 1013 94 10000 3.09 190 21:27 11.03.2021
1588 Clouds 21 1014 88 10000 2.57 260 20:53 11.03.2021
1589 Clouds 21 1013 88 10000 3.09 200 20:35 11.03.2021
1590 Clouds 21 1013 94 10000 1.03 270 19:58 11.03.2021
1591 Clouds 22 1013 83 10000 2.57 250 19:39 11.03.2021
1592 Clouds 22 1013 83 10000 2.57 300 18:56 11.03.2021
1593 Clouds 22 1013 83 10000 2.06 230 18:37 11.03.2021
1594 Clouds 22 1013 83 10000 2.06 230 18:18 11.03.2021
1595 Clouds 22 1013 83 10000 4.12 210 17:41 11.03.2021
1596 Clouds 22 1013 83 10000 3.09 250 16:43 11.03.2021
1597 Clouds 22 1013 83 10000 3.09 250 16:43 11.03.2021
1598 Clouds 22 1013 83 10000 3.09 250 16:25 11.03.2021
1599 Clouds 22 1013 83 10000 3.09 240 15:44 11.03.2021
1600 Clouds 22 1013 83 10000 3.09 270 15:21 11.03.2021
1601 Clouds 22 1013 83 10000 2.57 270 14:45 11.03.2021
1602 Clouds 22 1013 83 10000 2.57 270 14:45 11.03.2021
1603 Clouds 22 1013 83 10000 2.57 270 14:19 11.03.2021
1604 Rain 23 1013 83 10000 2.57 270 13:46 11.03.2021
1605 Clouds 23 1012 78 10000 2.57 250 13:24 11.03.2021
1606 Clouds 23 1012 78 9000 2.57 260 12:57 11.03.2021
1607 Rain 23 1013 73 10000 5.66 260 12:36 11.03.2021
1608 Rain 23 1013 73 10000 5.66 260 12:18 11.03.2021
1609 Clouds 24 1011 73 10000 3.09 300 11:42 11.03.2021
1610 Clouds 24 1011 73 10000 3.09 300 11:19 11.03.2021
1611 Clouds 25 1011 69 10000 3.6 280 10:28 11.03.2021
1612 Clouds 25 1011 69 10000 3.6 270 09:53 11.03.2021
1613 Clouds 25 1011 65 10000 5.14 270 09:34 11.03.2021
1614 Clouds 25 1011 65 10000 5.66 270 08:59 11.03.2021
1615 Clouds 25 1011 65 10000 5.14 280 08:40 11.03.2021
1616 Clouds 26 1011 65 10000 4.63 270 07:50 11.03.2021
1617 Clouds 26 1011 69 10000 5.14 290 07:21 11.03.2021
1618 Clouds 26 1011 61 10000 5.66 300 06:47 11.03.2021
1619 Clouds 27 1011 57 10000 6.17 300 06:23 11.03.2021
1620 Clouds 25 1011 78 10000 4.12 350 02:31 11.03.2021
1621 Clouds 22 1011 88 10000 3.6 340 00:33 11.03.2021
1622 Clouds 22 1011 88 10000 3.6 340 00:33 11.03.2021
1623 Clouds 22 1010 94 10000 3.6 10 23:23 10.03.2021
1624 Clouds 22 1010 88 10000 4.12 350 22:42 10.03.2021
1625 Clouds 22 1010 88 10000 4.12 350 22:21 10.03.2021
1626 Clouds 22 1010 88 10000 3.6 10 21:44 10.03.2021
1627 Clouds 22 1010 88 10000 3.6 10 21:44 10.03.2021
1628 Clouds 22 1010 88 10000 4.12 360 21:22 10.03.2021
1629 Clouds 22 1010 88 10000 4.12 360 21:22 10.03.2021
1630 Clouds 22 1010 94 10000 3.6 360 20:45 10.03.2021
1631 Clouds 22 1010 88 10000 3.6 10 20:27 10.03.2021
1632 Clouds 22 1009 88 10000 3.09 350 19:48 10.03.2021
1633 Clouds 23 1009 94 10000 3.6 360 19:27 10.03.2021
1634 Clouds 23 1009 83 10000 4.12 360 18:44 10.03.2021
1635 Clouds 23 1009 88 10000 4.63 20 18:24 10.03.2021
1636 Rain 23 1010 88 10000 3.09 360 17:55 10.03.2021
1637 Rain 23 1010 88 10000 3.09 360 17:36 10.03.2021
1638 Rain 23 1009 83 10000 3.6 360 17:18 10.03.2021
1639 Rain 23 1009 83 10000 4.63 10 16:41 10.03.2021
1640 Rain 23 1009 88 10000 3.6 20 16:22 10.03.2021
1641 Rain 23 1009 88 10000 3.6 30 15:44 10.03.2021
1642 Rain 23 1010 83 10000 3.09 340 15:22 10.03.2021
1643 Clouds 23 1010 83 10000 2.57 330 14:46 10.03.2021
1644 Rain 24 1009 78 10000 3.09 330 14:20 10.03.2021
1645 Rain 24 1009 78 10000 3.09 330 13:51 10.03.2021
1646 Rain 24 1009 78 10000 3.09 320 13:27 10.03.2021
1647 Rain 24 1009 78 10000 3.09 300 12:45 10.03.2021
1648 Rain 24 1009 78 10000 3.09 300 12:19 10.03.2021
1649 Clouds 25 1008 78 10000 3.6 330 11:32 10.03.2021
1650 Clear 25 1008 65 10000 4.63 310 10:59 10.03.2021
1651 Rain 26 1008 65 10000 6.17 310 10:41 10.03.2021
1652 Clouds 26 1008 65 10000 6.17 310 10:23 10.03.2021
1653 Rain 26 1008 69 10000 5.14 310 09:45 10.03.2021
1654 Rain 26 1008 69 10000 5.66 290 09:24 10.03.2021
1655 Rain 26 1008 69 10000 5.66 290 09:24 10.03.2021
1656 Rain 26 1008 65 10000 5.14 300 08:57 10.03.2021
1657 Rain 27 1007 65 10000 5.14 290 08:39 10.03.2021
1658 Rain 27 1007 65 10000 5.14 290 08:20 10.03.2021
1659 Rain 27 1008 65 10000 6.69 300 07:30 10.03.2021
1660 Clouds 27 1008 65 10000 8.23 300 06:56 10.03.2021
1661 Clouds 28 1007 54 10000 7.2 310 06:32 10.03.2021
1662 Clouds 31 1008 45 10000 5.66 10 02:41 10.03.2021
1663 Clear 27 1007 41 10000 3.6 20 23:52 09.03.2021
1664 Clear 27 1006 39 10000 4.12 20 23:20 09.03.2021
1665 Clear 27 1006 39 10000 4.63 40 22:39 09.03.2021
1666 Clear 27 1006 39 10000 4.63 40 22:21 09.03.2021
1667 Clear 28 1006 37 10000 5.66 60 21:46 09.03.2021
1668 Clear 29 1006 37 10000 6.17 50 21:25 09.03.2021
1669 Clear 29 1006 37 10000 7.72 50 20:58 09.03.2021
1670 Clear 29 1006 37 10000 7.72 50 20:39 09.03.2021
1671 Clear 29 1006 37 10000 6.69 70 20:20 09.03.2021
1672 Clear 29 1006 37 10000 6.69 80 19:46 09.03.2021
1673 Clear 29 1006 37 10000 6.69 80 19:26 09.03.2021
1674 Clear 29 1006 37 10000 5.14 70 18:48 09.03.2021
1675 Clear 30 1006 35 10000 4.63 70 18:25 09.03.2021
1676 Clear 30 1006 37 10000 6.17 80 17:51 09.03.2021
1677 Clear 30 1007 39 10000 5.66 80 17:29 09.03.2021
1678 Clouds 30 1007 39 10000 7.72 80 16:44 09.03.2021
1679 Clear 30 1007 37 10000 7.72 80 16:26 09.03.2021
1680 Clear 30 1007 37 10000 8.75 90 15:59 09.03.2021
1681 Clear 30 1007 37 10000 8.75 90 15:30 09.03.2021
1682 Clear 30 1007 35 10000 8.23 90 14:55 09.03.2021
1683 Clear 31 1007 35 10000 7.72 90 14:28 09.03.2021
1684 Clear 30 1007 35 10000 6.69 100 13:43 09.03.2021
1685 Clear 31 1007 35 10000 3.6 110 13:22 09.03.2021
1686 Clear 31 1007 35 10000 4.12 120 12:56 09.03.2021
1687 Clear 31 1007 35 10000 4.63 130 12:38 09.03.2021
1688 Clear 32 1007 35 10000 5.14 130 11:58 09.03.2021
1689 Clear 32 1007 33 10000 4.12 110 11:39 09.03.2021
1690 Clear 33 1007 33 10000 4.12 110 11:19 09.03.2021
1691 Clear 34 1007 28 10000 4.63 110 10:41 09.03.2021
1692 Clear 34 1007 28 10000 4.63 110 10:22 09.03.2021
1693 Clear 35 1007 26 10000 3.6 120 09:47 09.03.2021
1694 Clear 36 1007 26 10000 4.12 110 09:28 09.03.2021
1695 Clear 35 1007 29 10000 3.6 60 08:58 09.03.2021
1696 Clear 35 1007 28 10000 5.14 110 08:34 09.03.2021
1697 Clear 35 1008 29 10000 4.63 90 07:47 09.03.2021
1698 Clear 35 1008 29 10000 3.6 50 07:28 09.03.2021
1699 Clear 34 1009 31 10000 5.14 80 06:59 09.03.2021
1700 Clear 33 1009 35 10000 5.66 80 05:53 09.03.2021
1701 Clear 25 1012 53 10000 6.69 90 01:48 09.03.2021
1702 Clear 22 1012 68 10000 6.69 70 23:58 08.03.2021
1703 Clear 22 1011 60 10000 7.72 70 23:39 08.03.2021
1704 Clear 22 1011 60 10000 7.72 70 23:19 08.03.2021
1705 Clear 22 1011 60 10000 8.23 70 22:40 08.03.2021
1706 Clear 22 1011 60 10000 8.23 70 22:40 08.03.2021
1707 Clear 22 1011 60 10000 8.23 70 22:21 08.03.2021
1708 Clear 22 1011 60 10000 9.26 80 21:50 08.03.2021
1709 Clear 22 1011 60 10000 9.26 80 21:50 08.03.2021
1710 Clear 22 1011 60 10000 9.77 80 21:29 08.03.2021
1711 Clear 23 1011 60 10000 10.8 90 20:43 08.03.2021
1712 Clear 23 1011 60 10000 10.8 90 20:22 08.03.2021
1713 Clear 23 1011 53 10000 10.8 100 19:46 08.03.2021
1714 Clear 23 1011 53 10000 11.32 100 19:24 08.03.2021
1715 Clear 23 1011 53 10000 11.32 100 18:38 08.03.2021
1716 Clear 24 1011 50 10000 11.32 100 18:19 08.03.2021
1717 Clear 24 1011 50 10000 11.32 100 18:19 08.03.2021
1718 Clear 24 1011 53 10000 10.29 100 17:44 08.03.2021
1719 Clear 24 1011 53 10000 10.8 100 17:23 08.03.2021
1720 Clear 24 1011 53 10000 10.8 100 16:43 08.03.2021
1721 Clear 24 1011 53 10000 10.29 100 16:24 08.03.2021
1722 Clear 24 1012 57 10000 7.72 110 15:42 08.03.2021
1723 Clear 25 1012 57 10000 7.72 110 15:23 08.03.2021
1724 Clear 26 1012 50 10000 8.23 110 14:22 08.03.2021
1725 Clear 26 1012 50 10000 8.23 110 14:22 08.03.2021
1726 Clear 26 1012 50 10000 6.17 110 13:57 08.03.2021
1727 Clear 27 1012 47 10000 5.66 120 13:23 08.03.2021
1728 Clear 28 1011 44 10000 3.6 110 12:58 08.03.2021
1729 Clear 28 1011 47 10000 3.6 120 12:35 08.03.2021
1730 Clear 29 1011 42 10000 5.66 110 11:50 08.03.2021
1731 Clear 29 1011 42 10000 5.66 110 11:30 08.03.2021
1732 Clear 30 1011 39 10000 6.17 110 10:57 08.03.2021
1733 Clear 30 1011 39 10000 6.17 120 10:39 08.03.2021
1734 Clear 30 1011 39 10000 6.17 120 10:18 08.03.2021
1735 Clear 31 1011 37 10000 5.14 100 09:27 08.03.2021
1736 Clear 31 1011 40 10000 5.14 110 08:52 08.03.2021
1737 Clouds 31 1011 40 10000 5.66 90 08:25 08.03.2021
1738 Clouds 30 1012 40 10000 7.72 100 07:21 08.03.2021
1739 Clouds 28 1013 47 10000 7.72 100 05:42 08.03.2021
1740 Clouds 25 1015 64 10000 8.23 90 02:24 08.03.2021
1741 Clouds 21 1015 73 10000 5.14 110 00:42 08.03.2021
1742 Clouds 20 1014 77 10000 5.66 110 23:53 07.03.2021
1743 Clouds 21 1014 73 10000 5.66 130 23:21 07.03.2021
1744 Clouds 21 1014 73 10000 3.6 130 22:47 07.03.2021
1745 Clouds 21 1013 73 10000 3.6 120 22:28 07.03.2021
1746 Clouds 21 1013 73 10000 7.2 110 21:53 07.03.2021
1747 Clouds 21 1013 73 10000 6.69 100 21:33 07.03.2021
1748 Clouds 21 1013 73 10000 3.6 130 20:58 07.03.2021
1749 Clouds 21 1013 73 10000 3.6 130 20:58 07.03.2021
1750 Clear 21 1012 73 10000 6.69 80 20:40 07.03.2021
1751 Clear 22 1012 73 10000 6.69 80 20:18 07.03.2021
1752 Clear 22 1013 68 10000 3.6 110 19:40 07.03.2021
1753 Clear 22 1013 68 10000 3.6 110 19:22 07.03.2021
1754 Clear 23 1013 64 10000 5.14 120 18:51 07.03.2021
1755 Clear 23 1013 64 10000 5.14 120 18:21 07.03.2021
1756 Clear 23 1013 64 10000 4.12 110 17:59 07.03.2021
1757 Clear 23 1013 68 10000 4.12 100 17:38 07.03.2021
1758 Clear 23 1013 68 10000 4.12 100 17:18 07.03.2021
1759 Clear 23 1013 68 10000 2.57 110 16:42 07.03.2021
1760 Clear 23 1013 68 10000 2.57 110 16:20 07.03.2021
1761 Clear 23 1014 64 10000 3.6 160 15:49 07.03.2021
1762 Clear 24 1013 57 10000 3.09 130 15:31 07.03.2021
1763 Clear 24 1014 57 10000 3.6 160 14:47 07.03.2021
1764 Clear 24 1014 60 10000 4.63 160 14:28 07.03.2021
1765 Clear 25 1014 60 10000 4.63 160 13:45 07.03.2021
1766 Clear 25 1014 57 10000 4.63 160 13:26 07.03.2021
1767 Clear 26 1013 57 10000 4.63 160 12:48 07.03.2021
1768 Clear 26 1012 53 10000 5.14 150 12:29 07.03.2021
1769 Clear 27 1012 50 10000 4.63 120 11:52 07.03.2021
1770 Clear 27 1012 50 10000 5.14 120 11:23 07.03.2021
1771 Clear 28 1012 47 10000 5.66 120 10:51 07.03.2021
1772 Clear 28 1012 47 10000 5.66 150 10:33 07.03.2021
1773 Clear 29 1012 45 10000 5.14 110 09:52 07.03.2021
1774 Clear 29 1011 45 10000 4.12 120 09:26 07.03.2021
1775 Clouds 29 1012 45 10000 4.63 130 08:48 07.03.2021
1776 Clouds 30 1012 45 10000 5.14 140 08:25 07.03.2021
1777 Clouds 29 1012 45 10000 3.6 80 07:51 07.03.2021
1778 Clouds 25 1015 61 10000 7.2 100 02:44 07.03.2021
1779 Clouds 25 1015 64 10000 5.66 100 02:24 07.03.2021
1780 Clouds 22 1014 73 10000 4.63 90 00:24 07.03.2021
1781 Clouds 21 1014 78 10000 2.57 80 23:39 06.03.2021
1782 Clear 21 1013 83 10000 5.14 110 22:57 06.03.2021
1783 Clouds 21 1014 88 10000 4.12 100 22:38 06.03.2021
1784 Clouds 21 1014 88 10000 4.12 100 22:19 06.03.2021
1785 Clear 21 1013 83 10000 5.14 110 21:25 06.03.2021
1786 Clear 21 1013 78 10000 3.6 110 20:59 06.03.2021
1787 Clear 21 1013 83 10000 5.14 100 20:40 06.03.2021
1788 Clear 21 1013 88 10000 3.6 160 19:51 06.03.2021
1789 Clouds 21 1013 88 10000 3.6 190 19:23 06.03.2021
1790 Clear 21 1012 94 10000 0.51 340 18:57 06.03.2021
1791 Clear 21 1012 94 10000 1.54 200 18:38 06.03.2021
1792 Clear 21 1012 94 10000 1.54 200 18:19 06.03.2021
1793 Clear 21 1013 94 10000 2.06 210 17:47 06.03.2021
1794 Clear 21 1013 88 10000 2.57 210 17:26 06.03.2021
1795 Clear 21 1013 88 10000 3.09 180 16:52 06.03.2021
1796 Clear 22 1013 88 10000 4.12 180 16:30 06.03.2021
1797 Clear 22 1013 83 10000 3.6 190 15:55 06.03.2021
1798 Clear 22 1013 78 10000 3.09 210 15:34 06.03.2021
1799 Clear 22 1013 78 10000 4.12 190 14:54 06.03.2021
1800 Clear 23 1013 78 10000 3.6 210 14:31 06.03.2021
1801 Clouds 23 1013 78 10000 3.6 220 13:46 06.03.2021
1802 Clouds 23 1013 83 10000 3.09 220 13:24 06.03.2021
1803 Clear 24 1012 73 10000 3.6 210 12:48 06.03.2021
1804 Clouds 24 1012 65 10000 4.12 210 12:20 06.03.2021
1805 Clouds 24 1012 69 10000 4.63 220 11:58 06.03.2021
1806 Clouds 25 1012 65 10000 5.66 240 11:23 06.03.2021
1807 Clouds 26 1012 65 10000 5.66 240 10:54 06.03.2021
1808 Clouds 26 1011 61 10000 6.17 250 10:35 06.03.2021
1809 Clouds 27 1011 61 10000 5.14 230 09:51 06.03.2021
1810 Clouds 27 1011 61 10000 5.66 230 09:21 06.03.2021
1811 Clouds 27 1011 61 10000 5.66 230 08:53 06.03.2021
1812 Clouds 27 1012 61 10000 6.17 240 08:25 06.03.2021
1813 Rain 27 1012 61 10000 5.66 250 07:42 06.03.2021
1814 Clouds 27 1012 61 10000 5.66 250 07:21 06.03.2021
1815 Clouds 27 1013 61 10000 2.57 210 05:40 06.03.2021
1816 Clouds 25 1013 73 10000 1.03 190 02:52 06.03.2021
1817 Clouds 22 1013 88 10000 2.57 190 01:28 06.03.2021
1818 Clouds 22 1013 88 10000 2.57 190 00:44 06.03.2021
1819 Clouds 21 1012 88 10000 2.57 200 23:39 05.03.2021
1820 Clouds 21 1012 88 10000 2.57 200 23:39 05.03.2021
1821 Clouds 21 1012 88 10000 2.57 200 23:18 05.03.2021
1822 Clouds 22 1012 88 10000 2.57 210 22:43 05.03.2021
1823 Clouds 22 1012 88 10000 2.57 220 22:20 05.03.2021
1824 Clouds 22 1012 88 10000 2.57 210 21:42 05.03.2021
1825 Clouds 22 1012 88 10000 2.57 210 21:23 05.03.2021
1826 Clouds 22 1012 94 10000 2.57 210 20:43 05.03.2021
1827 Clouds 22 1012 94 10000 2.57 210 20:23 05.03.2021
1828 Clouds 22 1012 94 10000 2.06 210 19:44 05.03.2021
1829 Clouds 21 1012 94 10000 1.93 167 19:22 05.03.2021
1830 Clouds 22 1012 94 10000 2.06 140 18:44 05.03.2021
1831 Clouds 22 1012 94 10000 2.57 230 18:25 05.03.2021
1832 Clouds 22 1012 94 10000 2.06 260 17:49 05.03.2021
1833 Clouds 21 1012 94 10000 2.24 197 17:31 05.03.2021
1834 Clouds 22 1013 94 10000 1.54 270 16:42 05.03.2021
1835 Clouds 22 1013 94 10000 1.54 270 16:23 05.03.2021
1836 Clouds 22 1013 94 10000 2.06 210 15:54 05.03.2021
1837 Clouds 22 1013 94 10000 2.06 200 15:27 05.03.2021
1838 Clouds 22 1013 88 10000 2.06 220 14:43 05.03.2021
1839 Clouds 22 1013 94 10000 2.57 250 14:24 05.03.2021
1840 Clouds 22 1013 88 10000 2.57 280 13:43 05.03.2021
1841 Clouds 22 1012 94 10000 3.09 240 13:21 05.03.2021
1842 Clouds 22 1012 94 10000 3.09 240 12:43 05.03.2021
1843 Clouds 23 1012 78 10000 4.12 280 11:39 05.03.2021
1844 Clouds 23 1012 78 10000 4.12 280 11:39 05.03.2021
1845 Clouds 23 1012 78 10000 4.12 280 11:19 05.03.2021
1846 Rain 24 1012 69 10000 4.63 280 10:45 05.03.2021
1847 Rain 24 1012 69 10000 4.63 280 10:26 05.03.2021
1848 Clouds 24 1011 73 10000 5.14 280 09:58 05.03.2021
1849 Clouds 25 1011 69 10000 5.66 280 09:38 05.03.2021
1850 Clouds 25 1011 69 10000 5.66 280 09:20 05.03.2021
1851 Clouds 25 1011 61 10000 6.69 300 08:38 05.03.2021
1852 Clouds 25 1011 61 10000 6.69 300 08:20 05.03.2021
1853 Clouds 26 1011 61 10000 5.66 290 07:33 05.03.2021
1854 Clouds 26 1012 65 10000 5.66 280 06:34 05.03.2021
1855 Clouds 26 1012 61 10000 6.69 310 05:41 05.03.2021
1856 Rain 21 1012 94 10000 2.57 20 00:59 05.03.2021
1857 Rain 20 1012 94 5000 3.6 360 23:53 04.03.2021
1858 Rain 20 1011 94 10000 3.09 20 23:24 04.03.2021
1859 Clouds 20 1011 94 10000 2.57 40 22:29 04.03.2021
1860 Rain 20 1011 94 10000 2.06 30 21:53 04.03.2021
1861 Clouds 20 1011 94 10000 2.57 30 21:31 04.03.2021
1862 Clouds 20 1010 94 10000 2.57 20 20:57 04.03.2021
1863 Clouds 20 1010 94 10000 2.57 10 20:38 04.03.2021
1864 Clouds 21 1010 94 10000 2.57 10 20:18 04.03.2021
1865 Clouds 21 1010 94 10000 1.54 10 19:43 04.03.2021
1866 Clouds 21 1010 94 10000 3.6 360 19:23 04.03.2021
1867 Clouds 21 1010 94 10000 3.6 10 18:45 04.03.2021
1868 Clouds 21 1010 94 10000 3.09 10 18:26 04.03.2021
1869 Clouds 21 1010 94 10000 3.09 20 17:47 04.03.2021
1870 Clouds 21 1010 94 10000 3.09 30 17:28 04.03.2021
1871 Clouds 21 1010 94 10000 2.57 30 16:48 04.03.2021
1872 Clouds 21 1010 94 10000 2.06 350 16:29 04.03.2021
1873 Clouds 21 1010 94 10000 2.57 30 15:50 04.03.2021
1874 Clouds 21 1010 94 10000 2.57 20 15:32 04.03.2021
1875 Clouds 21 1010 94 10000 2.06 340 14:50 04.03.2021
1876 Clouds 22 1010 88 10000 2.57 290 14:26 04.03.2021
1877 Clouds 22 1010 94 10000 2.57 290 13:50 04.03.2021
1878 Clouds 22 1010 88 10000 3.6 290 13:32 04.03.2021
1879 Clouds 22 1010 83 10000 3.09 280 12:53 04.03.2021
1880 Clouds 22 1010 83 10000 4.12 300 12:35 04.03.2021
1881 Clouds 23 1009 78 10000 4.63 290 11:47 04.03.2021
1882 Clouds 23 1009 78 10000 6.17 290 11:25 04.03.2021
1883 Clouds 24 1009 69 10000 7.2 300 10:52 04.03.2021
1884 Clouds 24 1008 65 10000 6.69 300 10:31 04.03.2021
1885 Clouds 26 1008 61 10000 7.2 300 09:42 04.03.2021
1886 Clouds 26 1008 61 10000 7.2 300 08:59 04.03.2021
1887 Clouds 26 1008 61 10000 6.69 310 08:35 04.03.2021
1888 Clouds 27 1008 61 10000 6.69 310 07:53 04.03.2021
1889 Rain 27 1007 57 10000 5.66 310 07:28 04.03.2021
1890 Clouds 27 1008 57 10000 6.69 290 06:24 04.03.2021
1891 Clouds 24 1008 78 10000 6.17 310 03:25 04.03.2021
1892 Clouds 23 1008 83 10000 4.63 360 01:40 04.03.2021
1893 Rain 21 1006 94 10000 2.57 70 22:44 03.03.2021
1894 Rain 20 1006 88 10000 5.66 80 22:26 03.03.2021
1895 Clouds 21 1006 83 10000 6.69 70 21:43 03.03.2021
1896 Clouds 21 1006 83 10000 6.69 70 21:24 03.03.2021
1897 Rain 22 1006 68 10000 5.66 50 20:58 03.03.2021
1898 Clouds 22 1005 78 10000 7.2 40 20:40 03.03.2021
1899 Rain 23 1005 78 10000 6.17 50 19:59 03.03.2021
1900 Clouds 23 1006 78 10000 6.17 50 19:40 03.03.2021
1901 Clouds 23 1006 78 10000 6.17 50 19:20 03.03.2021
1902 Rain 23 1006 78 10000 5.66 80 18:45 03.03.2021
1903 Clouds 23 1006 78 10000 5.66 80 18:20 03.03.2021
1904 Rain 22 1006 83 10000 7.72 80 17:42 03.03.2021
1905 Rain 22 1006 83 10000 7.72 80 17:18 03.03.2021
1906 Clouds 22 1006 83 10000 5.14 70 16:40 03.03.2021
1907 Rain 22 1006 83 10000 5.14 70 16:21 03.03.2021
1908 Clouds 22 1007 78 10000 7.2 70 15:33 03.03.2021
1909 Rain 23 1007 78 10000 3.6 80 14:56 03.03.2021
1910 Clouds 24 1007 78 10000 3.6 80 14:29 03.03.2021
1911 Rain 24 1006 73 10000 2.57 150 13:52 03.03.2021
1912 Rain 24 1006 73 10000 2.57 150 13:31 03.03.2021
1913 Clouds 24 1006 73 10000 1.54 360 12:44 03.03.2021
1914 Rain 24 1006 65 10000 4.12 50 12:26 03.03.2021
1915 Rain 25 1006 65 10000 5.66 70 11:48 03.03.2021
1916 Clouds 26 1006 65 10000 5.66 70 11:28 03.03.2021
1917 Rain 27 1005 57 10000 3.6 50 10:48 03.03.2021
1918 Rain 27 1005 57 10000 3.6 50 10:26 03.03.2021
1919 Clouds 28 1006 57 10000 3.6 20 09:48 03.03.2021
1920 Rain 27 1006 61 10000 3.6 40 09:24 03.03.2021
1921 Clouds 27 1005 65 10000 5.14 20 08:39 03.03.2021
1922 Clouds 26 1005 65 10000 5.14 20 08:20 03.03.2021
1923 Clouds 25 1007 73 10000 3.6 40 07:39 03.03.2021
1924 Clouds 24 1007 73 10000 5.14 100 06:51 03.03.2021
1925 Clouds 23 1006 73 10000 3.09 60 05:46 03.03.2021
1926 Clouds 22 1006 83 10000 7.72 120 04:57 03.03.2021
1927 Clouds 21 1007 88 10000 4.63 110 04:25 03.03.2021
1928 Clouds 21 1010 88 10000 4.12 60 01:46 03.03.2021
1929 Clouds 21 1009 88 10000 5.66 40 23:55 02.03.2021
1930 Clouds 22 1009 78 10000 4.63 50 23:21 02.03.2021
1931 Clouds 22 1009 78 10000 8.75 80 22:41 02.03.2021
1932 Clouds 22 1009 78 10000 8.75 80 22:18 02.03.2021
1933 Clear 22 1009 83 10000 7.72 90 21:39 02.03.2021
1934 Clear 22 1009 83 10000 7.72 90 21:19 02.03.2021
1935 Clear 22 1009 73 10000 6.69 70 20:45 02.03.2021
1936 Clear 22 1009 83 10000 7.72 70 20:22 02.03.2021
1937 Clear 22 1009 83 10000 7.72 80 19:50 02.03.2021
1938 Clear 22 1009 83 10000 7.72 90 19:32 02.03.2021
1939 Clear 22 1009 83 10000 4.63 80 18:58 02.03.2021
1940 Clear 21 1009 78 10000 5.66 50 18:39 02.03.2021
1941 Clear 21 1009 78 10000 5.66 50 18:19 02.03.2021
1942 Clear 21 1010 73 10000 4.63 110 17:40 02.03.2021
1943 Clear 21 1010 73 10000 4.63 110 17:20 02.03.2021
1944 Clear 21 1010 83 10000 2.57 120 16:48 02.03.2021
1945 Clear 21 1010 77 10000 5.77 94 15:59 02.03.2021
1946 Clear 20 1010 82 10000 2.57 50 15:29 02.03.2021
1947 Clear 21 1009 82 10000 0.51 50 14:56 02.03.2021
1948 Clear 21 1009 77 10000 5.66 90 14:21 02.03.2021
1949 Clear 21 1009 68 10000 5.14 100 13:48 02.03.2021
1950 Clouds 21 1009 68 10000 6.69 110 13:28 02.03.2021
1951 Clouds 21 1009 73 10000 7.72 100 12:50 02.03.2021
1952 Clouds 20 1009 77 10000 11.32 90 12:26 02.03.2021
1953 Clouds 23 1008 78 7000 10.8 50 11:52 02.03.2021
1954 Clouds 25 1008 78 7000 10.8 50 11:25 02.03.2021
1955 Clouds 28 1007 51 10000 7.72 90 10:54 02.03.2021
1956 Clouds 29 1006 45 10000 7.72 120 10:30 02.03.2021
1957 Clear 30 1006 45 10000 7.72 110 09:43 02.03.2021
1958 Clear 30 1006 42 10000 5.66 110 09:24 02.03.2021
1959 Clear 30 1007 45 10000 5.14 100 08:53 02.03.2021
1960 Clear 30 1007 48 10000 6.69 90 08:33 02.03.2021
1961 Clear 30 1007 45 10000 7.2 80 07:46 02.03.2021
1962 Clouds 29 1008 45 10000 7.2 100 06:37 02.03.2021
1963 Clouds 29 1008 47 10000 7.72 110 05:50 02.03.2021
1964 Clouds 28 1009 47 10000 6.69 120 05:32 02.03.2021
1965 Clouds 27 1010 53 10000 5.14 110 04:24 02.03.2021
1966 Clouds 22 1011 78 10000 3.6 100 01:42 02.03.2021
1967 Clouds 22 1011 78 10000 3.6 100 01:42 02.03.2021
1968 Clouds 21 1011 78 10000 3.6 100 01:19 02.03.2021
1969 Clouds 19 1009 82 10000 4.12 80 23:29 01.03.2021
1970 Clouds 19 1009 77 10000 4.12 60 22:43 01.03.2021
1971 Clouds 19 1008 73 10000 5.14 110 22:25 01.03.2021
1972 Clouds 19 1008 77 10000 6.17 110 21:53 01.03.2021
1973 Clouds 19 1009 77 10000 5.66 110 21:24 01.03.2021
1974 Clouds 19 1009 82 10000 4.12 110 21:00 01.03.2021
1975 Clouds 19 1009 73 10000 5.66 110 20:41 01.03.2021
1976 Clouds 19 1009 73 10000 4.63 110 20:19 01.03.2021
1977 Clouds 19 1009 73 10000 4.63 110 19:43 01.03.2021
1978 Clear 20 1009 73 10000 5.14 80 19:20 01.03.2021
1979 Clouds 20 1009 77 10000 5.14 90 18:42 01.03.2021
1980 Clouds 20 1009 77 10000 5.14 90 18:22 01.03.2021
1981 Clouds 20 1010 77 10000 6.17 60 17:46 01.03.2021
1982 Clear 20 1009 77 10000 7.2 90 17:21 01.03.2021
1983 Rain 19 1009 82 10000 10.29 100 16:46 01.03.2021
1984 Clouds 19 1009 82 10000 10.29 100 16:26 01.03.2021
1985 Rain 19 1009 82 10000 9.77 100 15:46 01.03.2021
1986 Clouds 19 1010 82 10000 10.29 80 15:22 01.03.2021
1987 Clear 19 1009 82 10000 10.8 90 14:55 01.03.2021
1988 Clouds 19 1009 82 10000 10.8 100 14:36 01.03.2021
1989 Clouds 19 1009 82 10000 11.32 90 13:45 01.03.2021
1990 Rain 19 1009 82 10000 11.32 90 13:25 01.03.2021
1991 Clouds 19 1009 82 10000 11.32 100 12:59 01.03.2021
1992 Clouds 19 1008 77 10000 10.29 110 12:40 01.03.2021
1993 Clouds 18 1008 77 10000 10.29 110 12:19 01.03.2021
1994 Clouds 18 1009 82 10000 4.63 160 11:45 01.03.2021
1995 Clouds 18 1009 88 9000 4.63 130 10:57 01.03.2021
1996 Clouds 18 1009 94 8000 5.66 120 10:36 01.03.2021
1997 Clouds 19 1009 94 8000 5.66 120 10:18 01.03.2021
1998 Clouds 20 1009 77 10000 5.66 120 09:44 01.03.2021
1999 Clouds 20 1009 77 10000 6.17 130 09:23 01.03.2021
2000 Clouds 19 1009 82 10000 5.14 150 08:52 01.03.2021
2001 Clouds 19 1010 82 10000 6.17 170 08:21 01.03.2021
2002 Clouds 19 1011 88 10000 6.69 120 06:54 01.03.2021
2003 Clouds 18 1011 94 10000 4.12 150 05:39 01.03.2021
2004 Clouds 17 1012 88 10000 4.63 50 01:48 01.03.2021
2005 Clouds 17 1010 82 10000 10.29 80 23:40 28.02.2021
2006 Clouds 18 1011 82 10000 6.17 50 22:52 28.02.2021
2007 Clouds 19 1010 63 10000 4.63 90 22:23 28.02.2021
2008 Clear 20 1010 60 10000 5.66 110 21:54 28.02.2021
2009 Clear 20 1009 60 10000 6.69 100 21:32 28.02.2021
2010 Clear 20 1009 60 10000 8.23 110 20:58 28.02.2021
2011 Clear 20 1009 60 10000 8.23 110 20:37 28.02.2021
2012 Clear 20 1009 60 10000 8.23 110 20:37 28.02.2021
2013 Clear 21 1009 56 10000 6.17 130 19:56 28.02.2021
2014 Clouds 21 1008 56 10000 7.72 110 19:37 28.02.2021
2015 Clouds 21 1008 56 10000 7.72 110 19:19 28.02.2021
2016 Clear 22 1008 52 10000 12.86 110 18:38 28.02.2021
2017 Clear 22 1008 49 10000 13.89 100 18:20 28.02.2021
2018 Clear 23 1008 43 10000 10.8 110 17:47 28.02.2021
2019 Clear 23 1009 43 10000 10.29 100 17:27 28.02.2021
2020 Clear 24 1008 41 10000 12.86 100 16:53 28.02.2021
2021 Clear 24 1008 41 10000 12.86 100 16:34 28.02.2021
2022 Clear 25 1010 36 10000 9.26 110 15:55 28.02.2021
2023 Clear 26 1009 31 10000 8.75 110 15:36 28.02.2021
2024 Clear 26 1009 31 10000 8.75 110 15:18 28.02.2021
2025 Clear 26 1009 31 10000 8.75 110 14:44 28.02.2021
2026 Clear 26 1009 31 10000 8.75 110 14:24 28.02.2021
2027 Clear 27 1009 32 10000 6.69 120 13:47 28.02.2021
2028 Clear 27 1009 32 10000 6.17 130 13:19 28.02.2021
2029 Clear 27 1009 32 10000 6.17 130 13:19 28.02.2021
2030 Clear 27 1008 32 10000 4.63 150 12:55 28.02.2021
2031 Clear 27 1008 32 10000 4.63 150 12:55 28.02.2021
2032 Clear 28 1008 34 10000 5.66 140 12:37 28.02.2021
2033 Clear 28 1008 34 10000 5.66 140 12:19 28.02.2021
2034 Clear 28 1008 30 10000 8.23 140 11:42 28.02.2021
2035 Clear 29 1008 30 10000 8.23 140 11:24 28.02.2021
2036 Clear 29 1008 30 10000 7.2 130 10:52 28.02.2021
2037 Clear 30 1007 30 10000 7.72 140 10:26 28.02.2021
2038 Clear 30 1007 30 10000 6.69 110 09:42 28.02.2021
2039 Clear 30 1007 30 10000 6.69 110 09:24 28.02.2021
2040 Clear 30 1007 30 10000 6.69 140 08:49 28.02.2021
2041 Clear 30 1008 30 10000 6.69 150 08:31 28.02.2021
2042 Clear 30 1008 32 10000 6.69 100 07:54 28.02.2021
2043 Clear 30 1008 35 10000 6.69 110 07:36 28.02.2021
2044 Clear 29 1009 37 10000 6.69 90 06:29 28.02.2021
2045 Clear 28 1010 42 10000 6.69 90 05:24 28.02.2021
2046 Clear 26 1011 47 10000 7.72 90 03:40 28.02.2021
2047 Clear 22 1011 53 10000 6.17 90 01:44 28.02.2021
2048 Clear 21 1011 56 10000 5.66 100 00:50 28.02.2021
2049 Clear 20 1011 59 10000 4.12 100 00:26 28.02.2021
2050 Clear 19 1011 59 10000 4.12 80 23:45 27.02.2021
2051 Clear 19 1010 59 10000 3.6 100 23:19 27.02.2021
2052 Clear 19 1010 56 10000 4.12 110 22:44 27.02.2021
2053 Clear 19 1010 56 10000 4.12 110 22:19 27.02.2021
2054 Clear 20 1009 56 10000 3.09 110 21:42 27.02.2021
2055 Clear 20 1009 56 10000 3.09 110 21:42 27.02.2021
2056 Clear 20 1009 56 10000 3.09 110 21:24 27.02.2021
2057 Clear 20 1009 56 10000 6.87 104 20:49 27.02.2021
2058 Clear 20 1009 52 10000 3.6 140 20:27 27.02.2021
2059 Clear 21 1009 52 10000 5.14 100 19:46 27.02.2021
2060 Clear 21 1009 52 10000 5.14 100 19:27 27.02.2021
2061 Clear 22 1009 49 10000 8.75 110 18:46 27.02.2021
2062 Clear 22 1009 49 10000 9.26 100 18:22 27.02.2021
2063 Clear 23 1009 46 10000 10.29 110 17:57 27.02.2021
2064 Clear 23 1009 43 10000 9.77 110 17:38 27.02.2021
2065 Clear 24 1009 43 10000 9.77 110 17:18 27.02.2021
2066 Clouds 24 1010 43 10000 7.72 120 16:48 27.02.2021
2067 Clear 25 1009 41 10000 8.75 110 16:26 27.02.2021
2068 Clear 24 1009 43 10000 5.66 130 15:43 27.02.2021
2069 Clear 23 1009 43 10000 5.66 130 15:18 27.02.2021
2070 Clear 23 1009 57 10000 4.63 190 14:40 27.02.2021
2071 Clear 23 1009 57 10000 4.63 190 14:20 27.02.2021
2072 Clear 23 1008 60 10000 4.12 210 13:39 27.02.2021
2073 Clear 23 1008 60 10000 4.12 210 13:18 27.02.2021
2074 Clear 24 1008 60 10000 4.63 220 12:45 27.02.2021
2075 Clear 24 1008 53 10000 4.63 230 12:22 27.02.2021
2076 Clear 25 1008 57 10000 5.66 240 11:46 27.02.2021
2077 Clear 25 1007 50 10000 6.69 250 11:27 27.02.2021
2078 Clear 26 1007 47 10000 5.66 260 10:48 27.02.2021
2079 Clear 27 1007 39 10000 6.17 270 10:29 27.02.2021
2080 Rain 29 1007 32 10000 2.57 30 09:52 27.02.2021
2081 Clear 29 1007 23 10000 3.09 150 09:31 27.02.2021
2082 Clear 30 1007 26 10000 5.66 180 08:43 27.02.2021
2083 Clear 31 1007 26 10000 5.66 170 08:22 27.02.2021
2084 Clear 31 1008 26 10000 2.57 110 07:42 27.02.2021
2085 Clear 30 1009 28 10000 6.69 90 06:21 27.02.2021
2086 Clouds 21 1011 60 10000 6.17 120 01:18 27.02.2021
2087 Clouds 18 1010 68 10000 3.09 130 23:58 26.02.2021
2088 Clouds 17 1010 67 10000 5.14 130 23:40 26.02.2021
2089 Clouds 17 1010 67 10000 5.14 130 23:18 26.02.2021
2090 Clear 17 1010 67 10000 4.12 120 22:30 26.02.2021
2091 Clear 17 1010 67 10000 5.66 120 21:49 26.02.2021
2092 Clear 18 1010 63 10000 5.14 120 21:30 26.02.2021
2093 Clear 18 1010 63 10000 5.14 150 20:44 26.02.2021
2094 Clear 18 1010 63 10000 5.14 150 20:24 26.02.2021
2095 Clear 18 1010 68 10000 5.66 140 19:52 26.02.2021
2096 Clear 19 1010 63 10000 6.17 140 19:25 26.02.2021
2097 Clear 19 1010 59 10000 2.57 120 18:46 26.02.2021
2098 Clear 20 1010 56 10000 8.23 120 18:23 26.02.2021
2099 Clear 20 1010 56 10000 8.23 110 17:44 26.02.2021
2100 Clear 21 1010 52 10000 5.66 150 17:26 26.02.2021
2101 Clear 21 1010 52 10000 4.63 140 16:53 26.02.2021
2102 Clear 21 1010 49 10000 4.12 130 16:32 26.02.2021
2103 Clear 22 1010 53 10000 8.23 150 15:58 26.02.2021
2104 Clear 23 1010 49 10000 7.72 150 15:39 26.02.2021
2105 Clear 23 1010 49 10000 7.72 150 15:20 26.02.2021
2106 Clear 24 1010 49 10000 7.72 150 14:47 26.02.2021
2107 Clear 24 1010 46 10000 6.69 160 14:26 26.02.2021
2108 Clear 25 1010 44 10000 7.2 160 13:46 26.02.2021
2109 Clear 25 1009 44 10000 8.75 160 13:25 26.02.2021
2110 Clear 26 1008 36 10000 8.23 170 12:40 26.02.2021
2111 Clouds 27 1008 32 10000 8.23 160 11:58 26.02.2021
2112 Clear 28 1007 32 10000 8.75 150 11:38 26.02.2021
2113 Clear 29 1007 30 10000 8.75 160 10:54 26.02.2021
2114 Clear 30 1007 30 10000 7.72 160 09:59 26.02.2021
2115 Clear 30 1007 27 10000 10.29 160 09:39 26.02.2021
2116 Clear 30 1007 27 10000 10.29 160 09:21 26.02.2021
2117 Clear 30 1007 30 10000 8.23 150 08:29 26.02.2021
2118 Clear 30 1007 30 10000 9.26 170 07:52 26.02.2021
2119 Clear 29 1008 34 10000 8.23 150 06:43 26.02.2021
2120 Clear 29 1008 34 10000 8.23 150 06:43 26.02.2021
2121 Clear 28 1009 36 10000 7.2 150 05:32 26.02.2021
2122 Clouds 26 1010 47 10000 8.75 150 03:51 26.02.2021
2123 Clouds 23 1010 53 10000 8.23 130 02:36 26.02.2021
2124 Clouds 21 1011 60 10000 5.66 150 00:23 26.02.2021
2125 Clouds 20 1010 64 10000 6.69 140 23:29 25.02.2021
2126 Clouds 20 1010 68 10000 4.12 150 22:50 25.02.2021
2127 Clouds 19 1010 68 10000 4.63 160 22:31 25.02.2021
2128 Clear 19 1009 68 10000 4.63 160 21:45 25.02.2021
2129 Clear 19 1009 72 10000 4.63 170 21:26 25.02.2021
2130 Clear 19 1009 72 10000 4.63 170 20:41 25.02.2021
2131 Clear 19 1009 72 10000 4.63 170 20:23 25.02.2021
2132 Clear 19 1009 72 10000 4.63 170 20:23 25.02.2021
2133 Clear 20 1009 68 10000 4.63 150 19:52 25.02.2021
2134 Clear 21 1009 64 10000 5.14 160 19:22 25.02.2021
2135 Clear 21 1009 64 10000 7.2 160 18:58 25.02.2021
2136 Clear 22 1009 60 10000 5.14 170 18:27 25.02.2021
2137 Clear 22 1009 56 10000 5.66 170 17:50 25.02.2021
2138 Clear 23 1009 60 10000 5.66 180 17:27 25.02.2021
2139 Clear 23 1009 60 10000 5.14 170 16:48 25.02.2021
2140 Clear 23 1009 64 10000 4.12 190 16:25 25.02.2021
2141 Rain 23 1010 64 10000 4.63 200 15:30 25.02.2021
2142 Clear 23 1010 60 10000 4.63 210 14:58 25.02.2021
2143 Clear 23 1010 60 10000 4.12 220 14:26 25.02.2021
2144 Clear 23 1010 60 10000 5.14 210 13:53 25.02.2021
2145 Clear 24 1010 57 10000 6.69 200 13:26 25.02.2021
2146 Clear 24 1010 57 10000 6.17 210 12:55 25.02.2021
2147 Clear 24 1009 61 10000 6.69 230 12:22 25.02.2021
2148 Clear 25 1010 65 10000 6.69 220 11:47 25.02.2021
2149 Clear 27 1009 42 10000 7.2 220 11:19 25.02.2021
2150 Clear 28 1009 45 10000 7.72 220 10:45 25.02.2021
2151 Clear 28 1009 42 10000 8.23 220 10:23 25.02.2021
2152 Clear 29 1009 37 10000 8.75 230 09:42 25.02.2021
2153 Clear 28 1009 45 10000 8.75 230 08:55 25.02.2021
2154 Clear 29 1009 39 10000 8.23 230 08:25 25.02.2021
2155 Clear 29 1009 39 10000 7.2 240 07:53 25.02.2021
2156 Clear 29 1010 37 10000 6.17 240 07:29 25.02.2021
2157 Clear 30 1010 37 10000 6.17 230 06:51 25.02.2021
2158 Clear 24 1013 56 10000 4.12 80 01:57 25.02.2021
2159 Clear 23 1014 60 10000 2.57 90 01:37 25.02.2021
2160 Clear 20 1013 72 10000 4.12 120 00:39 25.02.2021
2161 Clear 19 1013 77 10000 3.6 130 23:51 24.02.2021
2162 Clear 18 1013 77 10000 3.09 130 23:24 24.02.2021
2163 Clear 18 1012 77 10000 4.12 120 22:44 24.02.2021
2164 Clear 19 1012 77 10000 3.09 100 22:25 24.02.2021
2165 Clear 19 1012 77 10000 3.6 120 21:45 24.02.2021
2166 Clear 19 1013 72 10000 2.06 130 20:54 24.02.2021
2167 Clear 20 1012 64 10000 3.6 100 20:31 24.02.2021
2168 Rain 20 1012 64 10000 4.12 90 19:56 24.02.2021
2169 Clear 20 1012 64 10000 3.09 70 19:28 24.02.2021
2170 Clear 21 1013 64 10000 4.63 100 18:55 24.02.2021
2171 Clear 21 1013 64 10000 3.09 110 18:34 24.02.2021
2172 Rain 21 1013 88 10000 2.57 80 17:50 24.02.2021
2173 Clear 21 1013 83 10000 3.09 30 17:29 24.02.2021
2174 Clear 21 1013 83 10000 3.09 80 16:52 24.02.2021
2175 Clear 21 1013 83 10000 1.54 50 16:22 24.02.2021
2176 Clear 21 1013 83 10000 2.06 210 15:58 24.02.2021
2177 Clouds 22 1013 83 10000 2.54 139 15:36 24.02.2021
2178 Clear 22 1013 73 10000 3.09 240 14:52 24.02.2021
2179 Clear 22 1013 73 10000 3.6 250 14:32 24.02.2021
2180 Clear 23 1013 69 10000 3.09 250 13:56 24.02.2021
2181 Clear 23 1012 69 10000 4.12 250 13:37 24.02.2021
2182 Clear 23 1012 69 10000 4.12 250 13:19 24.02.2021
2183 Clear 24 1012 57 10000 5.14 250 12:42 24.02.2021
2184 Clear 24 1012 57 10000 5.14 250 12:42 24.02.2021
2185 Clear 24 1012 57 10000 5.14 250 12:23 24.02.2021
2186 Clear 26 1011 54 10000 5.14 270 11:39 24.02.2021
2187 Clear 28 1011 42 10000 7.2 230 10:47 24.02.2021
2188 Clear 29 1011 42 10000 7.2 230 10:26 24.02.2021
2189 Clear 29 1011 42 10000 7.2 270 09:30 24.02.2021
2190 Clear 31 1012 37 10000 6.69 250 08:52 24.02.2021
2191 Clear 31 1012 35 10000 7.2 250 08:33 24.02.2021
2192 Clear 31 1012 33 10000 6.69 250 07:47 24.02.2021
2193 Clear 31 1012 33 10000 6.17 270 07:19 24.02.2021
2194 Clear 32 1013 29 10000 6.17 260 05:49 24.02.2021
2195 Clear 29 1015 42 10000 1.54 250 02:35 24.02.2021
2196 Clear 17 1014 82 10000 2.37 151 23:39 23.02.2021
2197 Clear 17 1013 82 10000 0.51 340 22:51 23.02.2021
2198 Clear 18 1013 77 10000 2.41 154 22:23 23.02.2021
2199 Clear 18 1013 77 10000 2.41 154 21:49 23.02.2021
2200 Clear 20 1013 77 10000 2.06 230 21:27 23.02.2021
2201 Clear 20 1013 77 10000 2.06 240 20:59 23.02.2021
2202 Clear 21 1013 72 10000 2.11 153 20:39 23.02.2021
2203 Clear 20 1013 72 10000 1.57 122 20:20 23.02.2021
2204 Clear 21 1013 72 10000 1.57 122 19:46 23.02.2021
2205 Clear 20 1013 72 10000 2.57 180 19:26 23.02.2021
2206 Clear 22 1013 73 10000 3.09 200 18:44 23.02.2021
2207 Clear 23 1013 64 10000 3.6 210 18:26 23.02.2021
2208 Clear 23 1013 60 10000 3.09 190 17:53 23.02.2021
2209 Rain 23 1013 64 10000 3.6 190 17:27 23.02.2021
2210 Rain 23 1013 53 10000 3.6 200 16:46 23.02.2021
2211 Rain 24 1013 53 10000 3.6 200 16:24 23.02.2021
2212 Rain 24 1013 53 10000 4.63 210 15:50 23.02.2021
2213 Rain 25 1014 50 10000 4.63 210 15:31 23.02.2021
2214 Rain 25 1014 50 10000 4.12 210 14:55 23.02.2021
2215 Rain 26 1014 57 10000 3.09 220 14:37 23.02.2021
2216 Rain 26 1014 44 10000 5.14 210 14:19 23.02.2021
2217 Rain 27 1013 42 10000 4.63 210 13:38 23.02.2021
2218 Rain 27 1013 34 10000 5.66 230 12:59 23.02.2021
2219 Rain 28 1013 25 10000 4.63 240 12:41 23.02.2021
2220 Rain 29 1013 25 10000 4.63 240 12:18 23.02.2021
2221 Rain 30 1012 15 10000 4.63 240 11:45 23.02.2021
2222 Clear 33 1012 13 10000 4.63 220 11:18 23.02.2021
2223 Clear 35 1012 12 10000 5.66 240 10:38 23.02.2021
2224 Rain 36 1012 12 10000 5.66 240 09:59 23.02.2021
2225 Rain 35 1012 13 10000 6.69 230 09:41 23.02.2021
2226 Rain 35 1012 13 10000 6.69 230 09:20 23.02.2021
2227 Rain 36 1012 13 10000 5.66 230 08:45 23.02.2021
2228 Rain 35 1012 16 10000 7.2 240 08:20 23.02.2021
2229 Clear 37 1012 10 10000 6.17 280 06:56 23.02.2021
2230 Clear 38 1013 10 10000 4.63 330 05:25 23.02.2021
2231 Clear 34 1014 19 10000 9.26 30 02:37 23.02.2021
2232 Clear 33 1014 19 10000 9.26 30 02:19 23.02.2021
2233 Clear 26 1014 34 10000 6.69 70 00:19 23.02.2021
2234 Clear 24 1013 41 10000 7.2 70 23:30 22.02.2021
2235 Clear 24 1013 43 10000 6.69 70 22:43 22.02.2021
2236 Clear 25 1013 43 10000 6.17 70 22:22 22.02.2021
2237 Clear 25 1012 43 10000 4.63 60 21:57 22.02.2021
2238 Clear 25 1012 41 10000 7.2 70 21:38 22.02.2021
2239 Clear 25 1012 41 10000 7.2 70 21:19 22.02.2021
2240 Clear 25 1012 38 10000 7.2 80 20:44 22.02.2021
2241 Clear 26 1012 38 10000 6.17 80 20:24 22.02.2021
2242 Clear 26 1012 34 10000 7.2 80 19:44 22.02.2021
2243 Clear 27 1012 32 10000 7.2 90 19:26 22.02.2021
2244 Clear 27 1012 30 10000 7.72 100 18:47 22.02.2021
2245 Clear 27 1012 26 10000 6.69 100 18:29 22.02.2021
2246 Clear 28 1012 26 10000 6.17 100 17:48 22.02.2021
2247 Clear 27 1012 56 10000 1.54 360 17:19 22.02.2021
2248 Clear 25 1012 60 10000 1.54 240 16:48 22.02.2021
2249 Clear 25 1012 60 10000 2.57 220 16:25 22.02.2021
2250 Clear 26 1013 47 10000 3.6 200 15:31 22.02.2021
2251 Clear 28 1013 42 10000 5.14 190 14:50 22.02.2021
2252 Clear 28 1013 47 10000 4.63 180 14:32 22.02.2021
2253 Clear 29 1012 37 10000 6.17 190 13:51 22.02.2021
2254 Clear 29 1012 33 10000 6.17 190 13:29 22.02.2021
2255 Clear 30 1012 29 10000 7.2 190 12:45 22.02.2021
2256 Clear 31 1012 25 10000 5.66 200 12:22 22.02.2021
2257 Clear 31 1012 25 10000 5.66 200 12:22 22.02.2021
2258 Clear 33 1012 24 10000 8.23 210 11:48 22.02.2021
2259 Clear 34 1011 21 10000 6.69 230 11:28 22.02.2021
2260 Clear 35 1011 19 10000 7.2 230 10:50 22.02.2021
2261 Clear 37 1011 18 10000 6.17 230 10:31 22.02.2021
2262 Clear 38 1011 19 10000 6.17 260 09:52 22.02.2021
2263 Clear 38 1011 14 10000 5.14 210 09:32 22.02.2021
2264 Clear 38 1011 15 10000 5.14 210 08:58 22.02.2021
2265 Clear 38 1011 16 10000 5.14 250 08:39 22.02.2021
2266 Clear 39 1011 17 10000 2.57 190 07:59 22.02.2021
2267 Clear 38 1012 16 10000 2.06 130 07:27 22.02.2021
2268 Clear 37 1012 18 10000 3.6 70 06:46 22.02.2021
2269 Clear 35 1013 21 10000 4.63 20 05:46 22.02.2021
2270 Clear 31 1014 33 10000 7.2 80 03:48 22.02.2021
2271 Clear 28 1014 39 10000 7.72 90 02:52 22.02.2021
2272 Clear 22 1015 60 10000 6.69 90 00:49 22.02.2021
2273 Clear 21 1015 64 10000 7.72 90 00:24 22.02.2021
2274 Clear 20 1015 68 10000 7.72 80 23:48 21.02.2021
2275 Clear 19 1014 68 10000 8.75 80 22:55 21.02.2021
2276 Clear 19 1014 68 10000 6.69 80 22:24 21.02.2021
2277 Clear 19 1014 68 10000 5.66 80 21:49 21.02.2021
2278 Clear 20 1013 64 10000 4.12 90 21:30 21.02.2021
2279 Clear 20 1013 64 10000 5.14 70 20:49 21.02.2021
2280 Clear 20 1013 64 10000 3.6 40 20:20 21.02.2021
2281 Clear 21 1013 60 10000 2.06 50 19:57 21.02.2021
2282 Clear 21 1012 60 10000 7.72 100 19:36 21.02.2021
2283 Clear 22 1012 60 10000 7.72 100 19:18 21.02.2021
2284 Clear 23 1012 53 10000 7.72 110 18:26 21.02.2021
2285 Clear 24 1012 50 10000 9.77 110 17:47 21.02.2021
2286 Rain 24 1013 47 10000 5.66 110 17:20 21.02.2021
2287 Clear 25 1013 39 10000 8.23 100 16:47 21.02.2021
2288 Clear 26 1013 39 10000 8.23 100 16:26 21.02.2021
2289 Rain 25 1013 50 10000 4.63 200 15:25 21.02.2021
2290 Clear 26 1013 47 10000 5.14 190 14:58 21.02.2021
2291 Clear 26 1013 47 10000 6.69 190 14:37 21.02.2021
2292 Clear 26 1013 47 10000 6.69 190 14:37 21.02.2021
2293 Clear 27 1013 42 10000 6.69 190 13:57 21.02.2021
2294 Clear 27 1013 42 10000 6.69 190 13:29 21.02.2021
2295 Clear 28 1012 37 10000 6.69 210 12:49 21.02.2021
2296 Clear 29 1012 33 10000 5.14 220 12:26 21.02.2021
2297 Rain 31 1012 31 10000 6.17 230 11:42 21.02.2021
2298 Clear 33 1012 27 10000 6.69 230 10:48 21.02.2021
2299 Clear 34 1011 29 10000 6.69 240 10:22 21.02.2021
2300 Rain 34 1011 28 10000 7.2 240 09:47 21.02.2021
2301 Rain 34 1011 26 10000 7.2 230 09:25 21.02.2021
2302 Rain 35 1012 26 10000 5.66 270 08:37 21.02.2021
2303 Clear 35 1012 18 10000 3.6 190 07:58 21.02.2021
2304 Clear 36 1012 18 10000 5.14 200 07:23 21.02.2021
2305 Clear 34 1013 26 10000 3.6 180 06:24 21.02.2021
2306 Clear 26 1016 47 10000 4.63 100 02:43 21.02.2021
2307 Clear 22 1015 49 10000 5.66 90 01:22 21.02.2021
2308 Clear 20 1015 56 10000 2.57 100 00:22 21.02.2021
2309 Clear 19 1015 59 10000 3.6 110 23:48 20.02.2021
2310 Clear 19 1014 59 10000 1.54 120 22:58 20.02.2021
2311 Clear 19 1014 60 10000 4.12 110 22:33 20.02.2021
2312 Rain 19 1014 60 10000 4.12 110 21:57 20.02.2021
2313 Rain 20 1013 56 10000 4.63 110 21:39 20.02.2021
2314 Clear 20 1013 56 10000 4.63 110 21:18 20.02.2021
2315 Clear 21 1013 53 10000 3.6 130 20:38 20.02.2021
2316 Clear 21 1013 53 10000 3.6 130 20:19 20.02.2021
2317 Clear 20 1013 82 10000 2.06 180 19:41 20.02.2021
2318 Clear 19 1013 72 10000 3.6 210 18:55 20.02.2021
2319 Clear 19 1013 77 10000 4.63 210 18:33 20.02.2021
2320 Clear 19 1013 77 10000 4.63 210 18:33 20.02.2021
2321 Clear 19 1013 72 10000 5.14 210 17:47 20.02.2021
2322 Clear 20 1013 68 10000 3.6 190 17:28 20.02.2021
2323 Clear 20 1014 68 10000 4.63 190 16:49 20.02.2021
2324 Rain 20 1014 64 10000 4.63 200 16:23 20.02.2021
2325 Clear 20 1014 68 10000 5.14 200 15:42 20.02.2021
2326 Clear 21 1014 60 10000 4.63 210 14:52 20.02.2021
2327 Rain 21 1014 64 10000 5.14 200 14:25 20.02.2021
2328 Clear 22 1014 60 10000 5.66 210 13:58 20.02.2021
2329 Clear 22 1014 56 10000 7.2 210 13:39 20.02.2021
2330 Rain 22 1014 56 10000 7.2 210 13:20 20.02.2021
2331 Rain 23 1013 44 10000 7.2 210 12:36 20.02.2021
2332 Rain 25 1013 36 10000 8.23 220 11:51 20.02.2021
2333 Clear 26 1013 30 10000 7.72 220 11:31 20.02.2021
2334 Clear 28 1012 34 10000 7.2 240 10:52 20.02.2021
2335 Clear 28 1012 30 10000 7.72 230 10:24 20.02.2021
2336 Rain 29 1012 30 10000 7.2 230 09:47 20.02.2021
2337 Rain 29 1012 30 10000 8.23 230 08:56 20.02.2021
2338 Rain 29 1012 30 10000 8.75 230 08:24 20.02.2021
2339 Clear 30 1014 23 10000 3.6 230 05:45 20.02.2021
2340 Clear 25 1016 43 10000 3.6 80 02:32 20.02.2021
2341 Rain 22 1016 46 10000 1.54 220 01:56 20.02.2021
2342 Clear 20 1016 56 10000 2.06 250 00:59 20.02.2021
2343 Clear 20 1016 59 10000 2.52 120 00:36 20.02.2021
2344 Clear 16 1015 77 10000 0.51 360 23:27 19.02.2021
2345 Clear 16 1015 88 10000 2.57 320 22:45 19.02.2021
2346 Clear 15 1015 88 10000 1.54 300 22:20 19.02.2021
2347 Clear 15 1015 94 10000 2.06 290 21:44 19.02.2021
2348 Clear 15 1015 93 10000 2.57 330 21:23 19.02.2021
2349 Clear 14 1015 93 10000 2.06 160 20:42 19.02.2021
2350 Clear 13 1015 93 10000 2.06 160 20:24 19.02.2021
2351 Clear 14 1015 87 10000 2.57 180 19:45 19.02.2021
2352 Clear 14 1015 87 10000 3.6 180 19:20 19.02.2021
2353 Clear 15 1015 88 10000 2.57 170 18:50 19.02.2021
2354 Clear 16 1016 88 10000 3.09 180 18:26 19.02.2021
2355 Rain 16 1016 82 10000 3.09 200 17:36 19.02.2021
2356 Clear 17 1016 72 10000 3.6 190 16:41 19.02.2021
2357 Clear 18 1016 72 10000 3.6 190 16:22 19.02.2021
2358 Clear 18 1016 68 10000 5.14 200 15:54 19.02.2021
2359 Clear 18 1016 68 10000 5.66 200 15:27 19.02.2021
2360 Rain 19 1016 63 10000 6.69 200 14:48 19.02.2021
2361 Clear 19 1016 60 10000 7.72 210 14:27 19.02.2021
2362 Clear 20 1016 60 10000 6.69 210 13:54 19.02.2021
2363 Clear 20 1016 68 10000 4.12 210 13:35 19.02.2021
2364 Rain 20 1016 52 10000 6.17 210 12:52 19.02.2021
2365 Clear 21 1016 60 10000 4.63 220 12:25 19.02.2021
2366 Clear 21 1016 56 10000 6.69 210 11:54 19.02.2021
2367 Rain 22 1015 43 10000 8.23 220 11:26 19.02.2021
2368 Rain 23 1016 46 10000 7.2 210 10:55 19.02.2021
2369 Rain 23 1016 46 10000 7.2 220 10:32 19.02.2021
2370 Rain 24 1015 41 10000 7.72 230 09:51 19.02.2021
2371 Rain 24 1015 38 10000 7.2 230 09:27 19.02.2021
2372 Clear 24 1015 36 10000 7.2 240 08:54 19.02.2021
2373 Clear 24 1015 36 10000 6.69 270 08:26 19.02.2021
2374 Clear 25 1016 36 10000 6.69 250 07:49 19.02.2021
2375 Rain 25 1016 36 10000 6.69 250 07:31 19.02.2021
2376 Rain 25 1016 25 10000 3.09 190 06:54 19.02.2021
2377 Rain 25 1018 27 10000 3.09 170 05:41 19.02.2021
2378 Rain 23 1019 35 10000 2.57 60 04:41 19.02.2021
2379 Clear 18 1020 48 10000 5.14 70 01:48 19.02.2021
2380 Rain 15 1019 58 10000 3.09 140 00:37 19.02.2021
2381 Rain 14 1019 62 10000 3.09 140 23:56 18.02.2021
2382 Rain 14 1019 62 10000 3.09 140 23:56 18.02.2021
2383 Rain 13 1019 58 10000 2.06 150 23:35 18.02.2021
2384 Clear 13 1019 62 10000 1.54 220 22:50 18.02.2021
2385 Clear 13 1018 58 10000 3.09 160 22:30 18.02.2021
2386 Clear 13 1018 58 10000 2.57 180 21:52 18.02.2021
2387 Rain 13 1018 58 10000 3.6 160 21:26 18.02.2021
2388 Clear 13 1018 58 10000 3.6 170 20:44 18.02.2021
2389 Clear 13 1018 58 10000 4.63 190 20:24 18.02.2021
2390 Clear 14 1018 58 10000 4.12 190 19:47 18.02.2021
2391 Clear 14 1017 58 10000 4.63 190 19:28 18.02.2021
2392 Clear 14 1017 55 10000 3.6 180 18:54 18.02.2021
2393 Clear 14 1018 55 10000 4.63 190 18:31 18.02.2021
2394 Clear 15 1018 55 10000 4.63 190 17:53 18.02.2021
2395 Clear 15 1018 55 10000 5.14 190 17:28 18.02.2021
2396 Clear 16 1018 51 10000 5.14 190 16:59 18.02.2021
2397 Clear 16 1017 51 10000 6.69 190 16:40 18.02.2021
2398 Clear 16 1017 51 10000 6.69 190 16:21 18.02.2021
2399 Clear 17 1017 48 10000 8.23 190 15:39 18.02.2021
2400 Clear 17 1017 48 10000 8.23 190 15:21 18.02.2021
2401 Clear 18 1017 45 10000 8.23 190 14:48 18.02.2021
2402 Clear 18 1017 45 10000 7.2 210 14:29 18.02.2021
2403 Rain 18 1016 48 10000 6.17 210 13:45 18.02.2021
2404 Clear 19 1016 45 10000 6.69 210 13:19 18.02.2021
2405 Clear 19 1016 48 10000 6.17 210 12:45 18.02.2021
2406 Rain 19 1015 48 10000 6.69 210 12:22 18.02.2021
2407 Rain 20 1015 45 10000 8.23 230 11:46 18.02.2021
2408 Rain 20 1015 46 10000 8.75 230 11:26 18.02.2021
2409 Rain 21 1015 49 10000 9.77 220 10:47 18.02.2021
2410 Rain 21 1015 49 10000 9.77 210 10:29 18.02.2021
2411 Rain 22 1014 43 10000 9.26 220 09:46 18.02.2021
2412 Rain 22 1014 40 10000 9.26 230 09:24 18.02.2021
2413 Rain 22 1014 33 10000 8.23 230 08:41 18.02.2021
2414 Rain 22 1014 40 10000 9.26 240 08:23 18.02.2021
2415 Clear 22 1014 38 10000 9.26 240 07:32 18.02.2021
2416 Clear 22 1014 38 10000 8.75 230 06:50 18.02.2021
2417 Rain 20 1013 42 10000 8.75 240 02:33 18.02.2021
2418 Clouds 18 1011 59 10000 7.72 240 23:55 17.02.2021
2419 Rain 18 1010 63 10000 7.72 230 23:22 17.02.2021
2420 Rain 18 1010 63 10000 7.72 230 22:52 17.02.2021
2421 Rain 18 1010 68 10000 8.23 230 22:26 17.02.2021
2422 Rain 18 1009 68 10000 9.26 230 21:54 17.02.2021
2423 Rain 19 1008 60 10000 9.26 250 21:22 17.02.2021
2424 Rain 20 1008 64 10000 10.29 240 20:48 17.02.2021
2425 Clouds 20 1008 73 10000 8.75 250 20:29 17.02.2021
2426 Clouds 19 1008 82 10000 7.2 260 19:49 17.02.2021
2427 Rain 19 1007 88 7000 6.69 260 19:30 17.02.2021
2428 Rain 20 1007 83 6000 6.69 270 18:45 17.02.2021
2429 Rain 21 1007 73 10000 5.66 310 18:25 17.02.2021
2430 Rain 21 1007 68 10000 4.63 290 17:41 17.02.2021
2431 Rain 21 1007 68 10000 4.63 290 17:41 17.02.2021
2432 Clouds 21 1007 68 10000 4.63 290 17:19 17.02.2021
2433 Clouds 21 1008 73 10000 5.14 300 16:46 17.02.2021
2434 Clouds 21 1008 73 10000 5.66 300 16:25 17.02.2021
2435 Clouds 21 1008 73 10000 3.09 300 15:44 17.02.2021
2436 Clouds 21 1008 77 10000 3.09 310 15:25 17.02.2021
2437 Clouds 21 1007 77 10000 3.09 310 14:48 17.02.2021
2438 Clouds 21 1007 73 10000 3.09 280 14:29 17.02.2021
2439 Rain 21 1007 68 10000 3.09 290 13:48 17.02.2021
2440 Clouds 21 1007 68 10000 3.6 250 13:29 17.02.2021
2441 Clouds 21 1007 64 10000 5.14 250 12:47 17.02.2021
2442 Clouds 22 1007 64 10000 6.17 260 12:24 17.02.2021
2443 Clouds 22 1006 68 10000 6.69 250 11:44 17.02.2021
2444 Rain 22 1006 64 10000 7.2 250 11:22 17.02.2021
2445 Rain 23 1006 64 10000 7.2 250 10:49 17.02.2021
2446 Rain 23 1006 64 10000 7.2 250 10:31 17.02.2021
2447 Rain 24 1005 57 10000 5.66 260 09:52 17.02.2021
2448 Rain 25 1005 57 10000 5.66 260 09:29 17.02.2021
2449 Clouds 25 1006 53 10000 5.66 260 08:45 17.02.2021
2450 Clouds 25 1006 53 10000 5.66 260 08:22 17.02.2021
2451 Rain 25 1006 57 10000 6.69 270 07:34 17.02.2021
2452 Clouds 25 1007 61 10000 6.17 280 06:35 17.02.2021
2453 Clouds 25 1007 69 10000 3.6 290 03:40 17.02.2021
2454 Clouds 23 1008 73 10000 2.57 310 02:30 17.02.2021
2455 Clouds 22 1007 78 10000 3.6 210 01:30 17.02.2021
2456 Clouds 21 1007 94 10000 3.09 250 00:24 17.02.2021
2457 Clouds 21 1007 100 10000 2.15 228 23:38 16.02.2021
2458 Clouds 20 1007 94 10000 2.06 20 22:45 16.02.2021
2459 Clouds 20 1007 94 10000 2.06 10 22:26 16.02.2021
2460 Clouds 20 1006 94 10000 2.06 20 21:58 16.02.2021
2461 Clouds 19 1006 94 10000 1.03 170 21:39 16.02.2021
2462 Clouds 20 1006 94 10000 1.03 170 21:20 16.02.2021
2463 Clear 20 1006 94 10000 2.57 200 20:46 16.02.2021
2464 Clear 20 1006 94 10000 2.57 210 20:24 16.02.2021
2465 Clear 20 1007 94 10000 2.06 260 19:47 16.02.2021
2466 Rain 20 1006 94 10000 2.06 240 19:28 16.02.2021
2467 Rain 20 1006 94 10000 2.06 240 19:28 16.02.2021
2468 Rain 20 1006 94 10000 2.06 200 18:47 16.02.2021
2469 Rain 20 1007 88 10000 2.06 240 18:23 16.02.2021
2470 Rain 20 1007 83 10000 2.57 210 17:53 16.02.2021
2471 Rain 20 1007 83 10000 3.09 220 17:27 16.02.2021
2472 Rain 21 1008 83 10000 3.6 220 16:53 16.02.2021
2473 Rain 21 1008 83 10000 3.6 220 16:53 16.02.2021
2474 Clear 21 1008 83 10000 3.6 220 16:30 16.02.2021
2475 Clear 21 1008 83 10000 3.6 220 16:30 16.02.2021
2476 Rain 21 1008 78 10000 3.09 250 15:57 16.02.2021
2477 Rain 21 1009 78 10000 3.6 240 15:36 16.02.2021
2478 Clear 21 1009 78 10000 3.6 240 15:18 16.02.2021
2479 Clear 22 1008 78 10000 4.63 230 14:39 16.02.2021
2480 Rain 22 1008 78 10000 4.63 230 14:21 16.02.2021
2481 Clear 22 1008 73 10000 4.63 240 13:44 16.02.2021
2482 Clear 23 1007 69 10000 5.14 240 12:59 16.02.2021
2483 Clear 23 1007 65 10000 4.63 240 12:40 16.02.2021
2484 Clear 24 1007 65 10000 4.63 240 12:19 16.02.2021
2485 Rain 25 1007 57 10000 5.66 230 11:40 16.02.2021
2486 Rain 25 1007 57 10000 5.66 230 11:20 16.02.2021
2487 Clear 26 1006 54 10000 6.17 230 10:46 16.02.2021
2488 Clear 26 1007 54 10000 6.17 250 10:27 16.02.2021
2489 Clear 27 1007 61 10000 5.66 260 09:53 16.02.2021
2490 Clear 27 1007 57 10000 6.17 270 09:26 16.02.2021
2491 Clear 28 1006 57 10000 6.17 260 08:51 16.02.2021
2492 Clear 28 1006 54 10000 6.69 270 08:28 16.02.2021
2493 Rain 28 1007 54 10000 6.17 260 07:45 16.02.2021
2494 Clear 29 1007 57 10000 6.69 250 06:51 16.02.2021
2495 Rain 28 1008 65 10000 2.57 220 02:40 16.02.2021
2496 Rain 22 1007 88 10000 2.57 50 23:55 15.02.2021
2497 Clear 22 1008 83 10000 1.54 50 23:29 15.02.2021
2498 Rain 22 1007 83 10000 3.09 320 22:50 15.02.2021
2499 Rain 21 1007 83 10000 3.09 330 22:27 15.02.2021
2500 Rain 22 1007 78 10000 3.09 30 21:44 15.02.2021
2501 Rain 22 1007 83 10000 2.57 50 21:24 15.02.2021
2502 Rain 22 1007 83 10000 2.57 30 20:54 15.02.2021
2503 Clear 23 1007 78 10000 2.06 30 20:36 15.02.2021
2504 Clear 23 1007 73 10000 2.57 60 19:51 15.02.2021
2505 Rain 23 1007 73 10000 2.57 10 19:26 15.02.2021
2506 Clear 23 1007 68 10000 2.57 360 18:54 15.02.2021
2507 Rain 23 1007 64 10000 2.57 310 18:27 15.02.2021
2508 Rain 24 1007 64 10000 2.06 70 17:57 15.02.2021
2509 Rain 24 1007 64 10000 2.06 250 17:39 15.02.2021
2510 Clear 24 1007 64 10000 2.06 250 17:20 15.02.2021
2511 Rain 24 1008 61 10000 3.09 240 16:37 15.02.2021
2512 Rain 24 1008 61 10000 3.09 240 16:18 15.02.2021
2513 Rain 25 1008 57 10000 4.63 250 15:42 15.02.2021
2514 Clear 25 1008 57 10000 4.63 250 15:19 15.02.2021
2515 Rain 25 1009 53 10000 3.09 270 14:43 15.02.2021
2516 Clear 26 1008 47 10000 3.09 340 14:20 15.02.2021
2517 Clear 27 1007 39 10000 4.12 220 13:49 15.02.2021
2518 Rain 28 1007 37 10000 4.12 240 13:20 15.02.2021
2519 Rain 28 1007 32 10000 3.6 250 12:45 15.02.2021
2520 Rain 29 1006 30 10000 5.14 220 12:25 15.02.2021
2521 Rain 30 1006 27 10000 7.72 230 11:50 15.02.2021
2522 Rain 31 1006 25 10000 8.23 230 11:23 15.02.2021
2523 Clear 33 1006 24 10000 8.75 210 10:50 15.02.2021
2524 Rain 33 1005 23 10000 7.2 220 10:25 15.02.2021
2525 Clear 33 1006 23 10000 7.72 230 09:56 15.02.2021
2526 Clear 34 1006 23 10000 8.75 230 09:36 15.02.2021
2527 Clear 35 1006 22 10000 7.72 220 08:57 15.02.2021
2528 Clear 37 1006 23 10000 6.17 250 07:55 15.02.2021
2529 Rain 36 1007 20 10000 6.69 230 06:59 15.02.2021
2530 Rain 36 1007 18 10000 2.57 360 06:40 15.02.2021
2531 Clear 32 1010 29 10000 3.09 80 02:34 15.02.2021
2532 Rain 27 1010 44 10000 2.06 360 00:55 15.02.2021
2533 Clear 22 1010 83 10000 0.51 120 23:42 14.02.2021
2534 Clear 23 1010 83 10000 0.51 120 23:22 14.02.2021
2535 Clear 23 1010 73 10000 3.09 300 22:39 14.02.2021
2536 Rain 23 1010 73 10000 3.09 300 22:19 14.02.2021
2537 Rain 23 1010 78 10000 2.57 350 21:48 14.02.2021
2538 Clear 23 1010 78 10000 2.38 108 21:29 14.02.2021
2539 Rain 23 1010 73 10000 2.38 108 20:44 14.02.2021
2540 Rain 23 1010 73 10000 2.57 350 20:26 14.02.2021
2541 Rain 23 1009 73 10000 2.57 110 19:46 14.02.2021
2542 Clear 23 1010 60 10000 3.6 220 18:51 14.02.2021
2543 Clear 23 1010 60 10000 3.6 220 18:51 14.02.2021
2544 Rain 23 1010 68 10000 2.06 210 18:29 14.02.2021
2545 Rain 23 1010 60 10000 2.82 137 17:56 14.02.2021
2546 Clear 24 1010 64 10000 2.06 50 17:35 14.02.2021
2547 Rain 24 1011 60 10000 2.57 60 16:52 14.02.2021
2548 Rain 24 1011 57 10000 3.6 20 16:26 14.02.2021
2549 Clear 25 1011 53 10000 1.54 100 15:49 14.02.2021
2550 Rain 25 1011 50 10000 2.06 210 15:30 14.02.2021
2551 Rain 26 1011 50 10000 0.51 210 14:47 14.02.2021
2552 Clear 26 1010 44 10000 4.63 200 14:26 14.02.2021
2553 Clear 26 1010 41 10000 5.14 210 13:44 14.02.2021
2554 Clear 26 1010 41 10000 4.12 210 13:26 14.02.2021
2555 Clear 27 1010 42 10000 5.14 220 12:37 14.02.2021
2556 Clear 27 1010 42 10000 5.14 220 12:18 14.02.2021
2557 Clear 28 1009 47 10000 5.66 250 11:43 14.02.2021
2558 Clear 28 1010 42 10000 4.63 280 11:20 14.02.2021
2559 Clear 29 1009 33 10000 6.69 260 10:31 14.02.2021
2560 Clear 31 1009 22 10000 5.66 250 09:41 14.02.2021
2561 Clear 32 1009 22 10000 5.66 250 09:21 14.02.2021
2562 Clear 32 1009 22 10000 5.66 250 09:21 14.02.2021
2563 Clear 34 1009 21 10000 5.66 270 08:58 14.02.2021
2564 Rain 34 1009 21 10000 4.12 260 08:18 14.02.2021
2565 Rain 35 1010 18 10000 3.09 330 07:19 14.02.2021
2566 Clear 35 1010 18 10000 3.6 30 06:26 14.02.2021
2567 Clear 30 1012 34 10000 7.72 80 03:59 14.02.2021
2568 Clear 29 1012 41 10000 5.14 70 02:30 14.02.2021
2569 Clear 25 1012 44 10000 4.63 90 01:29 14.02.2021
2570 Clear 24 1011 46 10000 5.14 80 00:41 14.02.2021
2571 Clear 24 1011 46 10000 5.14 80 23:49 13.02.2021
2572 Clear 23 1011 46 10000 4.63 80 23:25 13.02.2021
2573 Clear 24 1011 46 10000 3.6 70 22:51 13.02.2021
2574 Clear 24 1011 46 10000 5.66 80 22:22 13.02.2021
2575 Clear 23 1011 46 10000 5.66 80 21:49 13.02.2021
2576 Clear 24 1011 38 10000 4.63 80 21:26 13.02.2021
2577 Clear 24 1011 38 10000 4.63 80 21:26 13.02.2021
2578 Clear 24 1011 49 10000 3.6 30 20:44 13.02.2021
2579 Clear 24 1011 53 10000 2.57 10 20:24 13.02.2021
2580 Clear 24 1011 41 10000 4.12 40 19:48 13.02.2021
2581 Clear 25 1011 41 10000 4.12 40 19:23 13.02.2021
2582 Clear 25 1011 41 10000 2.57 350 18:49 13.02.2021
2583 Clear 25 1011 36 10000 3.6 360 18:24 13.02.2021
2584 Clear 26 1011 31 10000 3.09 60 17:43 13.02.2021
2585 Clear 26 1010 26 10000 5.14 80 17:23 13.02.2021
2586 Clear 26 1010 28 10000 4.63 110 16:48 13.02.2021
2587 Clear 26 1010 32 10000 3.6 70 16:30 13.02.2021
2588 Clear 27 1011 39 10000 3.09 170 15:42 13.02.2021
2589 Rain 27 1011 39 10000 3.09 170 15:24 13.02.2021
2590 Rain 28 1011 36 10000 5.14 180 14:33 13.02.2021
2591 Rain 28 1010 37 10000 6.69 190 13:49 13.02.2021
2592 Rain 29 1010 32 10000 7.2 180 13:26 13.02.2021
2593 Rain 29 1010 32 10000 7.72 180 12:50 13.02.2021
2594 Clear 30 1010 33 10000 7.72 180 12:20 13.02.2021
2595 Rain 31 1009 29 10000 8.23 190 11:46 13.02.2021
2596 Clear 31 1009 25 10000 8.23 200 11:20 13.02.2021
2597 Clear 32 1009 24 10000 7.72 210 10:47 13.02.2021
2598 Clear 33 1009 22 10000 7.2 210 10:27 13.02.2021
2599 Clear 34 1009 21 10000 6.69 230 09:59 13.02.2021
2600 Clear 34 1009 23 10000 6.69 210 09:41 13.02.2021
2601 Clear 35 1009 23 10000 6.69 210 09:20 13.02.2021
2602 Clear 35 1010 19 10000 3.09 50 08:40 13.02.2021
2603 Clear 35 1010 18 10000 3.6 70 07:53 13.02.2021
2604 Clear 35 1011 20 10000 4.12 50 06:41 13.02.2021
2605 Clear 34 1011 20 10000 3.09 10 05:27 13.02.2021
2606 Rain 31 1012 25 10000 5.66 70 03:58 13.02.2021
2607 Clear 24 1013 46 10000 3.09 100 01:49 13.02.2021
2608 Rain 21 1013 52 10000 5.14 80 00:42 13.02.2021
2609 Clear 19 1013 59 10000 4.63 70 23:54 12.02.2021
2610 Rain 19 1013 59 10000 5.14 70 23:26 12.02.2021
2611 Clear 19 1012 55 10000 5.14 80 22:44 12.02.2021
2612 Rain 19 1012 55 10000 4.63 80 22:25 12.02.2021
2613 Clear 19 1012 55 10000 3.09 60 21:46 12.02.2021
2614 Rain 19 1012 55 10000 3.09 130 21:27 12.02.2021
2615 Rain 20 1012 52 10000 2.57 130 20:46 12.02.2021
2616 Clear 20 1011 46 10000 5.66 100 20:28 12.02.2021
2617 Rain 20 1011 46 10000 7.72 100 19:57 12.02.2021
2618 Rain 20 1011 43 10000 5.66 90 19:37 12.02.2021
2619 Rain 18 1012 68 10000 1.54 360 18:57 12.02.2021
2620 Clear 18 1012 82 10000 4.18 103 18:30 12.02.2021
2621 Clear 17 1012 82 10000 1.54 270 17:44 12.02.2021
2622 Clear 19 1012 77 10000 3.09 210 17:21 12.02.2021
2623 Clear 19 1012 68 10000 5.14 200 16:27 12.02.2021
2624 Clear 20 1013 64 10000 5.14 200 15:46 12.02.2021
2625 Clear 20 1013 64 10000 5.66 190 15:21 12.02.2021
2626 Clear 20 1013 64 10000 5.66 190 15:21 12.02.2021
2627 Clear 21 1013 68 10000 4.12 190 14:42 12.02.2021
2628 Clear 22 1012 56 10000 5.66 200 13:59 12.02.2021
2629 Clear 22 1012 68 10000 4.12 200 13:40 12.02.2021
2630 Clear 22 1012 68 10000 4.12 200 13:40 12.02.2021
2631 Clear 23 1012 47 10000 4.63 210 12:56 12.02.2021
2632 Clear 24 1011 50 10000 5.14 210 12:36 12.02.2021
2633 Clear 25 1011 47 10000 5.66 240 11:58 12.02.2021
2634 Clear 25 1011 44 10000 6.69 240 11:37 12.02.2021
2635 Clear 26 1011 44 10000 6.69 240 11:19 12.02.2021
2636 Clear 28 1011 42 10000 6.17 270 10:40 12.02.2021
2637 Clear 29 1011 42 10000 6.17 260 09:48 12.02.2021
2638 Clear 29 1011 35 10000 6.17 250 09:24 12.02.2021
2639 Clear 30 1011 23 10000 3.6 210 08:49 12.02.2021
2640 Clear 30 1011 25 10000 2.57 240 08:27 12.02.2021
2641 Clear 30 1012 28 10000 3.09 210 07:53 12.02.2021
2642 Clear 29 1012 28 10000 3.09 150 07:31 12.02.2021
2643 Clear 28 1013 30 10000 5.66 140 06:55 12.02.2021
2644 Clear 27 1014 34 10000 3.6 130 05:43 12.02.2021
2645 Clear 25 1015 41 10000 5.66 80 04:22 12.02.2021
2646 Clear 18 1015 59 10000 3.6 80 01:23 12.02.2021
2647 Clear 16 1015 67 10000 3.6 120 23:40 11.02.2021
2648 Clear 15 1015 67 10000 3.6 120 23:22 11.02.2021
2649 Clear 15 1014 67 10000 3.6 110 22:45 11.02.2021
2650 Clear 15 1014 63 10000 3.09 110 22:24 11.02.2021
2651 Clear 16 1014 63 10000 4.12 120 21:46 11.02.2021
2652 Clear 16 1014 63 10000 4.63 100 21:27 11.02.2021
2653 Clear 16 1014 63 10000 5.14 110 20:59 11.02.2021
2654 Clear 16 1014 67 10000 5.66 120 20:40 11.02.2021
2655 Rain 17 1013 59 10000 4.63 110 20:21 11.02.2021
2656 Clear 17 1013 59 10000 4.63 110 19:47 11.02.2021
2657 Clear 17 1013 52 10000 3.09 140 19:27 11.02.2021
2658 Clear 16 1013 63 10000 4.12 130 18:45 11.02.2021
2659 Clear 16 1014 72 10000 4.12 170 18:24 11.02.2021
2660 Clear 16 1013 72 10000 5.14 210 17:49 11.02.2021
2661 Clear 17 1013 72 10000 4.12 210 17:21 11.02.2021
2662 Clear 17 1014 72 10000 2.57 180 16:47 11.02.2021
2663 Clear 17 1014 68 10000 4.63 180 16:29 11.02.2021
2664 Clear 18 1014 68 10000 5.66 190 15:48 11.02.2021
2665 Clear 18 1014 59 10000 6.69 200 15:26 11.02.2021
2666 Rain 19 1014 59 10000 7.72 190 14:58 11.02.2021
2667 Clear 19 1014 56 10000 8.75 190 14:32 11.02.2021
2668 Clear 20 1013 56 10000 8.75 190 13:44 11.02.2021
2669 Clear 20 1013 56 10000 8.75 190 13:44 11.02.2021
2670 Clear 20 1013 60 10000 6.17 190 13:21 11.02.2021
2671 Clear 20 1013 52 10000 9.77 200 12:56 11.02.2021
2672 Clear 20 1013 56 10000 6.17 200 12:35 11.02.2021
2673 Clear 22 1012 46 10000 9.26 220 11:49 11.02.2021
2674 Clear 22 1012 46 10000 8.23 210 11:29 11.02.2021
2675 Rain 23 1012 46 10000 9.77 210 10:57 11.02.2021
2676 Clear 23 1012 43 10000 9.26 210 10:39 11.02.2021
2677 Clear 23 1012 49 10000 9.77 220 10:21 11.02.2021
2678 Clear 24 1012 41 10000 9.77 230 09:38 11.02.2021
2679 Clear 24 1012 41 10000 9.77 230 09:19 11.02.2021
2680 Clear 24 1012 41 10000 9.26 240 08:46 11.02.2021
2681 Clear 25 1013 36 10000 9.26 230 07:52 11.02.2021
2682 Clear 25 1013 33 10000 4.63 270 06:44 11.02.2021
2683 Clear 24 1014 36 10000 3.6 200 06:20 11.02.2021
2684 Clouds 22 1016 43 10000 4.63 160 03:45 11.02.2021
2685 Clouds 20 1016 52 10000 5.14 160 02:23 11.02.2021
2686 Clear 16 1016 67 10000 4.63 170 00:23 11.02.2021
2687 Clear 14 1016 67 10000 5.14 180 23:54 10.02.2021
2688 Clear 14 1015 72 10000 3.6 180 23:20 10.02.2021
2689 Clear 14 1015 63 10000 2.57 140 22:44 10.02.2021
2690 Clear 14 1015 63 10000 3.09 170 22:24 10.02.2021
2691 Clear 15 1015 67 10000 3.6 190 21:40 10.02.2021
2692 Clear 15 1015 67 10000 3.6 190 21:21 10.02.2021
2693 Clear 15 1014 63 10000 4.12 190 20:51 10.02.2021
2694 Clear 15 1014 67 10000 3.6 180 20:28 10.02.2021
2695 Clear 15 1014 67 10000 4.12 190 19:50 10.02.2021
2696 Clear 15 1014 72 10000 5.14 180 19:28 10.02.2021
2697 Clear 16 1014 67 10000 5.14 190 18:49 10.02.2021
2698 Clear 16 1014 67 10000 4.12 190 18:27 10.02.2021
2699 Clear 16 1014 67 10000 3.6 190 17:59 10.02.2021
2700 Clear 16 1014 72 10000 4.12 190 17:39 10.02.2021
2701 Clear 17 1014 72 10000 4.12 190 17:19 10.02.2021
2702 Clear 17 1014 72 10000 5.66 190 16:41 10.02.2021
2703 Clear 17 1014 72 10000 5.66 190 16:41 10.02.2021
2704 Clear 17 1014 72 10000 5.66 190 16:23 10.02.2021
2705 Clear 18 1014 68 10000 8.23 190 15:24 10.02.2021
2706 Clear 18 1014 72 10000 7.2 190 14:53 10.02.2021
2707 Clear 19 1014 68 10000 7.72 190 14:34 10.02.2021
2708 Clear 19 1014 63 10000 7.72 200 13:55 10.02.2021
2709 Clouds 19 1013 63 10000 7.72 210 13:30 10.02.2021
2710 Clouds 19 1013 60 10000 8.23 210 12:54 10.02.2021
2711 Rain 20 1013 60 10000 9.26 210 12:30 10.02.2021
2712 Clear 20 1013 56 10000 8.23 210 11:57 10.02.2021
2713 Clear 20 1013 56 10000 9.26 210 11:39 10.02.2021
2714 Clear 21 1013 56 10000 9.26 210 11:20 10.02.2021
2715 Rain 22 1013 49 10000 9.26 220 10:24 10.02.2021
2716 Rain 22 1012 43 10000 9.77 230 09:56 10.02.2021
2717 Rain 22 1012 40 10000 8.75 230 09:32 10.02.2021
2718 Rain 23 1012 38 10000 8.23 210 08:56 10.02.2021
2719 Clear 23 1013 40 10000 8.75 230 08:33 10.02.2021
2720 Clear 23 1013 38 10000 7.72 240 07:37 10.02.2021
2721 Clear 23 1013 35 10000 7.2 240 06:21 10.02.2021
2722 Clouds 19 1013 56 10000 5.14 190 01:28 10.02.2021
2723 Rain 16 1013 72 10000 4.63 190 23:59 09.02.2021
2724 Clouds 16 1012 72 10000 4.12 190 23:32 09.02.2021
2725 Clouds 16 1012 72 10000 4.12 200 22:45 09.02.2021
2726 Rain 16 1012 77 10000 4.63 190 22:24 09.02.2021
2727 Clouds 16 1012 77 10000 6.17 190 21:48 09.02.2021
2728 Rain 17 1012 77 10000 7.2 200 21:24 09.02.2021
2729 Clouds 17 1011 72 10000 5.66 190 20:44 09.02.2021
2730 Rain 17 1011 82 10000 6.69 180 20:25 09.02.2021
2731 Clouds 18 1011 82 10000 7.2 190 19:52 09.02.2021
2732 Clouds 18 1011 82 10000 7.2 190 19:29 09.02.2021
2733 Clouds 18 1011 82 10000 7.72 190 18:49 09.02.2021
2734 Clouds 18 1010 82 10000 5.14 210 18:31 09.02.2021
2735 Clouds 18 1010 82 10000 4.63 220 17:50 09.02.2021
2736 Clouds 19 1011 100 10000 4.63 210 17:28 09.02.2021
2737 Rain 19 1010 77 10000 4.63 230 16:54 09.02.2021
2738 Rain 20 1010 82 10000 2.57 200 16:20 09.02.2021
2739 Clouds 20 1010 82 10000 2.57 310 15:58 09.02.2021
2740 Clouds 20 1010 82 10000 2.06 300 15:40 09.02.2021
2741 Clouds 20 1010 82 10000 2.06 300 15:21 09.02.2021
2742 Clouds 20 1010 73 10000 2.06 280 14:43 09.02.2021
2743 Clouds 20 1010 68 10000 2.06 280 14:23 09.02.2021
2744 Clouds 20 1010 60 10000 3.6 250 13:43 09.02.2021
2745 Rain 20 1010 60 10000 3.6 250 13:20 09.02.2021
2746 Rain 20 1010 60 10000 3.6 250 13:20 09.02.2021
2747 Clouds 21 1010 60 10000 4.63 260 12:44 09.02.2021
2748 Clouds 21 1009 60 10000 5.14 260 12:24 09.02.2021
2749 Clouds 22 1009 56 10000 6.17 260 11:44 09.02.2021
2750 Clouds 22 1009 53 10000 6.17 260 11:21 09.02.2021
2751 Clouds 23 1008 49 10000 6.17 260 10:57 09.02.2021
2752 Clouds 23 1008 49 10000 6.17 250 10:21 09.02.2021
2753 Clouds 24 1008 43 10000 6.69 250 09:54 09.02.2021
2754 Clear 24 1008 41 10000 7.2 250 09:26 09.02.2021
2755 Clear 24 1008 41 10000 6.69 250 08:56 09.02.2021
2756 Clear 25 1008 43 10000 6.69 250 08:29 09.02.2021
2757 Clouds 24 1009 47 10000 6.17 250 07:41 09.02.2021
2758 Clouds 24 1009 53 10000 6.17 250 05:34 09.02.2021
2759 Rain 23 1010 60 10000 4.63 280 03:48 09.02.2021
2760 Clouds 22 1010 73 10000 2.57 350 01:51 09.02.2021
2761 Clouds 18 1009 82 10000 2.06 50 00:21 09.02.2021
2762 Clouds 16 1009 88 10000 2.06 60 23:23 08.02.2021
2763 Clouds 16 1009 94 10000 2.06 60 22:59 08.02.2021
2764 Clouds 16 1009 88 10000 1.54 50 22:41 08.02.2021
2765 Clouds 17 1009 88 10000 1.54 50 22:21 08.02.2021
2766 Clouds 17 1009 88 10000 2.06 40 21:44 08.02.2021
2767 Clear 17 1009 88 10000 2.57 70 21:21 08.02.2021
2768 Clear 17 1009 88 10000 2.57 40 20:44 08.02.2021
2769 Clear 16 1009 88 10000 2.57 10 20:24 08.02.2021
2770 Clouds 16 1009 88 10000 2.06 30 19:49 08.02.2021
2771 Clouds 17 1009 94 10000 2.06 20 19:30 08.02.2021
2772 Rain 17 1009 94 10000 2.57 50 18:50 08.02.2021
2773 Clouds 17 1009 94 10000 0.51 50 18:25 08.02.2021
2774 Clouds 17 1009 88 10000 2.57 40 17:59 08.02.2021
2775 Clouds 17 1009 94 10000 2.06 50 17:41 08.02.2021
2776 Clouds 17 1009 94 10000 2.06 50 17:21 08.02.2021
2777 Clouds 18 1009 82 10000 2.06 140 16:40 08.02.2021
2778 Clouds 18 1009 82 10000 2.06 140 16:20 08.02.2021
2779 Clouds 18 1009 82 10000 3.09 240 15:38 08.02.2021
2780 Clouds 18 1009 82 10000 3.09 240 15:19 08.02.2021
2781 Rain 19 1008 77 10000 3.09 230 14:50 08.02.2021
2782 Clear 19 1008 77 10000 3.09 240 14:28 08.02.2021
2783 Clouds 19 1008 73 10000 4.63 230 13:49 08.02.2021
2784 Clouds 20 1008 73 10000 4.63 230 13:28 08.02.2021
2785 Clouds 20 1007 68 10000 6.17 240 12:42 08.02.2021
2786 Clouds 20 1007 68 10000 6.17 240 12:24 08.02.2021
2787 Clouds 21 1006 64 10000 7.72 210 11:39 08.02.2021
2788 Clouds 22 1006 64 10000 7.72 250 10:47 08.02.2021
2789 Clouds 22 1006 64 10000 7.72 250 10:26 08.02.2021
2790 Clouds 22 1006 64 10000 7.72 240 09:56 08.02.2021
2791 Clouds 22 1006 68 10000 7.2 250 09:36 08.02.2021
2792 Clouds 22 1006 68 10000 8.23 240 08:57 08.02.2021
2793 Clouds 23 1005 64 10000 8.75 250 08:26 08.02.2021
2794 Clouds 22 1006 88 10000 9.26 240 07:42 08.02.2021
2795 Clouds 23 1005 68 10000 7.2 260 06:38 08.02.2021
2796 Clouds 22 1005 88 10000 8.23 250 05:18 08.02.2021
2797 Clouds 21 1003 78 10000 7.72 270 02:26 08.02.2021
2798 Clouds 19 1002 88 10000 5.66 290 00:25 08.02.2021
2799 Clouds 19 1001 88 10000 4.63 290 23:54 07.02.2021
2800 Clouds 19 1001 94 10000 4.63 300 23:28 07.02.2021
2801 Clouds 19 1000 94 10000 5.14 300 22:57 07.02.2021
2802 Clouds 19 999 94 10000 5.66 320 22:38 07.02.2021
2803 Clouds 19 999 94 10000 5.66 320 22:20 07.02.2021
2804 Clouds 19 999 88 10000 5.66 320 21:49 07.02.2021
2805 Clouds 19 999 94 10000 5.66 330 21:25 07.02.2021
2806 Clouds 19 999 94 10000 5.66 330 21:24 07.02.2021
2807 Clouds 19 999 94 10000 5.66 330 20:50 07.02.2021
2808 Clouds 19 999 94 10000 5.66 330 20:29 07.02.2021
2809 Clouds 19 999 94 10000 5.66 340 19:49 07.02.2021
2810 Clouds 18 999 100 10000 6.69 350 19:28 07.02.2021
2811 Clouds 18 999 100 10000 5.14 340 18:45 07.02.2021
2812 Clouds 19 999 94 10000 5.14 340 18:27 07.02.2021
2813 Clouds 19 998 94 6000 5.14 350 17:57 07.02.2021
2814 Clouds 19 999 94 10000 5.66 340 17:38 07.02.2021
2815 Clouds 19 999 94 10000 6.17 330 17:18 07.02.2021
2816 Clouds 19 998 94 6000 7.72 340 16:41 07.02.2021
2817 Clouds 19 998 94 10000 5.66 340 16:20 07.02.2021
2818 Clouds 19 998 94 10000 6.69 340 15:44 07.02.2021
2819 Drizzle 19 998 100 6000 6.69 340 15:21 07.02.2021
2820 Drizzle 20 998 94 4000 7.2 340 14:45 07.02.2021
2821 Drizzle 20 997 94 5000 7.2 340 14:26 07.02.2021
2822 Drizzle 20 997 94 6000 7.2 350 13:45 07.02.2021
2823 Drizzle 20 996 100 5000 8.23 350 13:27 07.02.2021
2824 Clouds 20 995 94 2000 6.17 360 12:42 07.02.2021
2825 Clouds 21 995 94 2000 6.17 360 12:21 07.02.2021
2826 Clouds 20 994 94 2000 8.75 10 11:43 07.02.2021
2827 Clouds 20 994 94 2500 10.8 30 11:24 07.02.2021
2828 Clouds 21 994 88 4500 8.23 20 10:31 07.02.2021
2829 Clouds 21 994 88 4500 8.23 20 09:57 07.02.2021
2830 Clouds 21 994 88 4500 7.72 10 09:39 07.02.2021
2831 Clouds 21 994 83 4000 7.72 10 09:20 07.02.2021
2832 Clouds 22 994 88 10000 6.17 50 07:58 07.02.2021
2833 Clouds 21 995 94 8000 5.66 70 06:33 07.02.2021
2834 Clouds 22 995 83 5000 7.72 90 05:48 07.02.2021
2835 Clouds 19 997 82 10000 9.77 100 02:52 07.02.2021
2836 Clouds 18 998 82 10000 11.32 100 00:41 07.02.2021
2837 Clouds 17 998 88 10000 11.32 90 23:59 06.02.2021
2838 Clouds 18 998 82 10000 10.8 100 23:19 06.02.2021
2839 Clear 18 998 77 10000 13.38 100 22:25 06.02.2021
2840 Clear 18 998 77 10000 11.83 100 21:38 06.02.2021
2841 Clouds 18 999 77 10000 9.77 90 21:20 06.02.2021
2842 Clouds 18 999 77 10000 9.26 90 20:44 06.02.2021
2843 Clouds 18 1000 77 10000 7.72 100 20:23 06.02.2021
2844 Clouds 17 1000 77 10000 5.14 100 19:51 06.02.2021
2845 Clouds 18 1000 77 10000 7.72 100 19:26 06.02.2021
2846 Clouds 17 1000 77 10000 7.72 100 18:46 06.02.2021
2847 Clouds 17 1000 82 10000 8.23 130 18:27 06.02.2021
2848 Clouds 17 1002 77 10000 7.2 130 17:41 06.02.2021
2849 Clouds 17 1002 77 10000 7.2 130 17:21 06.02.2021
2850 Clouds 17 1002 77 10000 7.2 130 17:21 06.02.2021
2851 Clouds 17 1002 77 8000 9.26 130 16:57 06.02.2021
2852 Clouds 17 1002 77 8000 9.26 130 16:34 06.02.2021
2853 Drizzle 17 1003 77 10000 10.29 130 16:34 06.02.2021
2854 Clouds 17 1004 82 10000 7.72 120 15:55 06.02.2021
2855 Clouds 17 1004 82 10000 8.75 130 15:36 06.02.2021
2856 Clouds 17 1004 82 10000 8.75 130 15:18 06.02.2021
2857 Clouds 16 1004 82 10000 8.23 130 14:43 06.02.2021
2858 Clouds 16 1005 82 10000 6.69 130 14:22 06.02.2021
2859 Clouds 16 1005 88 10000 4.63 150 13:47 06.02.2021
2860 Clouds 16 1006 94 5000 4.12 160 12:48 06.02.2021
2861 Clouds 17 1006 82 8000 3.6 210 12:20 06.02.2021
2862 Clouds 17 1005 82 10000 4.63 150 11:42 06.02.2021
2863 Clouds 17 1005 82 10000 4.63 150 11:20 06.02.2021
2864 Clouds 17 1006 82 6000 4.12 160 10:53 06.02.2021
2865 Clouds 17 1006 82 10000 4.63 150 10:27 06.02.2021
2866 Clouds 20 1005 49 10000 10.8 120 09:38 06.02.2021
2867 Clouds 20 1005 49 10000 10.8 120 09:19 06.02.2021
2868 Clouds 20 1004 49 10000 11.32 120 08:59 06.02.2021
2869 Clouds 21 1006 52 10000 7.72 130 08:29 06.02.2021
2870 Clear 22 1006 49 10000 8.75 110 07:20 06.02.2021
2871 Clear 20 1008 56 10000 8.23 100 05:42 06.02.2021
2872 Clear 18 1010 59 10000 6.69 110 02:52 06.02.2021
2873 Clouds 18 1010 59 10000 7.72 100 00:59 06.02.2021
2874 Clouds 18 1009 59 10000 7.72 110 00:41 06.02.2021
2875 Clouds 18 1009 59 10000 7.72 110 00:18 06.02.2021
2876 Clear 18 1009 59 10000 7.72 120 23:35 05.02.2021
2877 Clear 18 1009 59 10000 7.72 120 23:35 05.02.2021
2878 Clear 18 1009 59 10000 8.23 120 22:56 05.02.2021
2879 Clear 18 1009 59 10000 8.23 110 22:25 05.02.2021
2880 Clear 18 1009 55 10000 9.26 130 21:59 05.02.2021
2881 Clear 18 1009 55 10000 9.26 130 21:59 05.02.2021
2882 Clear 18 1008 55 10000 8.23 120 21:39 05.02.2021
2883 Clear 18 1009 55 10000 8.75 110 20:58 05.02.2021
2884 Clear 18 1009 55 10000 7.72 120 20:34 05.02.2021
2885 Clear 18 1009 55 10000 6.69 110 19:46 05.02.2021
2886 Clear 18 1009 52 10000 9.77 110 19:18 05.02.2021
2887 Clear 18 1009 52 10000 9.26 110 18:43 05.02.2021
2888 Clear 18 1009 52 10000 9.77 110 18:19 05.02.2021
2889 Clear 19 1010 45 10000 10.8 120 17:42 05.02.2021
2890 Clear 19 1010 45 10000 10.8 120 17:20 05.02.2021
2891 Clear 19 1010 45 10000 10.29 110 16:43 05.02.2021
2892 Clear 20 1010 42 10000 11.83 110 16:21 05.02.2021
2893 Clear 20 1009 42 10000 10.8 110 15:50 05.02.2021
2894 Clear 21 1009 40 10000 10.8 110 15:23 05.02.2021
2895 Clear 22 1010 35 10000 9.77 110 14:39 05.02.2021
2896 Clear 22 1010 35 10000 10.8 110 14:21 05.02.2021
2897 Clear 23 1009 33 10000 7.72 120 13:52 05.02.2021
2898 Clear 24 1008 29 10000 7.2 120 13:32 05.02.2021
2899 Clear 24 1009 29 10000 6.69 120 12:45 05.02.2021
2900 Clear 24 1008 29 10000 7.2 120 12:23 05.02.2021
2901 Clear 25 1008 27 10000 8.23 120 11:39 05.02.2021
2902 Clear 25 1008 27 10000 8.23 120 11:20 05.02.2021
2903 Clear 25 1008 27 10000 8.23 120 10:49 05.02.2021
2904 Clear 26 1008 27 10000 10.29 130 10:25 05.02.2021
2905 Clear 26 1008 24 10000 10.29 110 09:43 05.02.2021
2906 Clear 27 1008 24 10000 10.29 110 09:24 05.02.2021
2907 Clear 26 1008 25 10000 10.29 110 08:45 05.02.2021
2908 Rain 26 1009 25 10000 10.29 100 07:45 05.02.2021
2909 Clear 26 1009 25 10000 8.75 120 07:26 05.02.2021
2910 Clear 25 1010 29 10000 9.26 100 06:41 05.02.2021
2911 Clear 25 1011 27 10000 7.72 120 05:35 05.02.2021
2912 Clear 20 1013 37 10000 9.77 110 02:26 05.02.2021
2913 Clear 19 1013 39 10000 8.75 100 01:55 05.02.2021
2914 Clear 16 1014 55 10000 6.17 100 00:38 05.02.2021
2915 Clear 16 1014 55 10000 6.17 100 00:19 05.02.2021
2916 Clear 16 1013 58 10000 7.72 100 23:43 04.02.2021
2917 Clear 15 1013 58 10000 10.29 100 23:25 04.02.2021
2918 Clear 15 1013 58 10000 5.66 110 22:55 04.02.2021
2919 Clear 15 1013 55 10000 4.63 80 22:37 04.02.2021
2920 Clear 15 1012 55 10000 4.12 120 21:58 04.02.2021
2921 Clear 15 1012 55 10000 6.17 100 21:40 04.02.2021
2922 Clear 16 1012 55 10000 4.63 110 20:58 04.02.2021
2923 Clear 16 1012 51 10000 7.72 100 20:34 04.02.2021
2924 Clear 16 1013 48 10000 3.6 110 19:53 04.02.2021
2925 Clear 16 1013 48 10000 4.12 120 19:27 04.02.2021
2926 Clear 16 1013 48 10000 5.66 120 18:46 04.02.2021
2927 Clear 17 1013 45 10000 6.17 120 18:24 04.02.2021
2928 Clear 17 1013 45 10000 8.23 120 17:47 04.02.2021
2929 Clear 17 1013 45 10000 8.23 120 17:22 04.02.2021
2930 Clear 18 1013 42 10000 9.26 130 16:50 04.02.2021
2931 Clear 18 1013 42 10000 9.26 130 16:50 04.02.2021
2932 Clear 18 1013 42 10000 9.77 120 16:21 04.02.2021
2933 Clear 19 1012 39 10000 11.83 120 15:41 04.02.2021
2934 Clear 19 1012 39 10000 7.72 120 15:22 04.02.2021
2935 Clear 20 1012 34 10000 10.8 130 14:58 04.02.2021
2936 Clear 20 1012 34 10000 10.8 130 14:40 04.02.2021
2937 Clear 21 1011 32 10000 9.77 130 14:20 04.02.2021
2938 Clear 22 1011 28 10000 6.69 130 13:44 04.02.2021
2939 Clear 23 1011 27 10000 8.23 120 12:58 04.02.2021
2940 Clear 23 1010 27 10000 7.72 120 12:33 04.02.2021
2941 Clear 25 1010 23 10000 9.77 120 11:53 04.02.2021
2942 Clear 25 1010 24 10000 9.26 130 11:33 04.02.2021
2943 Rain 26 1009 24 10000 9.77 110 10:48 04.02.2021
2944 Rain 27 1009 21 10000 9.77 100 10:18 04.02.2021
2945 Rain 27 1009 21 10000 9.77 120 09:43 04.02.2021
2946 Clear 28 1009 20 10000 10.29 120 09:19 04.02.2021
2947 Clear 28 1010 18 10000 9.77 140 08:46 04.02.2021
2948 Clear 28 1010 17 10000 9.77 90 08:23 04.02.2021
2949 Clear 28 1011 19 10000 9.26 130 07:42 04.02.2021
2950 Clear 27 1011 19 10000 9.26 130 07:22 04.02.2021
2951 Clear 27 1011 19 10000 9.26 120 06:43 04.02.2021
2952 Clear 23 1014 31 10000 8.75 120 03:54 04.02.2021
2953 Clear 23 1014 31 10000 8.75 120 03:54 04.02.2021
2954 Clear 20 1015 37 10000 10.29 110 02:27 04.02.2021
2955 Clear 18 1015 48 10000 7.2 130 00:56 04.02.2021
2956 Clear 15 1015 55 10000 6.69 110 23:40 03.02.2021
2957 Clear 15 1014 55 10000 5.66 110 22:44 03.02.2021
2958 Clear 15 1014 55 10000 7.72 120 22:23 03.02.2021
2959 Clear 15 1014 55 10000 7.72 120 21:58 03.02.2021
2960 Clear 16 1014 55 10000 7.72 110 21:38 03.02.2021
2961 Clear 16 1014 51 10000 6.69 110 21:20 03.02.2021
2962 Clear 16 1014 51 10000 5.66 110 20:45 03.02.2021
2963 Clear 16 1014 51 10000 5.66 110 20:24 03.02.2021
2964 Clear 16 1014 55 10000 8.23 120 19:45 03.02.2021
2965 Clear 17 1014 51 10000 9.26 110 19:22 03.02.2021
2966 Clouds 17 1014 51 10000 7.2 120 18:48 03.02.2021
2967 Rain 18 1013 55 10000 9.77 130 18:21 03.02.2021
2968 Clouds 18 1013 52 10000 7.2 120 17:53 03.02.2021
2969 Clouds 19 1013 52 10000 8.75 130 17:33 03.02.2021
2970 Clouds 19 1013 55 10000 8.75 130 16:57 03.02.2021
2971 Clouds 19 1013 55 10000 7.72 120 16:30 03.02.2021
2972 Clouds 20 1012 52 10000 7.2 120 15:46 03.02.2021
2973 Clouds 20 1012 52 10000 7.72 120 15:26 03.02.2021
2974 Rain 21 1011 52 10000 7.72 130 14:54 03.02.2021
2975 Rain 22 1011 49 10000 7.72 140 14:30 03.02.2021
2976 Rain 23 1009 43 10000 8.75 140 13:54 03.02.2021
2977 Rain 25 1009 41 10000 8.75 130 13:28 03.02.2021
2978 Clear 26 1008 39 10000 10.29 140 12:49 03.02.2021
2979 Rain 28 1007 30 10000 8.75 130 12:27 03.02.2021
2980 Clear 29 1006 29 10000 8.75 160 11:55 03.02.2021
2981 Clear 29 1005 29 10000 8.75 160 11:36 03.02.2021
2982 Clear 30 1005 27 10000 8.23 160 10:58 03.02.2021
2983 Clear 30 1005 37 10000 7.72 230 10:23 03.02.2021
2984 Clear 30 1005 40 10000 9.77 240 09:48 03.02.2021
2985 Clear 30 1005 37 10000 10.29 240 09:29 03.02.2021
2986 Clear 31 1005 38 10000 8.75 240 08:54 03.02.2021
2987 Clear 31 1005 38 10000 9.77 230 08:34 03.02.2021
2988 Clear 31 1006 42 10000 9.26 230 07:41 03.02.2021
2989 Clear 31 1006 45 10000 7.72 270 06:41 03.02.2021
2990 Clouds 30 1008 45 10000 4.63 200 04:55 03.02.2021
2991 Clouds 30 1008 48 10000 4.12 180 04:32 03.02.2021
2992 Clouds 29 1009 51 10000 3.09 170 03:39 03.02.2021
2993 Clouds 27 1009 61 10000 2.57 190 02:37 03.02.2021
2994 Clouds 23 1010 73 10000 4.12 120 00:46 03.02.2021
2995 Clear 22 1009 78 10000 2.06 50 23:56 02.02.2021
2996 Clear 20 1008 88 10000 2.06 70 23:36 02.02.2021
2997 Clear 20 1008 88 10000 2.06 70 23:18 02.02.2021
2998 Clear 20 1008 88 10000 3.09 90 22:23 02.02.2021
2999 Clear 20 1008 83 10000 2.06 80 21:58 02.02.2021
3000 Clear 21 1008 78 10000 1.54 100 21:37 02.02.2021
3001 Clear 21 1008 78 10000 1.54 100 21:18 02.02.2021
3002 Clear 21 1008 83 10000 2.57 90 20:43 02.02.2021
3003 Clear 21 1008 78 10000 3.6 70 20:20 02.02.2021
3004 Clear 21 1008 83 10000 2.57 90 20:20 02.02.2021
3005 Clear 21 1008 83 10000 3.09 80 19:48 02.02.2021
3006 Rain 21 1008 83 10000 3.09 80 19:29 02.02.2021
3007 Rain 22 1009 78 10000 0.51 40 18:45 02.02.2021
3008 Rain 22 1009 78 10000 2.06 60 18:26 02.02.2021
3009 Clear 22 1009 78 10000 2.57 60 17:50 02.02.2021
3010 Rain 23 1009 78 10000 3.6 50 17:23 02.02.2021
3011 Rain 23 1009 73 10000 4.63 60 16:57 02.02.2021
3012 Rain 23 1010 73 10000 3.09 60 16:38 02.02.2021
3013 Clear 23 1010 68 10000 2.57 80 15:59 02.02.2021
3014 Rain 24 1010 73 10000 3.09 80 15:41 02.02.2021
3015 Clear 24 1010 73 10000 3.09 80 15:21 02.02.2021
3016 Clear 24 1010 69 10000 4.63 80 14:41 02.02.2021
3017 Clear 25 1010 69 10000 4.63 80 14:18 02.02.2021
3018 Rain 26 1010 65 10000 6.69 90 13:46 02.02.2021
3019 Clear 26 1010 61 10000 5.14 60 13:28 02.02.2021
3020 Rain 27 1009 57 10000 4.63 50 12:57 02.02.2021
3021 Clear 28 1009 57 10000 5.66 40 12:27 02.02.2021
3022 Clear 29 1008 48 10000 5.66 20 11:41 02.02.2021
3023 Clear 29 1008 48 10000 5.66 20 11:20 02.02.2021
3024 Clear 30 1008 45 10000 7.72 50 10:51 02.02.2021
3025 Clear 31 1008 40 10000 7.72 30 10:26 02.02.2021
3026 Smoke 32 1007 33 8000 5.66 10 09:46 02.02.2021
3027 Clouds 33 1007 26 8000 3.6 350 09:25 02.02.2021
3028 Clear 33 1008 24 10000 1.54 250 08:45 02.02.2021
3029 Clear 33 1008 26 10000 3.6 170 07:58 02.02.2021
3030 Clear 34 1008 24 10000 0.51 50 07:28 02.02.2021
3031 Clear 33 1009 27 10000 4.63 70 06:41 02.02.2021
3032 Clear 32 1010 27 10000 5.14 100 05:51 02.02.2021
3033 Clear 32 1011 25 10000 6.69 50 04:36 02.02.2021
3034 Clear 30 1011 28 10000 5.66 70 02:25 02.02.2021
3035 Clear 27 1011 38 10000 7.72 90 01:23 02.02.2021
3036 Rain 24 1012 46 10000 7.72 90 00:18 02.02.2021
3037 Clear 23 1011 46 10000 5.14 50 23:18 01.02.2021
3038 Clear 23 1010 49 10000 8.75 80 22:39 01.02.2021
3039 Clear 23 1010 49 10000 8.75 80 22:21 01.02.2021
3040 Clear 23 1011 49 10000 8.23 70 21:48 01.02.2021
3041 Clear 23 1010 46 10000 9.77 80 21:24 01.02.2021
3042 Clear 24 1010 43 10000 10.8 90 20:44 01.02.2021
3043 Rain 24 1010 43 10000 10.8 100 20:25 01.02.2021
3044 Clear 25 1010 43 10000 11.32 100 19:49 01.02.2021
3045 Clear 25 1010 38 10000 11.83 100 19:21 01.02.2021
3046 Clear 26 1010 36 10000 9.77 100 18:58 01.02.2021
3047 Clear 26 1011 32 10000 9.77 100 18:39 01.02.2021
3048 Clear 26 1011 32 10000 9.77 100 18:21 01.02.2021
3049 Clear 27 1012 32 10000 8.23 100 17:42 01.02.2021
3050 Rain 27 1011 28 10000 6.69 100 17:19 01.02.2021
3051 Rain 27 1011 23 10000 9.26 110 16:40 01.02.2021
3052 Clear 27 1011 18 10000 8.75 110 16:21 01.02.2021
3053 Clear 27 1012 16 10000 3.6 150 15:40 01.02.2021
3054 Rain 28 1012 16 10000 3.6 150 15:19 01.02.2021
3055 Rain 28 1012 16 10000 3.6 150 15:19 01.02.2021
3056 Rain 28 1012 18 10000 4.12 160 14:48 01.02.2021
3057 Rain 28 1012 19 10000 5.14 160 14:18 01.02.2021
3058 Clear 29 1011 15 10000 4.63 150 13:42 01.02.2021
3059 Clear 30 1011 15 10000 4.63 150 13:22 01.02.2021
3060 Clear 31 1011 11 10000 5.14 130 12:44 01.02.2021
3061 Clear 32 1011 10 10000 6.17 120 12:23 01.02.2021
3062 Clear 34 1011 9 10000 6.69 110 11:43 01.02.2021
3063 Clear 34 1011 9 10000 6.69 110 11:20 01.02.2021
3064 Clear 35 1010 10 10000 8.23 110 10:46 01.02.2021
3065 Clear 35 1010 9 10000 7.2 90 10:21 01.02.2021
3066 Clear 36 1011 11 10000 6.69 110 09:47 01.02.2021
3067 Clear 36 1011 11 10000 9.26 140 09:25 01.02.2021
3068 Clear 36 1011 11 10000 8.23 100 08:56 01.02.2021
3069 Clear 36 1011 11 10000 9.26 120 08:21 01.02.2021
3070 Clear 35 1013 18 10000 8.23 120 06:43 01.02.2021
3071 Clear 31 1015 30 10000 7.2 100 04:32 01.02.2021
3072 Clear 25 1016 41 10000 8.75 80 01:46 01.02.2021
3073 Clear 21 1015 56 10000 4.63 120 23:46 31.01.2021
3074 Clear 20 1014 56 10000 8.75 110 22:45 31.01.2021
3075 Clear 20 1014 56 10000 8.75 110 22:25 31.01.2021
3076 Clear 21 1013 56 10000 11.83 100 21:57 31.01.2021
3077 Clear 21 1013 52 10000 12.35 100 21:37 31.01.2021
3078 Clear 21 1013 52 10000 12.35 100 21:37 31.01.2021
3079 Clear 21 1013 52 10000 12.35 100 21:18 31.01.2021
3080 Clear 21 1012 52 10000 12.35 100 20:40 31.01.2021
3081 Clear 22 1012 52 10000 12.35 100 20:18 31.01.2021
3082 Clear 22 1012 46 10000 11.83 100 19:37 31.01.2021
3083 Clear 23 1012 46 10000 12.35 100 19:19 31.01.2021
3084 Clear 24 1012 41 10000 11.32 100 18:42 31.01.2021
3085 Clear 24 1012 41 10000 12.35 100 18:23 31.01.2021
3086 Clear 25 1012 36 10000 12.35 100 17:49 31.01.2021
3087 Clear 26 1012 34 10000 12.86 110 17:24 31.01.2021
3088 Clear 26 1012 31 10000 11.32 110 16:58 31.01.2021
3089 Clear 27 1011 32 10000 12.35 110 16:39 31.01.2021
3090 Clear 27 1011 32 10000 12.35 110 16:19 31.01.2021
3091 Clear 28 1011 28 10000 9.77 120 15:43 31.01.2021
3092 Clear 27 1010 39 10000 5.14 190 14:50 31.01.2021
3093 Clear 27 1010 36 10000 6.17 190 14:26 31.01.2021
3094 Clear 28 1009 34 10000 7.72 190 13:57 31.01.2021
3095 Clear 29 1009 30 10000 7.72 190 13:38 31.01.2021
3096 Rain 30 1009 25 10000 9.26 200 12:51 31.01.2021
3097 Rain 30 1008 22 10000 8.23 210 12:29 31.01.2021
3098 Rain 32 1008 24 10000 6.69 210 11:58 31.01.2021
3099 Clear 32 1008 22 10000 7.2 220 11:38 31.01.2021
3100 Clear 32 1008 22 10000 7.2 220 11:19 31.01.2021
3101 Clear 33 1008 24 10000 8.23 230 10:43 31.01.2021
3102 Clear 33 1008 21 10000 8.75 230 10:24 31.01.2021
3103 Clear 36 1007 11 10000 6.69 220 09:33 31.01.2021
3104 Clear 36 1007 15 10000 6.17 220 08:34 31.01.2021
3105 Rain 37 1008 12 10000 5.66 160 07:48 31.01.2021
3106 Clear 36 1009 16 10000 5.66 150 05:53 31.01.2021
3107 Clear 25 1010 46 10000 6.17 70 00:52 31.01.2021
3108 Rain 23 1010 46 10000 4.63 90 00:26 31.01.2021
3109 Clear 21 1009 52 10000 2.57 60 23:34 30.01.2021
3110 Clear 20 1009 52 10000 3.6 60 22:59 30.01.2021
3111 Clear 20 1009 49 10000 5.14 90 22:31 30.01.2021
3112 Clear 21 1008 49 10000 7.2 90 21:43 30.01.2021
3113 Rain 21 1008 49 10000 7.2 90 21:23 30.01.2021
3114 Rain 22 1008 49 10000 8.75 90 20:50 30.01.2021
3115 Clear 22 1008 46 10000 9.77 100 20:31 30.01.2021
3116 Rain 22 1008 46 10000 9.26 100 19:54 30.01.2021
3117 Rain 22 1008 46 10000 9.26 100 19:54 30.01.2021
3118 Rain 23 1008 43 10000 8.23 100 19:36 30.01.2021
3119 Clear 23 1008 43 10000 8.23 100 19:18 30.01.2021
3120 Rain 24 1008 38 10000 9.77 110 18:39 30.01.2021
3121 Clear 24 1008 38 10000 9.77 110 18:19 30.01.2021
3122 Rain 25 1009 24 10000 7.72 110 17:23 30.01.2021
3123 Clear 24 1009 19 10000 7.72 110 16:56 30.01.2021
3124 Rain 24 1009 17 10000 7.72 110 16:37 30.01.2021
3125 Rain 23 1009 24 10000 4.12 110 16:18 30.01.2021
3126 Clear 23 1009 28 10000 3.09 120 15:40 30.01.2021
3127 Rain 23 1009 28 10000 3.09 120 15:21 30.01.2021
3128 Rain 24 1009 25 10000 3.6 120 14:52 30.01.2021
3129 Clear 24 1009 27 10000 4.63 140 14:22 30.01.2021
3130 Rain 26 1009 18 10000 4.12 140 13:35 30.01.2021
3131 Rain 26 1009 18 10000 4.12 140 13:35 30.01.2021
3132 Clear 28 1008 11 10000 5.14 120 12:53 30.01.2021
3133 Clear 29 1008 11 10000 5.14 120 12:33 30.01.2021
3134 Clear 30 1008 9 10000 6.69 110 11:59 30.01.2021
3135 Clear 34 1008 9 10000 5.66 100 11:31 30.01.2021
3136 Rain 35 1008 8 10000 6.69 130 10:49 30.01.2021
3137 Clear 35 1008 10 10000 6.69 110 09:52 30.01.2021
3138 Clear 34 1008 12 10000 7.2 110 09:31 30.01.2021
3139 Clear 35 1008 12 10000 6.69 90 08:47 30.01.2021
3140 Clear 35 1008 13 10000 7.72 130 08:25 30.01.2021
3141 Clear 34 1010 17 10000 8.23 100 06:53 30.01.2021
3142 Clear 33 1011 18 10000 7.2 100 05:59 30.01.2021
3143 Clear 28 1013 34 10000 7.72 110 03:35 30.01.2021
3144 Clear 25 1014 43 10000 7.2 100 02:25 30.01.2021
3145 Clear 23 1014 49 10000 8.75 90 01:30 30.01.2021
3146 Clear 21 1014 52 10000 8.23 100 00:39 30.01.2021
3147 Clear 20 1014 56 10000 8.23 100 00:20 30.01.2021
3148 Clear 19 1014 59 10000 9.26 110 23:45 29.01.2021
3149 Clear 19 1013 59 10000 9.26 120 23:21 29.01.2021
3150 Clear 19 1012 59 10000 10.8 110 22:44 29.01.2021
3151 Rain 19 1012 59 10000 8.23 110 22:20 29.01.2021
3152 Rain 20 1011 52 10000 11.83 110 21:28 29.01.2021
3153 Clear 21 1011 49 10000 12.86 110 20:46 29.01.2021
3154 Rain 21 1011 49 10000 12.35 100 20:28 29.01.2021
3155 Rain 21 1011 49 10000 11.83 100 19:57 29.01.2021
3156 Clear 22 1011 43 10000 11.83 110 19:38 29.01.2021
3157 Rain 22 1011 43 10000 11.83 110 19:18 29.01.2021
3158 Rain 23 1012 40 10000 9.77 110 18:28 29.01.2021
3159 Clear 24 1012 38 10000 8.75 110 17:40 29.01.2021
3160 Rain 25 1012 38 10000 8.75 110 17:21 29.01.2021
3161 Rain 25 1012 38 10000 8.75 110 17:21 29.01.2021
3162 Rain 25 1012 34 10000 10.29 110 16:45 29.01.2021
3163 Rain 26 1012 31 10000 8.23 120 16:23 29.01.2021
3164 Rain 26 1012 25 10000 5.66 120 15:48 29.01.2021
3165 Rain 26 1012 25 10000 4.12 130 15:27 29.01.2021
3166 Clear 27 1011 21 10000 4.63 140 14:32 29.01.2021
3167 Rain 28 1011 20 10000 4.63 130 13:59 29.01.2021
3168 Rain 28 1011 17 10000 4.63 130 13:39 29.01.2021
3169 Rain 29 1011 17 10000 4.63 130 13:19 29.01.2021
3170 Rain 31 1010 14 10000 7.72 120 12:25 29.01.2021
3171 Rain 32 1010 12 10000 8.23 110 11:49 29.01.2021
3172 Rain 33 1010 12 10000 7.72 120 11:19 29.01.2021
3173 Clear 33 1010 12 10000 8.75 120 10:51 29.01.2021
3174 Rain 34 1010 10 10000 8.23 120 10:27 29.01.2021
3175 Rain 34 1010 12 10000 7.72 110 09:49 29.01.2021
3176 Rain 34 1010 13 10000 7.72 110 08:58 29.01.2021
3177 Clear 34 1010 12 10000 8.23 110 08:34 29.01.2021
3178 Rain 34 1011 13 10000 7.72 130 07:58 29.01.2021
3179 Rain 34 1011 15 10000 6.17 110 07:40 29.01.2021
3180 Rain 33 1011 15 10000 6.17 110 07:20 29.01.2021
3181 Rain 31 1013 25 10000 7.72 130 05:23 29.01.2021
3182 Clear 27 1014 36 10000 9.77 90 03:33 29.01.2021
3183 Rain 21 1015 56 10000 10.29 110 00:43 29.01.2021
3184 Rain 20 1015 56 10000 10.29 110 00:22 29.01.2021
3185 Rain 19 1015 59 10000 9.77 110 23:44 28.01.2021
3186 Clear 19 1015 59 10000 9.26 110 23:25 28.01.2021
3187 Rain 19 1014 59 10000 10.8 100 22:47 28.01.2021
3188 Rain 19 1014 59 10000 10.29 110 22:26 28.01.2021
3189 Rain 19 1014 59 10000 11.83 110 21:57 28.01.2021
3190 Rain 20 1013 56 10000 10.8 110 21:34 28.01.2021
3191 Clear 20 1013 56 10000 10.29 110 20:59 28.01.2021
3192 Clear 20 1014 52 10000 7.72 110 20:39 28.01.2021
3193 Rain 21 1014 52 10000 7.72 110 20:18 28.01.2021
3194 Rain 21 1014 53 10000 8.23 120 19:41 28.01.2021
3195 Rain 22 1014 53 10000 8.23 120 19:23 28.01.2021
3196 Rain 22 1014 53 10000 7.2 110 18:43 28.01.2021
3197 Rain 23 1013 49 10000 7.72 110 18:20 28.01.2021
3198 Rain 24 1013 46 10000 8.23 120 17:46 28.01.2021
3199 Clear 24 1013 46 10000 8.23 120 17:27 28.01.2021
3200 Clear 25 1013 41 10000 9.26 120 16:45 28.01.2021
3201 Rain 25 1013 38 10000 7.72 120 16:24 28.01.2021
3202 Rain 26 1013 34 10000 4.12 130 15:44 28.01.2021
3203 Rain 25 1012 34 10000 5.66 150 15:19 28.01.2021
3204 Clear 25 1012 32 10000 5.66 150 14:42 28.01.2021
3205 Rain 25 1012 32 10000 5.66 150 14:23 28.01.2021
3206 Rain 25 1012 30 10000 5.14 150 13:48 28.01.2021
3207 Rain 26 1011 26 10000 6.17 140 12:59 28.01.2021
3208 Clear 27 1011 25 10000 6.69 150 12:40 28.01.2021
3209 Rain 27 1011 25 10000 6.69 150 12:21 28.01.2021
3210 Rain 28 1010 22 10000 5.66 210 11:43 28.01.2021
3211 Rain 27 1011 50 10000 8.23 210 11:20 28.01.2021
3212 Rain 29 1010 21 10000 6.17 230 10:54 28.01.2021
3213 Rain 29 1010 21 10000 3.6 230 10:34 28.01.2021
3214 Rain 29 1010 21 10000 6.17 160 09:50 28.01.2021
3215 Rain 30 1010 21 10000 6.17 120 09:25 28.01.2021
3216 Rain 30 1010 23 10000 4.12 210 08:56 28.01.2021
3217 Rain 31 1011 23 10000 5.66 140 08:38 28.01.2021
3218 Clear 30 1011 23 10000 5.14 120 07:45 28.01.2021
3219 Rain 31 1012 27 10000 7.72 140 06:50 28.01.2021
3220 Rain 30 1012 28 10000 6.69 160 06:29 28.01.2021
3221 Rain 27 1014 38 10000 6.69 140 04:28 28.01.2021
3222 Clouds 20 1015 59 10000 8.23 110 01:39 28.01.2021
3223 Clear 16 1015 63 10000 3.09 140 23:48 27.01.2021
3224 Clear 15 1014 59 10000 3.6 190 23:24 27.01.2021
3225 Clear 15 1014 51 10000 4.63 130 22:42 27.01.2021
3226 Clear 15 1014 51 10000 4.63 130 22:22 27.01.2021
3227 Clear 16 1014 51 10000 3.6 180 21:43 27.01.2021
3228 Rain 16 1013 51 10000 3.6 150 21:23 27.01.2021
3229 Clear 17 1013 48 10000 5.14 120 20:52 27.01.2021
3230 Rain 17 1013 48 10000 4.12 180 20:27 27.01.2021
3231 Rain 17 1013 48 10000 6.69 140 19:50 27.01.2021
3232 Rain 18 1013 45 10000 6.69 140 19:23 27.01.2021
3233 Rain 18 1013 45 10000 5.66 150 18:46 27.01.2021
3234 Clear 19 1013 42 10000 5.66 130 18:26 27.01.2021
3235 Rain 19 1013 42 10000 4.12 150 17:56 27.01.2021
3236 Clear 19 1013 39 10000 4.63 170 17:38 27.01.2021
3237 Rain 20 1012 37 10000 4.63 170 16:58 27.01.2021
3238 Rain 20 1012 37 10000 6.69 180 16:39 27.01.2021
3239 Rain 20 1012 37 10000 6.69 180 16:21 27.01.2021
3240 Rain 20 1012 40 10000 6.69 160 15:49 27.01.2021
3241 Clear 20 1012 49 10000 4.63 180 15:29 27.01.2021
3242 Clear 21 1011 49 10000 5.66 190 14:24 27.01.2021
3243 Clear 21 1010 43 10000 7.72 210 13:53 27.01.2021
3244 Clear 21 1010 43 10000 7.72 210 13:35 27.01.2021
3245 Clear 22 1010 53 10000 7.22 201 12:42 27.01.2021
3246 Clear 22 1010 53 10000 7.22 201 12:42 27.01.2021
3247 Clear 22 1010 43 10000 8.75 210 12:24 27.01.2021
3248 Clear 23 1010 43 10000 8.75 220 11:48 27.01.2021
3249 Clouds 23 1010 41 10000 9.26 230 11:26 27.01.2021
3250 Clouds 24 1009 36 10000 9.77 230 10:47 27.01.2021
3251 Clouds 24 1009 36 10000 9.77 230 10:25 27.01.2021
3252 Clouds 25 1009 38 10000 9.77 230 09:56 27.01.2021
3253 Clouds 25 1009 38 10000 9.77 240 09:28 27.01.2021
3254 Clouds 25 1009 38 10000 9.26 230 08:45 27.01.2021
3255 Clear 26 1009 41 10000 8.23 240 07:49 27.01.2021
3256 Clear 25 1009 41 10000 7.2 240 07:30 27.01.2021
3257 Rain 25 1010 44 10000 5.66 240 06:26 27.01.2021
3258 Rain 24 1010 46 10000 7.2 220 05:53 27.01.2021
3259 Clouds 24 1010 46 10000 6.69 200 05:33 27.01.2021
3260 Rain 21 1010 60 10000 8.23 200 02:46 27.01.2021
3261 Rain 21 1010 56 10000 5.14 200 02:20 27.01.2021
3262 Rain 20 1010 59 10000 2.57 340 00:56 27.01.2021
3263 Rain 17 1009 88 10000 2.06 20 23:52 26.01.2021
3264 Clouds 15 1009 87 10000 2.06 10 23:32 26.01.2021
3265 Rain 14 1009 87 10000 1.54 110 22:52 26.01.2021
3266 Clear 14 1009 87 10000 1.54 110 22:34 26.01.2021
3267 Clear 15 1009 88 10000 2.87 159 21:59 26.01.2021
3268 Clouds 15 1009 77 10000 2.06 190 21:40 26.01.2021
3269 Rain 15 1009 77 10000 2.06 190 21:21 26.01.2021
3270 Rain 17 1008 67 10000 4.12 190 20:41 26.01.2021
3271 Rain 17 1008 67 10000 4.12 190 20:22 26.01.2021
3272 Rain 17 1008 67 10000 4.12 180 19:48 26.01.2021
3273 Rain 18 1008 67 10000 4.12 190 19:29 26.01.2021
3274 Rain 18 1009 68 10000 4.12 190 18:57 26.01.2021
3275 Rain 18 1008 72 10000 4.12 190 18:37 26.01.2021
3276 Rain 18 1008 72 10000 4.12 190 18:18 26.01.2021
3277 Clouds 18 1008 68 10000 3.6 190 17:46 26.01.2021
3278 Clouds 19 1009 68 10000 4.63 190 17:20 26.01.2021
3279 Clouds 19 1009 63 10000 5.14 210 16:41 26.01.2021
3280 Clouds 19 1009 63 10000 5.14 210 16:20 26.01.2021
3281 Rain 20 1009 60 10000 5.66 210 15:48 26.01.2021
3282 Rain 20 1009 60 10000 6.69 210 15:27 26.01.2021
3283 Clouds 20 1009 60 10000 6.17 210 14:49 26.01.2021
3284 Clouds 20 1009 64 10000 5.66 220 14:29 26.01.2021
3285 Rain 21 1008 60 10000 7.2 210 13:38 26.01.2021
3286 Rain 21 1008 60 10000 7.2 210 13:19 26.01.2021
3287 Rain 21 1008 60 10000 8.23 220 12:44 26.01.2021
3288 Clouds 21 1008 60 10000 8.75 230 12:24 26.01.2021
3289 Clouds 22 1007 56 10000 7.72 240 11:54 26.01.2021
3290 Clouds 22 1007 53 10000 7.72 240 11:33 26.01.2021
3291 Clouds 23 1007 53 10000 9.26 230 10:45 26.01.2021
3292 Clouds 23 1007 50 10000 8.75 220 10:26 26.01.2021
3293 Clouds 24 1007 47 10000 8.75 240 09:42 26.01.2021
3294 Clouds 25 1007 47 10000 8.75 240 09:23 26.01.2021
3295 Clouds 25 1007 44 10000 7.72 240 08:50 26.01.2021
3296 Clear 25 1007 47 10000 8.23 250 08:21 26.01.2021
3297 Clear 25 1007 41 10000 7.2 260 07:27 26.01.2021
3298 Clouds 25 1007 47 10000 6.17 260 05:58 26.01.2021
3299 Clouds 25 1007 44 10000 7.72 250 05:40 26.01.2021
3300 Clear 25 1008 44 10000 3.6 270 03:51 26.01.2021
3301 Clear 22 1008 49 10000 3.09 90 01:46 26.01.2021
3302 Clear 20 1008 59 10000 2.57 110 00:36 26.01.2021
3303 Clear 17 1008 67 10000 2.57 110 23:34 25.01.2021
3304 Clear 17 1008 67 10000 2.57 100 22:52 25.01.2021
3305 Clear 17 1008 67 10000 3.09 110 22:33 25.01.2021
3306 Clear 17 1008 63 10000 3.6 120 21:48 25.01.2021
3307 Clear 17 1008 67 10000 3.09 90 21:22 25.01.2021
3308 Clear 18 1007 67 10000 3.6 110 20:47 25.01.2021
3309 Clear 17 1007 72 10000 3.09 110 20:28 25.01.2021
3310 Clear 17 1007 77 10000 2.57 110 19:50 25.01.2021
3311 Clear 17 1008 77 10000 2.18 145 19:27 25.01.2021
3312 Clear 17 1008 82 10000 2.57 80 18:48 25.01.2021
3313 Clear 17 1008 82 10000 2.57 80 18:27 25.01.2021
3314 Clear 18 1008 72 10000 2.57 190 17:50 25.01.2021
3315 Clear 19 1008 68 10000 2.57 200 17:31 25.01.2021
3316 Clear 19 1008 68 10000 3.6 190 16:59 25.01.2021
3317 Clear 19 1008 64 10000 4.63 190 16:40 25.01.2021
3318 Clear 19 1008 64 10000 4.63 190 16:21 25.01.2021
3319 Clear 20 1009 64 10000 5.14 210 15:43 25.01.2021
3320 Clear 20 1009 64 10000 5.14 210 15:23 25.01.2021
3321 Clear 20 1009 64 10000 6.69 210 14:40 25.01.2021
3322 Clear 21 1009 64 10000 6.69 210 14:19 25.01.2021
3323 Clear 21 1009 64 10000 6.17 210 13:47 25.01.2021
3324 Clear 21 1009 68 10000 6.69 210 13:25 25.01.2021
3325 Clear 22 1008 53 10000 7.2 220 12:45 25.01.2021
3326 Clear 22 1008 49 10000 7.72 220 12:19 25.01.2021
3327 Clear 24 1008 41 10000 8.23 230 11:31 25.01.2021
3328 Clear 25 1008 41 10000 8.23 230 10:53 25.01.2021
3329 Clear 25 1007 36 10000 7.2 240 10:23 25.01.2021
3330 Clear 26 1008 36 10000 6.69 240 09:55 25.01.2021
3331 Rain 26 1007 34 10000 7.2 250 09:37 25.01.2021
3332 Rain 26 1008 34 10000 8.23 250 08:56 25.01.2021
3333 Rain 26 1008 34 10000 7.72 270 08:23 25.01.2021
3334 Rain 26 1008 31 10000 7.72 270 07:31 25.01.2021
3335 Rain 26 1008 31 10000 7.72 260 06:52 25.01.2021
3336 Rain 25 1010 38 10000 2.57 150 03:23 25.01.2021
3337 Clear 21 1010 56 10000 3.6 190 00:52 25.01.2021
3338 Clear 19 1009 68 10000 3.09 180 23:40 24.01.2021
3339 Clear 18 1009 68 10000 3.09 180 23:19 24.01.2021
3340 Clear 18 1009 63 10000 3.6 180 22:41 24.01.2021
3341 Clear 18 1009 63 10000 3.6 180 22:20 24.01.2021
3342 Clear 18 1009 63 10000 4.63 180 21:44 24.01.2021
3343 Clear 18 1009 63 10000 4.63 180 21:21 24.01.2021
3344 Clear 18 1008 68 10000 4.12 190 20:43 24.01.2021
3345 Clear 18 1008 68 10000 4.12 190 20:19 24.01.2021
3346 Clear 19 1008 68 10000 5.14 180 19:50 24.01.2021
3347 Clear 19 1008 63 10000 5.66 190 19:26 24.01.2021
3348 Clear 19 1008 68 10000 4.63 200 18:56 24.01.2021
3349 Clouds 19 1008 63 10000 3.6 210 18:37 24.01.2021
3350 Clouds 19 1008 63 10000 3.6 210 18:19 24.01.2021
3351 Clouds 19 1008 63 10000 4.12 210 17:47 24.01.2021
3352 Clouds 20 1008 60 10000 4.63 210 17:20 24.01.2021
3353 Clear 20 1008 64 10000 5.14 210 16:42 24.01.2021
3354 Clear 20 1008 64 10000 5.14 210 16:23 24.01.2021
3355 Clouds 20 1009 64 10000 5.14 210 15:49 24.01.2021
3356 Clouds 21 1008 60 10000 6.69 210 15:22 24.01.2021
3357 Clouds 21 1009 60 10000 6.69 210 14:58 24.01.2021
3358 Clouds 21 1008 60 10000 6.17 210 14:34 24.01.2021
3359 Clouds 22 1008 56 10000 7.2 230 13:40 24.01.2021
3360 Rain 22 1008 56 10000 7.2 230 13:18 24.01.2021
3361 Clouds 22 1007 56 10000 7.72 240 12:40 24.01.2021
3362 Clouds 22 1007 56 10000 7.72 240 12:19 24.01.2021
3363 Clouds 23 1007 49 10000 6.69 250 11:46 24.01.2021
3364 Clouds 23 1006 46 10000 7.72 220 11:23 24.01.2021
3365 Clouds 24 1006 41 10000 7.2 240 10:42 24.01.2021
3366 Clear 26 1006 36 10000 7.72 220 09:57 24.01.2021
3367 Clear 26 1006 36 10000 7.2 230 09:22 24.01.2021
3368 Clouds 26 1006 36 10000 7.2 250 08:52 24.01.2021
3369 Clouds 26 1006 44 10000 7.2 270 07:22 24.01.2021
3370 Rain 24 1007 60 10000 4.63 220 02:34 24.01.2021
3371 Clouds 22 1007 64 10000 1.03 330 00:59 24.01.2021
3372 Clouds 20 1007 72 10000 2.06 360 00:24 24.01.2021
3373 Clouds 19 1006 77 10000 2.57 10 23:47 23.01.2021
3374 Clouds 17 1006 88 10000 2.06 50 23:24 23.01.2021
3375 Clouds 16 1005 94 10000 0.52 149 22:42 23.01.2021
3376 Clouds 16 1005 94 10000 2.17 182 22:24 23.01.2021
3377 Clear 17 1005 88 10000 0.51 140 21:48 23.01.2021
3378 Clear 17 1005 82 10000 2.06 180 21:21 23.01.2021
3379 Clear 18 1005 82 10000 2.06 180 20:43 23.01.2021
3380 Clear 18 1005 72 10000 3.09 180 20:21 23.01.2021
3381 Clear 19 1004 72 10000 4.63 190 19:46 23.01.2021
3382 Clear 19 1004 72 10000 4.63 190 19:46 23.01.2021
3383 Clear 19 1004 68 10000 4.12 200 19:21 23.01.2021
3384 Clouds 20 1005 64 10000 3.6 210 18:46 23.01.2021
3385 Clouds 20 1005 64 10000 4.12 230 18:24 23.01.2021
3386 Clouds 20 1005 60 10000 5.66 230 17:45 23.01.2021
3387 Clouds 21 1005 60 10000 5.14 230 17:26 23.01.2021
3388 Clouds 21 1005 64 10000 4.12 240 16:47 23.01.2021
3389 Clouds 21 1005 64 10000 4.63 240 16:25 23.01.2021
3390 Clouds 21 1006 64 10000 5.66 230 15:40 23.01.2021
3391 Clouds 21 1006 64 10000 5.66 230 15:20 23.01.2021
3392 Rain 21 1005 64 10000 5.66 250 14:31 23.01.2021
3393 Rain 21 1005 64 10000 5.66 240 13:52 23.01.2021
3394 Clouds 22 1005 64 10000 5.66 240 13:34 23.01.2021
3395 Clouds 22 1004 64 10000 6.69 230 12:49 23.01.2021
3396 Rain 22 1004 68 10000 6.17 250 12:27 23.01.2021
3397 Clouds 23 1004 64 10000 6.69 220 11:45 23.01.2021
3398 Rain 23 1003 60 10000 7.72 240 11:24 23.01.2021
3399 Clouds 24 1002 57 10000 7.2 220 10:46 23.01.2021
3400 Clouds 25 1002 57 10000 6.69 250 10:18 23.01.2021
3401 Clouds 26 1002 53 10000 6.69 240 09:44 23.01.2021
3402 Clouds 26 1002 53 10000 7.2 250 08:53 23.01.2021
3403 Clouds 26 1002 53 10000 6.69 270 07:57 23.01.2021
3404 Clouds 26 1002 50 10000 7.72 260 07:24 23.01.2021
3405 Clear 27 1002 50 10000 6.17 250 03:36 23.01.2021
3406 Rain 24 1001 56 10000 1.54 140 00:38 23.01.2021
3407 Clear 21 1001 72 10000 2.37 238 23:38 22.01.2021
3408 Clear 21 1001 72 10000 2.37 238 23:38 22.01.2021
3409 Rain 20 1000 68 10000 2.57 160 22:46 22.01.2021
3410 Clear 21 1000 60 10000 4.63 250 22:22 22.01.2021
3411 Rain 21 1000 60 10000 3.09 30 21:45 22.01.2021
3412 Clear 19 999 72 10000 3.09 20 21:26 22.01.2021
3413 Clear 19 1000 77 10000 2.06 350 20:55 22.01.2021
3414 Rain 18 1000 77 10000 2.57 350 20:33 22.01.2021
3415 Clear 19 1000 72 10000 2.06 30 19:48 22.01.2021
3416 Clear 19 1000 72 10000 3.09 260 19:21 22.01.2021
3417 Rain 19 1000 72 10000 2.34 153 18:50 22.01.2021
3418 Clear 20 1000 68 10000 2.06 310 18:27 22.01.2021
3419 Clear 21 1000 68 10000 2.06 70 17:56 22.01.2021
3420 Rain 22 1001 60 10000 3.6 170 17:38 22.01.2021
3421 Rain 22 1001 64 10000 3.6 180 16:56 22.01.2021
3422 Rain 22 1001 60 10000 4.63 220 16:31 22.01.2021
3423 Rain 22 1002 56 10000 3.09 220 15:53 22.01.2021
3424 Rain 23 1001 53 10000 3.6 190 15:25 22.01.2021
3425 Rain 23 1002 50 10000 4.12 210 14:43 22.01.2021
3426 Rain 24 1002 50 10000 4.12 210 14:24 22.01.2021
3427 Rain 25 1002 44 10000 4.12 220 13:38 22.01.2021
3428 Clear 25 1002 44 10000 4.12 220 13:19 22.01.2021
3429 Clear 27 1001 37 10000 5.66 230 12:40 22.01.2021
3430 Clear 27 1001 37 10000 5.66 230 12:18 22.01.2021
3431 Clear 29 1001 37 10000 7.2 230 11:38 22.01.2021
3432 Clear 30 1001 35 10000 7.2 220 10:48 22.01.2021
3433 Clear 29 1001 39 10000 8.23 220 10:24 22.01.2021
3434 Clear 30 1001 37 10000 8.75 210 09:44 22.01.2021
3435 Clear 30 1001 40 10000 7.72 260 08:57 22.01.2021
3436 Clear 32 1001 31 10000 6.69 260 08:32 22.01.2021
3437 Clear 34 1001 29 10000 7.2 270 07:48 22.01.2021
3438 Clear 35 1003 28 10000 2.57 130 05:22 22.01.2021
3439 Clear 26 1006 47 10000 5.14 110 01:54 22.01.2021
3440 Clear 23 1006 56 10000 6.69 70 00:29 22.01.2021
3441 Clear 21 1006 60 10000 3.6 70 23:48 21.01.2021
3442 Clear 20 1006 64 10000 4.12 70 23:20 21.01.2021
3443 Clear 20 1006 64 10000 2.57 70 22:48 21.01.2021
3444 Clear 21 1006 60 10000 7.72 90 21:58 21.01.2021
3445 Clear 21 1005 60 10000 9.77 90 21:38 21.01.2021
3446 Clear 21 1005 60 10000 11.32 100 21:18 21.01.2021
3447 Clear 22 1006 56 10000 11.32 100 20:43 21.01.2021
3448 Clear 22 1006 56 10000 10.29 100 20:21 21.01.2021
3449 Clear 23 1006 53 10000 9.77 100 19:47 21.01.2021
3450 Clear 24 1006 50 10000 10.8 110 19:25 21.01.2021
3451 Clear 25 1007 50 10000 5.66 100 18:43 21.01.2021
3452 Clear 25 1007 50 10000 6.69 110 18:22 21.01.2021
3453 Clear 26 1007 44 10000 4.63 130 17:57 21.01.2021
3454 Clear 26 1007 41 10000 5.14 130 17:21 21.01.2021
3455 Clear 27 1007 44 10000 3.6 110 16:58 21.01.2021
3456 Clear 26 1007 57 10000 5.66 110 16:38 21.01.2021
3457 Clear 26 1007 57 10000 5.66 110 16:20 21.01.2021
3458 Clear 25 1007 61 10000 4.12 190 15:47 21.01.2021
3459 Clear 26 1007 57 10000 5.14 180 15:24 21.01.2021
3460 Clear 26 1007 57 10000 4.63 210 14:45 21.01.2021
3461 Clear 26 1007 57 10000 4.12 220 14:23 21.01.2021
3462 Clear 26 1007 51 10000 5.66 210 13:43 21.01.2021
3463 Clear 27 1007 51 10000 5.66 210 13:23 21.01.2021
3464 Clear 27 1007 47 10000 5.14 220 12:43 21.01.2021
3465 Clear 27 1007 45 10000 6.17 230 12:24 21.01.2021
3466 Clear 28 1007 45 10000 6.17 240 11:51 21.01.2021
3467 Clear 29 1006 40 10000 7.72 230 11:30 21.01.2021
3468 Clear 30 1006 40 10000 8.23 230 10:52 21.01.2021
3469 Clear 31 1006 37 10000 8.75 220 10:33 21.01.2021
3470 Clear 32 1007 35 10000 8.75 240 09:45 21.01.2021
3471 Clear 32 1007 35 10000 8.23 240 09:25 21.01.2021
3472 Clear 32 1007 33 10000 8.75 240 08:48 21.01.2021
3473 Clear 32 1007 33 10000 8.75 240 08:25 21.01.2021
3474 Clear 34 1007 34 10000 7.2 260 07:28 21.01.2021
3475 Clear 35 1008 21 10000 5.14 270 06:58 21.01.2021
3476 Clear 34 1009 27 10000 3.6 110 05:22 21.01.2021
3477 Clear 30 1011 39 10000 3.6 110 02:58 21.01.2021
3478 Clear 25 1011 50 10000 3.09 110 00:57 21.01.2021
3479 Clear 24 1011 53 10000 3.6 180 23:56 20.01.2021
3480 Clear 23 1011 56 10000 3.09 200 23:33 20.01.2021
3481 Clear 22 1010 56 10000 3.6 180 22:59 20.01.2021
3482 Clear 23 1010 57 10000 4.12 190 22:41 20.01.2021
3483 Clear 23 1010 57 10000 4.12 190 22:21 20.01.2021
3484 Clear 23 1010 53 10000 4.63 210 21:41 20.01.2021
3485 Clear 24 1010 53 10000 4.63 210 21:21 20.01.2021
3486 Clear 24 1010 53 10000 4.12 190 20:49 20.01.2021
3487 Clear 24 1009 53 10000 3.6 180 20:18 20.01.2021
3488 Clear 24 1009 50 10000 6.69 140 19:43 20.01.2021
3489 Clear 25 1009 53 10000 6.69 140 19:24 20.01.2021
3490 Clear 25 1010 50 10000 3.09 170 18:42 20.01.2021
3491 Clear 25 1010 53 10000 3.6 180 17:58 20.01.2021
3492 Clear 25 1010 69 10000 2.57 210 17:39 20.01.2021
3493 Clear 24 1010 69 10000 2.06 220 16:59 20.01.2021
3494 Clear 25 1010 65 10000 3.09 200 16:41 20.01.2021
3495 Clear 25 1010 65 10000 3.09 210 15:55 20.01.2021
3496 Clear 25 1010 65 10000 2.57 200 15:36 20.01.2021
3497 Clear 25 1010 65 10000 3.09 210 14:51 20.01.2021
3498 Clear 25 1010 65 10000 3.6 230 14:25 20.01.2021
3499 Clear 26 1009 61 10000 4.12 220 13:50 20.01.2021
3500 Clear 26 1009 61 10000 5.14 230 13:31 20.01.2021
3501 Clear 26 1009 54 10000 5.66 230 12:45 20.01.2021
3502 Clear 27 1009 51 10000 5.66 240 12:20 20.01.2021
3503 Clear 28 1008 54 10000 6.17 230 11:39 20.01.2021
3504 Clear 29 1008 48 10000 8.23 230 10:56 20.01.2021
3505 Clouds 30 1008 48 10000 7.72 230 10:34 20.01.2021
3506 Clouds 30 1008 45 10000 7.72 230 09:55 20.01.2021
3507 Clouds 30 1008 51 10000 6.17 270 09:30 20.01.2021
3508 Clouds 30 1008 58 10000 6.17 270 08:58 20.01.2021
3509 Clouds 29 1009 61 10000 6.17 280 08:33 20.01.2021
3510 Clouds 28 1009 57 10000 6.69 250 07:59 20.01.2021
3511 Clouds 29 1009 54 10000 6.69 250 07:37 20.01.2021
3512 Clouds 30 1009 48 10000 5.14 280 06:39 20.01.2021
3513 Clouds 27 1010 61 10000 4.63 280 03:29 20.01.2021
3514 Clouds 24 1010 78 10000 3.6 240 01:20 20.01.2021
3515 Clouds 24 1010 78 10000 3.09 240 00:46 20.01.2021
3516 Clouds 23 1010 83 10000 4.12 220 23:49 19.01.2021
3517 Clouds 23 1010 83 10000 4.63 240 23:27 19.01.2021
3518 Clouds 23 1009 83 10000 4.63 260 22:57 19.01.2021
3519 Clouds 23 1009 83 10000 3.09 280 22:37 19.01.2021
3520 Rain 23 1009 83 10000 3.09 280 22:19 19.01.2021
3521 Rain 23 1008 83 10000 3.09 270 21:50 19.01.2021
3522 Rain 23 1008 83 10000 4.63 260 21:26 19.01.2021
3523 Rain 23 1008 83 10000 2.06 310 20:44 19.01.2021
3524 Rain 23 1008 83 10000 3.6 340 20:24 19.01.2021
3525 Rain 23 1008 83 10000 3.09 240 19:54 19.01.2021
3526 Rain 23 1008 88 10000 1.05 197 19:29 19.01.2021
3527 Rain 23 1008 88 10000 2.06 230 18:49 19.01.2021
3528 Rain 23 1009 78 10000 4.12 220 18:27 19.01.2021
3529 Rain 23 1009 78 10000 3.6 230 17:46 19.01.2021
3530 Rain 23 1009 78 10000 4.12 220 17:27 19.01.2021
3531 Rain 23 1009 78 10000 4.63 240 16:50 19.01.2021
3532 Rain 23 1009 78 10000 4.63 240 16:29 19.01.2021
3533 Rain 24 1009 73 10000 4.12 250 15:59 19.01.2021
3534 Rain 24 1009 78 10000 4.12 250 15:40 19.01.2021
3535 Rain 25 1009 78 10000 3.09 250 14:57 19.01.2021
3536 Rain 25 1009 78 10000 3.09 250 14:39 19.01.2021
3537 Clouds 25 1009 78 10000 3.09 250 14:20 19.01.2021
3538 Clear 25 1008 73 10000 5.14 250 13:40 19.01.2021
3539 Rain 25 1008 73 10000 5.14 250 13:21 19.01.2021
3540 Clouds 25 1008 69 10000 5.14 220 12:47 19.01.2021
3541 Clouds 26 1008 61 10000 5.14 240 12:28 19.01.2021
3542 Clear 27 1008 65 10000 5.66 260 11:43 19.01.2021
3543 Rain 28 1008 48 10000 5.14 250 11:23 19.01.2021
3544 Rain 29 1007 37 10000 3.6 240 10:50 19.01.2021
3545 Rain 29 1007 37 10000 3.6 240 10:31 19.01.2021
3546 Rain 31 1007 33 10000 4.12 240 09:52 19.01.2021
3547 Rain 32 1007 33 10000 4.63 240 09:27 19.01.2021
3548 Rain 32 1007 31 10000 4.63 260 08:52 19.01.2021
3549 Rain 32 1008 33 10000 5.66 290 08:19 19.01.2021
3550 Rain 33 1007 29 10000 6.17 290 07:36 19.01.2021
3551 Rain 36 1008 24 10000 7.2 270 05:59 19.01.2021
3552 Clouds 32 1010 21 10000 5.66 30 02:29 19.01.2021
3553 Clear 29 1010 32 10000 3.09 270 00:48 19.01.2021
3554 Clear 27 1010 41 10000 1.54 60 23:58 18.01.2021
3555 Clear 26 1010 44 10000 3.6 50 23:31 18.01.2021
3556 Clear 26 1010 41 10000 4.12 70 22:51 18.01.2021
3557 Clear 26 1009 41 10000 5.14 70 22:24 18.01.2021
3558 Clear 26 1009 44 10000 4.63 70 21:51 18.01.2021
3559 Clear 26 1009 44 10000 4.63 70 21:24 18.01.2021
3560 Clear 26 1009 44 10000 4.12 80 20:59 18.01.2021
3561 Clouds 26 1009 44 10000 4.12 70 20:38 18.01.2021
3562 Clouds 26 1009 44 10000 4.12 70 20:20 18.01.2021
3563 Clear 25 1010 47 10000 3.09 40 19:48 18.01.2021
3564 Clear 26 1010 47 10000 4.12 80 19:27 18.01.2021
3565 Clear 26 1010 44 10000 5.14 40 18:44 18.01.2021
3566 Drizzle 26 1010 44 10000 4.12 60 18:21 18.01.2021
3567 Clear 27 1011 36 10000 5.14 50 17:40 18.01.2021
3568 Clear 27 1011 36 10000 5.14 50 17:18 18.01.2021
3569 Clear 27 1011 36 10000 4.63 50 16:41 18.01.2021
3570 Clear 27 1011 36 10000 4.63 50 16:19 18.01.2021
3571 Clear 26 1011 38 10000 4.12 60 15:41 18.01.2021
3572 Clear 26 1011 38 10000 4.12 60 15:19 18.01.2021
3573 Clear 26 1012 41 10000 3.6 60 14:43 18.01.2021
3574 Clear 27 1011 41 10000 5.14 50 14:25 18.01.2021
3575 Clear 26 1011 44 10000 4.63 70 13:45 18.01.2021
3576 Clear 26 1011 44 10000 5.14 60 13:26 18.01.2021
3577 Clouds 27 1011 39 10000 8.23 30 12:51 18.01.2021
3578 Clouds 27 1011 39 10000 8.23 30 12:20 18.01.2021
3579 Rain 28 1011 42 10000 8.23 10 11:53 18.01.2021
3580 Clouds 28 1011 42 10000 8.23 360 11:30 18.01.2021
3581 Clouds 30 1011 37 10000 7.72 10 10:57 18.01.2021
3582 Clear 31 1011 30 10000 6.17 10 10:39 18.01.2021
3583 Clear 33 1011 29 10000 6.69 20 09:43 18.01.2021
3584 Clear 32 1011 27 10000 7.72 30 09:24 18.01.2021
3585 Clear 33 1011 24 10000 5.66 40 08:48 18.01.2021
3586 Clear 34 1011 25 10000 8.75 50 07:55 18.01.2021
3587 Clear 33 1011 29 10000 8.23 50 07:21 18.01.2021
3588 Clear 30 1013 23 10000 6.69 40 04:58 18.01.2021
3589 Clear 29 1014 20 10000 7.2 50 04:31 18.01.2021
3590 Clear 29 1014 21 10000 8.23 40 03:57 18.01.2021
3591 Clear 29 1014 21 10000 7.72 30 03:38 18.01.2021
3592 Clear 29 1014 21 10000 7.72 30 03:18 18.01.2021
3593 Clear 29 1014 18 10000 8.23 60 02:27 18.01.2021
3594 Clouds 26 1015 29 10000 8.75 80 00:43 18.01.2021
3595 Clouds 26 1015 29 10000 8.75 80 00:20 18.01.2021
3596 Clear 25 1015 27 10000 9.26 80 23:44 17.01.2021
3597 Clouds 25 1014 28 10000 7.2 70 23:20 17.01.2021
3598 Clear 25 1013 27 10000 7.2 50 22:26 17.01.2021
3599 Clear 25 1013 27 10000 7.2 50 22:26 17.01.2021
3600 Clear 25 1012 25 10000 8.23 70 21:58 17.01.2021
3601 Clear 26 1013 25 10000 4.63 80 21:39 17.01.2021
3602 Clear 26 1013 25 10000 4.63 80 21:39 17.01.2021
3603 Clear 26 1013 25 10000 4.63 80 21:21 17.01.2021
3604 Clear 26 1012 20 10000 8.75 70 20:44 17.01.2021
3605 Clear 26 1012 19 10000 8.23 80 20:25 17.01.2021
3606 Clear 27 1012 17 10000 6.69 70 19:42 17.01.2021
3607 Clear 27 1012 17 10000 6.69 70 19:19 17.01.2021
3608 Clear 28 1012 17 10000 6.69 80 18:38 17.01.2021
3609 Clear 28 1012 17 10000 6.69 80 18:19 17.01.2021
3610 Clear 29 1012 15 10000 6.69 90 17:43 17.01.2021
3611 Clear 29 1012 15 10000 6.69 90 17:23 17.01.2021
3612 Clear 29 1012 15 10000 6.69 90 17:23 17.01.2021
3613 Clear 29 1013 16 10000 6.69 90 16:43 17.01.2021
3614 Clear 29 1013 16 10000 6.69 90 16:19 17.01.2021
3615 Clear 29 1013 16 10000 4.63 80 15:41 17.01.2021
3616 Clear 29 1013 16 10000 4.63 80 15:21 17.01.2021
3617 Clear 29 1013 16 10000 4.12 110 14:46 17.01.2021
3618 Clear 29 1013 16 10000 4.12 110 14:25 17.01.2021
3619 Clear 30 1013 18 10000 4.12 100 13:44 17.01.2021
3620 Clear 31 1013 17 10000 3.6 90 13:26 17.01.2021
3621 Clear 31 1012 16 10000 4.12 90 12:47 17.01.2021
3622 Clear 32 1012 15 10000 4.63 90 12:28 17.01.2021
3623 Clear 34 1012 13 10000 7.72 90 11:41 17.01.2021
3624 Clear 34 1012 13 10000 7.72 90 11:21 17.01.2021
3625 Clear 35 1012 12 10000 7.2 70 10:42 17.01.2021
3626 Clear 35 1012 12 10000 7.2 70 10:19 17.01.2021
3627 Clear 35 1012 14 10000 7.2 80 09:19 17.01.2021
3628 Clear 36 1013 15 10000 6.69 50 08:43 17.01.2021
3629 Clear 33 1015 18 10000 9.77 70 05:20 17.01.2021
3630 Clear 31 1016 20 10000 9.77 50 04:27 17.01.2021
3631 Clear 27 1016 26 10000 12.35 70 02:30 17.01.2021
3632 Clear 23 1017 40 10000 12.35 80 00:38 17.01.2021
3633 Clear 22 1017 40 10000 12.35 80 00:18 17.01.2021
3634 Clear 21 1016 42 10000 11.32 80 23:48 16.01.2021
3635 Clear 20 1016 45 10000 12.35 80 23:19 16.01.2021
3636 Clear 20 1015 48 10000 10.8 80 22:28 16.01.2021
3637 Clear 20 1015 48 10000 9.77 80 21:58 16.01.2021
3638 Clear 20 1015 48 10000 10.8 90 21:24 16.01.2021
3639 Clear 20 1015 48 10000 9.26 90 20:53 16.01.2021
3640 Clear 20 1015 48 10000 9.26 90 20:53 16.01.2021
3641 Clear 20 1014 45 10000 10.8 90 20:29 16.01.2021
3642 Clear 21 1014 45 10000 10.8 100 19:50 16.01.2021
3643 Clear 21 1014 43 10000 9.26 100 19:31 16.01.2021
3644 Clear 22 1015 43 10000 7.72 100 18:48 16.01.2021
3645 Clear 22 1014 40 10000 9.77 100 18:28 16.01.2021
3646 Clear 23 1014 35 10000 8.75 100 17:59 16.01.2021
3647 Clear 23 1014 35 10000 8.75 100 17:39 16.01.2021
3648 Clear 24 1014 33 10000 8.75 100 17:21 16.01.2021
3649 Clear 25 1014 29 10000 9.26 110 16:42 16.01.2021
3650 Clear 26 1014 21 10000 8.75 110 16:20 16.01.2021
3651 Clear 27 1014 17 10000 9.77 100 15:43 16.01.2021
3652 Clear 28 1013 18 10000 7.72 110 14:39 16.01.2021
3653 Clear 29 1013 20 10000 7.2 110 13:54 16.01.2021
3654 Clear 29 1013 20 10000 7.2 110 13:54 16.01.2021
3655 Clear 29 1012 19 10000 7.72 110 13:33 16.01.2021
3656 Clear 30 1012 20 10000 5.66 110 12:54 16.01.2021
3657 Clear 31 1012 19 10000 6.69 110 12:36 16.01.2021
3658 Clear 31 1012 18 10000 7.72 110 11:59 16.01.2021
3659 Clear 32 1012 19 10000 8.23 100 11:40 16.01.2021
3660 Clear 32 1012 19 10000 8.23 100 11:19 16.01.2021
3661 Clear 33 1012 19 10000 9.26 110 10:42 16.01.2021
3662 Clear 33 1012 19 10000 9.26 110 09:57 16.01.2021
3663 Clear 33 1012 19 10000 10.8 110 09:21 16.01.2021
3664 Rain 33 1013 22 10000 9.26 100 08:20 16.01.2021
3665 Rain 32 1014 25 10000 10.29 100 06:54 16.01.2021
3666 Clear 30 1015 28 10000 10.29 90 05:35 16.01.2021
3667 Rain 27 1016 34 10000 11.32 100 03:44 16.01.2021
3668 Clear 25 1017 38 10000 10.29 90 02:47 16.01.2021
3669 Clear 21 1017 49 10000 8.75 80 00:47 16.01.2021
3670 Clear 21 1017 52 10000 7.72 80 00:23 16.01.2021
3671 Clear 19 1017 59 10000 7.72 90 23:39 15.01.2021
3672 Clear 18 1017 55 10000 8.75 100 22:41 15.01.2021
3673 Clear 19 1016 55 10000 7.72 100 22:21 15.01.2021
3674 Clear 19 1016 55 10000 8.75 100 21:43 15.01.2021
3675 Clear 19 1016 59 10000 8.75 100 20:49 15.01.2021
3676 Clear 19 1016 59 10000 6.69 100 20:24 15.01.2021
3677 Clear 19 1016 59 10000 7.2 110 19:58 15.01.2021
3678 Clear 19 1016 55 10000 7.2 110 19:39 15.01.2021
3679 Clear 19 1016 55 10000 7.2 110 19:21 15.01.2021
3680 Clear 20 1016 52 10000 8.23 110 18:42 15.01.2021
3681 Clear 20 1016 52 10000 8.23 110 18:18 15.01.2021
3682 Clear 21 1016 49 10000 12.35 110 17:41 15.01.2021
3683 Clear 21 1016 49 10000 10.29 110 17:21 15.01.2021
3684 Clear 23 1016 43 10000 10.29 110 16:46 15.01.2021
3685 Clear 25 1015 33 10000 8.75 140 16:23 15.01.2021
3686 Clear 26 1014 29 10000 6.69 110 15:41 15.01.2021
3687 Rain 26 1014 29 10000 6.69 110 15:21 15.01.2021
3688 Clear 27 1014 28 10000 5.14 120 14:43 15.01.2021
3689 Clear 27 1014 28 10000 5.14 120 14:24 15.01.2021
3690 Clear 28 1014 20 10000 5.14 110 13:41 15.01.2021
3691 Clear 28 1014 20 10000 5.14 110 13:21 15.01.2021
3692 Clear 29 1013 18 10000 7.2 110 12:49 15.01.2021
3693 Clear 30 1013 17 10000 8.23 100 12:31 15.01.2021
3694 Clear 31 1013 17 10000 8.75 110 11:46 15.01.2021
3695 Clear 31 1013 15 10000 10.29 110 11:23 15.01.2021
3696 Clear 32 1012 14 10000 10.29 110 10:53 15.01.2021
3697 Clear 32 1012 15 10000 10.29 110 10:34 15.01.2021
3698 Clear 32 1012 14 10000 9.77 100 09:53 15.01.2021
3699 Clear 32 1013 14 10000 10.29 120 09:34 15.01.2021
3700 Clear 32 1013 14 10000 9.26 110 08:37 15.01.2021
3701 Clear 32 1013 14 10000 9.26 110 08:18 15.01.2021
3702 Clear 32 1013 15 10000 9.26 100 07:39 15.01.2021
3703 Clear 32 1014 16 10000 8.23 100 07:18 15.01.2021
3704 Clear 27 1017 21 10000 9.77 90 03:46 15.01.2021
3705 Clear 20 1017 45 10000 8.75 100 00:57 15.01.2021
3706 Clear 18 1016 52 10000 10.29 100 23:47 14.01.2021
3707 Rain 17 1016 55 10000 5.14 120 22:59 14.01.2021
3708 Clear 17 1016 55 10000 7.2 110 22:40 14.01.2021
3709 Clear 17 1016 55 10000 7.2 110 22:22 14.01.2021
3710 Rain 17 1016 55 10000 8.23 110 21:42 14.01.2021
3711 Clear 17 1016 55 10000 8.23 110 21:21 14.01.2021
3712 Clear 17 1016 55 10000 9.77 120 20:48 14.01.2021
3713 Clear 17 1016 55 10000 10.29 110 20:22 14.01.2021
3714 Clear 18 1016 48 10000 9.77 110 19:42 14.01.2021
3715 Clear 18 1016 48 10000 10.29 120 19:23 14.01.2021
3716 Clear 19 1016 45 10000 9.77 110 18:50 14.01.2021
3717 Clear 19 1016 45 10000 8.75 100 18:19 14.01.2021
3718 Clear 20 1016 42 10000 8.75 90 17:45 14.01.2021
3719 Clear 21 1016 37 10000 5.66 120 17:26 14.01.2021
3720 Clear 22 1016 33 10000 6.69 130 16:40 14.01.2021
3721 Clear 23 1016 31 10000 7.72 150 15:57 14.01.2021
3722 Clear 24 1015 31 10000 9.26 160 15:39 14.01.2021
3723 Clear 25 1016 27 10000 8.23 150 14:58 14.01.2021
3724 Clear 26 1015 25 10000 7.72 150 14:37 14.01.2021
3725 Rain 27 1015 24 10000 7.72 140 14:18 14.01.2021
3726 Clear 28 1015 21 10000 8.23 140 13:48 14.01.2021
3727 Clear 29 1015 20 10000 5.66 150 13:19 14.01.2021
3728 Clear 30 1014 18 10000 7.72 120 12:38 14.01.2021
3729 Clear 31 1014 18 10000 7.72 120 12:18 14.01.2021
3730 Clear 32 1013 18 10000 9.26 120 11:41 14.01.2021
3731 Clear 32 1013 18 10000 9.26 120 11:20 14.01.2021
3732 Clear 33 1013 19 10000 8.23 110 10:49 14.01.2021
3733 Clear 33 1013 21 10000 8.23 130 10:22 14.01.2021
3734 Rain 33 1013 21 10000 8.75 120 09:44 14.01.2021
3735 Clear 33 1013 21 10000 8.75 120 09:22 14.01.2021
3736 Clear 33 1014 22 10000 8.23 110 08:43 14.01.2021
3737 Clear 33 1014 21 10000 8.75 140 08:22 14.01.2021
3738 Clear 32 1014 23 10000 8.75 110 07:45 14.01.2021
3739 Clear 31 1015 25 10000 9.26 110 06:43 14.01.2021
3740 Clear 30 1016 26 10000 7.72 110 05:45 14.01.2021
3741 Clear 19 1018 48 10000 6.69 100 00:44 14.01.2021
3742 Clear 18 1018 55 10000 7.72 100 23:51 13.01.2021
3743 Clear 17 1018 51 10000 7.72 100 23:21 13.01.2021
3744 Clear 17 1017 51 10000 6.17 110 22:28 13.01.2021
3745 Clear 17 1017 51 10000 7.72 110 21:50 13.01.2021
3746 Clear 17 1017 51 10000 5.66 140 21:24 13.01.2021
3747 Clear 17 1016 51 10000 5.66 130 20:55 13.01.2021
3748 Clear 17 1016 51 10000 4.12 190 20:28 13.01.2021
3749 Clear 18 1016 48 10000 5.14 100 19:57 13.01.2021
3750 Rain 19 1016 48 10000 7.72 110 19:32 13.01.2021
3751 Rain 19 1016 45 10000 8.23 120 18:58 13.01.2021
3752 Rain 20 1016 42 10000 7.72 110 18:36 13.01.2021
3753 Rain 21 1016 40 10000 8.75 100 17:51 13.01.2021
3754 Rain 22 1015 35 10000 7.2 100 17:23 13.01.2021
3755 Rain 23 1015 33 10000 8.75 110 16:50 13.01.2021
3756 Rain 24 1015 31 10000 5.14 120 16:21 13.01.2021
3757 Rain 24 1015 31 10000 5.14 120 16:21 13.01.2021
3758 Rain 25 1015 29 10000 5.14 140 15:51 13.01.2021
3759 Rain 25 1015 27 10000 5.66 160 15:32 13.01.2021
3760 Rain 27 1015 26 10000 6.69 140 14:34 13.01.2021
3761 Clear 27 1015 27 10000 4.63 140 13:50 13.01.2021
3762 Rain 28 1015 24 10000 5.14 140 13:26 13.01.2021
3763 Clear 29 1014 23 10000 5.14 140 12:46 13.01.2021
3764 Clear 30 1014 21 10000 7.2 130 12:28 13.01.2021
3765 Clear 31 1013 20 10000 7.72 130 11:53 13.01.2021
3766 Clear 32 1013 19 10000 7.72 130 11:34 13.01.2021
3767 Clear 33 1013 19 10000 6.69 140 10:50 13.01.2021
3768 Clear 33 1013 19 10000 6.69 140 10:30 13.01.2021
3769 Rain 33 1013 22 10000 5.66 180 09:51 13.01.2021
3770 Clear 33 1013 22 10000 5.66 180 09:30 13.01.2021
3771 Clear 33 1013 22 10000 4.12 130 08:49 13.01.2021
3772 Rain 33 1013 24 10000 4.63 180 08:25 13.01.2021
3773 Clear 32 1014 25 10000 4.12 130 07:32 13.01.2021
3774 Rain 32 1014 23 10000 6.17 140 06:53 13.01.2021
3775 Clear 27 1016 32 10000 5.14 110 04:20 13.01.2021
3776 Clear 26 1016 38 10000 7.2 110 03:44 13.01.2021
3777 Clear 25 1016 38 10000 7.2 110 03:24 13.01.2021
3778 Clear 21 1017 49 10000 8.23 110 01:19 13.01.2021
3779 Clouds 18 1017 59 10000 6.69 130 23:54 12.01.2021
3780 Rain 17 1016 63 10000 5.66 120 23:22 12.01.2021
3781 Rain 17 1016 59 10000 5.66 130 22:45 12.01.2021
3782 Rain 17 1015 59 10000 4.63 120 22:23 12.01.2021
3783 Clear 17 1015 59 10000 5.66 130 21:49 12.01.2021
3784 Rain 17 1015 59 10000 6.69 140 21:26 12.01.2021
3785 Rain 17 1015 55 10000 6.17 140 20:49 12.01.2021
3786 Rain 17 1015 59 10000 5.14 150 20:27 12.01.2021
3787 Rain 18 1014 55 10000 4.63 140 19:47 12.01.2021
3788 Rain 18 1015 59 10000 5.66 140 19:26 12.01.2021
3789 Rain 19 1014 52 10000 7.2 160 18:42 12.01.2021
3790 Rain 20 1014 52 10000 7.2 160 18:23 12.01.2021
3791 Rain 21 1013 49 10000 8.23 140 17:39 12.01.2021
3792 Clear 21 1013 49 10000 8.23 140 17:19 12.01.2021
3793 Rain 21 1013 52 10000 6.17 190 16:43 12.01.2021
3794 Rain 21 1013 52 10000 6.17 190 16:22 12.01.2021
3795 Clear 22 1012 49 10000 7.72 200 15:29 12.01.2021
3796 Clear 22 1012 46 10000 8.75 200 14:59 12.01.2021
3797 Clear 22 1012 46 10000 9.26 200 14:41 12.01.2021
3798 Clear 23 1012 46 10000 9.26 200 14:19 12.01.2021
3799 Clear 23 1012 46 10000 9.26 200 14:19 12.01.2021
3800 Clear 23 1011 46 10000 8.75 210 13:47 12.01.2021
3801 Clear 24 1010 47 10000 7.72 220 12:40 12.01.2021
3802 Clear 24 1010 47 10000 7.72 220 12:21 12.01.2021
3803 Clear 25 1010 50 10000 8.75 210 11:40 12.01.2021
3804 Clear 27 1009 32 10000 9.77 220 10:50 12.01.2021
3805 Rain 27 1009 32 10000 9.77 220 10:20 12.01.2021
3806 Clear 28 1009 27 10000 8.75 230 09:55 12.01.2021
3807 Clear 29 1009 29 10000 8.23 230 09:26 12.01.2021
3808 Clear 30 1009 35 10000 8.23 250 08:42 12.01.2021
3809 Clear 30 1009 35 10000 8.23 250 08:23 12.01.2021
3810 Clear 29 1009 35 10000 9.26 230 07:35 12.01.2021
3811 Clear 29 1009 33 10000 7.2 240 06:22 12.01.2021
3812 Clear 29 1010 28 10000 5.66 210 05:30 12.01.2021
3813 Rain 26 1012 34 10000 1.54 170 03:26 12.01.2021
3814 Clear 24 1012 40 10000 2.57 60 02:18 12.01.2021
3815 Clear 22 1012 40 10000 2.06 110 01:27 12.01.2021
3816 Clear 19 1012 52 10000 4.12 90 23:46 11.01.2021
3817 Clear 18 1012 52 10000 3.6 80 23:23 11.01.2021
3818 Clear 18 1012 48 10000 3.6 100 22:52 11.01.2021
3819 Clear 18 1011 52 10000 3.09 90 22:33 11.01.2021
3820 Clear 19 1011 48 10000 4.63 100 21:56 11.01.2021
3821 Clear 19 1011 45 10000 5.14 100 21:37 11.01.2021
3822 Clear 19 1011 45 10000 5.14 100 21:18 11.01.2021
3823 Clear 20 1011 42 10000 3.09 130 20:40 11.01.2021
3824 Clear 20 1011 42 10000 3.09 130 20:22 11.01.2021
3825 Clear 20 1011 40 10000 4.63 110 19:52 11.01.2021
3826 Clear 21 1011 40 10000 3.09 130 19:23 11.01.2021
3827 Clear 21 1012 49 10000 3.09 180 18:44 11.01.2021
3828 Clear 20 1012 49 10000 3.09 180 18:24 11.01.2021
3829 Clear 19 1012 72 10000 3.09 210 17:43 11.01.2021
3830 Clouds 20 1012 77 10000 3.6 180 17:25 11.01.2021
3831 Clear 20 1012 60 10000 3.6 200 16:50 11.01.2021
3832 Clear 21 1012 60 10000 3.6 200 16:30 11.01.2021
3833 Clear 21 1013 56 10000 5.14 200 15:59 11.01.2021
3834 Clear 21 1013 60 10000 4.63 210 15:37 11.01.2021
3835 Clouds 22 1013 64 10000 4.12 190 14:58 11.01.2021
3836 Clouds 22 1013 64 10000 4.12 190 14:58 11.01.2021
3837 Clouds 22 1013 68 10000 2.57 210 14:37 11.01.2021
3838 Clear 22 1013 60 10000 5.14 210 13:48 11.01.2021
3839 Clear 23 1013 57 10000 4.63 220 13:23 11.01.2021
3840 Clear 23 1012 50 10000 6.69 240 12:44 11.01.2021
3841 Clear 23 1012 50 10000 6.69 240 12:26 11.01.2021
3842 Clear 25 1012 47 10000 6.17 240 11:48 11.01.2021
3843 Clear 26 1012 41 10000 7.2 240 11:18 11.01.2021
3844 Clear 27 1012 37 10000 7.2 250 10:42 11.01.2021
3845 Clear 27 1012 37 10000 7.2 250 10:21 11.01.2021
3846 Clear 28 1012 32 10000 7.72 240 09:37 11.01.2021
3847 Clear 28 1012 32 10000 7.72 240 09:19 11.01.2021
3848 Rain 29 1013 18 10000 1.54 0 08:38 11.01.2021
3849 Rain 30 1013 18 10000 3.09 190 07:50 11.01.2021
3850 Clear 30 1014 21 10000 3.6 100 07:25 11.01.2021
3851 Clear 30 1014 25 10000 3.09 130 06:49 11.01.2021
3852 Rain 24 1018 43 10000 6.69 80 02:57 11.01.2021
3853 Rain 20 1018 52 10000 7.2 130 00:57 11.01.2021
3854 Rain 18 1018 59 10000 3.6 180 23:48 10.01.2021
3855 Rain 17 1018 59 10000 4.12 170 23:23 10.01.2021
3856 Clear 17 1017 59 10000 4.63 140 22:44 10.01.2021
3857 Clear 16 1017 67 10000 2.57 120 22:20 10.01.2021
3858 Clear 17 1017 63 10000 4.63 130 21:41 10.01.2021
3859 Clear 17 1017 63 10000 4.63 130 21:19 10.01.2021
3860 Clear 17 1017 63 10000 4.12 130 20:49 10.01.2021
3861 Rain 18 1017 63 10000 5.14 160 20:27 10.01.2021
3862 Clear 18 1016 59 10000 6.69 170 19:42 10.01.2021
3863 Clear 19 1016 59 10000 6.69 170 19:22 10.01.2021
3864 Clear 19 1016 59 10000 6.69 170 19:22 10.01.2021
3865 Clear 19 1016 59 10000 6.17 170 18:45 10.01.2021
3866 Clear 19 1016 63 10000 5.14 190 18:20 10.01.2021
3867 Clear 19 1016 59 10000 5.66 190 17:26 10.01.2021
3868 Clear 20 1016 56 10000 8.23 190 16:51 10.01.2021
3869 Clear 20 1016 60 10000 8.75 190 16:30 10.01.2021
3870 Clear 21 1016 60 10000 8.75 190 15:41 10.01.2021
3871 Clear 21 1016 60 10000 8.75 190 15:22 10.01.2021
3872 Clear 22 1015 60 10000 8.75 200 14:41 10.01.2021
3873 Clear 22 1015 60 10000 8.75 200 14:22 10.01.2021
3874 Clear 22 1015 64 10000 7.2 210 13:46 10.01.2021
3875 Clear 22 1015 64 10000 6.69 210 13:27 10.01.2021
3876 Clear 22 1014 60 10000 7.2 210 12:58 10.01.2021
3877 Clear 22 1015 64 10000 8.23 210 12:40 10.01.2021
3878 Clear 23 1014 60 10000 9.77 210 11:56 10.01.2021
3879 Rain 24 1014 60 10000 9.77 220 11:21 10.01.2021
3880 Clouds 25 1013 53 10000 8.75 240 10:51 10.01.2021
3881 Clouds 26 1013 53 10000 8.75 240 10:24 10.01.2021
3882 Clear 26 1013 50 10000 7.72 230 09:46 10.01.2021
3883 Clouds 26 1014 50 10000 8.75 230 08:38 10.01.2021
3884 Clouds 26 1014 50 10000 9.26 240 07:46 10.01.2021
3885 Rain 26 1014 50 10000 8.23 240 06:22 10.01.2021
3886 Clouds 26 1014 47 10000 8.75 230 05:46 10.01.2021
3887 Clouds 26 1014 47 10000 7.72 240 05:27 10.01.2021
3888 Clouds 23 1014 60 10000 5.66 210 01:58 10.01.2021
3889 Clouds 22 1013 68 10000 6.69 210 00:21 10.01.2021
3890 Clouds 22 1013 68 10000 5.14 210 23:41 09.01.2021
3891 Clouds 22 1013 68 10000 5.14 210 23:20 09.01.2021
3892 Rain 21 1012 68 10000 5.66 210 22:21 09.01.2021
3893 Rain 22 1012 73 10000 5.14 230 21:59 09.01.2021
3894 Clouds 21 1011 68 10000 5.14 210 21:39 09.01.2021
3895 Clouds 21 1011 68 10000 5.14 210 21:21 09.01.2021
3896 Clouds 22 1011 73 10000 5.66 230 20:54 09.01.2021
3897 Clouds 22 1011 73 10000 5.66 230 20:29 09.01.2021
3898 Clouds 22 1011 78 10000 5.14 240 19:40 09.01.2021
3899 Clouds 22 1011 78 10000 5.14 230 19:20 09.01.2021
3900 Clouds 22 1011 73 10000 5.14 220 18:37 09.01.2021
3901 Clouds 23 1011 78 10000 5.14 240 17:54 09.01.2021
3902 Clouds 23 1011 78 10000 5.66 220 17:34 09.01.2021
3903 Clouds 23 1012 83 10000 4.12 230 16:57 09.01.2021
3904 Clouds 23 1012 78 10000 4.12 250 16:23 09.01.2021
3905 Clear 24 1012 73 10000 3.6 260 15:41 09.01.2021
3906 Clear 24 1012 73 10000 3.6 260 15:21 09.01.2021
3907 Clear 24 1011 65 10000 4.12 260 14:37 09.01.2021
3908 Clear 24 1011 65 10000 4.12 260 14:19 09.01.2021
3909 Clear 25 1011 57 10000 4.63 260 13:44 09.01.2021
3910 Clear 26 1011 39 10000 2.57 300 13:25 09.01.2021
3911 Rain 27 1010 47 10000 5.14 250 12:28 09.01.2021
3912 Clear 28 1010 51 10000 5.66 270 11:58 09.01.2021
3913 Clear 28 1010 51 10000 5.14 260 11:38 09.01.2021
3914 Rain 28 1010 51 10000 5.14 260 11:18 09.01.2021
3915 Rain 29 1009 35 10000 6.69 230 10:43 09.01.2021
3916 Clear 29 1009 35 10000 6.69 230 10:23 09.01.2021
3917 Clear 30 1009 33 10000 5.66 270 09:44 09.01.2021
3918 Clear 30 1009 33 10000 5.66 270 09:44 09.01.2021
3919 Rain 31 1009 33 10000 5.66 270 09:20 09.01.2021
3920 Clear 34 1009 20 10000 4.12 260 07:49 09.01.2021
3921 Rain 33 1009 18 10000 6.17 260 06:54 09.01.2021
3922 Clear 34 1009 19 10000 5.66 250 06:34 09.01.2021
3923 Clear 35 1009 13 10000 4.12 330 03:53 09.01.2021
3924 Clear 34 1009 17 10000 4.63 50 02:41 09.01.2021
3925 Clear 34 1009 17 10000 4.63 50 02:23 09.01.2021
3926 Clear 30 1009 21 10000 6.17 70 01:25 09.01.2021
3927 Clear 28 1009 24 10000 3.09 60 00:33 09.01.2021
3928 Clear 26 1009 26 10000 3.09 60 23:46 08.01.2021
3929 Clear 25 1009 31 10000 2.57 90 22:46 08.01.2021
3930 Clear 25 1009 27 10000 4.12 90 21:54 08.01.2021
3931 Clear 26 1008 26 10000 2.57 30 21:26 08.01.2021
3932 Clear 26 1008 23 10000 3.09 80 20:38 08.01.2021
3933 Clear 26 1008 27 10000 1.54 10 19:58 08.01.2021
3934 Clear 26 1008 35 10000 2.57 350 19:25 08.01.2021
3935 Clear 26 1008 31 10000 3.09 10 18:54 08.01.2021
3936 Clear 26 1008 31 10000 3.09 10 18:54 08.01.2021
3937 Clear 26 1008 31 10000 3.09 10 18:54 08.01.2021
3938 Clear 27 1008 29 10000 4.63 180 18:32 08.01.2021
3939 Clouds 27 1009 31 10000 2.48 125 17:54 08.01.2021
3940 Clouds 27 1009 31 10000 1.54 170 17:25 08.01.2021
3941 Clouds 28 1010 31 10000 2.06 160 16:48 08.01.2021
3942 Clear 29 1010 28 10000 2.57 200 15:52 08.01.2021
3943 Clear 30 1010 26 10000 2.57 170 15:32 08.01.2021
3944 Clear 32 1010 16 10000 5.14 190 14:40 08.01.2021
3945 Clear 32 1010 16 10000 5.66 200 13:55 08.01.2021
3946 Clear 33 1009 14 10000 6.17 210 13:22 08.01.2021
3947 Clear 34 1009 12 10000 7.2 210 12:51 08.01.2021
3948 Clear 35 1009 11 10000 6.17 210 12:22 08.01.2021
3949 Clear 36 1009 11 10000 7.2 230 11:48 08.01.2021
3950 Clear 37 1009 10 10000 8.23 230 11:29 08.01.2021
3951 Clear 39 1008 10 10000 7.72 220 10:55 08.01.2021
3952 Clear 39 1008 10 10000 7.72 210 10:37 08.01.2021
3953 Clear 40 1008 10 10000 7.72 250 09:53 08.01.2021
3954 Clear 40 1008 9 10000 8.23 270 09:32 08.01.2021
3955 Clear 41 1009 9 10000 6.17 270 08:39 08.01.2021
3956 Clear 41 1009 10 10000 6.17 150 07:29 08.01.2021
3957 Clear 41 1010 9 10000 2.57 100 06:21 08.01.2021
3958 Clear 30 1013 17 10000 6.69 50 00:24 08.01.2021
3959 Clear 28 1012 19 10000 5.14 50 23:41 07.01.2021
3960 Clear 26 1012 22 10000 3.6 70 22:47 07.01.2021
3961 Clear 26 1012 22 10000 3.6 70 22:47 07.01.2021
3962 Clear 25 1011 21 10000 3.6 80 22:26 07.01.2021
3963 Clear 26 1011 20 10000 4.12 70 21:47 07.01.2021
3964 Clear 26 1010 19 10000 5.14 70 21:27 07.01.2021
3965 Clear 26 1010 17 10000 6.69 70 20:48 07.01.2021
3966 Clear 26 1010 15 10000 7.2 70 20:29 07.01.2021
3967 Clear 26 1010 16 10000 6.17 70 19:46 07.01.2021
3968 Clear 25 1010 15 10000 6.17 70 19:23 07.01.2021
3969 Clear 26 1010 17 10000 5.66 70 18:38 07.01.2021
3970 Clear 23 1010 17 10000 5.66 70 18:19 07.01.2021
3971 Clear 23 1010 25 10000 2.57 50 17:30 07.01.2021
3972 Clear 24 1011 28 10000 3.09 10 16:54 07.01.2021
3973 Clear 24 1011 40 10000 3.61 81 16:30 07.01.2021
3974 Clouds 26 1011 27 10000 3.6 160 15:48 07.01.2021
3975 Clear 26 1011 29 10000 3.6 160 15:29 07.01.2021
3976 Clear 29 1011 18 10000 5.66 180 14:27 07.01.2021
3977 Clear 29 1011 17 10000 6.69 190 13:49 07.01.2021
3978 Clear 30 1011 18 10000 5.66 210 13:22 07.01.2021
3979 Clouds 30 1009 22 10000 4.99 174 12:51 07.01.2021
3980 Clear 32 1010 13 10000 6.7 240 11:59 07.01.2021
3981 Clear 34 1010 20 10000 6.7 250 11:38 07.01.2021
3982 Clouds 35 1010 12 10000 7.7 240 10:54 07.01.2021
3983 Clear 35 1009 8 10000 6.7 230 10:33 07.01.2021
3984 Clear 37 1009 6 10000 5.1 80 09:49 07.01.2021
3985 Clear 37 1009 7 10000 5.1 90 09:22 07.01.2021
3986 Clear 37 1010 6 10000 5.1 340 08:30 07.01.2021
3987 Clear 38 1010 6 10000 3.6 60 07:54 07.01.2021
3988 Clear 37 1010 6 10000 2.6 50 07:35 07.01.2021
3989 Clear 36 1012 9 10000 5.1 60 05:44 07.01.2021
3990 Clear 27 1015 21 10000 8.2 60 00:58 07.01.2021
3991 Clear 25 1014 25 10000 6.2 60 23:52 06.01.2021
3992 Clear 24 1014 25 10000 8.2 80 22:50 06.01.2021
3993 Clear 24 1013 23 10000 7.7 80 21:59 06.01.2021
3994 Clear 24 1013 23 10000 7.7 80 21:41 06.01.2021
3995 Clear 24 1013 22 10000 6.2 70 21:21 06.01.2021
3996 Clear 25 1013 22 10000 6.2 70 20:39 06.01.2021
3997 Clear 25 1013 25 10000 5.7 100 20:18 06.01.2021
3998 Clear 25 1013 22 10000 5.7 80 19:41 06.01.2021
3999 Clear 25 1013 20 10000 6.2 80 19:22 06.01.2021
4000 Clear 25 1013 20 10000 6.2 80 18:42 06.01.2021
4001 Clear 25 1013 19 10000 5.1 80 18:24 06.01.2021
4002 Clear 25 1013 24 10000 4.1 70 17:43 06.01.2021
4003 Clear 25 1013 20 10000 4.1 70 17:24 06.01.2021
4004 Clear 26 1013 22 10000 4.1 90 16:42 06.01.2021
4005 Clear 25 1013 20 10000 3.1 90 16:20 06.01.2021
4006 Clear 25 1014 25 10000 4.1 100 15:52 06.01.2021
4007 Clear 25 1014 25 10000 4.1 100 15:31 06.01.2021
4008 Clear 27 1014 21 10000 3.6 100 14:48 06.01.2021
4009 Clear 28 1013 21 10000 3.6 100 14:20 06.01.2021
4010 Clear 29 1013 15 10000 3.6 90 13:42 06.01.2021
4011 Clear 30 1013 13 10000 3.6 80 13:22 06.01.2021
4012 Clear 32 1013 9 10000 5.7 70 12:48 06.01.2021
4013 Clear 34 1013 8 10000 6.7 70 11:54 06.01.2021
4014 Clear 34 1013 8 10000 7.7 70 11:26 06.01.2021
4015 Clear 35 1013 8 10000 7.7 70 10:57 06.01.2021
4016 Clear 36 1013 8 10000 6.7 80 10:18 06.01.2021
4017 Clear 36 1013 8 10000 6.7 80 10:18 06.01.2021
4018 Clear 36 1013 7 10000 7.2 70 09:47 06.01.2021
4019 Clear 36 1013 8 10000 7.2 90 08:57 06.01.2021
4020 Clear 35 1014 8 10000 8.2 90 08:26 06.01.2021
4021 Clear 35 1014 9 10000 6.7 80 07:54 06.01.2021
4022 Clear 34 1016 9 10000 8.2 70 06:46 06.01.2021
4023 Clear 33 1017 15 10000 7.2 70 05:32 06.01.2021
4024 Clear 31 1018 18 10000 8.2 80 04:32 06.01.2021
4025 Clear 27 1019 26 10000 8.7 70 02:46 06.01.2021
4026 Clear 27 1020 29 10000 9.3 70 02:23 06.01.2021
4027 Clear 22 1020 43 10000 9.3 90 00:29 06.01.2021
4028 Clear 20 1019 48 10000 8.7 90 23:23 05.01.2021
4029 Clear 20 1019 48 10000 6.7 80 22:41 05.01.2021
4030 Clear 20 1019 48 10000 5.7 90 22:20 05.01.2021
4031 Clear 20 1019 45 10000 6.2 90 21:52 05.01.2021
4032 Clear 20 1018 45 10000 7.7 90 20:41 05.01.2021
4033 Rain 21 1018 46 10000 10.3 100 20:23 05.01.2021
4034 Clear 21 1018 43 10000 8.7 100 19:41 05.01.2021
4035 Clouds 21 1018 46 10000 9.3 110 19:21 05.01.2021
4036 Clear 22 1018 43 10000 9.3 110 18:42 05.01.2021
4037 Clear 22 1018 38 10000 10.3 110 18:23 05.01.2021
4038 Clear 23 1018 38 10000 10.3 110 17:49 05.01.2021
4039 Clear 24 1017 36 10000 9.3 110 17:26 05.01.2021
4040 Clear 25 1017 33 10000 9.3 110 16:52 05.01.2021
4041 Clear 27 1017 18 10000 8.2 90 16:21 05.01.2021
4042 Clear 27 1017 18 10000 7.7 100 15:50 05.01.2021
4043 Clear 28 1017 24 10000 7.2 100 14:50 05.01.2021
4044 Clear 28 1017 14 10000 6.7 110 14:25 05.01.2021
4045 Rain 29 1017 14 10000 7.2 110 13:46 05.01.2021
4046 Clear 29 1017 16 10000 5.1 100 13:22 05.01.2021
4047 Rain 30 1016 16 10000 6.7 90 12:47 05.01.2021
4048 Clear 31 1015 15 10000 6.7 110 12:24 05.01.2021
4049 Clear 32 1015 13 10000 9.3 110 11:39 05.01.2021
4050 Clear 32 1015 13 10000 9.3 110 11:39 05.01.2021
4051 Clear 32 1015 13 10000 9.3 110 11:39 05.01.2021
4052 Clear 33 1015 15 10000 9.3 100 10:46 05.01.2021
4053 Clear 33 1015 15 10000 9.3 100 10:27 05.01.2021
4054 Clear 33 1015 15 10000 10.8 100 09:49 05.01.2021
4055 Clear 33 1015 15 10000 10.8 100 09:49 05.01.2021
4056 Clear 33 1015 15 10000 9.3 100 09:28 05.01.2021
4057 Clear 33 1015 16 10000 9.8 80 08:27 05.01.2021
4058 Clear 32 1017 23 10000 7.7 100 06:47 05.01.2021
4059 Clear 29 1018 32 10000 9.8 130 04:50 05.01.2021
4060 Clear 21 1019 56 10000 10.3 100 00:50 05.01.2021
4061 Rain 19 1019 59 10000 5.7 100 23:46 04.01.2021
4062 Clear 19 1018 59 10000 5.7 100 23:25 04.01.2021
4063 Rain 18 1018 63 10000 7.7 100 22:51 04.01.2021
4064 Rain 18 1018 63 10000 7.7 100 22:32 04.01.2021
4065 Clear 18 1018 63 10000 6.2 110 21:49 04.01.2021
4066 Clear 18 1018 63 10000 6.2 110 21:31 04.01.2021
4067 Clear 18 1017 63 10000 8.7 110 20:44 04.01.2021
4068 Clear 19 1016 59 10000 6.7 130 20:25 04.01.2021
4069 Clear 19 1016 59 10000 6.7 130 19:52 04.01.2021
4070 Clear 20 1015 52 10000 9.3 120 19:24 04.01.2021
4071 Clear 20 1015 52 10000 9.3 120 18:48 04.01.2021
4072 Rain 21 1015 49 10000 10.8 110 18:23 04.01.2021
4073 Rain 22 1015 46 10000 10.8 110 17:42 04.01.2021
4074 Rain 22 1015 40 10000 10.3 110 17:22 04.01.2021
4075 Rain 24 1015 36 10000 10.3 120 16:46 04.01.2021
4076 Clear 24 1015 31 10000 7.2 120 16:26 04.01.2021
4077 Clear 25 1014 26 10000 8.7 110 15:49 04.01.2021
4078 Clear 26 1014 26 10000 7.7 120 15:25 04.01.2021
4079 Clear 26 1014 24 10000 8.2 120 14:34 04.01.2021
4080 Clear 27 1013 21 10000 7.7 110 13:44 04.01.2021
4081 Clear 27 1013 20 10000 7.7 110 13:22 04.01.2021
4082 Clear 29 1013 17 10000 9.3 110 12:36 04.01.2021
4083 Clear 30 1012 16 10000 9.3 100 11:55 04.01.2021
4084 Clear 31 1012 15 10000 9.3 100 11:20 04.01.2021
4085 Clear 31 1012 15 10000 8.2 100 10:47 04.01.2021
4086 Clear 31 1012 14 10000 8.7 100 10:24 04.01.2021
4087 Clear 32 1012 15 10000 7.7 110 09:49 04.01.2021
4088 Clear 32 1012 14 10000 8.2 100 09:18 04.01.2021
4089 Clear 32 1012 17 10000 9.3 120 08:41 04.01.2021
4090 Clear 31 1012 20 10000 9.3 100 07:48 04.01.2021
4091 Clear 31 1012 20 10000 9.3 110 06:56 04.01.2021
4092 Clear 28 1013 28 10000 10.8 110 05:21 04.01.2021
4093 Clear 24 1014 40 10000 9.3 110 02:31 04.01.2021
4094 Clear 19 1014 55 10000 10.3 110 00:29 04.01.2021
4095 Rain 18 1013 59 10000 10.3 100 23:38 03.01.2021
4096 Rain 17 1013 59 10000 9.3 90 22:59 03.01.2021
4097 Rain 17 1012 59 10000 9.3 100 22:41 03.01.2021
4098 Rain 17 1013 59 10000 9.8 110 22:22 03.01.2021
4099 Rain 17 1012 59 10000 7.7 110 21:45 03.01.2021
4100 Rain 17 1012 59 10000 7.7 110 21:24 03.01.2021
4101 Clear 18 1012 55 10000 6.2 120 20:42 03.01.2021
4102 Clear 18 1012 52 10000 6.7 120 20:20 03.01.2021
4103 Rain 19 1012 52 10000 9.3 110 19:47 03.01.2021
4104 Rain 19 1012 52 10000 9.3 110 19:28 03.01.2021
4105 Clear 19 1011 52 10000 9.8 100 18:50 03.01.2021
4106 Clear 20 1011 52 10000 9.8 100 18:30 03.01.2021
4107 Clear 21 1012 46 10000 10.8 100 17:53 03.01.2021
4108 Clear 21 1012 46 10000 10.8 100 17:27 03.01.2021
4109 Clear 22 1011 40 10000 11.3 100 16:56 03.01.2021
4110 Clear 22 1011 40 10000 11.3 100 16:37 03.01.2021
4111 Clear 23 1011 38 10000 10.3 100 16:18 03.01.2021
4112 Clear 23 1011 38 10000 10.3 100 16:18 03.01.2021
4113 Clear 25 1011 24 10000 9.8 110 15:40 03.01.2021
4114 Clear 26 1011 19 10000 8.2 100 15:19 03.01.2021
4115 Clear 26 1011 21 10000 7.7 100 14:41 03.01.2021
4116 Clear 27 1011 21 10000 5.1 110 13:54 03.01.2021
4117 Clear 27 1011 21 10000 5.1 110 13:26 03.01.2021
4118 Clear 27 1011 22 10000 2.6 60 12:57 03.01.2021
4119 Clear 29 1010 19 10000 8.2 120 11:44 03.01.2021
4120 Clear 30 1010 19 10000 8.2 120 11:26 03.01.2021
4121 Rain 30 1010 17 10000 6.7 110 10:57 03.01.2021
4122 Rain 31 1010 17 10000 6.7 110 10:31 03.01.2021
4123 Rain 31 1010 17 10000 8.7 110 09:43 03.01.2021
4124 Clear 31 1010 15 10000 9.3 100 09:23 03.01.2021
4125 Clear 30 1011 19 10000 9.3 100 07:59 03.01.2021
4126 Clear 29 1012 28 10000 10.3 110 06:25 03.01.2021
4127 Rain 23 1014 40 10000 10.8 100 02:45 03.01.2021
4128 Clear 23 1014 49 10000 10.8 100 02:20 03.01.2021
4129 Rain 19 1013 55 10000 8.7 100 00:24 03.01.2021
4130 Rain 18 1013 63 10000 9.8 100 23:32 02.01.2021
4131 Clear 18 1013 63 10000 9.3 110 22:59 02.01.2021
4132 Clear 18 1013 59 10000 8.2 110 22:33 02.01.2021
4133 Rain 18 1013 59 10000 7.7 120 21:55 02.01.2021
4134 Clear 18 1013 59 10000 7.7 120 21:33 02.01.2021
4135 Clear 19 1012 59 10000 5.7 110 20:59 02.01.2021
4136 Rain 19 1012 55 10000 7.7 110 20:39 02.01.2021
4137 Clear 19 1012 55 10000 7.2 110 20:19 02.01.2021
4138 Clear 20 1012 52 10000 7.7 120 19:40 02.01.2021
4139 Clear 20 1012 52 10000 9.3 120 19:18 02.01.2021
4140 Clear 21 1013 49 10000 7.7 110 18:40 02.01.2021
4141 Rain 21 1013 49 10000 8.2 100 18:21 02.01.2021
4142 Clear 22 1012 46 10000 8.2 110 17:45 02.01.2021
4143 Clear 23 1012 43 10000 8.7 100 17:22 02.01.2021
4144 Rain 24 1013 44 10000 8.2 120 16:24 02.01.2021
4145 Clouds 25 1012 36 10000 9.3 120 15:57 02.01.2021
4146 Clear 26 1012 36 10000 4.1 110 15:38 02.01.2021
4147 Clear 26 1012 34 10000 4.1 110 15:20 02.01.2021
4148 Clear 26 1012 32 10000 6.2 110 14:36 02.01.2021
4149 Clear 27 1012 32 10000 7.2 120 13:54 02.01.2021
4150 Clear 27 1011 32 10000 6.7 130 13:26 02.01.2021
4151 Clear 28 1011 28 10000 6.2 120 12:52 02.01.2021
4152 Clear 29 1011 28 10000 6.2 120 12:31 02.01.2021
4153 Clear 30 1011 30 10000 8.2 130 11:45 02.01.2021
4154 Clear 30 1011 27 10000 8.7 120 11:22 02.01.2021
4155 Clear 31 1010 27 10000 10.8 120 10:46 02.01.2021
4156 Clear 31 1010 29 10000 9.8 100 10:28 02.01.2021
4157 Clear 31 1010 29 10000 10.3 100 09:43 02.01.2021
4158 Clear 31 1010 29 10000 10.3 100 09:43 02.01.2021
4159 Clear 31 1010 29 10000 9.3 110 09:22 02.01.2021
4160 Rain 32 1011 29 10000 8.7 110 08:49 02.01.2021
4161 Clear 31 1011 29 10000 10.8 110 08:21 02.01.2021
4162 Rain 31 1011 27 10000 9.8 120 07:43 02.01.2021
4163 Clear 31 1011 28 10000 9.8 110 07:19 02.01.2021
4164 Rain 30 1012 30 10000 9.3 100 06:24 02.01.2021
4165 Clear 28 1012 39 10000 11.3 100 04:27 02.01.2021
4166 Clear 22 1012 56 10000 13.4 110 00:53 02.01.2021
4167 Clear 21 1012 56 10000 13.4 110 00:33 02.01.2021
4168 Clear 20 1011 60 10000 15.4 110 23:43 01.01.2021
4169 Clear 20 1011 60 10000 14.9 110 23:19 01.01.2021
4170 Clear 19 1011 63 10000 14.4 110 22:47 01.01.2021
4171 Clear 19 1011 63 10000 14.9 100 22:22 01.01.2021
4172 Clear 19 1011 63 10000 14.9 110 21:43 01.01.2021
4173 Clear 19 1010 63 10000 14.9 100 21:21 01.01.2021
4174 Clear 20 1010 60 10000 13.9 100 20:51 01.01.2021
4175 Clear 20 1010 60 10000 14.9 100 20:19 01.01.2021
4176 Clear 20 1010 60 10000 16.5 100 19:42 01.01.2021
4177 Clear 20 1010 56 10000 16.5 100 19:22 01.01.2021
4178 Clear 21 1010 56 10000 14.9 100 18:48 01.01.2021
4179 Clear 21 1010 56 10000 14.9 100 18:29 01.01.2021
4180 Clear 22 1010 49 10000 14.4 100 17:50 01.01.2021
4181 Clear 23 1010 49 10000 15.4 110 17:24 01.01.2021
4182 Clear 24 1010 47 10000 14.4 110 16:53 01.01.2021
4183 Clear 24 1010 47 10000 14.4 110 16:29 01.01.2021
4184 Clear 25 1010 50 10000 12.9 110 15:43 01.01.2021
4185 Clear 26 1010 47 10000 8.2 120 14:51 01.01.2021
4186 Clear 26 1010 47 10000 8.2 120 14:32 01.01.2021
4187 Clear 28 1010 37 10000 9.8 130 13:42 01.01.2021
4188 Clear 29 1009 35 10000 8.7 130 13:23 01.01.2021
4189 Clear 30 1009 33 10000 8.7 140 12:39 01.01.2021
4190 Clear 32 1008 24 10000 6.2 150 12:18 01.01.2021
4191 Clear 33 1008 26 10000 7.2 140 11:39 01.01.2021
4192 Rain 33 1008 23 10000 5.1 150 11:18 01.01.2021
4193 Clear 33 1008 23 10000 5.7 170 10:34 01.01.2021
4194 Rain 34 1008 23 10000 5.1 170 09:46 01.01.2021
4195 Clear 35 1009 24 10000 3.6 240 08:54 01.01.2021
4196 Clear 34 1009 24 10000 3.6 240 08:25 01.01.2021
4197 Clear 31 1011 37 10000 3.6 120 04:52 01.01.2021
4198 Clear 26 1011 53 10000 4.6 130 02:26 01.01.2021
4199 Clear 23 1011 60 10000 4.1 140 00:41 01.01.2021
4200 Clear 22 1011 64 10000 3.6 130 00:21 01.01.2021
4201 Clear 20 1010 68 10000 2.6 140 23:22 31.12.2020
4202 Clear 20 1010 64 10000 3.1 130 22:56 31.12.2020
4203 Clear 20 1010 64 10000 3.1 130 22:38 31.12.2020
4204 Clear 20 1009 64 10000 4.1 140 22:19 31.12.2020
4205 Clear 21 1009 64 10000 4.6 110 21:46 31.12.2020
4206 Clear 21 1009 60 10000 4.6 100 21:23 31.12.2020
4207 Clear 21 1008 60 10000 4.6 120 20:48 31.12.2020
4208 Clear 22 1008 56 10000 3.6 130 20:18 31.12.2020
4209 Clear 22 1008 56 10000 5.7 120 19:45 31.12.2020
4210 Clear 22 1008 56 10000 3.1 110 19:24 31.12.2020
4211 Clear 22 1008 68 10000 2.1 100 18:42 31.12.2020
4212 Clear 22 1008 83 10000 2.6 200 18:23 31.12.2020
4213 Clear 22 1008 83 10000 3.1 210 17:44 31.12.2020
4214 Clear 22 1008 77 10000 2.1 220 17:22 31.12.2020
4215 Clear 22 1008 73 10000 3.1 220 16:40 31.12.2020
4216 Clear 22 1008 73 10000 2.6 220 16:21 31.12.2020
4217 Clear 22 1008 73 10000 2.6 220 16:21 31.12.2020
4218 Rain 23 1008 69 10000 3.1 210 15:45 31.12.2020
4219 Clear 23 1008 69 10000 2.6 300 15:21 31.12.2020
4220 Clear 23 1008 64 10000 2.6 270 14:54 31.12.2020
4221 Rain 23 1008 64 10000 2.6 270 14:36 31.12.2020
4222 Clear 24 1008 60 10000 3.1 310 14:18 31.12.2020
4223 Clear 24 1007 57 10000 3.1 290 13:38 31.12.2020
4224 Clear 24 1007 54 10000 3.6 280 13:19 31.12.2020
4225 Clear 25 1007 54 10000 3.6 280 13:19 31.12.2020
4226 Clear 25 1007 54 10000 4.1 260 12:52 31.12.2020
4227 Clear 26 1007 54 10000 4.1 260 12:32 31.12.2020
4228 Clear 27 1007 51 10000 5.1 270 11:48 31.12.2020
4229 Clear 27 1006 54 10000 5.7 260 11:30 31.12.2020
4230 Clear 28 1006 58 10000 4.6 260 10:46 31.12.2020
4231 Clear 28 1006 58 10000 4.6 260 10:27 31.12.2020
4232 Clear 28 1006 54 10000 6.2 260 09:50 31.12.2020
4233 Clear 29 1006 43 10000 5.7 270 09:26 31.12.2020
4234 Rain 29 1006 33 10000 4.6 280 08:50 31.12.2020
4235 Clear 29 1006 33 10000 4.6 280 08:31 31.12.2020
4236 Clear 31 1006 35 10000 4.1 280 07:56 31.12.2020
4237 Clear 31 1006 40 10000 4.6 280 07:25 31.12.2020
4238 Clouds 30 1006 43 10000 3.6 260 05:30 31.12.2020
4239 Clouds 28 1007 54 10000 3.6 10 03:37 31.12.2020
4240 Clouds 27 1007 61 10000 3.6 10 02:38 31.12.2020
4241 Clouds 26 1007 69 10000 4.1 20 02:20 31.12.2020
4242 Clouds 25 1007 69 10000 4.1 30 01:42 31.12.2020
4243 Clouds 24 1008 73 10000 4.1 30 01:19 31.12.2020
4244 Clouds 23 1007 78 10000 4.1 30 00:39 31.12.2020
4245 Clouds 22 1007 78 10000 4.6 20 23:41 30.12.2020
4246 Rain 22 1006 83 10000 4.1 20 23:18 30.12.2020
4247 Rain 22 1006 83 10000 5.1 20 22:36 30.12.2020
4248 Clouds 22 1005 83 10000 4.1 20 21:55 30.12.2020
4249 Rain 22 1005 83 10000 4.1 20 21:28 30.12.2020
4250 Clouds 22 1005 83 10000 4.1 360 20:57 30.12.2020
4251 Rain 22 1005 83 10000 4.1 10 20:39 30.12.2020
4252 Rain 22 1005 83 10000 4.6 10 20:19 30.12.2020
4253 Clouds 22 1005 83 10000 5.1 10 19:38 30.12.2020
4254 Clouds 22 1005 83 10000 4.6 360 19:19 30.12.2020
4255 Clouds 22 1005 83 10000 4.6 10 18:41 30.12.2020
4256 Clouds 22 1005 88 10000 7.7 10 18:22 30.12.2020
4257 Clouds 22 1005 88 10000 7.7 10 17:48 30.12.2020
4258 Clouds 22 1005 88 10000 4.1 20 17:29 30.12.2020
4259 Clear 22 1005 83 10000 4.1 20 16:45 30.12.2020
4260 Clear 22 1005 83 10000 4.1 20 16:20 30.12.2020
4261 Clear 22 1005 83 10000 4.1 360 15:42 30.12.2020
4262 Clear 23 1005 78 10000 5.1 360 15:24 30.12.2020
4263 Clear 23 1005 73 10000 3.6 340 14:42 30.12.2020
4264 Clear 24 1005 69 10000 4.1 330 14:19 30.12.2020
4265 Clear 25 1004 54 10000 4.1 290 13:19 30.12.2020
4266 Clear 27 1004 45 10000 5.1 260 12:27 30.12.2020
4267 Clear 29 1004 38 10000 5.1 270 11:48 30.12.2020
4268 Clear 31 1004 33 10000 5.7 260 11:23 30.12.2020
4269 Clear 31 1004 29 10000 4.6 270 10:58 30.12.2020
4270 Clear 32 1004 29 10000 4.6 270 10:38 30.12.2020
4271 Clear 32 1004 35 10000 4.6 270 10:18 30.12.2020
4272 Clear 32 1004 35 10000 4.6 270 10:18 30.12.2020
4273 Clear 31 1004 43 10000 5.7 280 09:42 30.12.2020
4274 Rain 30 1004 43 10000 5.7 270 08:49 30.12.2020
4275 Clear 30 1005 45 10000 5.7 280 07:51 30.12.2020
4276 Clear 31 1005 40 10000 5.1 270 07:24 30.12.2020
4277 Clear 30 1005 38 10000 5.1 270 06:40 30.12.2020
4278 Clear 31 1006 45 10000 6.2 270 05:48 30.12.2020
4279 Clear 30 1006 45 10000 6.2 270 05:29 30.12.2020
4280 Rain 32 1006 24 10000 2.1 290 03:41 30.12.2020
4281 Clear 32 1006 25 10000 4.1 350 03:23 30.12.2020
4282 Rain 32 1006 22 10000 5.7 360 02:32 30.12.2020
4283 Clear 30 1006 25 10000 5.7 80 01:44 30.12.2020
4284 Clear 30 1006 28 10000 5.7 110 01:26 30.12.2020
4285 Clear 28 1006 28 10000 5.7 80 00:40 30.12.2020
4286 Clear 28 1006 29 10000 5.1 90 00:21 30.12.2020
4287 Clear 27 1005 31 10000 4.1 100 23:42 29.12.2020
4288 Clear 26 1005 27 10000 7.7 110 23:24 29.12.2020
4289 Clear 25 1005 29 10000 7.7 100 22:44 29.12.2020
4290 Clear 26 1004 27 10000 4.6 100 22:26 29.12.2020
4291 Rain 26 1004 27 10000 5.7 110 21:52 29.12.2020
4292 Rain 26 1004 27 10000 5.7 110 21:34 29.12.2020
4293 Clear 26 1003 28 10000 8.7 110 20:55 29.12.2020
4294 Rain 27 1003 28 10000 8.7 110 20:36 29.12.2020
4295 Clear 27 1004 26 10000 8.7 110 20:18 29.12.2020
4296 Rain 27 1004 26 10000 8.2 100 19:38 29.12.2020
4297 Rain 27 1004 26 10000 7.7 110 19:20 29.12.2020
4298 Rain 28 1005 20 10000 4.1 110 18:46 29.12.2020
4299 Rain 28 1005 17 10000 6.2 110 18:27 29.12.2020
4300 Clear 29 1006 16 10000 5.7 110 17:44 29.12.2020
4301 Clear 29 1006 15 10000 4.6 100 17:20 29.12.2020
4302 Clear 29 1006 21 10000 4.1 90 16:39 29.12.2020
4303 Clear 30 1006 21 10000 5.1 70 16:18 29.12.2020
4304 Rain 30 1006 21 10000 1.5 80 15:37 29.12.2020
4305 Rain 30 1006 16 10000 4.04 125 14:59 29.12.2020
4306 Clear 31 1005 15 10000 2.6 30 14:36 29.12.2020
4307 Clear 31 1005 16 10000 3.1 130 14:18 29.12.2020
4308 Clear 32 1005 14 10000 4.6 140 13:39 29.12.2020
4309 Clear 33 1005 14 10000 5.7 140 13:20 29.12.2020
4310 Clear 35 1004 12 10000 6.7 160 12:37 29.12.2020
4311 Clear 36 1004 11 10000 7.7 140 12:19 29.12.2020
4312 Clear 37 1004 10 10000 8.7 160 11:52 29.12.2020
4313 Clear 37 1004 10 10000 8.7 160 11:31 29.12.2020
4314 Clear 39 1004 10 10000 5.7 170 10:27 29.12.2020
4315 Rain 39 1004 20 10000 7.2 140 09:48 29.12.2020
4316 Clear 39 1005 19 10000 4.6 160 09:20 29.12.2020
4317 Clear 39 1005 19 10000 4.6 160 09:20 29.12.2020
4318 Rain 39 1005 10 10000 3.6 130 08:52 29.12.2020
4319 Rain 39 1006 18 10000 3.1 130 08:19 29.12.2020
4320 Clear 39 1006 9 10000 2.6 150 07:26 29.12.2020
4321 Clear 37 1007 15 10000 4.6 90 06:26 29.12.2020
4322 Clear 33 1009 17 10000 6.7 100 03:32 29.12.2020
4323 Clear 25 1010 35 10000 8.7 70 00:44 29.12.2020
4324 Clear 23 1009 40 10000 7.2 60 23:41 28.12.2020
4325 Clear 21 1009 40 10000 7.7 70 22:58 28.12.2020
4326 Clouds 22 1009 35 10000 3.6 90 22:23 28.12.2020
4327 Rain 22 1008 37 10000 8.2 70 21:44 28.12.2020
4328 Rain 22 1009 33 10000 8.2 80 21:23 28.12.2020
4329 Rain 23 1008 28 10000 9.3 80 20:40 28.12.2020
4330 Clear 23 1008 27 10000 8.7 80 20:22 28.12.2020
4331 Rain 24 1008 24 10000 10.8 90 19:42 28.12.2020
4332 Rain 24 1008 17 10000 10.3 90 19:23 28.12.2020
4333 Rain 25 1008 17 10000 9.8 90 18:50 28.12.2020
4334 Rain 25 1009 21 10000 7.2 90 18:28 28.12.2020
4335 Clear 26 1009 21 10000 7.7 90 17:42 28.12.2020
4336 Rain 26 1009 19 10000 8.7 90 17:23 28.12.2020
4337 Clear 26 1009 19 10000 7.2 90 16:38 28.12.2020
4338 Clear 27 1010 19 10000 4.1 90 16:20 28.12.2020
4339 Clear 27 1010 19 10000 3.1 90 15:45 28.12.2020
4340 Rain 26 1010 23 10000 3.6 120 14:56 28.12.2020
4341 Rain 27 1010 22 10000 4.1 120 13:55 28.12.2020
4342 Rain 29 1010 18 10000 4.6 120 13:32 28.12.2020
4343 Clear 29 1010 15 10000 4.6 110 12:41 28.12.2020
4344 Rain 30 1010 13 10000 5.7 110 12:22 28.12.2020
4345 Clear 32 1010 14 10000 5.7 100 11:45 28.12.2020
4346 Clear 33 1010 13 10000 5.1 110 11:24 28.12.2020
4347 Rain 33 1010 12 10000 4.6 110 10:45 28.12.2020
4348 Clear 34 1010 12 10000 4.6 110 10:27 28.12.2020
4349 Clear 33 1010 13 10000 5.1 100 09:46 28.12.2020
4350 Rain 34 1011 14 10000 6.2 80 09:19 28.12.2020
4351 Clear 32 1012 18 10000 5.7 80 07:35 28.12.2020
4352 Clear 31 1013 20 10000 7.7 80 06:50 28.12.2020
4353 Clear 27 1015 27 10000 8.2 100 04:31 28.12.2020
4354 Clear 21 1015 42 10000 10.3 90 02:22 28.12.2020
4355 Clear 17 1015 51 10000 9.3 90 00:30 28.12.2020
4356 Clear 16 1016 54 10000 7.7 90 23:46 27.12.2020
4357 Clear 15 1016 54 10000 5.1 110 23:19 27.12.2020
4358 Clear 15 1015 51 10000 5.7 90 21:57 27.12.2020
4359 Clear 15 1015 51 10000 5.7 90 21:57 27.12.2020
4360 Clear 15 1016 51 10000 5.1 110 21:26 27.12.2020
4361 Clear 15 1016 51 10000 5.7 110 20:45 27.12.2020
4362 Clear 16 1016 48 10000 6.7 110 19:25 27.12.2020
4363 Clear 17 1016 45 10000 5.7 110 18:57 27.12.2020
4364 Clear 17 1016 45 10000 5.7 110 18:38 27.12.2020
4365 Clear 18 1016 42 10000 8.7 130 18:19 27.12.2020
4366 Clear 18 1017 39 10000 8.2 110 17:43 27.12.2020
4367 Clear 19 1017 37 10000 7.7 110 17:22 27.12.2020
4368 Clear 20 1017 34 10000 6.2 140 16:32 27.12.2020
4369 Clear 21 1017 30 10000 7.7 130 15:50 27.12.2020
4370 Clear 23 1016 27 10000 7.7 120 14:59 27.12.2020
4371 Clear 23 1016 27 10000 9.8 120 14:38 27.12.2020
4372 Clear 24 1015 31 10000 5.7 120 13:55 27.12.2020
4373 Clear 25 1015 17 10000 6.2 110 13:19 27.12.2020
4374 Clear 26 1015 19 10000 7.2 100 12:43 27.12.2020
4375 Clear 26 1015 19 10000 7.2 100 12:43 27.12.2020
4376 Clear 27 1014 17 10000 7.2 110 11:49 27.12.2020
4377 Clear 28 1014 18 10000 8.7 120 11:29 27.12.2020
4378 Clear 28 1014 17 10000 7.7 90 10:51 27.12.2020
4379 Clear 29 1014 17 10000 8.2 110 10:24 27.12.2020
4380 Clear 29 1014 20 10000 7.7 130 09:42 27.12.2020
4381 Clear 29 1015 20 10000 6.7 130 08:29 27.12.2020
4382 Clear 29 1015 20 10000 6.7 130 07:59 27.12.2020
4383 Clear 28 1015 18 10000 8.7 110 07:25 27.12.2020
4384 Clear 26 1017 25 10000 8.2 110 05:44 27.12.2020
4385 Clear 22 1018 37 10000 8.7 110 03:26 27.12.2020
4386 Clear 21 1018 40 10000 9.8 100 02:42 27.12.2020
4387 Clouds 19 1018 48 10000 9.3 110 01:21 27.12.2020
4388 Clouds 17 1017 59 10000 6.7 120 23:45 26.12.2020
4389 Clouds 16 1017 59 10000 7.2 110 23:26 26.12.2020
4390 Clouds 16 1017 59 10000 8.2 110 22:47 26.12.2020
4391 Clouds 16 1016 63 10000 7.7 110 22:20 26.12.2020
4392 Clouds 16 1016 63 10000 9.3 110 21:54 26.12.2020
4393 Clouds 16 1016 63 10000 9.3 110 21:31 26.12.2020
4394 Clouds 16 1016 63 10000 9.3 110 21:31 26.12.2020
4395 Clouds 17 1015 63 10000 7.7 110 20:48 26.12.2020
4396 Clouds 17 1015 63 10000 7.7 110 20:27 26.12.2020
4397 Clouds 18 1015 59 10000 6.7 120 19:57 26.12.2020
4398 Clear 18 1015 68 10000 9.8 120 19:24 26.12.2020
4399 Clear 19 1014 59 10000 7.7 130 18:37 26.12.2020
4400 Clear 20 1014 52 10000 5.7 130 17:59 26.12.2020
4401 Clear 20 1014 49 10000 6.2 130 17:39 26.12.2020
4402 Clear 21 1014 49 10000 8.7 140 17:18 26.12.2020
4403 Clear 22 1014 43 10000 7.7 150 16:31 26.12.2020
4404 Clear 25 1012 36 10000 6.7 160 15:25 26.12.2020
4405 Clear 25 1011 44 10000 7.2 190 14:46 26.12.2020
4406 Clear 25 1010 47 10000 7.7 190 14:22 26.12.2020
4407 Clear 24 1010 44 10000 5.1 210 13:42 26.12.2020
4408 Clear 24 1010 44 10000 5.1 210 13:42 26.12.2020
4409 Clear 24 1010 44 10000 7.2 220 13:23 26.12.2020
4410 Clear 25 1009 44 10000 7.7 220 12:44 26.12.2020
4411 Clear 25 1009 45 10000 7.7 230 12:20 26.12.2020
4412 Clear 26 1009 42 10000 7.7 220 11:51 26.12.2020
4413 Clear 27 1008 39 10000 8.7 220 11:21 26.12.2020
4414 Clear 27 1008 39 10000 8.2 230 10:51 26.12.2020
4415 Clear 28 1008 39 10000 8.2 230 10:27 26.12.2020
4416 Clear 28 1009 39 10000 9.8 230 09:49 26.12.2020
4417 Clear 29 1008 37 10000 8.2 240 09:24 26.12.2020
4418 Clear 29 1009 40 10000 8.7 230 08:21 26.12.2020
4419 Clear 29 1009 40 10000 8.2 250 07:49 26.12.2020
4420 Clear 29 1009 40 10000 7.2 250 06:23 26.12.2020
4421 Clear 26 1010 44 10000 6.7 190 02:49 26.12.2020
4422 Clear 23 1009 53 10000 6.7 200 00:42 26.12.2020
4423 Clear 23 1009 53 10000 8.2 190 23:59 25.12.2020
4424 Clear 22 1009 53 10000 7.2 190 23:39 25.12.2020
4425 Clear 23 1008 53 10000 4.6 190 23:20 25.12.2020
4426 Clear 23 1008 49 10000 3.6 170 22:37 25.12.2020
4427 Clear 24 1007 50 10000 3.6 140 21:49 25.12.2020
4428 Clear 24 1007 50 10000 4.6 140 21:31 25.12.2020
4429 Clear 24 1007 47 10000 4.6 160 20:47 25.12.2020
4430 Clear 25 1007 47 10000 4.6 160 20:28 25.12.2020
4431 Clear 26 1006 39 10000 3.6 150 19:43 25.12.2020
4432 Clear 27 1007 39 10000 4.1 130 18:56 25.12.2020
4433 Clear 27 1007 39 10000 3.6 150 18:37 25.12.2020
4434 Clear 28 1007 37 10000 4.1 90 17:35 25.12.2020
4435 Clear 27 1007 54 10000 3.6 210 16:56 25.12.2020
4436 Clear 27 1007 54 10000 4.6 200 16:26 25.12.2020
4437 Clear 27 1007 54 10000 4.6 210 15:55 25.12.2020
4438 Clear 27 1007 54 10000 4.6 210 15:34 25.12.2020
4439 Clear 26 1007 54 10000 4.6 210 14:46 25.12.2020
4440 Clear 26 1007 51 10000 5.1 210 14:25 25.12.2020
4441 Clear 27 1007 51 10000 4.6 220 13:43 25.12.2020
4442 Clear 27 1006 48 10000 5.1 230 13:25 25.12.2020
4443 Clear 29 1006 40 10000 5.7 230 12:29 25.12.2020
4444 Clear 31 1005 34 10000 6.2 240 11:50 25.12.2020
4445 Clear 32 1005 32 10000 5.7 250 11:25 25.12.2020
4446 Clear 34 1005 20 10000 6.7 250 10:49 25.12.2020
4447 Clear 36 1005 19 10000 7.2 240 10:22 25.12.2020
4448 Clear 38 1005 11 10000 6.7 240 09:27 25.12.2020
4449 Clear 39 1005 13 10000 6.2 250 08:47 25.12.2020
4450 Clear 39 1006 10 10000 5.1 250 07:52 25.12.2020
4451 Clear 39 1007 13 10000 5.1 250 06:44 25.12.2020
4452 Clear 34 1009 22 10000 1 220 02:47 25.12.2020
4453 Clear 27 1009 41 10000 0.63 61 00:48 25.12.2020
4454 Clear 23 1009 49 10000 1 300 23:58 24.12.2020
4455 Clear 20 1008 59 10000 0.5 70 23:22 24.12.2020
4456 Clear 19 1008 59 10000 0.5 50 22:27 24.12.2020
4457 Clear 19 1007 59 10000 2.1 120 21:54 24.12.2020
4458 Clear 19 1007 59 10000 2.1 120 21:27 24.12.2020
4459 Clear 21 1007 49 10000 2.6 360 20:18 24.12.2020
4460 Clear 22 1008 52 10000 2.1 80 18:22 24.12.2020
4461 Clear 21 1008 49 10000 1 130 17:45 24.12.2020
4462 Clear 22 1008 46 10000 1.28 131 17:26 24.12.2020
4463 Clear 24 1008 40 10000 1.5 170 16:26 24.12.2020
4464 Clear 24 1008 43 10000 2.6 190 15:49 24.12.2020
4465 Clear 25 1008 33 10000 3.1 210 15:26 24.12.2020
4466 Clear 25 1008 33 10000 3.1 210 14:58 24.12.2020
4467 Clear 26 1008 31 10000 2.6 220 14:38 24.12.2020
4468 Clear 26 1008 31 10000 2.6 220 14:38 24.12.2020
4469 Clear 27 1008 24 10000 3.1 230 14:20 24.12.2020
4470 Clear 29 1008 20 10000 2.6 210 13:39 24.12.2020
4471 Clear 30 1008 18 10000 4.1 240 13:19 24.12.2020
4472 Clear 32 1008 14 10000 5.1 220 12:40 24.12.2020
4473 Clear 34 1008 12 10000 5.7 260 12:19 24.12.2020
4474 Clear 36 1007 26 10000 5.1 220 11:38 24.12.2020
4475 Clear 37 1007 10 10000 3.1 230 11:19 24.12.2020
4476 Rain 37 1007 25 10000 4.1 250 10:46 24.12.2020
4477 Clear 37 1007 12 10000 4.6 250 10:27 24.12.2020
4478 Clear 37 1007 12 10000 6.7 260 09:50 24.12.2020
4479 Clear 38 1007 10 10000 6.7 270 08:58 24.12.2020
4480 Clear 39 1008 10 10000 5.7 260 07:56 24.12.2020
4481 Clear 39 1008 10 10000 5.7 260 07:37 24.12.2020
4482 Clear 39 1008 11 10000 6.2 270 06:27 24.12.2020
4483 Clear 38 1010 12 10000 4.6 50 03:51 24.12.2020
4484 Clear 34 1010 17 10000 8.7 20 01:52 24.12.2020
4485 Clear 33 1010 17 10000 7.2 40 01:23 24.12.2020
4486 Clear 31 1010 18 10000 6.2 50 00:43 24.12.2020
4487 Clear 30 1009 19 10000 6.7 50 00:19 24.12.2020
4488 Clear 29 1009 17 10000 6.7 50 23:40 23.12.2020
4489 Clear 28 1009 17 10000 6.7 50 23:21 23.12.2020
4490 Clear 28 1009 16 10000 5.7 50 22:48 23.12.2020
4491 Clear 27 1008 17 10000 5.1 40 22:26 23.12.2020
4492 Clear 28 1008 18 10000 5.1 60 21:46 23.12.2020
4493 Clear 28 1008 19 10000 4.1 50 21:22 23.12.2020
4494 Clear 27 1008 22 10000 5.1 70 20:46 23.12.2020
4495 Clear 27 1008 22 10000 5.1 70 20:28 23.12.2020
4496 Clear 27 1008 22 10000 4.1 70 19:45 23.12.2020
4497 Clear 23 1008 33 10000 3.1 50 19:24 23.12.2020
4498 Clear 23 1008 33 10000 3.1 50 18:56 23.12.2020
4499 Clear 23 1008 37 10000 2.6 60 18:36 23.12.2020
4500 Clear 24 1008 35 10000 3.1 50 17:57 23.12.2020
4501 Clear 26 1009 28 10000 4.1 70 17:36 23.12.2020
4502 Clear 26 1009 28 10000 4.1 70 17:18 23.12.2020
4503 Clear 26 1009 41 10000 2.6 30 16:39 23.12.2020
4504 Clear 26 1009 38 10000 0.5 50 16:21 23.12.2020
4505 Clear 28 1009 32 10000 3.6 170 15:40 23.12.2020
4506 Clear 28 1009 32 10000 3.6 170 15:40 23.12.2020
4507 Clear 29 1009 22 10000 5.1 150 15:22 23.12.2020
4508 Clear 29 1009 30 10000 3.1 160 14:51 23.12.2020
4509 Clear 30 1009 30 10000 3.1 160 14:25 23.12.2020
4510 Clear 32 1008 17 10000 6.2 190 13:47 23.12.2020
4511 Clear 33 1008 14 10000 7.7 200 13:21 23.12.2020
4512 Clear 34 1008 14 10000 7.7 200 12:59 23.12.2020
4513 Clear 35 1008 13 10000 7.7 200 12:38 23.12.2020
4514 Clear 35 1008 13 10000 7.7 200 12:38 23.12.2020
4515 Clear 36 1008 13 10000 7.7 210 12:18 23.12.2020
4516 Clear 37 1007 11 10000 8.2 210 11:45 23.12.2020
4517 Clear 38 1007 12 10000 8.2 220 10:57 23.12.2020
4518 Clear 38 1007 10 10000 8.7 220 10:39 23.12.2020
4519 Clear 39 1007 9 10000 8.7 240 10:19 23.12.2020
4520 Clear 39 1007 8 10000 5.1 210 09:26 23.12.2020
4521 Clear 40 1008 7 10000 5.1 210 08:42 23.12.2020
4522 Clear 40 1009 8 10000 3.6 150 07:51 23.12.2020
4523 Clear 39 1009 9 10000 2.6 60 07:20 23.12.2020
4524 Clear 39 1009 10 10000 2.6 360 06:38 23.12.2020
4525 Clear 37 1011 15 10000 4.1 70 05:25 23.12.2020
4526 Clear 35 1011 16 10000 6.2 40 04:28 23.12.2020
4527 Clear 24 1013 49 10000 8.7 70 00:34 23.12.2020
4528 Clear 21 1012 55 10000 7.7 70 23:45 22.12.2020
4529 Clear 21 1012 55 10000 8.7 70 23:26 22.12.2020
4530 Clear 20 1012 55 10000 9.3 80 22:43 22.12.2020
4531 Clear 20 1012 55 10000 9.3 80 22:25 22.12.2020
4532 Clear 21 1011 52 10000 11.8 90 21:55 22.12.2020
4533 Clear 21 1012 49 10000 6.2 100 21:22 22.12.2020
4534 Clear 22 1012 49 10000 6.2 100 20:57 22.12.2020
4535 Clear 22 1011 49 10000 12.9 90 20:38 22.12.2020
4536 Clear 22 1011 43 10000 13.4 90 20:20 22.12.2020
4537 Clear 23 1011 40 10000 11.8 100 19:42 22.12.2020
4538 Clear 23 1011 36 10000 11.8 100 19:20 22.12.2020
4539 Clear 24 1011 33 10000 11.8 100 18:47 22.12.2020
4540 Clear 25 1011 31 10000 10.8 100 18:27 22.12.2020
4541 Clear 26 1011 29 10000 11.3 100 17:45 22.12.2020
4542 Clear 27 1011 21 10000 8.2 100 17:18 22.12.2020
4543 Clear 27 1011 23 10000 7.7 100 16:48 22.12.2020
4544 Clear 26 1011 23 10000 4.1 90 16:22 22.12.2020
4545 Clear 26 1011 40 10000 2.6 90 15:51 22.12.2020
4546 Clear 25 1011 40 10000 2.6 90 15:33 22.12.2020
4547 Clear 26 1011 34 10000 4.1 180 14:59 22.12.2020
4548 Clear 27 1011 34 10000 4.1 180 14:41 22.12.2020
4549 Clear 27 1011 32 10000 5.7 180 14:22 22.12.2020
4550 Clear 28 1011 32 10000 5.7 180 13:47 22.12.2020
4551 Clear 29 1012 32 10000 4.1 180 13:19 22.12.2020
4552 Clear 31 1011 25 10000 6.2 200 12:55 22.12.2020
4553 Clear 31 1011 25 10000 6.2 200 12:36 22.12.2020
4554 Clear 32 1011 22 10000 6.7 210 12:18 22.12.2020
4555 Clear 33 1010 21 10000 6.7 220 11:40 22.12.2020
4556 Clear 34 1010 21 10000 7.2 230 11:21 22.12.2020
4557 Clear 34 1010 21 10000 6.7 240 10:53 22.12.2020
4558 Clear 34 1010 20 10000 6.7 240 10:25 22.12.2020
4559 Clear 35 1010 20 10000 5.7 240 09:57 22.12.2020
4560 Clear 35 1010 21 10000 5.1 270 09:27 22.12.2020
4561 Clear 36 1010 12 10000 2.6 210 08:53 22.12.2020
4562 Clear 36 1010 12 10000 2.6 210 08:34 22.12.2020
4563 Clear 35 1011 15 10000 4.1 120 07:56 22.12.2020
4564 Clear 35 1011 15 10000 4.1 120 07:56 22.12.2020
4565 Clear 35 1011 17 10000 4.1 90 07:19 22.12.2020
4566 Clear 34 1013 18 10000 4.6 80 05:48 22.12.2020
4567 Clear 29 1014 32 10000 7.7 100 03:46 22.12.2020
4568 Clear 23 1015 43 10000 6.2 80 01:35 22.12.2020
4569 Clear 19 1014 55 10000 5.1 70 23:56 21.12.2020
4570 Clear 18 1014 55 10000 5.1 70 23:37 21.12.2020
4571 Clear 17 1014 59 10000 4.6 70 22:59 21.12.2020
4572 Clear 17 1014 55 10000 3.6 90 22:36 21.12.2020
4573 Clear 17 1013 55 10000 5.7 110 22:18 21.12.2020
4574 Clear 17 1013 55 10000 3.6 100 21:41 21.12.2020
4575 Clear 18 1013 52 10000 2.6 120 21:22 21.12.2020
4576 Clear 19 1012 48 10000 4.6 130 20:40 21.12.2020
4577 Clear 19 1012 48 10000 8.7 90 20:19 21.12.2020
4578 Clear 20 1012 45 10000 11.3 90 19:45 21.12.2020
4579 Clear 21 1012 43 10000 11.8 100 19:20 21.12.2020
4580 Clear 21 1012 37 10000 11.3 100 18:53 21.12.2020
4581 Clear 22 1012 37 10000 11.3 100 18:34 21.12.2020
4582 Clear 23 1012 31 10000 10.8 100 17:56 21.12.2020
4583 Clear 23 1012 31 10000 10.8 100 17:38 21.12.2020
4584 Clear 23 1012 27 10000 10.8 100 17:19 21.12.2020
4585 Clear 24 1012 23 10000 7.7 100 16:38 21.12.2020
4586 Clear 23 1012 42 10000 1.5 120 16:18 21.12.2020
4587 Clear 23 1013 35 10000 3.1 120 15:40 21.12.2020
4588 Clear 23 1012 53 10000 3.6 190 14:57 21.12.2020
4589 Clear 23 1012 53 10000 4.1 210 14:21 21.12.2020
4590 Clear 24 1012 47 10000 3.6 210 13:45 21.12.2020
4591 Clear 24 1012 24 10000 4.1 140 13:26 21.12.2020
4592 Clear 25 1012 50 10000 4.1 230 12:45 21.12.2020
4593 Clear 28 1011 16 10000 5.7 140 12:25 21.12.2020
4594 Clear 28 1011 16 10000 5.7 140 11:58 21.12.2020
4595 Clear 29 1011 15 10000 4.6 130 11:40 21.12.2020
4596 Clear 31 1011 15 10000 5.1 110 11:22 21.12.2020
4597 Clear 32 1011 16 10000 5.1 150 10:48 21.12.2020
4598 Clear 32 1011 16 10000 5.1 150 10:30 21.12.2020
4599 Clear 33 1011 17 10000 6.2 140 09:47 21.12.2020
4600 Clear 33 1011 17 10000 6.2 140 09:25 21.12.2020
4601 Clear 33 1012 18 10000 4.6 140 08:52 21.12.2020
4602 Clear 32 1012 22 10000 4.1 110 07:52 21.12.2020
4603 Clear 31 1013 23 10000 5.7 100 06:47 21.12.2020
4604 Clear 28 1014 34 10000 6.7 110 04:49 21.12.2020
4605 Clear 20 1016 55 10000 5.7 100 01:26 21.12.2020
4606 Clear 19 1016 55 10000 5.1 90 00:32 21.12.2020
4607 Clear 17 1016 63 10000 5.1 80 23:36 20.12.2020
4608 Clear 16 1016 63 10000 6.7 90 22:59 20.12.2020
4609 Clear 16 1016 63 10000 6.7 90 22:59 20.12.2020
4610 Clear 16 1016 63 10000 7.7 90 22:41 20.12.2020
4611 Clear 16 1015 63 10000 8.2 90 22:21 20.12.2020
4612 Clear 16 1015 63 10000 8.2 90 22:21 20.12.2020
4613 Clear 17 1015 59 10000 6.2 90 21:39 20.12.2020
4614 Clear 17 1015 59 10000 3.6 80 21:20 20.12.2020
4615 Clear 17 1015 59 10000 8.2 110 20:50 20.12.2020
4616 Clear 17 1015 55 10000 8.2 100 20:23 20.12.2020
4617 Clear 18 1015 55 10000 8.7 110 19:46 20.12.2020
4618 Clear 19 1014 48 10000 6.2 120 19:27 20.12.2020
4619 Clear 19 1014 45 10000 7.7 100 18:57 20.12.2020
4620 Clear 19 1014 45 10000 7.7 100 18:38 20.12.2020
4621 Clear 20 1014 49 10000 9.8 110 18:19 20.12.2020
4622 Clear 20 1014 49 10000 9.8 110 18:19 20.12.2020
4623 Clear 21 1013 37 10000 5.1 110 17:42 20.12.2020
4624 Clear 22 1014 43 10000 8.7 110 17:19 20.12.2020
4625 Clear 23 1013 35 10000 8.7 120 16:44 20.12.2020
4626 Clear 24 1013 33 10000 7.7 120 16:24 20.12.2020
4627 Clear 23 1013 29 10000 7.7 130 15:41 20.12.2020
4628 Clear 23 1012 41 10000 3.6 190 15:23 20.12.2020
4629 Clear 23 1012 41 10000 4.6 190 14:49 20.12.2020
4630 Clear 23 1012 41 10000 4.6 190 14:29 20.12.2020
4631 Clear 24 1012 44 10000 5.1 210 13:46 20.12.2020
4632 Clear 24 1011 42 10000 5.7 210 13:23 20.12.2020
4633 Clear 25 1011 39 10000 6.7 210 12:54 20.12.2020
4634 Clear 25 1011 39 10000 6.7 210 12:27 20.12.2020
4635 Clear 26 1010 37 10000 6.7 220 11:57 20.12.2020
4636 Clear 27 1010 35 10000 6.7 230 11:38 20.12.2020
4637 Clear 28 1010 33 10000 7.7 240 10:50 20.12.2020
4638 Clear 28 1010 31 10000 8.2 240 10:23 20.12.2020
4639 Clear 29 1010 31 10000 8.2 240 09:57 20.12.2020
4640 Clear 29 1010 31 10000 8.2 240 09:39 20.12.2020
4641 Clear 30 1010 29 10000 7.7 260 09:20 20.12.2020
4642 Clear 30 1011 33 10000 5.7 290 08:48 20.12.2020
4643 Clear 30 1011 33 10000 5.7 290 08:30 20.12.2020
4644 Clear 31 1011 22 10000 4.1 150 07:22 20.12.2020
4645 Clear 29 1012 26 10000 4.6 100 05:33 20.12.2020
4646 Clear 23 1014 43 10000 4.6 160 01:31 20.12.2020
4647 Clear 20 1013 55 10000 6.2 170 00:22 20.12.2020
4648 Clear 18 1013 59 10000 6.7 180 23:18 19.12.2020
4649 Clear 17 1013 59 10000 5.1 180 22:44 19.12.2020
4650 Clear 18 1013 55 10000 6.7 170 22:25 19.12.2020
4651 Clear 18 1013 55 10000 6.7 170 21:58 19.12.2020
4652 Clear 18 1013 55 10000 6.7 170 21:58 19.12.2020
4653 Clear 18 1012 59 10000 5.1 170 21:39 19.12.2020
4654 Clear 18 1012 55 10000 6.2 170 21:21 19.12.2020
4655 Clear 19 1012 55 10000 6.7 160 20:39 19.12.2020
4656 Clear 19 1011 56 10000 6.7 170 20:18 19.12.2020
4657 Clear 19 1011 60 10000 7.2 170 19:49 19.12.2020
4658 Clear 20 1011 60 10000 7.2 170 19:24 19.12.2020
4659 Clear 19 1011 72 10000 5.7 190 18:34 19.12.2020
4660 Clear 19 1011 72 10000 7.7 200 17:58 19.12.2020
4661 Clear 20 1011 68 10000 7.7 200 17:40 19.12.2020
4662 Clear 20 1011 68 10000 7.2 200 17:20 19.12.2020
4663 Clear 20 1011 64 10000 8.7 200 16:42 19.12.2020
4664 Clear 21 1011 64 10000 7.2 210 16:24 19.12.2020
4665 Clear 21 1011 60 10000 6.7 210 15:54 19.12.2020
4666 Clear 22 1011 60 10000 6.7 210 15:30 19.12.2020
4667 Clear 22 1010 56 10000 7.7 200 14:40 19.12.2020
4668 Clear 23 1010 50 10000 7.7 210 13:59 19.12.2020
4669 Clear 23 1009 44 10000 6.7 230 13:41 19.12.2020
4670 Clear 23 1009 39 10000 7.7 220 13:19 19.12.2020
4671 Clear 25 1009 34 10000 7.2 230 12:42 19.12.2020
4672 Clear 25 1008 30 10000 7.2 220 12:24 19.12.2020
4673 Clear 27 1008 30 10000 7.7 210 11:56 19.12.2020
4674 Clear 28 1008 30 10000 7.7 210 11:35 19.12.2020
4675 Clear 29 1008 30 10000 8.2 240 10:42 19.12.2020
4676 Clear 28 1008 30 10000 9.3 230 10:21 19.12.2020
4677 Clear 29 1008 29 10000 9.3 230 09:42 19.12.2020
4678 Clear 29 1008 29 10000 7.7 240 08:59 19.12.2020
4679 Clear 31 1008 24 10000 7.2 240 08:24 19.12.2020
4680 Clear 31 1008 19 10000 6.7 270 07:23 19.12.2020
4681 Clear 32 1008 20 10000 3.1 210 06:51 19.12.2020
4682 Clear 33 1009 22 10000 2.6 120 05:25 19.12.2020
4683 Clear 30 1010 26 10000 5.7 70 03:55 19.12.2020
4684 Clear 24 1011 43 10000 6.7 60 01:21 19.12.2020
4685 Clear 23 1011 43 10000 8.2 70 00:36 19.12.2020
4686 Clear 22 1010 45 10000 9.3 80 00:18 19.12.2020
4687 Clear 20 1010 48 10000 8.7 70 23:44 18.12.2020
4688 Clear 20 1010 52 10000 7.7 80 23:21 18.12.2020
4689 Clear 19 1010 48 10000 8.2 90 22:43 18.12.2020
4690 Clear 19 1010 48 10000 8.2 90 22:20 18.12.2020
4691 Clear 19 1009 48 10000 10.3 90 21:47 18.12.2020
4692 Clear 19 1009 45 10000 9.3 100 21:28 18.12.2020
4693 Clear 20 1009 45 10000 8.7 100 20:38 18.12.2020
4694 Clear 20 1009 45 10000 9.8 100 20:19 18.12.2020
4695 Clear 21 1009 43 10000 9.8 100 19:41 18.12.2020
4696 Clear 22 1009 40 10000 8.7 100 18:57 18.12.2020
4697 Clear 22 1009 40 10000 8.7 100 18:38 18.12.2020
4698 Clear 22 1010 40 10000 9.3 110 18:20 18.12.2020
4699 Clear 20 1010 63 10000 2.6 210 17:22 18.12.2020
4700 Clear 20 1010 59 10000 3.1 210 16:49 18.12.2020
4701 Clear 21 1010 49 10000 4.6 190 16:27 18.12.2020
4702 Clear 22 1011 49 10000 4.6 180 15:56 18.12.2020
4703 Clear 22 1011 49 10000 4.6 180 15:38 18.12.2020
4704 Clear 22 1011 46 10000 6.7 190 15:20 18.12.2020
4705 Clear 23 1011 41 10000 7.7 190 14:54 18.12.2020
4706 Clear 23 1010 44 10000 7.2 190 14:21 18.12.2020
4707 Clear 23 1011 53 10000 5.1 190 13:46 18.12.2020
4708 Clear 24 1011 47 10000 7.2 200 13:24 18.12.2020
4709 Clear 25 1010 36 10000 7.2 210 12:46 18.12.2020
4710 Clear 27 1010 32 10000 8.2 210 11:45 18.12.2020
4711 Clear 27 1009 30 10000 8.2 210 11:22 18.12.2020
4712 Clear 28 1009 32 10000 9.8 230 10:39 18.12.2020
4713 Clear 28 1010 37 10000 9.3 210 10:20 18.12.2020
4714 Clear 28 1010 37 10000 9.3 210 10:20 18.12.2020
4715 Clear 28 1010 37 10000 9.3 210 10:20 18.12.2020
4716 Clear 29 1010 28 10000 8.7 240 09:38 18.12.2020
4717 Clear 29 1010 27 10000 9.3 230 09:20 18.12.2020
4718 Clear 30 1010 27 10000 8.7 230 08:52 18.12.2020
4719 Clear 31 1010 29 10000 5.7 230 08:26 18.12.2020
4720 Clear 31 1011 19 10000 3.1 90 07:20 18.12.2020
4721 Clear 31 1011 19 10000 3.1 90 06:59 18.12.2020
4722 Clear 30 1011 22 10000 3.1 120 06:22 18.12.2020
4723 Clear 30 1012 27 10000 3.6 120 05:33 18.12.2020
4724 Clear 29 1012 34 10000 6.2 110 04:50 18.12.2020
4725 Clear 23 1014 46 10000 6.7 80 01:57 18.12.2020
4726 Clear 23 1014 46 10000 6.7 80 01:37 18.12.2020
4727 Clear 18 1013 52 10000 7.7 100 23:58 17.12.2020
4728 Clear 17 1012 51 10000 11.3 100 23:25 17.12.2020
4729 Clear 17 1012 55 10000 12.3 100 22:50 17.12.2020
4730 Clear 17 1012 55 10000 12.3 100 22:28 17.12.2020
4731 Clear 17 1012 55 10000 12.3 100 22:28 17.12.2020
4732 Clear 17 1012 55 10000 12.3 100 21:47 17.12.2020
4733 Clear 17 1012 55 10000 13.4 100 21:26 17.12.2020
4734 Clear 17 1012 55 10000 13.4 100 20:59 17.12.2020
4735 Clear 17 1012 55 10000 13.4 100 20:41 17.12.2020
4736 Clear 18 1012 52 10000 11.8 100 20:18 17.12.2020
4737 Clear 18 1012 48 10000 11.8 100 19:45 17.12.2020
4738 Clear 18 1012 45 10000 11.3 110 19:23 17.12.2020
4739 Clear 19 1012 45 10000 11.8 110 18:41 17.12.2020
4740 Clear 19 1012 42 10000 12.9 110 18:23 17.12.2020
4741 Clear 19 1012 42 10000 12.9 110 18:23 17.12.2020
4742 Clear 20 1013 42 10000 7.7 110 17:53 17.12.2020
4743 Clear 20 1012 40 10000 11.3 110 17:32 17.12.2020
4744 Clear 22 1012 37 10000 9.8 110 16:44 17.12.2020
4745 Clear 23 1012 31 10000 6.7 120 16:24 17.12.2020
4746 Clear 22 1013 35 10000 5.1 190 15:52 17.12.2020
4747 Clear 22 1012 46 10000 4.6 180 15:31 17.12.2020
4748 Clear 22 1012 46 10000 4.6 180 14:55 17.12.2020
4749 Clear 22 1012 49 10000 6.2 200 14:31 17.12.2020
4750 Clear 23 1012 47 10000 6.2 210 13:52 17.12.2020
4751 Clear 23 1012 47 10000 6.2 210 13:33 17.12.2020
4752 Clear 24 1012 44 10000 7.7 220 12:47 17.12.2020
4753 Clear 24 1012 47 10000 7.7 210 12:25 17.12.2020
4754 Clear 25 1012 44 10000 7.7 220 11:45 17.12.2020
4755 Clear 26 1012 42 10000 7.7 220 11:25 17.12.2020
4756 Clear 27 1011 42 10000 9.3 230 10:55 17.12.2020
4757 Clear 28 1011 20 10000 7.7 180 10:18 17.12.2020
4758 Clear 30 1011 20 10000 6.2 170 09:26 17.12.2020
4759 Clear 29 1012 25 10000 4.1 170 07:54 17.12.2020
4760 Clear 29 1012 25 10000 4.1 170 07:54 17.12.2020
4761 Rain 30 1012 25 10000 4.1 170 07:34 17.12.2020
4762 Clear 29 1012 25 10000 6.2 120 06:54 17.12.2020
4763 Clear 29 1012 25 10000 6.2 120 06:32 17.12.2020
4764 Clear 29 1013 30 10000 6.7 140 05:33 17.12.2020
4765 Clear 20 1014 48 10000 3.1 190 00:38 17.12.2020
4766 Clear 18 1014 55 10000 3.6 180 23:52 16.12.2020
4767 Clear 17 1014 59 10000 4.1 160 23:19 16.12.2020
4768 Clear 16 1013 59 10000 4.6 110 22:52 16.12.2020
4769 Rain 16 1013 59 10000 4.6 110 22:32 16.12.2020
4770 Clear 17 1013 55 10000 5.7 130 21:47 16.12.2020
4771 Rain 17 1013 55 10000 4.6 130 21:27 16.12.2020
4772 Clear 17 1013 59 10000 4.1 120 20:54 16.12.2020
4773 Clear 18 1012 55 10000 2.6 160 20:21 16.12.2020
4774 Clear 18 1012 52 10000 4.1 190 19:50 16.12.2020
4775 Clear 19 1012 55 10000 4.1 200 19:19 16.12.2020
4776 Rain 19 1011 52 10000 8.7 120 18:52 16.12.2020
4777 Rain 20 1012 52 10000 9.3 120 18:27 16.12.2020
4778 Clear 21 1011 46 10000 9.8 110 17:43 16.12.2020
4779 Clear 22 1011 43 10000 9.3 110 16:58 16.12.2020
4780 Rain 22 1012 40 10000 4.1 180 16:39 16.12.2020
4781 Clear 22 1012 40 10000 4.1 180 16:20 16.12.2020
4782 Rain 21 1011 56 10000 5.1 190 15:49 16.12.2020
4783 Clear 21 1011 56 10000 6.2 190 15:24 16.12.2020
4784 Clear 21 1011 60 10000 4.1 180 14:46 16.12.2020
4785 Rain 22 1011 53 10000 5.7 210 14:28 16.12.2020
4786 Clear 22 1011 53 10000 6.7 210 13:45 16.12.2020
4787 Rain 22 1011 53 10000 6.7 210 13:27 16.12.2020
4788 Clear 23 1010 44 10000 7.7 220 12:48 16.12.2020
4789 Clear 24 1010 41 10000 7.7 220 12:25 16.12.2020
4790 Clear 25 1010 36 10000 8.7 210 11:38 16.12.2020
4791 Clear 25 1010 44 10000 8.7 220 11:19 16.12.2020
4792 Clear 26 1010 39 10000 8.2 240 10:43 16.12.2020
4793 Clear 27 1010 42 10000 10.3 230 10:18 16.12.2020
4794 Clear 27 1010 37 10000 8.7 240 09:39 16.12.2020
4795 Clear 28 1010 37 10000 8.7 240 08:24 16.12.2020
4796 Clear 27 1011 39 10000 9.3 240 07:48 16.12.2020
4797 Clear 27 1011 39 10000 9.3 240 07:30 16.12.2020
4798 Clear 28 1012 32 10000 3.6 120 05:48 16.12.2020
4799 Rain 22 1014 46 10000 3.6 90 02:22 16.12.2020
4800 Clear 18 1014 55 10000 4.6 110 23:59 15.12.2020
4801 Clear 17 1014 59 10000 5.1 100 23:40 15.12.2020
4802 Clear 15 1014 55 10000 3.6 90 22:44 15.12.2020
4803 Clear 15 1014 55 10000 5.1 110 22:23 15.12.2020
4804 Clear 16 1014 55 10000 6.2 110 21:49 15.12.2020
4805 Clear 16 1014 55 10000 5.7 120 21:24 15.12.2020
4806 Clear 16 1014 55 10000 3.1 150 20:46 15.12.2020
4807 Rain 16 1014 55 10000 3.1 150 20:46 15.12.2020
4808 Clear 16 1013 51 10000 6.7 80 20:27 15.12.2020
4809 Clear 17 1014 55 10000 6.7 90 19:55 15.12.2020
4810 Clear 17 1014 48 10000 3.6 120 19:35 15.12.2020
4811 Clear 18 1014 48 10000 5.1 120 18:57 15.12.2020
4812 Rain 19 1014 48 10000 5.1 120 18:38 15.12.2020
4813 Rain 19 1014 45 10000 4.6 80 18:20 15.12.2020
4814 Rain 20 1014 43 10000 6.7 110 17:41 15.12.2020
4815 Clear 20 1014 40 10000 4.6 130 17:21 15.12.2020
4816 Clear 19 1015 55 10000 6.7 200 16:34 15.12.2020
4817 Clear 19 1015 56 10000 6.2 200 15:59 15.12.2020
4818 Clear 20 1015 56 10000 6.2 200 15:34 15.12.2020
4819 Clear 21 1015 52 10000 7.7 190 14:53 15.12.2020
4820 Clear 20 1015 56 10000 6.2 180 14:27 15.12.2020
4821 Clear 21 1015 49 10000 5.7 210 13:59 15.12.2020
4822 Clear 21 1015 49 10000 5.7 210 13:40 15.12.2020
4823 Clear 21 1015 49 10000 6.2 210 13:22 15.12.2020
4824 Clear 22 1014 49 10000 6.7 210 12:43 15.12.2020
4825 Clear 22 1014 47 10000 7.7 220 12:18 15.12.2020
4826 Rain 23 1014 47 10000 7.2 250 11:43 15.12.2020
4827 Rain 24 1014 41 10000 7.7 240 11:20 15.12.2020
4828 Rain 25 1014 36 10000 6.7 240 10:41 15.12.2020
4829 Clear 27 1014 23 10000 3.1 10 09:53 15.12.2020
4830 Clear 28 1014 23 10000 3.1 10 09:32 15.12.2020
4831 Clear 28 1014 23 10000 3.1 10 09:32 15.12.2020
4832 Rain 28 1014 25 10000 4.6 140 08:58 15.12.2020
4833 Clear 28 1014 25 10000 4.6 140 08:30 15.12.2020
4834 Rain 28 1015 25 10000 4.1 140 07:59 15.12.2020
4835 Rain 29 1015 24 10000 5.1 170 07:37 15.12.2020
4836 Rain 28 1016 26 10000 2.6 180 06:37 15.12.2020
4837 Rain 24 1018 38 10000 6.7 90 04:22 15.12.2020
4838 Clear 17 1018 59 10000 11.8 90 00:37 15.12.2020
4839 Rain 15 1019 62 10000 4.6 90 23:28 14.12.2020
4840 Clear 14 1019 62 10000 4.6 90 22:59 14.12.2020
4841 Rain 14 1019 62 10000 3.6 120 22:38 14.12.2020
4842 Rain 14 1018 62 10000 6.2 110 21:55 14.12.2020
4843 Rain 14 1018 62 10000 6.2 110 21:36 14.12.2020
4844 Rain 15 1018 58 10000 8.2 100 20:52 14.12.2020
4845 Rain 15 1018 58 10000 8.2 100 20:33 14.12.2020
4846 Rain 16 1018 55 10000 7.7 120 19:59 14.12.2020
4847 Clear 16 1018 55 10000 7.7 120 19:30 14.12.2020
4848 Clear 16 1018 48 10000 5.1 130 18:55 14.12.2020
4849 Clear 16 1018 48 10000 5.1 130 18:55 14.12.2020
4850 Rain 16 1018 48 10000 5.1 130 18:37 14.12.2020
4851 Rain 16 1018 51 10000 5.1 190 17:53 14.12.2020
4852 Rain 16 1018 63 10000 5.1 190 17:32 14.12.2020
4853 Clear 16 1018 67 10000 5.1 190 16:53 14.12.2020
4854 Clear 17 1018 63 10000 5.7 200 16:29 14.12.2020
4855 Clear 17 1018 59 10000 4.6 200 15:50 14.12.2020
4856 Clear 18 1018 59 10000 5.1 200 15:25 14.12.2020
4857 Clear 18 1018 63 10000 5.7 210 14:45 14.12.2020
4858 Clear 18 1018 63 10000 5.7 210 14:26 14.12.2020
4859 Clear 19 1017 55 10000 7.2 210 13:47 14.12.2020
4860 Rain 19 1017 55 10000 8.2 210 13:24 14.12.2020
4861 Clear 19 1017 59 10000 7.7 210 12:53 14.12.2020
4862 Clear 19 1016 49 10000 8.2 210 12:29 14.12.2020
4863 Rain 20 1016 46 10000 9.3 210 11:36 14.12.2020
4864 Clear 21 1016 46 10000 8.7 220 10:48 14.12.2020
4865 Clear 21 1016 46 10000 9.3 220 10:27 14.12.2020
4866 Clear 21 1016 40 10000 9.3 230 09:44 14.12.2020
4867 Clear 22 1016 37 10000 10.8 240 08:49 14.12.2020
4868 Clear 22 1016 37 10000 10.8 240 08:30 14.12.2020
4869 Rain 22 1016 33 10000 9.8 250 07:49 14.12.2020
4870 Rain 23 1016 28 10000 6.2 220 06:48 14.12.2020
4871 Clear 23 1017 33 10000 3.6 150 05:37 14.12.2020
4872 Clear 20 1017 32 10000 6.2 150 02:39 14.12.2020
4873 Rain 17 1017 48 10000 5.7 170 00:56 14.12.2020
4874 Clear 17 1016 55 10000 4.6 150 00:34 14.12.2020
4875 Rain 16 1016 59 10000 4.1 160 23:57 13.12.2020
4876 Rain 15 1015 71 10000 5.1 170 23:39 13.12.2020
4877 Clear 14 1015 76 10000 3.6 170 22:49 13.12.2020
4878 Clear 13 1014 76 10000 3.6 190 22:20 13.12.2020
4879 Rain 14 1013 76 10000 3.6 170 21:47 13.12.2020
4880 Clear 14 1013 76 10000 4.1 170 21:28 13.12.2020
4881 Clear 15 1013 76 10000 4.1 180 20:40 13.12.2020
4882 Rain 15 1013 72 10000 6.2 180 20:21 13.12.2020
4883 Clouds 15 1012 72 10000 7.2 190 19:42 13.12.2020
4884 Rain 16 1012 72 10000 3.6 180 19:20 13.12.2020
4885 Clouds 16 1012 67 10000 3.6 200 18:43 13.12.2020
4886 Clouds 17 1012 67 10000 4.6 210 18:21 13.12.2020
4887 Rain 17 1012 67 10000 4.1 210 17:47 13.12.2020
4888 Rain 17 1012 67 10000 4.1 210 17:47 13.12.2020
4889 Rain 17 1012 67 10000 5.1 210 17:21 13.12.2020
4890 Clouds 17 1012 59 10000 4.1 210 16:58 13.12.2020
4891 Rain 17 1012 59 10000 4.1 210 16:38 13.12.2020
4892 Clouds 18 1012 63 10000 5.1 210 16:19 13.12.2020
4893 Rain 18 1012 59 10000 5.1 220 15:40 13.12.2020
4894 Clouds 18 1011 55 10000 4.6 230 15:22 13.12.2020
4895 Clouds 18 1011 55 10000 4.6 240 14:44 13.12.2020
4896 Clouds 18 1011 52 10000 6.7 230 14:21 13.12.2020
4897 Rain 18 1010 55 10000 5.7 240 13:43 13.12.2020
4898 Clouds 18 1010 55 10000 6.2 240 13:25 13.12.2020
4899 Clouds 18 1010 52 10000 8.7 250 12:49 13.12.2020
4900 Clouds 19 1009 52 10000 7.7 240 12:23 13.12.2020
4901 Clouds 19 1009 52 10000 8.2 240 11:42 13.12.2020
4902 Clouds 20 1008 49 10000 8.7 260 10:56 13.12.2020
4903 Clouds 20 1008 49 10000 8.7 260 10:38 13.12.2020
4904 Clouds 21 1007 52 10000 8.2 250 09:55 13.12.2020
4905 Clouds 21 1007 52 10000 8.2 250 09:55 13.12.2020
4906 Clouds 21 1007 56 10000 9.3 260 09:26 13.12.2020
4907 Clouds 21 1006 60 10000 9.8 250 08:34 13.12.2020
4908 Clouds 21 1006 68 10000 8.7 270 07:47 13.12.2020
4909 Clouds 22 1005 52 10000 6.7 280 04:29 13.12.2020
4910 Clouds 21 1004 77 10000 6.7 260 02:41 13.12.2020
4911 Rain 20 1004 72 10000 5.7 270 01:57 13.12.2020
4912 Rain 18 1003 88 10000 5.1 230 00:49 13.12.2020
4913 Rain 17 1002 93 10000 4.6 240 23:55 12.12.2020
4914 Rain 17 1002 93 10000 4.6 240 23:31 12.12.2020
4915 Drizzle 18 1001 93 8000 4.6 240 22:49 12.12.2020
4916 Rain 18 1001 93 10000 3.6 230 21:56 12.12.2020
4917 Drizzle 18 1001 93 10000 4.1 230 21:34 12.12.2020
4918 Drizzle 18 1001 93 5000 6.7 250 20:55 12.12.2020
4919 Drizzle 18 1001 93 5000 6.7 250 20:24 12.12.2020
4920 Drizzle 18 1000 93 6000 5.7 240 19:57 12.12.2020
4921 Rain 18 1000 93 6000 5.7 240 19:38 12.12.2020
4922 Drizzle 18 1000 93 3000 4.1 240 19:20 12.12.2020
4923 Drizzle 19 1000 93 8000 4.6 240 18:41 12.12.2020
4924 Rain 19 1001 93 8000 4.6 230 18:23 12.12.2020
4925 Drizzle 19 1001 93 8000 4.6 230 17:45 12.12.2020
4926 Clouds 20 1001 77 10000 5.1 240 16:55 12.12.2020
4927 Clouds 20 1001 77 10000 4.6 230 16:19 12.12.2020
4928 Clouds 21 1002 77 10000 5.7 230 15:44 12.12.2020
4929 Clouds 21 1002 77 10000 4.6 230 15:26 12.12.2020
4930 Clouds 21 1001 78 10000 5.7 220 14:44 12.12.2020
4931 Clouds 22 1001 78 10000 6.2 230 13:54 12.12.2020
4932 Clouds 21 1001 78 10000 6.2 230 13:36 12.12.2020
4933 Clouds 22 1001 78 10000 6.7 240 12:47 12.12.2020
4934 Clouds 23 1000 65 10000 5.7 260 11:43 12.12.2020
4935 Clear 26 999 57 10000 5.7 260 10:53 12.12.2020
4936 Clear 28 999 54 10000 6.2 250 09:32 12.12.2020
4937 Clear 29 999 40 10000 6.7 240 08:52 12.12.2020
4938 Clear 30 1002 42 10000 2.6 340 02:46 12.12.2020
4939 Clear 21 1002 77 10000 2.6 10 23:53 11.12.2020
4940 Clear 20 1002 82 10000 2.1 70 22:21 11.12.2020
4941 Clear 21 1003 82 10000 1.67 88 20:25 11.12.2020
4942 Clear 24 1004 64 10000 2.1 180 17:40 11.12.2020
4943 Clear 26 1005 54 10000 4.6 170 14:40 11.12.2020
4944 Clear 27 1005 51 10000 2.6 160 13:58 11.12.2020
4945 Clear 28 1005 48 10000 4.6 150 12:49 11.12.2020
4946 Rain 29 1004 45 10000 7.2 120 11:57 11.12.2020
4947 Clear 30 1004 45 10000 7.2 120 11:38 11.12.2020
4948 Clear 30 1004 42 10000 8.2 110 10:41 11.12.2020
4949 Clear 31 1005 43 10000 9.3 90 08:23 11.12.2020
4950 Clear 30 1006 42 10000 5.7 40 05:38 11.12.2020
4951 Clear 30 1007 42 10000 5.7 80 04:47 11.12.2020
4952 Clouds 27 1008 50 10000 6.7 50 01:20 11.12.2020
4953 Clear 25 1008 57 10000 5.7 70 23:37 10.12.2020
4954 Clear 24 1007 47 10000 5.7 70 21:59 10.12.2020
4955 Clear 25 1006 47 10000 6.2 80 21:29 10.12.2020
4956 Clear 25 1006 44 10000 4.1 80 20:38 10.12.2020
4957 Clear 25 1006 44 10000 5.7 90 19:37 10.12.2020
4958 Clear 26 1007 39 10000 6.7 80 18:50 10.12.2020
4959 Clear 27 1007 39 10000 6.2 60 17:45 10.12.2020
4960 Clear 27 1008 37 10000 6.7 70 16:24 10.12.2020
4961 Clear 28 1008 30 10000 6.2 90 15:24 10.12.2020
4962 Clear 28 1008 30 10000 7.7 80 14:47 10.12.2020
4963 Clear 30 1008 28 10000 8.7 80 14:24 10.12.2020
4964 Rain 31 1006 33 10000 4.1 100 12:33 10.12.2020
4965 Rain 33 1006 29 10000 6.7 100 10:59 10.12.2020
4966 Rain 35 1006 24 10000 8.7 70 08:44 10.12.2020
4967 Clear 35 1006 19 10000 10.3 50 07:34 10.12.2020
4968 Rain 35 1006 23 10000 9.8 30 06:33 10.12.2020
4969 Rain 32 1006 29 10000 7.7 20 02:50 10.12.2020
4970 Rain 30 1006 28 10000 4.6 30 01:50 10.12.2020
4971 Rain 25 1005 34 10000 6.7 60 23:45 09.12.2020
4972 Rain 25 1003 53 10000 6.7 70 20:40 09.12.2020
4973 Rain 24 1004 56 10000 3.1 50 19:46 09.12.2020
4974 Clear 23 1003 56 10000 4.6 100 18:42 09.12.2020
4975 Clear 24 1004 53 10000 3.1 110 17:35 09.12.2020
4976 Clear 24 1004 53 10000 4.6 120 16:40 09.12.2020
4977 Clear 25 1005 50 10000 4.6 130 16:20 09.12.2020
4978 Clear 25 1005 47 10000 5.1 190 14:51 09.12.2020
4979 Clear 26 1005 42 10000 4.6 160 14:27 09.12.2020
4980 Clear 27 1005 42 10000 6.7 160 13:37 09.12.2020
4981 Clear 27 1004 39 10000 8.7 150 13:18 09.12.2020
4982 Clear 28 1003 37 10000 10.8 160 12:31 09.12.2020
4983 Rain 30 1002 27 10000 9.3 180 11:37 09.12.2020
4984 Rain 33 1002 24 10000 7.2 170 09:52 09.12.2020
4985 Rain 35 1003 23 10000 5.7 170 08:41 09.12.2020
4986 Rain 33 1004 27 10000 3.1 120 06:50 09.12.2020
4987 Rain 31 1006 31 10000 3.1 210 05:28 09.12.2020
4988 Clear 27 1007 39 10000 5.1 190 02:41 09.12.2020
4989 Rain 23 1007 68 10000 2.6 190 00:37 09.12.2020
4990 Rain 20 1006 82 10000 4.97 171 23:34 08.12.2020
4991 Rain 19 1006 82 10000 3.6 20 22:22 08.12.2020
4992 Rain 21 1005 77 10000 3.1 20 20:39 08.12.2020
4993 Rain 22 1005 72 10000 3.1 50 19:31 08.12.2020
4994 Rain 24 1005 56 10000 4.6 40 18:36 08.12.2020
4995 Rain 24 1005 38 10000 4.6 210 17:18 08.12.2020
4996 Clear 26 1005 32 10000 6.7 200 15:22 08.12.2020
4997 Clear 27 1005 22 10000 8.2 200 13:49 08.12.2020
4998 Clear 29 1004 25 10000 7.2 210 12:41 08.12.2020
4999 Clear 32 1004 21 10000 7.7 210 11:53 08.12.2020
5000 Clear 35 1004 19 10000 9.3 220 10:54 08.12.2020
5001 Clear 35 1004 19 10000 9.3 220 10:34 08.12.2020
5002 Clear 36 1004 17 10000 9.3 230 09:38 08.12.2020
5003 Clear 40 1006 10 10000 3.1 280 07:35 08.12.2020
5004 Clear 36 1009 17 10000 5.1 70 04:42 08.12.2020
5005 Clear 28 1012 29 10000 5.7 70 01:48 08.12.2020
5006 Clear 24 1013 46 10000 5.7 60 00:44 08.12.2020
5007 Clear 19 1013 55 10000 6.2 70 22:56 07.12.2020
5008 Clear 20 1012 48 10000 7.2 70 22:19 07.12.2020
5009 Clear 20 1012 45 10000 7.7 80 20:57 07.12.2020
5010 Clear 23 1012 33 10000 9.8 100 18:58 07.12.2020
5011 Clear 23 1012 22 10000 8.2 100 17:38 07.12.2020
5012 Clear 22 1013 43 10000 2.1 70 17:18 07.12.2020
5013 Clear 21 1014 52 10000 4.1 220 16:23 07.12.2020
5014 Clear 22 1014 49 10000 5.7 200 15:24 07.12.2020
5015 Clear 23 1015 53 10000 6.2 170 14:28 07.12.2020
5016 Clear 25 1015 47 10000 4.6 180 13:35 07.12.2020
5017 Clear 31 1014 18 10000 5.7 150 11:52 07.12.2020
5018 Clear 31 1014 18 10000 5.7 150 11:32 07.12.2020
5019 Clear 33 1014 18 10000 5.7 140 10:22 07.12.2020
5020 Clear 33 1014 21 10000 4.6 90 08:32 07.12.2020
5021 Clear 31 1016 23 10000 3.6 120 06:51 07.12.2020
5022 Clear 29 1017 32 10000 6.2 120 05:21 07.12.2020
5023 Clear 23 1020 46 10000 9.3 90 02:18 07.12.2020
5024 Clear 18 1019 55 10000 10.8 90 00:31 07.12.2020
5025 Clear 16 1018 67 10000 12.3 100 22:45 06.12.2020
5026 Clear 16 1018 67 10000 11.8 100 21:44 06.12.2020
5027 Clear 17 1017 63 10000 13.4 100 20:35 06.12.2020
5028 Clear 18 1017 59 10000 11.3 100 19:57 06.12.2020
5029 Clear 19 1017 52 10000 6.7 120 18:52 06.12.2020
5030 Clear 18 1017 67 10000 3.1 210 17:23 06.12.2020
5031 Clear 18 1018 68 10000 3.6 190 15:53 06.12.2020
5032 Clear 19 1017 64 10000 5.1 210 13:59 06.12.2020
5033 Clear 20 1017 60 10000 6.2 210 12:52 06.12.2020
5034 Clear 20 1017 64 10000 6.2 210 12:23 06.12.2020
5035 Clear 22 1017 60 10000 7.7 220 11:35 06.12.2020
5036 Clear 23 1016 47 10000 7.7 220 10:55 06.12.2020
5037 Clear 24 1017 41 10000 7.2 220 10:24 06.12.2020
5038 Clear 24 1017 41 10000 8.7 220 08:37 06.12.2020
5039 Clear 25 1018 39 10000 6.2 260 06:51 06.12.2020
5040 Clear 20 1021 48 10000 2.6 100 02:21 06.12.2020
5041 Clear 17 1021 55 10000 3.6 160 00:42 06.12.2020
5042 Clear 17 1021 55 10000 3.6 160 00:42 06.12.2020
5043 Clear 16 1020 62 10000 5.1 180 00:23 06.12.2020
5044 Clear 13 1019 71 10000 5.1 190 22:47 05.12.2020
5045 Clear 13 1019 71 10000 4.1 200 22:20 05.12.2020
5046 Clear 13 1019 71 10000 5.1 200 21:50 05.12.2020
5047 Clear 13 1019 71 10000 5.1 200 21:26 05.12.2020
5048 Clear 13 1018 71 10000 5.1 210 19:43 05.12.2020
5049 Clear 14 1018 67 10000 6.7 190 18:40 05.12.2020
5050 Clear 15 1018 62 10000 6.2 200 17:33 05.12.2020
5051 Clear 16 1018 67 10000 7.7 200 16:31 05.12.2020
5052 Clear 17 1018 63 10000 6.7 200 15:54 05.12.2020
5053 Clear 17 1018 68 10000 6.7 210 14:27 05.12.2020
5054 Rain 19 1018 68 10000 7.7 220 12:23 05.12.2020
5055 Clear 20 1018 64 10000 8.2 220 11:41 05.12.2020
5056 Clear 21 1018 56 10000 8.7 220 10:31 05.12.2020
5057 Clear 22 1018 38 10000 8.2 230 07:48 05.12.2020
5058 Clear 22 1018 33 10000 4.1 250 06:40 05.12.2020
5059 Rain 21 1020 42 10000 2.6 210 03:54 05.12.2020
5060 Clouds 16 1020 67 10000 3.6 180 23:52 04.12.2020
5061 Rain 14 1019 93 10000 2.1 110 22:24 04.12.2020
5062 Clear 14 1018 82 10000 3.1 190 20:25 04.12.2020
5063 Rain 16 1018 72 10000 6.7 190 18:53 04.12.2020
5064 Clouds 16 1018 72 10000 3.6 180 18:18 04.12.2020
5065 Rain 16 1018 72 10000 3.6 190 17:26 04.12.2020
5066 Clouds 17 1018 67 10000 5.7 210 15:37 04.12.2020
5067 Clouds 18 1017 63 10000 7.2 210 13:40 04.12.2020
5068 Rain 18 1016 63 10000 5.7 230 13:21 04.12.2020
5069 Rain 19 1016 59 10000 8.2 230 12:49 04.12.2020
5070 Clouds 21 1015 52 10000 9.8 230 10:40 04.12.2020
5071 Rain 22 1014 52 10000 9.3 230 09:46 04.12.2020
5072 Rain 22 1015 53 10000 8.7 270 06:42 04.12.2020
5073 Rain 22 1015 49 10000 8.7 260 05:44 04.12.2020
5074 Rain 20 1015 59 10000 3.1 230 01:55 04.12.2020
5075 Rain 16 1014 77 10000 4.6 200 22:52 03.12.2020
5076 Rain 16 1014 77 10000 4.6 200 22:52 03.12.2020
5077 Clouds 16 1013 72 10000 5.7 210 22:22 03.12.2020
5078 Clouds 16 1012 82 10000 4.6 210 20:48 03.12.2020
5079 Rain 16 1012 82 10000 4.6 200 19:27 03.12.2020
5080 Clouds 17 1012 77 10000 5.1 210 18:49 03.12.2020
5081 Clouds 17 1012 82 10000 7.2 220 17:38 03.12.2020
5082 Rain 18 1012 77 10000 7.2 220 17:18 03.12.2020
5083 Rain 19 1012 77 10000 6.2 220 15:45 03.12.2020
5084 Rain 19 1012 77 10000 5.7 230 15:27 03.12.2020
5085 Clear 19 1011 77 10000 4.1 240 14:26 03.12.2020
5086 Clear 19 1011 68 10000 5.1 230 13:36 03.12.2020
5087 Rain 20 1011 64 10000 7.7 230 12:26 03.12.2020
5088 Rain 23 1011 50 10000 6.7 240 11:24 03.12.2020
5089 Clear 26 1010 39 10000 7.2 230 08:56 03.12.2020
5090 Clear 28 1012 32 10000 2.6 190 05:18 03.12.2020
5091 Clear 22 1015 49 10000 3.1 110 02:26 03.12.2020
5092 Clear 19 1015 59 10000 1.5 200 00:48 03.12.2020
5093 Clear 14 1015 71 10000 3.6 110 22:47 02.12.2020
5094 Clear 13 1015 71 10000 3.6 110 22:25 02.12.2020
5095 Rain 14 1014 76 10000 4.1 200 20:57 02.12.2020
5096 Clear 14 1014 82 10000 4.1 210 20:39 02.12.2020
5097 Rain 14 1015 82 10000 4.6 230 20:21 02.12.2020
5098 Clear 15 1015 82 10000 5.1 190 18:33 02.12.2020
5099 Clear 16 1015 82 10000 3.6 180 17:38 02.12.2020
5100 Clear 16 1016 77 10000 4.6 210 17:19 02.12.2020
5101 Clear 17 1017 72 10000 7.7 200 15:18 02.12.2020
5102 Clear 21 1016 35 10000 7.7 210 11:52 02.12.2020
5103 Rain 23 1015 29 10000 7.7 240 10:28 02.12.2020
5104 Clear 26 1015 26 10000 6.7 240 08:40 02.12.2020
5105 Clear 25 1018 29 10000 2.6 130 03:57 02.12.2020
5106 Clear 13 1018 62 10000 4.6 90 22:21 01.12.2020
5107 Clear 12 1018 87 10000 2.1 10 20:49 01.12.2020
5108 Clear 13 1019 76 10000 4.1 200 19:35 01.12.2020
5109 Clear 14 1020 76 10000 4.1 190 17:49 01.12.2020
5110 Clear 15 1021 63 10000 8.2 190 15:44 01.12.2020
5111 Clear 17 1021 59 10000 5.1 190 13:38 01.12.2020
5112 Clear 18 1020 45 10000 8.2 210 12:25 01.12.2020
5113 Clear 19 1020 42 10000 8.7 210 11:26 01.12.2020
5114 Clear 20 1020 42 10000 8.2 210 10:38 01.12.2020
5115 Clear 23 1020 27 10000 3.6 210 08:21 01.12.2020
5116 Clear 22 1022 33 10000 3.6 150 06:47 01.12.2020
5117 Clouds 17 1025 48 10000 5.1 130 01:52 01.12.2020
5118 Clouds 15 1025 58 10000 2.6 40 00:55 01.12.2020
5119 Clear 9 1024 93 10000 1.5 60 23:21 30.11.2020
5120 Clear 6 1023 93 10000 3.22 134 22:44 30.11.2020
5121 Clear 6 1023 93 10000 3.49 136 22:25 30.11.2020
5122 Clear 8 1022 81 10000 3.1 180 20:47 30.11.2020
5123 Clear 9 1022 81 10000 2.1 110 19:42 30.11.2020
5124 Clear 9 1022 81 10000 2.1 110 19:42 30.11.2020
5125 Clear 10 1021 71 10000 3.6 170 18:23 30.11.2020
5126 Clear 11 1021 71 10000 4.1 180 17:47 30.11.2020
5127 Clear 12 1021 76 10000 3.1 190 16:55 30.11.2020
5128 Clear 12 1021 76 10000 3.1 180 15:59 30.11.2020
5129 Clear 14 1020 58 10000 4.6 190 14:31 30.11.2020
5130 Clouds 15 1020 51 10000 5.7 210 13:42 30.11.2020
5131 Clouds 15 1019 51 10000 7.2 210 12:26 30.11.2020
5132 Clouds 16 1018 44 10000 8.7 200 11:57 30.11.2020
5133 Clouds 17 1017 39 10000 9.8 230 10:26 30.11.2020
5134 Clouds 18 1017 39 10000 10.3 230 09:45 30.11.2020
5135 Clouds 18 1016 37 10000 10.8 230 07:18 30.11.2020
5136 Rain 16 1011 63 10000 8.7 230 23:58 29.11.2020
5137 Rain 14 1009 93 5000 9.3 240 21:49 29.11.2020
5138 Rain 14 1009 93 5000 9.3 240 21:28 29.11.2020
5139 Clouds 17 1008 77 10000 4.1 280 19:49 29.11.2020
5140 Rain 16 1009 93 10000 4.1 270 17:47 29.11.2020
5141 Clouds 16 1010 87 10000 2.6 320 15:25 29.11.2020
5142 Rain 15 1010 82 10000 3.1 250 13:23 29.11.2020
5143 Rain 16 1010 82 10000 6.7 240 11:41 29.11.2020
5144 Clouds 19 1008 52 10000 6.2 240 09:42 29.11.2020
5145 Clouds 21 1009 49 10000 5.1 230 08:37 29.11.2020
5146 Clear 22 1010 35 10000 4.1 260 04:40 29.11.2020
5147 Clear 14 1011 62 10000 3.6 50 23:19 28.11.2020
5148 Clear 13 1011 62 10000 3.6 50 22:55 28.11.2020
5149 Clear 12 1011 87 10000 2.1 40 20:27 28.11.2020
5150 Clear 13 1012 81 10000 3.1 180 19:31 28.11.2020
5151 Clouds 14 1012 82 10000 2.6 170 18:59 28.11.2020
5152 Clear 14 1013 81 10000 2.6 160 18:23 28.11.2020
5153 Clear 14 1014 76 10000 3.1 180 17:33 28.11.2020
5154 Clear 15 1015 67 10000 5.1 200 15:56 28.11.2020
5155 Clear 17 1015 59 10000 6.7 200 13:58 28.11.2020
5156 Clear 19 1015 49 10000 8.2 220 11:29 28.11.2020
5157 Clear 22 1015 40 10000 8.7 230 09:27 28.11.2020
5158 Clouds 21 1018 40 10000 5.7 130 03:48 28.11.2020
5159 Clouds 18 1019 42 10000 6.2 170 01:54 28.11.2020
5160 Clear 12 1018 76 10000 4.1 200 23:22 27.11.2020
5161 Clear 11 1018 81 10000 3.6 180 22:38 27.11.2020
5162 Clear 12 1017 76 10000 3.1 180 20:40 27.11.2020
5163 Clear 13 1017 71 10000 3.6 180 19:34 27.11.2020
5164 Clear 14 1017 71 10000 4.1 180 18:57 27.11.2020
5165 Clear 16 1018 63 10000 7.7 200 16:55 27.11.2020
5166 Clear 16 1018 63 10000 7.7 200 16:55 27.11.2020
5167 Clear 16 1018 67 10000 5.1 170 16:55 27.11.2020
5168 Clouds 17 1017 59 10000 5.7 210 14:45 27.11.2020
5169 Clear 18 1016 59 10000 6.7 210 13:20 27.11.2020
5170 Clear 18 1015 59 10000 6.7 230 12:47 27.11.2020
5171 Clouds 19 1015 55 10000 8.7 220 11:34 27.11.2020
5172 Clouds 20 1014 56 10000 9.3 240 10:44 27.11.2020
5173 Clouds 21 1014 49 10000 8.7 230 09:51 27.11.2020
5174 Clouds 16 1015 71 10000 2.6 30 23:39 26.11.2020
5175 Clouds 15 1015 70 10000 4.56 162 22:25 26.11.2020
5176 Clouds 15 1013 67 10000 3.6 180 21:45 26.11.2020
5177 Clouds 15 1013 67 10000 4.1 190 20:43 26.11.2020
5178 Clouds 17 1013 59 10000 6.2 190 18:36 26.11.2020
5179 Clouds 17 1013 63 10000 5.7 190 17:20 26.11.2020
5180 Clouds 18 1013 63 10000 7.2 210 13:44 26.11.2020
5181 Clouds 18 1012 68 10000 9.3 210 12:57 26.11.2020
5182 Clouds 18 1012 68 10000 9.3 210 12:38 26.11.2020
5183 Clouds 21 1010 56 10000 9.3 220 10:46 26.11.2020
5184 Clouds 21 1010 53 10000 8.7 240 10:23 26.11.2020
5185 Clouds 22 1010 49 10000 8.2 240 09:34 26.11.2020
5186 Clouds 22 1010 56 10000 7.2 270 08:47 26.11.2020
5187 Clouds 22 1010 56 10000 7.2 270 08:28 26.11.2020
5188 Clear 22 1010 46 10000 4.6 360 02:18 26.11.2020
5189 Clear 15 1009 87 10000 2.6 60 22:18 25.11.2020
5190 Rain 16 1009 87 10000 2.1 70 20:32 25.11.2020
5191 Clear 16 1009 82 10000 3.1 60 18:59 25.11.2020
5192 Clear 16 1009 82 10000 3.1 60 18:59 25.11.2020
5193 Clear 17 1010 67 10000 2.6 210 17:28 25.11.2020
5194 Clear 19 1011 59 10000 4.1 210 15:43 25.11.2020
5195 Clear 19 1011 60 10000 5.1 210 14:57 25.11.2020
5196 Clear 20 1010 60 10000 5.7 220 13:45 25.11.2020
5197 Clear 21 1010 60 10000 5.7 220 12:47 25.11.2020
5198 Clear 24 1009 42 10000 7.2 230 11:22 25.11.2020
5199 Clear 28 1009 35 10000 6.7 160 09:20 25.11.2020
5200 Clear 27 1009 37 10000 5.7 210 08:50 25.11.2020
5201 Clear 28 1010 37 10000 2.6 220 07:20 25.11.2020
5202 Clouds 25 1013 50 10000 4.1 160 03:49 25.11.2020
5203 Clouds 21 1013 68 10000 4.6 190 01:48 25.11.2020
5204 Clouds 17 1013 82 10000 4.1 170 00:18 25.11.2020
5205 Clouds 17 1013 82 10000 4.1 180 23:35 24.11.2020
5206 Clear 15 1012 87 10000 4.6 190 22:38 24.11.2020
5207 Clear 16 1011 82 10000 5.1 190 21:34 24.11.2020
5208 Clear 16 1011 82 10000 5.7 190 20:55 24.11.2020
5209 Clear 17 1011 77 10000 5.1 190 19:47 24.11.2020
5210 Clear 18 1011 72 10000 6.2 190 17:32 24.11.2020
5211 Clear 18 1011 72 10000 6.7 180 16:57 24.11.2020
5212 Clear 19 1011 68 10000 7.7 190 16:37 24.11.2020
5213 Clear 19 1011 72 10000 7.2 190 15:55 24.11.2020
5214 Clear 19 1010 72 10000 5.7 210 15:19 24.11.2020
5215 Clear 20 1010 72 10000 7.2 210 14:44 24.11.2020
5216 Clouds 20 1009 68 10000 7.2 220 13:20 24.11.2020
5217 Clear 20 1009 64 10000 9.3 220 12:38 24.11.2020
5218 Clear 22 1009 60 10000 7.2 220 11:59 24.11.2020
5219 Clear 24 1008 41 10000 10.8 220 10:52 24.11.2020
5220 Clear 26 1008 34 10000 9.3 220 10:25 24.11.2020
5221 Clear 26 1008 36 10000 10.3 230 09:37 24.11.2020
5222 Clear 26 1008 32 10000 9.3 220 08:33 24.11.2020
5223 Clear 32 1007 20 10000 4.1 260 04:51 24.11.2020
5224 Clear 21 1009 52 10000 2.6 170 23:35 23.11.2020
5225 Clear 20 1008 37 10000 4.6 60 21:47 23.11.2020
5226 Clear 20 1008 37 10000 5.1 70 21:20 23.11.2020
5227 Clear 21 1008 38 10000 5.1 60 20:28 23.11.2020
5228 Clear 21 1009 38 10000 3.6 60 19:36 23.11.2020
5229 Clear 22 1011 46 10000 4.1 170 17:28 23.11.2020
5230 Clear 22 1011 63 10000 2.33 116 16:55 23.11.2020
5231 Clear 25 1013 38 10000 3.1 190 14:50 23.11.2020
5232 Clear 26 1013 31 10000 4.6 190 13:55 23.11.2020
5233 Clear 28 1012 25 10000 8.7 190 12:40 23.11.2020
5234 Clear 31 1012 20 10000 9.3 190 11:56 23.11.2020
5235 Clear 30 1012 20 10000 9.3 190 11:37 23.11.2020
5236 Clear 33 1012 17 10000 8.2 230 09:47 23.11.2020
5237 Clear 34 1013 18 10000 7.7 230 08:51 23.11.2020
5238 Clear 35 1014 24 10000 3.1 170 07:40 23.11.2020
5239 Clear 29 1019 32 10000 4.1 90 02:39 23.11.2020
5240 Clear 20 1019 48 10000 4.6 50 23:48 22.11.2020
5241 Clear 18 1018 45 10000 4.6 60 22:22 22.11.2020
5242 Clear 19 1018 39 10000 6.2 50 21:24 22.11.2020
5243 Clear 18 1018 37 10000 5.1 60 20:19 22.11.2020
5244 Clear 15 1018 87 10000 2.6 320 18:59 22.11.2020
5245 Clear 15 1019 82 10000 2.6 260 17:59 22.11.2020
5246 Clear 18 1019 68 10000 4.1 200 16:25 22.11.2020
5247 Clear 19 1020 64 10000 4.6 190 14:58 22.11.2020
5248 Clear 21 1019 64 10000 5.1 200 12:51 22.11.2020
5249 Clear 21 1019 64 10000 5.1 200 12:31 22.11.2020
5250 Clear 23 1019 53 10000 7.2 210 11:39 22.11.2020
5251 Clear 24 1019 50 10000 7.2 210 10:47 22.11.2020
5252 Clear 25 1018 39 10000 7.2 220 10:29 22.11.2020
5253 Clear 23 1023 49 10000 4.6 130 02:47 22.11.2020
5254 Rain 17 1022 63 10000 4.1 130 23:54 21.11.2020
5255 Rain 15 1021 67 10000 3.1 170 22:40 21.11.2020
5256 Rain 16 1019 67 10000 3.6 130 21:30 21.11.2020
5257 Rain 16 1019 63 10000 5.7 130 20:49 21.11.2020
5258 Clear 16 1019 67 10000 3.1 180 19:58 21.11.2020
5259 Rain 16 1019 77 10000 4.6 200 19:37 21.11.2020
5260 Clear 16 1019 77 10000 3.6 220 18:39 21.11.2020
5261 Clear 17 1019 77 10000 4.1 210 17:29 21.11.2020
5262 Clear 17 1019 77 10000 4.6 200 16:44 21.11.2020
5263 Clear 17 1020 72 10000 4.6 210 15:23 21.11.2020
5264 Clear 18 1020 68 10000 6.2 210 14:48 21.11.2020
5265 Clear 18 1020 68 10000 6.2 210 14:27 21.11.2020
5266 Clear 19 1019 68 10000 7.2 210 12:42 21.11.2020
5267 Clear 19 1019 64 10000 7.2 210 12:20 21.11.2020
5268 Clear 21 1017 49 10000 8.2 230 10:57 21.11.2020
5269 Clear 22 1018 49 10000 8.2 210 10:26 21.11.2020
5270 Clear 23 1017 44 10000 7.7 230 08:51 21.11.2020
5271 Rain 25 1017 39 10000 6.2 220 06:51 21.11.2020
5272 Rain 24 1018 47 10000 4.1 220 04:39 21.11.2020
5273 Clouds 19 1019 59 10000 4.6 200 01:32 21.11.2020
5274 Rain 16 1018 77 10000 3.6 210 23:59 20.11.2020
5275 Rain 13 1017 87 10000 4.1 210 22:26 20.11.2020
5276 Rain 14 1017 82 10000 2.6 200 21:42 20.11.2020
5277 Clouds 14 1016 87 10000 3.1 200 21:21 20.11.2020
5278 Clear 15 1016 82 10000 4.6 180 19:46 20.11.2020
5279 Clear 16 1016 82 10000 3.6 170 18:38 20.11.2020
5280 Clouds 17 1016 77 10000 4.1 210 17:52 20.11.2020
5281 Clouds 17 1017 77 10000 3.6 210 17:24 20.11.2020
5282 Clouds 18 1017 77 10000 4.6 220 16:38 20.11.2020
5283 Clouds 18 1017 77 10000 4.1 210 15:57 20.11.2020
5284 Clouds 18 1017 72 10000 5.1 210 15:25 20.11.2020
5285 Clouds 18 1016 68 10000 6.2 210 13:45 20.11.2020
5286 Clouds 18 1016 63 10000 5.7 210 13:18 20.11.2020
5287 Clouds 19 1016 68 10000 7.2 220 12:34 20.11.2020
5288 Clouds 20 1015 68 10000 6.2 220 11:45 20.11.2020
5289 Clouds 21 1014 72 10000 8.2 190 10:55 20.11.2020
5290 Clouds 23 1013 68 10000 8.2 250 08:53 20.11.2020
5291 Rain 23 1013 57 10000 6.7 280 08:25 20.11.2020
5292 Rain 24 1013 57 10000 6.7 270 07:32 20.11.2020
5293 Clouds 25 1014 47 10000 2.6 200 03:44 20.11.2020
5294 Clear 15 1014 93 10000 3.6 260 22:35 19.11.2020
5295 Clear 15 1013 93 10000 3.53 181 21:55 19.11.2020
5296 Clear 15 1014 87 10000 2.1 190 21:34 19.11.2020
5297 Clear 16 1014 87 10000 3.6 180 20:31 19.11.2020
5298 Clouds 16 1014 87 10000 4.6 190 19:49 19.11.2020
5299 Clouds 16 1014 87 10000 4.6 200 19:23 19.11.2020
5300 Clouds 17 1015 77 10000 5.7 200 17:39 19.11.2020
5301 Clear 17 1015 77 10000 4.1 210 16:48 19.11.2020
5302 Clear 17 1015 77 10000 5.1 200 15:32 19.11.2020
5303 Clear 18 1015 72 10000 5.1 210 14:39 19.11.2020
5304 Clear 18 1015 68 10000 5.7 210 13:45 19.11.2020
5305 Clear 19 1015 63 10000 6.2 210 12:58 19.11.2020
5306 Clear 19 1015 68 10000 5.7 230 12:34 19.11.2020
5307 Rain 20 1015 56 10000 7.2 230 11:42 19.11.2020
5308 Clear 21 1015 56 10000 7.2 230 11:23 19.11.2020
5309 Clear 22 1014 49 10000 6.7 240 10:51 19.11.2020
5310 Clear 22 1014 49 10000 7.2 220 09:54 19.11.2020
5311 Clear 23 1014 49 10000 7.2 220 09:36 19.11.2020
5312 Clear 23 1014 47 10000 6.7 240 09:18 19.11.2020
5313 Clear 23 1014 50 10000 6.7 260 07:59 19.11.2020
5314 Clouds 19 1017 63 10000 4.6 160 01:50 19.11.2020
5315 Clouds 17 1017 82 10000 2.1 100 00:33 19.11.2020
5316 Clouds 15 1017 93 10000 2.1 40 23:47 18.11.2020
5317 Clouds 14 1016 93 10000 2.1 60 23:23 18.11.2020
5318 Clouds 14 1016 100 10000 1.5 110 22:30 18.11.2020
5319 Clouds 14 1016 100 10000 1.5 110 22:30 18.11.2020
5320 Clouds 14 1016 93 10000 1 30 21:44 18.11.2020
5321 Clouds 14 1016 93 10000 1 30 21:26 18.11.2020
5322 Clouds 14 1015 93 10000 2.6 200 20:40 18.11.2020
5323 Clouds 14 1015 93 10000 3.6 190 19:44 18.11.2020
5324 Clear 14 1015 93 10000 3.6 190 19:22 18.11.2020
5325 Clear 14 1015 93 10000 3.6 190 19:22 18.11.2020
5326 Clear 14 1016 93 10000 2.6 190 18:45 18.11.2020
5327 Clear 14 1016 93 10000 2.6 190 18:45 18.11.2020
5328 Clouds 15 1016 87 10000 2.6 220 17:44 18.11.2020
5329 Clouds 16 1017 87 10000 2.6 240 16:52 18.11.2020
5330 Clouds 16 1017 82 10000 3.1 210 16:18 18.11.2020
5331 Clouds 18 1017 77 10000 3.1 220 14:41 18.11.2020
5332 Clouds 18 1017 72 10000 3.6 220 14:19 18.11.2020
5333 Clouds 19 1016 77 10000 4.1 230 13:22 18.11.2020
5334 Clouds 19 1016 68 10000 4.6 250 12:43 18.11.2020
5335 Clouds 21 1016 68 10000 5.7 240 11:51 18.11.2020
5336 Clouds 22 1015 60 10000 5.7 250 10:54 18.11.2020
5337 Clouds 23 1014 57 10000 4.6 260 10:27 18.11.2020
5338 Clouds 24 1014 64 10000 5.1 290 08:33 18.11.2020
5339 Clouds 23 1014 57 10000 6.2 280 06:41 18.11.2020
5340 Clouds 22 1015 64 10000 2.6 300 02:51 18.11.2020
5341 Clouds 19 1015 88 10000 2.6 50 00:18 18.11.2020
5342 Clouds 16 1014 93 10000 2.6 40 23:21 17.11.2020
5343 Clouds 15 1014 93 10000 1.5 50 22:29 17.11.2020
5344 Clouds 15 1014 93 10000 1.5 50 22:29 17.11.2020
5345 Clouds 16 1014 93 10000 2.1 20 21:58 17.11.2020
5346 Clouds 16 1014 93 10000 2.6 30 21:39 17.11.2020
5347 Clouds 16 1014 93 10000 2.6 30 20:58 17.11.2020
5348 Clouds 16 1013 93 10000 2.6 30 20:40 17.11.2020
5349 Clouds 16 1013 100 10000 2.6 40 20:22 17.11.2020
5350 Clouds 15 1013 93 10000 2.6 40 18:36 17.11.2020
5351 Clouds 16 1014 93 10000 2.73 234 17:47 17.11.2020
5352 Clouds 17 1014 87 10000 2.6 230 16:59 17.11.2020
5353 Clouds 17 1014 82 10000 2.6 240 16:20 17.11.2020
5354 Clouds 17 1014 77 10000 2.6 250 15:42 17.11.2020
5355 Clouds 17 1014 77 10000 3.1 260 15:23 17.11.2020
5356 Clouds 18 1014 77 10000 3.1 260 14:56 17.11.2020
5357 Clouds 18 1014 72 10000 3.1 240 14:28 17.11.2020
5358 Clouds 19 1014 72 10000 4.1 230 13:38 17.11.2020
5359 Clouds 19 1014 72 10000 5.7 230 12:57 17.11.2020
5360 Clouds 19 1014 68 10000 4.6 240 12:38 17.11.2020
5361 Clouds 20 1014 64 10000 5.1 250 11:43 17.11.2020
5362 Clouds 20 1013 60 10000 5.1 250 10:49 17.11.2020
5363 Clouds 20 1013 60 10000 5.1 260 10:23 17.11.2020
5364 Clouds 20 1013 60 10000 5.1 250 10:23 17.11.2020
5365 Clouds 20 1013 60 10000 4.6 270 09:50 17.11.2020
5366 Clouds 20 1013 60 10000 4.6 270 09:27 17.11.2020
5367 Clouds 21 1013 56 10000 5.7 270 08:22 17.11.2020
5368 Clouds 21 1013 52 10000 5.7 250 07:44 17.11.2020
5369 Clouds 22 1013 53 10000 3.6 240 05:21 17.11.2020
5370 Rain 22 1015 56 10000 3.1 310 03:31 17.11.2020
5371 Clouds 21 1015 60 10000 3.1 300 02:31 17.11.2020
5372 Clouds 18 1015 68 10000 3.1 30 00:57 17.11.2020
5373 Clouds 16 1015 77 10000 2.6 30 00:20 17.11.2020
5374 Clouds 15 1015 93 10000 2.6 20 23:41 16.11.2020
5375 Clouds 14 1014 93 10000 2.6 40 23:19 16.11.2020
5376 Clear 11 1014 93 10000 3.1 50 22:29 16.11.2020
5377 Clear 11 1014 93 10000 2.6 30 21:59 16.11.2020
5378 Clear 13 1014 93 10000 2.6 10 21:40 16.11.2020
5379 Clear 13 1014 93 10000 2.1 90 21:20 16.11.2020
5380 Clear 14 1014 87 10000 2.6 200 20:26 16.11.2020
5381 Clear 14 1015 93 10000 3.1 210 19:55 16.11.2020
5382 Clear 15 1015 93 10000 3.1 210 19:30 16.11.2020
5383 Clear 15 1015 82 10000 2.6 180 18:52 16.11.2020
5384 Clear 15 1015 87 10000 2.6 200 18:21 16.11.2020
5385 Clear 15 1015 87 10000 3.1 180 17:36 16.11.2020
5386 Clear 15 1016 87 10000 2.6 180 17:18 16.11.2020
5387 Clear 15 1016 82 10000 0.5 70 16:49 16.11.2020
5388 Clear 15 1016 82 10000 0.5 70 16:26 16.11.2020
5389 Clear 16 1017 72 10000 3.1 200 15:45 16.11.2020
5390 Clear 16 1017 72 10000 3.1 200 15:27 16.11.2020
5391 Clear 17 1018 72 10000 3.1 220 14:48 16.11.2020
5392 Clear 18 1018 63 10000 3.6 220 13:50 16.11.2020
5393 Clear 18 1018 63 10000 4.6 230 13:18 16.11.2020
5394 Clear 18 1018 59 10000 5.1 230 12:30 16.11.2020
5395 Clear 20 1017 56 10000 6.2 250 11:41 16.11.2020
5396 Clear 20 1017 49 10000 6.2 250 11:21 16.11.2020
5397 Clouds 21 1017 52 10000 5.7 250 10:44 16.11.2020
5398 Clear 22 1017 43 10000 5.1 260 10:26 16.11.2020
5399 Clear 23 1017 40 10000 4.6 260 09:50 16.11.2020
5400 Clear 23 1017 40 10000 4.6 260 09:25 16.11.2020
5401 Clear 24 1017 44 10000 5.7 240 08:42 16.11.2020
5402 Rain 24 1017 41 10000 4.1 270 07:53 16.11.2020
5403 Clear 23 1018 43 10000 4.6 280 06:54 16.11.2020
5404 Clear 23 1018 40 10000 5.1 250 06:35 16.11.2020
5405 Clear 23 1019 43 10000 3.1 320 04:53 16.11.2020
5406 Clouds 22 1020 46 10000 2.6 10 03:52 16.11.2020
5407 Clouds 19 1021 63 10000 2.6 30 01:44 16.11.2020
5408 Clear 15 1020 82 10000 3.6 40 00:20 16.11.2020
5409 Clear 13 1020 87 10000 3.1 10 23:28 15.11.2020
5410 Clouds 13 1020 87 10000 0.5 20 22:54 15.11.2020
5411 Clear 12 1020 87 10000 2.6 10 22:22 15.11.2020
5412 Clouds 12 1019 87 10000 2.6 20 21:47 15.11.2020
5413 Clouds 12 1019 87 10000 2.6 20 21:27 15.11.2020
5414 Clouds 13 1019 93 10000 2.1 30 20:48 15.11.2020
5415 Clouds 13 1019 93 10000 2.1 30 20:28 15.11.2020
5416 Clear 12 1019 87 10000 2.6 20 19:49 15.11.2020
5417 Clear 11 1019 87 10000 2.6 20 19:24 15.11.2020
5418 Clear 12 1019 87 10000 2.1 50 18:59 15.11.2020
5419 Clear 12 1019 87 10000 3.1 40 18:41 15.11.2020
5420 Clear 12 1020 87 10000 2.1 80 18:21 15.11.2020
5421 Clear 13 1020 81 10000 2.6 30 17:46 15.11.2020
5422 Clear 13 1020 81 10000 2.1 50 17:24 15.11.2020
5423 Clear 14 1020 82 10000 3.1 30 16:50 15.11.2020
5424 Clear 15 1020 76 10000 2.1 40 16:21 15.11.2020
5425 Clear 15 1020 76 10000 2.1 40 15:56 15.11.2020
5426 Clouds 15 1020 82 10000 2.1 360 15:29 15.11.2020
5427 Clouds 15 1020 82 10000 2.6 310 14:59 15.11.2020
5428 Clear 16 1020 71 10000 2.1 300 14:31 15.11.2020
5429 Clear 16 1020 59 10000 2.1 270 13:57 15.11.2020
5430 Clear 17 1019 55 10000 3.6 250 13:36 15.11.2020
5431 Clear 17 1019 48 10000 4.6 250 12:52 15.11.2020
5432 Clear 17 1019 48 10000 4.6 250 12:25 15.11.2020
5433 Clouds 18 1019 42 10000 5.1 260 11:47 15.11.2020
5434 Clouds 19 1018 45 10000 5.7 250 11:21 15.11.2020
5435 Clouds 19 1018 45 10000 5.7 250 10:54 15.11.2020
5436 Clouds 19 1018 48 10000 7.2 260 10:33 15.11.2020
5437 Clouds 19 1018 52 10000 7.2 240 09:59 15.11.2020
5438 Clouds 20 1018 49 10000 7.2 250 09:40 15.11.2020
5439 Clouds 20 1018 45 10000 7.7 250 09:19 15.11.2020
5440 Clouds 20 1018 42 10000 7.7 240 08:50 15.11.2020
5441 Clouds 20 1018 48 10000 7.2 240 07:48 15.11.2020
5442 Clouds 20 1018 42 10000 7.2 250 06:55 15.11.2020
5443 Clear 20 1017 40 10000 5.7 260 04:58 15.11.2020
5444 Clouds 19 1016 52 10000 7.7 260 02:43 15.11.2020
5445 Clear 17 1014 55 10000 6.7 250 00:45 15.11.2020
5446 Clouds 17 1014 63 10000 4.1 240 00:26 15.11.2020
5447 Clouds 16 1013 62 10000 2.6 270 23:34 14.11.2020
5448 Rain 14 1012 82 10000 2.6 230 22:46 14.11.2020
5449 Rain 14 1012 82 10000 2.6 230 22:46 14.11.2020
5450 Rain 14 1012 82 10000 2.6 230 22:28 14.11.2020
5451 Rain 14 1011 76 10000 3.6 260 21:41 14.11.2020
5452 Clouds 14 1011 67 10000 4.1 260 21:21 14.11.2020
5453 Clouds 14 1011 67 10000 6.2 250 20:50 14.11.2020
5454 Clouds 14 1011 67 10000 6.2 250 20:26 14.11.2020
5455 Rain 14 1011 87 10000 1.5 290 19:46 14.11.2020
5456 Rain 14 1011 87 10000 1.5 290 19:28 14.11.2020
5457 Rain 14 1011 76 10000 6.7 240 18:43 14.11.2020
5458 Rain 14 1010 71 10000 4.6 270 18:23 14.11.2020
5459 Clear 15 1010 67 10000 4.6 260 17:49 14.11.2020
5460 Clouds 15 1010 76 10000 5.1 260 17:31 14.11.2020
5461 Clouds 15 1010 76 10000 5.1 260 16:56 14.11.2020
5462 Rain 14 1010 93 10000 2.6 250 16:36 14.11.2020
5463 Rain 14 1010 87 9000 1.5 180 16:18 14.11.2020
5464 Rain 14 1010 87 10000 1.5 0 15:44 14.11.2020
5465 Rain 14 1010 76 10000 5.7 250 15:18 14.11.2020
5466 Clear 14 1009 87 10000 3.6 360 14:38 14.11.2020
5467 Clouds 14 1009 87 10000 3.1 350 14:20 14.11.2020
5468 Rain 14 1008 82 10000 3.6 290 13:40 14.11.2020
5469 Rain 14 1008 82 8000 8.7 260 13:21 14.11.2020
5470 Rain 15 1008 82 10000 2.6 290 12:43 14.11.2020
5471 Rain 16 1007 87 10000 3.6 260 12:23 14.11.2020
5472 Rain 16 1007 87 3000 5.7 280 11:41 14.11.2020
5473 Rain 15 1006 93 10000 5.1 260 11:22 14.11.2020
5474 Rain 16 1006 87 8000 5.1 270 10:41 14.11.2020
5475 Rain 17 1006 72 10000 4.1 300 10:23 14.11.2020
5476 Drizzle 17 1006 87 10000 4.6 310 09:45 14.11.2020
5477 Drizzle 18 1006 87 10000 4.6 310 09:27 14.11.2020
5478 Rain 17 1006 88 10000 4.6 270 08:48 14.11.2020
5479 Rain 18 1006 88 10000 4.6 270 08:23 14.11.2020
5480 Rain 20 1005 60 10000 6.7 290 07:42 14.11.2020
5481 Clouds 21 1005 52 10000 8.2 290 07:21 14.11.2020
5482 Rain 21 1005 82 10000 5.1 290 06:29 14.11.2020
5483 Rain 19 1006 82 10000 6.7 310 05:18 14.11.2020
5484 Rain 18 1005 77 10000 4.1 300 03:28 14.11.2020
5485 Rain 15 1005 93 10000 4.1 20 00:42 14.11.2020
5486 Rain 15 1005 93 8000 3.1 10 23:38 13.11.2020
5487 Rain 15 1004 100 10000 3.6 30 23:19 13.11.2020
5488 Rain 15 1004 100 10000 2.6 30 22:41 13.11.2020
5489 Rain 15 1004 100 10000 3.1 50 22:22 13.11.2020
5490 Rain 15 1004 100 10000 2.1 60 21:51 13.11.2020
5491 Rain 15 1004 100 10000 2.1 60 21:27 13.11.2020
5492 Rain 15 1005 100 10000 2.6 30 20:54 13.11.2020
5493 Clouds 15 1005 100 10000 1 20 20:33 13.11.2020
5494 Clouds 15 1005 93 10000 2.1 80 19:59 13.11.2020
5495 Rain 15 1005 93 10000 1.5 60 19:40 13.11.2020
5496 Clouds 15 1006 93 10000 1.5 320 19:22 13.11.2020
5497 Rain 15 1006 93 10000 2.1 340 18:44 13.11.2020
5498 Rain 15 1006 100 10000 2.1 30 17:47 13.11.2020
5499 Clouds 15 1007 93 10000 3.47 238 17:24 13.11.2020
5500 Clouds 15 1007 93 10000 3.47 238 16:59 13.11.2020
5501 Rain 15 1007 93 10000 1 280 16:40 13.11.2020
5502 Clouds 16 1007 93 10000 2.1 270 16:20 13.11.2020
5503 Rain 16 1008 87 10000 2.6 270 15:41 13.11.2020
5504 Clouds 16 1008 87 10000 2.6 290 15:21 13.11.2020
5505 Clouds 17 1008 82 10000 3.1 280 14:38 13.11.2020
5506 Rain 17 1008 88 10000 4.6 250 14:18 13.11.2020
5507 Clouds 17 1008 93 6000 2.6 280 13:32 13.11.2020
5508 Rain 17 1007 88 6000 4.6 280 12:59 13.11.2020
5509 Rain 17 1007 77 10000 3.6 270 12:40 13.11.2020
5510 Rain 18 1007 68 10000 3.1 280 12:22 13.11.2020
5511 Rain 19 1007 68 10000 4.1 270 11:47 13.11.2020
5512 Clouds 20 1007 68 10000 4.6 280 11:22 13.11.2020
5513 Rain 19 1007 60 10000 5.7 280 10:51 13.11.2020
5514 Rain 19 1007 60 10000 5.7 280 10:33 13.11.2020
5515 Rain 20 1007 60 10000 7.2 290 09:52 13.11.2020
5516 Rain 20 1007 60 10000 7.2 290 09:31 13.11.2020
5517 Rain 20 1007 64 10000 4.6 290 08:54 13.11.2020
5518 Clouds 20 1007 60 10000 6.2 290 08:29 13.11.2020
5519 Clouds 21 1007 64 10000 6.2 300 07:51 13.11.2020
5520 Clouds 21 1007 60 10000 5.1 250 07:27 13.11.2020
5521 Clouds 22 1008 56 10000 6.2 300 06:56 13.11.2020
5522 Clouds 22 1008 60 10000 5.1 280 06:37 13.11.2020
5523 Clouds 22 1008 64 10000 5.7 310 05:41 13.11.2020
5524 Clouds 19 1010 77 10000 2.1 310 03:44 13.11.2020
5525 Rain 17 1010 93 7000 3.6 170 01:42 13.11.2020
5526 Rain 17 1009 93 2000 0.5 20 00:37 13.11.2020
5527 Rain 16 1009 100 5000 3.6 10 23:50 12.11.2020
5528 Rain 17 1009 93 4000 2.1 350 23:21 12.11.2020
5529 Rain 17 1009 93 4000 2.1 350 22:55 12.11.2020
5530 Rain 17 1009 93 4000 3.1 350 22:37 12.11.2020
5531 Rain 18 1009 82 6000 3.1 350 21:59 12.11.2020
5532 Clouds 17 1009 87 10000 4.1 20 21:40 12.11.2020
5533 Clouds 18 1009 87 10000 4.1 10 21:22 12.11.2020
5534 Clouds 17 1009 82 10000 4.1 10 20:41 12.11.2020
5535 Clouds 17 1010 82 10000 4.1 20 20:23 12.11.2020
5536 Clouds 18 1010 82 10000 4.1 20 19:53 12.11.2020
5537 Clouds 18 1010 87 10000 3.6 30 19:34 12.11.2020
5538 Clouds 19 1010 77 10000 5.1 330 18:58 12.11.2020
5539 Clouds 18 1010 82 10000 3.6 20 18:39 12.11.2020
5540 Clouds 17 1011 82 10000 3.6 20 18:19 12.11.2020
5541 Clouds 17 1012 82 10000 3.6 20 17:40 12.11.2020
5542 Clouds 17 1012 82 10000 4.1 30 17:22 12.11.2020
5543 Clouds 17 1012 77 10000 3.1 10 16:45 12.11.2020
5544 Clouds 18 1013 77 10000 3.6 360 16:23 12.11.2020
5545 Clouds 18 1013 77 10000 3.6 360 15:52 12.11.2020
5546 Clouds 18 1013 68 10000 4.6 320 15:28 12.11.2020
5547 Clouds 18 1014 68 10000 4.1 310 14:47 12.11.2020
5548 Clouds 18 1014 68 10000 4.1 310 14:28 12.11.2020
5549 Clouds 18 1014 63 10000 3.6 320 13:58 12.11.2020
5550 Clouds 18 1014 63 10000 4.6 300 13:40 12.11.2020
5551 Clouds 19 1014 59 10000 4.6 300 13:19 12.11.2020
5552 Clouds 19 1014 59 10000 5.1 300 12:44 12.11.2020
5553 Clouds 19 1014 59 10000 5.7 290 12:24 12.11.2020
5554 Clouds 19 1014 59 10000 5.7 290 11:53 12.11.2020
5555 Clouds 20 1014 59 10000 5.7 310 11:30 12.11.2020
5556 Clouds 20 1013 52 10000 5.7 300 10:49 12.11.2020
5557 Clouds 20 1013 52 10000 5.7 300 10:29 12.11.2020
5558 Clouds 21 1013 49 10000 6.7 300 09:50 12.11.2020
5559 Clouds 21 1013 43 10000 5.1 300 09:25 12.11.2020
5560 Clouds 22 1013 43 10000 5.1 300 08:58 12.11.2020
5561 Clouds 22 1014 46 10000 5.1 290 08:39 12.11.2020
5562 Clouds 22 1014 49 10000 6.2 290 08:20 12.11.2020
5563 Clouds 21 1014 49 10000 6.2 290 08:20 12.11.2020
5564 Clouds 21 1014 49 10000 6.2 290 07:52 12.11.2020
5565 Clouds 21 1014 43 10000 7.2 290 07:25 12.11.2020
5566 Clear 22 1015 43 10000 5.7 270 06:51 12.11.2020
5567 Clear 22 1015 37 10000 4.6 270 05:38 12.11.2020
5568 Clouds 20 1016 45 10000 4.6 300 03:24 12.11.2020
5569 Clouds 20 1016 48 10000 2.6 310 02:53 12.11.2020
5570 Rain 13 1017 81 10000 3.6 40 00:22 12.11.2020
5571 Clear 11 1017 87 10000 3.1 30 23:26 11.11.2020
5572 Rain 8 1016 93 10000 2.6 30 22:59 11.11.2020
5573 Clear 7 1016 93 10000 2.6 10 22:40 11.11.2020
5574 Rain 7 1016 87 10000 2.6 10 22:21 11.11.2020
5575 Clear 7 1016 87 10000 2.6 10 21:54 11.11.2020
5576 Rain 8 1016 93 10000 3.1 360 21:36 11.11.2020
5577 Rain 8 1016 87 10000 3.1 10 21:18 11.11.2020
5578 Rain 9 1016 87 10000 3.1 30 20:41 11.11.2020
5579 Rain 9 1016 93 10000 3.1 30 20:21 11.11.2020
5580 Rain 8 1016 93 10000 2.6 30 19:49 11.11.2020
5581 Rain 9 1016 93 10000 2.6 30 19:31 11.11.2020
5582 Rain 10 1017 93 10000 2.6 10 18:55 11.11.2020
5583 Rain 10 1017 93 10000 2.1 350 18:35 11.11.2020
5584 Clear 10 1017 87 10000 1.68 177 17:43 11.11.2020
5585 Clear 11 1018 87 10000 2.1 70 17:23 11.11.2020
5586 Clear 11 1018 87 10000 2.1 70 16:56 11.11.2020
5587 Clear 11 1018 81 10000 2.1 100 16:35 11.11.2020
5588 Clear 12 1018 81 10000 2.1 110 15:53 11.11.2020
5589 Clear 12 1019 76 10000 2.6 190 15:27 11.11.2020
5590 Clear 13 1019 67 10000 3.1 200 15:00 11.11.2020
5591 Clear 13 1019 67 10000 3.1 220 14:39 11.11.2020
5592 Rain 14 1019 62 10000 2.6 210 14:18 11.11.2020
5593 Clear 14 1018 58 10000 3.6 210 13:43 11.11.2020
5594 Rain 15 1019 55 10000 4.1 240 12:52 11.11.2020
5595 Clear 16 1018 48 10000 4.6 250 12:21 11.11.2020
5596 Clear 17 1017 48 10000 4.6 270 11:50 11.11.2020
5597 Clear 17 1017 48 10000 4.6 270 11:50 11.11.2020
5598 Clear 17 1017 48 10000 4.6 270 11:30 11.11.2020
5599 Clear 19 1017 42 10000 5.7 270 10:43 11.11.2020
5600 Clear 19 1017 42 10000 5.7 270 10:25 11.11.2020
5601 Rain 20 1017 42 10000 5.1 270 09:52 11.11.2020
5602 Clear 19 1017 42 10000 3.6 240 09:29 11.11.2020
5603 Rain 20 1017 40 10000 5.7 240 08:57 11.11.2020
5604 Clouds 19 1017 42 10000 5.1 210 08:36 11.11.2020
5605 Clouds 20 1017 49 10000 5.7 220 08:18 11.11.2020
5606 Clouds 19 1017 45 10000 7.2 270 07:41 11.11.2020
5607 Clear 19 1018 42 10000 6.2 220 06:30 11.11.2020
5608 Clouds 19 1018 42 10000 4.1 230 04:48 11.11.2020
5609 Clear 15 1019 62 10000 2.6 60 01:36 11.11.2020
5610 Clear 14 1019 71 10000 2.6 40 00:55 11.11.2020
5611 Clear 13 1018 87 10000 2.6 10 00:22 11.11.2020
5612 Rain 11 1018 93 10000 2.6 80 23:25 10.11.2020
5613 Clear 10 1018 93 10000 2.1 30 22:59 10.11.2020
5614 Rain 10 1017 87 10000 1.5 130 22:37 10.11.2020
5615 Rain 10 1017 87 10000 2.1 130 22:19 10.11.2020
5616 Rain 10 1017 87 10000 2.1 130 22:19 10.11.2020
5617 Rain 11 1017 93 10000 2.57 133 21:40 10.11.2020
5618 Rain 11 1017 81 10000 2.1 150 21:22 10.11.2020
5619 Rain 10 1017 93 10000 1.5 40 20:43 10.11.2020
5620 Rain 10 1018 93 10000 2.1 360 20:23 10.11.2020
5621 Clear 10 1018 93 10000 2.1 360 19:57 10.11.2020
5622 Clouds 10 1017 81 10000 2.6 160 19:39 10.11.2020
5623 Rain 10 1017 87 10000 2.92 170 19:20 10.11.2020
5624 Rain 11 1017 87 10000 2.92 170 18:41 10.11.2020
5625 Clear 12 1018 87 10000 2.1 70 18:21 10.11.2020
5626 Rain 13 1018 81 10000 2.6 100 17:47 10.11.2020
5627 Clear 13 1018 81 10000 2.6 100 17:28 10.11.2020
5628 Clear 13 1018 76 10000 1.5 40 16:58 10.11.2020
5629 Rain 13 1018 76 10000 1.5 70 16:39 10.11.2020
5630 Rain 13 1018 76 10000 2.6 190 16:20 10.11.2020
5631 Rain 14 1018 67 10000 3.1 190 15:47 10.11.2020
5632 Clouds 14 1018 67 10000 3.1 190 15:27 10.11.2020
5633 Rain 14 1018 62 10000 4.1 180 14:43 10.11.2020
5634 Rain 14 1018 58 10000 5.1 190 14:23 10.11.2020
5635 Rain 14 1018 58 10000 5.1 190 13:58 10.11.2020
5636 Clouds 15 1017 58 10000 5.1 200 13:37 10.11.2020
5637 Clear 15 1017 58 10000 5.7 210 13:18 10.11.2020
5638 Clouds 15 1017 62 10000 6.7 210 12:44 10.11.2020
5639 Clouds 15 1016 59 10000 6.7 200 12:24 10.11.2020
5640 Clouds 16 1016 59 10000 8.2 210 11:41 10.11.2020
5641 Clouds 16 1016 51 10000 6.2 210 11:21 10.11.2020
5642 Clouds 17 1016 59 10000 6.7 210 10:46 10.11.2020
5643 Clouds 17 1016 59 10000 6.7 210 10:27 10.11.2020
5644 Clouds 17 1015 51 10000 9.3 220 09:55 10.11.2020
5645 Clear 16 1015 55 10000 8.7 230 09:37 10.11.2020
5646 Clear 17 1015 48 10000 8.2 240 09:19 10.11.2020
5647 Clouds 17 1014 51 10000 8.2 230 08:45 10.11.2020
5648 Clouds 18 1014 51 10000 8.2 230 08:24 10.11.2020
5649 Rain 18 1015 52 10000 6.2 230 07:42 10.11.2020
5650 Rain 18 1015 59 10000 8.7 240 07:20 10.11.2020
5651 Clouds 18 1015 52 10000 8.7 230 06:39 10.11.2020
5652 Rain 17 1014 72 10000 7.7 250 05:34 10.11.2020
5653 Rain 17 1014 72 10000 7.7 220 04:36 10.11.2020
5654 Rain 15 1013 59 9000 7.7 220 01:41 10.11.2020
5655 Rain 15 1012 67 10000 7.7 210 00:55 10.11.2020
5656 Rain 13 1011 71 10000 7.2 190 23:51 09.11.2020
5657 Rain 12 1010 66 10000 6.7 270 23:23 09.11.2020
5658 Rain 13 1010 66 10000 7.2 210 22:42 09.11.2020
5659 Rain 13 1009 62 10000 6.7 240 22:22 09.11.2020
5660 Rain 13 1009 71 10000 6.7 230 21:45 09.11.2020
5661 Rain 13 1008 66 10000 6.7 240 21:27 09.11.2020
5662 Rain 13 1008 71 10000 9.3 240 20:44 09.11.2020
5663 Clouds 13 1008 76 10000 4.6 240 20:22 09.11.2020
5664 Clouds 12 1008 93 10000 3.1 240 19:49 09.11.2020
5665 Clouds 12 1008 93 10000 3.1 240 19:49 09.11.2020
5666 Clouds 12 1008 93 10000 3.1 240 19:24 09.11.2020
5667 Clouds 13 1008 93 10000 2.6 20 18:58 09.11.2020
5668 Clouds 12 1008 93 10000 3.1 360 18:39 09.11.2020
5669 Rain 12 1008 93 10000 2.6 240 18:19 09.11.2020
5670 Clouds 11 1007 93 10000 2.6 40 17:44 09.11.2020
5671 Rain 11 1008 93 10000 3.1 210 17:25 09.11.2020
5672 Rain 11 1008 93 4000 6.2 200 16:44 09.11.2020
5673 Rain 12 1007 81 10000 9.8 200 16:23 09.11.2020
5674 Rain 13 1007 67 10000 4.6 270 15:45 09.11.2020
5675 Clouds 13 1007 67 10000 4.6 270 15:25 09.11.2020
5676 Clouds 13 1007 71 10000 10.3 250 14:49 09.11.2020
5677 Clouds 13 1007 71 10000 10.3 250 14:28 09.11.2020
5678 Rain 14 1006 67 10000 6.2 270 13:53 09.11.2020
5679 Rain 14 1006 67 10000 7.2 270 13:28 09.11.2020
5680 Rain 14 1006 67 10000 7.7 270 12:58 09.11.2020
5681 Rain 14 1005 67 10000 6.2 280 12:40 09.11.2020
5682 Rain 14 1005 67 9000 7.7 280 12:20 09.11.2020
5683 Rain 15 1005 51 10000 8.7 290 11:42 09.11.2020
5684 Rain 16 1004 59 10000 8.7 290 11:24 09.11.2020
5685 Rain 16 1004 67 10000 7.7 280 10:44 09.11.2020
5686 Rain 16 1004 72 10000 7.7 280 10:25 09.11.2020
5687 Rain 16 1004 72 10000 7.7 280 09:54 09.11.2020
5688 Rain 16 1004 77 10000 4.6 290 09:29 09.11.2020
5689 Rain 16 1004 87 8000 6.7 290 08:50 09.11.2020
5690 Rain 15 1004 87 7000 7.2 270 08:27 09.11.2020
5691 Rain 15 1004 87 2000 9.3 260 07:44 09.11.2020
5692 Clouds 16 1003 87 4100 7.2 260 07:22 09.11.2020
5693 Rain 16 1003 88 7000 6.7 270 06:51 09.11.2020
5694 Rain 17 1004 88 6000 6.7 300 03:51 09.11.2020
5695 Rain 19 1004 68 10000 8.7 360 01:57 09.11.2020
5696 Clouds 19 1005 77 10000 7.2 360 01:39 09.11.2020
5697 Rain 18 1006 82 10000 5.7 10 00:35 09.11.2020
5698 Clouds 16 1006 82 10000 4.6 20 23:40 08.11.2020
5699 Clouds 16 1006 87 10000 3.6 10 23:22 08.11.2020
5700 Clouds 16 1006 87 10000 4.1 20 22:42 08.11.2020
5701 Clouds 15 1006 93 10000 4.1 20 22:21 08.11.2020
5702 Clouds 15 1006 93 10000 3.6 10 21:45 08.11.2020
5703 Clouds 14 1006 87 10000 4.1 30 21:21 08.11.2020
5704 Clouds 14 1006 87 10000 4.1 30 20:56 08.11.2020
5705 Clouds 14 1006 93 10000 3.6 50 20:38 08.11.2020
5706 Clouds 14 1006 93 10000 2.6 30 20:19 08.11.2020
5707 Clouds 14 1006 93 10000 2.1 30 19:43 08.11.2020
5708 Clouds 14 1007 93 10000 2.1 30 19:21 08.11.2020
5709 Clear 14 1007 93 10000 2.6 30 18:49 08.11.2020
5710 Clear 14 1007 87 10000 2.1 40 18:22 08.11.2020
5711 Clear 14 1007 87 10000 2.1 40 17:59 08.11.2020
5712 Clear 14 1008 87 10000 2.6 40 17:41 08.11.2020
5713 Clear 14 1008 93 10000 3.1 60 17:20 08.11.2020
5714 Clear 15 1009 87 10000 2.26 284 16:56 08.11.2020
5715 Clear 15 1009 93 10000 2.1 360 16:37 08.11.2020
5716 Clear 15 1009 93 10000 2.6 310 16:18 08.11.2020
5717 Clear 16 1009 87 10000 2.1 300 15:43 08.11.2020
5718 Clear 16 1010 82 10000 2.6 290 15:23 08.11.2020
5719 Clear 17 1010 72 10000 2.6 280 14:42 08.11.2020
5720 Clear 17 1010 68 10000 3.6 270 14:22 08.11.2020
5721 Clouds 18 1010 72 10000 3.1 260 13:47 08.11.2020
5722 Clouds 18 1010 68 10000 4.1 250 13:24 08.11.2020
5723 Clouds 19 1009 68 10000 4.6 240 12:46 08.11.2020
5724 Clouds 19 1010 68 10000 3.6 250 12:28 08.11.2020
5725 Clouds 19 1010 68 10000 3.6 250 11:58 08.11.2020
5726 Clouds 19 1010 68 10000 3.6 250 11:58 08.11.2020
5727 Clouds 20 1010 64 10000 4.1 260 11:40 08.11.2020
5728 Clouds 20 1009 60 10000 5.1 270 11:20 08.11.2020
5729 Clouds 21 1009 56 10000 5.7 230 10:50 08.11.2020
5730 Clouds 22 1009 60 10000 6.2 240 10:19 08.11.2020
5731 Clouds 22 1009 60 10000 5.7 250 09:44 08.11.2020
5732 Clouds 22 1009 64 10000 6.7 240 09:24 08.11.2020
5733 Clouds 22 1009 64 10000 6.7 240 08:58 08.11.2020
5734 Clouds 22 1009 60 10000 6.2 240 08:39 08.11.2020
5735 Clouds 22 1009 60 10000 6.2 240 08:39 08.11.2020
5736 Clouds 23 1009 53 10000 6.7 250 08:18 08.11.2020
5737 Clouds 23 1009 53 10000 6.7 250 07:51 08.11.2020
5738 Clouds 23 1009 57 10000 6.2 260 07:21 08.11.2020
5739 Clouds 24 1010 53 10000 5.7 270 05:56 08.11.2020
5740 Clouds 24 1010 53 10000 5.1 310 05:31 08.11.2020
5741 Clouds 24 1010 53 10000 4.6 270 04:31 08.11.2020
5742 Clouds 22 1011 68 10000 1.5 240 01:51 08.11.2020
5743 Clouds 20 1011 77 10000 2.93 231 01:18 08.11.2020
5744 Clouds 20 1011 77 10000 2.93 231 01:18 08.11.2020
5745 Clouds 18 1011 77 10000 1 360 00:27 08.11.2020
5746 Clouds 18 1011 77 10000 1 360 00:27 08.11.2020
5747 Clouds 17 1011 93 10000 2.6 30 23:46 07.11.2020
5748 Clouds 16 1011 93 10000 2.6 30 23:28 07.11.2020
5749 Clouds 16 1010 87 10000 2.1 50 22:43 07.11.2020
5750 Clouds 16 1010 87 10000 2.1 20 22:25 07.11.2020
5751 Clouds 16 1010 93 10000 2.1 10 21:46 07.11.2020
5752 Clouds 16 1010 87 10000 2.1 40 21:22 07.11.2020
5753 Clouds 16 1010 87 10000 2.1 40 20:55 07.11.2020
5754 Clouds 16 1010 93 10000 2.1 80 20:36 07.11.2020
5755 Clouds 16 1010 87 10000 2.1 90 20:18 07.11.2020
5756 Clouds 16 1010 93 10000 2.1 80 19:39 07.11.2020
5757 Clouds 16 1011 93 10000 2.1 150 19:20 07.11.2020
5758 Clouds 16 1011 87 10000 2.6 210 18:39 07.11.2020
5759 Clear 17 1011 82 10000 3.1 220 18:20 07.11.2020
5760 Clear 17 1011 82 10000 3.1 210 17:45 07.11.2020
5761 Clear 17 1011 82 10000 3.1 210 17:25 07.11.2020
5762 Clear 18 1011 77 10000 5.1 190 16:43 07.11.2020
5763 Clear 18 1011 77 10000 5.1 190 16:24 07.11.2020
5764 Clear 19 1012 72 10000 4.6 210 15:47 07.11.2020
5765 Clear 19 1012 72 10000 4.6 210 15:24 07.11.2020
5766 Clear 19 1012 72 10000 4.6 210 14:56 07.11.2020
5767 Clear 19 1012 68 10000 5.1 210 14:38 07.11.2020
5768 Clear 20 1012 64 10000 4.6 210 14:19 07.11.2020
5769 Clear 20 1012 60 10000 5.1 230 13:39 07.11.2020
5770 Clear 20 1012 60 10000 5.1 230 13:39 07.11.2020
5771 Clear 20 1012 60 10000 4.1 220 13:21 07.11.2020
5772 Clear 21 1011 60 10000 3.6 220 12:33 07.11.2020
5773 Clear 23 1010 41 10000 5.1 230 11:45 07.11.2020
5774 Clear 24 1010 41 10000 5.1 230 11:25 07.11.2020
5775 Clear 25 1010 39 10000 5.7 210 10:56 07.11.2020
5776 Clear 26 1010 36 10000 5.7 230 10:38 07.11.2020
5777 Clear 26 1010 36 10000 5.1 240 10:20 07.11.2020
5778 Clear 26 1010 36 10000 6.7 250 09:47 07.11.2020
5779 Clear 27 1010 42 10000 7.2 250 09:21 07.11.2020
5780 Clear 27 1010 37 10000 7.7 240 08:43 07.11.2020
5781 Clear 27 1010 37 10000 7.2 240 08:22 07.11.2020
5782 Clear 28 1010 32 10000 5.7 250 07:37 07.11.2020
5783 Clear 29 1010 32 10000 3.1 180 06:48 07.11.2020
5784 Clear 28 1011 36 10000 3.6 230 05:40 07.11.2020
5785 Clear 25 1013 44 10000 5.7 90 03:25 07.11.2020
5786 Clear 23 1013 49 10000 6.2 90 02:28 07.11.2020
5787 Clear 21 1014 56 10000 5.7 80 01:26 07.11.2020
5788 Clear 19 1014 63 10000 7.2 70 00:29 07.11.2020
5789 Clear 18 1014 67 10000 7.7 70 23:32 06.11.2020
5790 Clear 17 1014 72 10000 6.2 60 22:46 06.11.2020
5791 Clear 17 1014 67 10000 7.2 70 22:20 06.11.2020
5792 Clear 17 1014 67 10000 7.2 70 21:59 06.11.2020
5793 Clear 17 1014 63 10000 7.7 70 21:40 06.11.2020
5794 Clear 17 1014 63 10000 8.2 80 21:18 06.11.2020
5795 Clear 17 1014 63 10000 8.2 80 20:43 06.11.2020
5796 Clear 17 1014 63 10000 8.2 80 20:20 06.11.2020
5797 Clear 18 1014 63 10000 8.7 80 19:45 06.11.2020
5798 Clear 17 1014 63 10000 8.7 80 19:27 06.11.2020
5799 Clear 18 1015 63 10000 7.2 80 18:47 06.11.2020
5800 Clear 18 1015 63 10000 7.2 80 18:28 06.11.2020
5801 Clear 18 1016 59 10000 4.6 60 17:52 06.11.2020
5802 Clear 18 1016 59 10000 4.6 60 17:34 06.11.2020
5803 Clear 18 1016 59 10000 5.1 70 16:59 06.11.2020
5804 Clear 19 1016 59 10000 6.2 70 16:37 06.11.2020
5805 Clear 19 1017 59 10000 7.2 70 16:19 06.11.2020
5806 Clear 20 1017 56 10000 5.1 50 15:33 06.11.2020
5807 Clear 20 1017 56 10000 5.1 90 14:55 06.11.2020
5808 Clear 21 1016 52 10000 6.2 80 14:29 06.11.2020
5809 Clear 22 1016 49 10000 4.6 90 13:54 06.11.2020
5810 Clear 22 1016 49 10000 4.6 90 13:26 06.11.2020
5811 Clear 23 1016 46 10000 6.7 70 12:56 06.11.2020
5812 Clear 23 1016 46 10000 5.7 90 12:38 06.11.2020
5813 Clear 23 1016 46 10000 5.7 90 12:38 06.11.2020
5814 Clear 24 1016 41 10000 6.7 90 12:18 06.11.2020
5815 Clear 25 1016 41 10000 7.2 80 11:37 06.11.2020
5816 Clear 26 1015 36 10000 7.2 80 10:58 06.11.2020
5817 Clear 27 1015 34 10000 8.7 90 10:34 06.11.2020
5818 Clear 27 1015 34 10000 8.7 100 09:55 06.11.2020
5819 Clear 28 1015 34 10000 8.2 100 09:36 06.11.2020
5820 Clear 28 1015 34 10000 8.2 80 09:18 06.11.2020
5821 Clear 28 1015 34 10000 8.2 90 08:46 06.11.2020
5822 Clear 28 1015 34 10000 7.7 110 08:19 06.11.2020
5823 Clear 28 1015 34 10000 7.7 80 07:42 06.11.2020
5824 Clear 28 1015 34 10000 7.2 100 07:18 06.11.2020
5825 Clear 28 1016 35 10000 7.2 110 06:40 06.11.2020
5826 Clear 27 1016 36 10000 6.2 90 05:37 06.11.2020
5827 Clear 22 1018 49 10000 8.7 100 01:59 06.11.2020
5828 Clear 19 1017 55 10000 5.1 130 00:29 06.11.2020
5829 Clear 18 1017 55 10000 4.6 100 23:50 05.11.2020
5830 Clear 17 1017 59 10000 7.2 80 23:20 05.11.2020
5831 Clear 16 1017 59 10000 3.6 90 22:44 05.11.2020
5832 Clear 16 1017 59 10000 5.1 140 22:25 05.11.2020
5833 Clear 16 1017 59 10000 5.1 140 21:56 05.11.2020
5834 Clear 17 1017 55 10000 5.1 130 21:38 05.11.2020
5835 Clear 17 1017 55 10000 5.7 130 21:18 05.11.2020
5836 Clear 17 1016 55 10000 4.6 120 20:42 05.11.2020
5837 Rain 18 1016 52 10000 10.8 110 20:21 05.11.2020
5838 Clear 19 1015 48 10000 9.8 110 19:44 05.11.2020
5839 Clear 19 1015 48 10000 9.8 110 19:25 05.11.2020
5840 Rain 20 1016 48 10000 9.8 100 18:55 05.11.2020
5841 Clear 20 1016 45 10000 11.8 100 18:37 05.11.2020
5842 Rain 20 1016 45 10000 11.3 100 18:18 05.11.2020
5843 Clear 21 1016 43 10000 12.3 100 17:41 05.11.2020
5844 Clear 22 1017 40 10000 12.3 100 17:23 05.11.2020
5845 Rain 23 1016 33 10000 10.8 110 16:45 05.11.2020
5846 Clear 23 1016 33 10000 10.8 110 16:24 05.11.2020
5847 Clear 23 1016 31 10000 8.7 110 15:50 05.11.2020
5848 Clear 23 1016 31 10000 8.7 110 15:50 05.11.2020
5849 Clear 23 1016 31 10000 8.7 110 15:26 05.11.2020
5850 Clear 23 1016 31 10000 6.2 110 14:50 05.11.2020
5851 Clear 24 1016 31 10000 6.2 110 14:31 05.11.2020
5852 Clear 24 1016 31 10000 6.2 110 14:31 05.11.2020
5853 Rain 23 1016 43 10000 3.1 170 13:51 05.11.2020
5854 Clear 22 1016 43 10000 3.1 170 13:33 05.11.2020
5855 Clear 23 1016 60 10000 2.6 250 12:54 05.11.2020
5856 Clear 23 1016 60 10000 2.6 250 12:30 05.11.2020
5857 Rain 24 1016 50 10000 3.6 260 11:58 05.11.2020
5858 Clear 25 1016 42 10000 2.6 280 11:38 05.11.2020
5859 Clear 26 1016 44 10000 3.6 280 11:19 05.11.2020
5860 Clear 28 1016 42 10000 5.1 290 10:45 05.11.2020
5861 Clear 28 1016 42 10000 5.1 290 10:26 05.11.2020
5862 Clear 29 1016 27 10000 4.1 160 09:48 05.11.2020
5863 Clear 29 1016 27 10000 2.6 110 09:23 05.11.2020
5864 Clear 29 1016 27 10000 4.1 100 08:45 05.11.2020
5865 Clear 30 1016 27 10000 4.1 100 08:26 05.11.2020
5866 Clear 29 1016 30 10000 5.1 140 07:42 05.11.2020
5867 Clear 29 1017 30 10000 4.6 140 07:22 05.11.2020
5868 Clear 29 1017 35 10000 6.2 160 06:42 05.11.2020
5869 Rain 28 1018 34 10000 4.6 90 05:53 05.11.2020
5870 Clear 19 1022 52 10000 7.7 80 01:38 05.11.2020
5871 Clear 17 1022 58 10000 10.3 90 00:33 05.11.2020
5872 Clear 15 1021 58 10000 9.3 90 23:45 04.11.2020
5873 Clear 15 1021 58 10000 9.3 90 23:45 04.11.2020
5874 Clear 14 1021 58 10000 9.3 90 23:26 04.11.2020
5875 Clear 13 1021 62 10000 8.2 90 22:53 04.11.2020
5876 Clear 13 1021 62 10000 8.2 90 22:27 04.11.2020
5877 Clear 13 1021 62 10000 11.3 100 21:58 04.11.2020
5878 Clear 14 1021 58 10000 11.8 100 21:37 04.11.2020
5879 Clear 14 1021 58 10000 10.3 100 21:18 04.11.2020
5880 Clear 14 1021 58 10000 9.3 100 20:43 04.11.2020
5881 Clear 14 1021 58 10000 9.3 100 20:25 04.11.2020
5882 Clear 14 1020 62 10000 11.8 100 19:49 04.11.2020
5883 Clouds 15 1020 62 10000 11.8 100 19:29 04.11.2020
5884 Clear 15 1020 58 10000 11.3 100 18:55 04.11.2020
5885 Clear 15 1020 58 10000 11.3 100 18:55 04.11.2020
5886 Clear 16 1021 55 10000 11.8 100 18:37 04.11.2020
5887 Clear 16 1021 55 10000 11.3 100 18:18 04.11.2020
5888 Clear 17 1021 51 10000 10.8 100 17:40 04.11.2020
5889 Clear 17 1021 51 10000 10.8 100 17:40 04.11.2020
5890 Clear 17 1022 48 10000 10.3 100 17:21 04.11.2020
5891 Clear 18 1022 48 10000 9.8 100 16:38 04.11.2020
5892 Clear 18 1022 45 10000 6.7 100 16:20 04.11.2020
5893 Clear 18 1023 51 10000 3.1 110 15:47 04.11.2020
5894 Clear 19 1023 45 10000 3.6 120 15:25 04.11.2020
5895 Clear 18 1023 45 10000 3.6 120 14:57 04.11.2020
5896 Clear 19 1023 45 10000 3.6 120 14:39 04.11.2020
5897 Clear 19 1023 51 10000 3.1 120 14:19 04.11.2020
5898 Clear 20 1023 48 10000 3.1 120 13:42 04.11.2020
5899 Clear 20 1022 42 10000 3.6 130 13:20 04.11.2020
5900 Clear 21 1022 42 10000 3.6 130 12:51 04.11.2020
5901 Clear 22 1022 40 10000 4.1 130 12:27 04.11.2020
5902 Clear 22 1022 37 10000 4.6 120 11:56 04.11.2020
5903 Clear 22 1022 37 10000 4.6 120 11:56 04.11.2020
5904 Clear 23 1022 35 10000 5.1 120 11:37 04.11.2020
5905 Clear 23 1022 35 10000 5.1 120 11:37 04.11.2020
5906 Clear 23 1022 33 10000 6.2 140 11:19 04.11.2020
5907 Clear 24 1022 31 10000 5.7 130 10:43 04.11.2020
5908 Clear 24 1022 33 10000 6.7 140 10:22 04.11.2020
5909 Clear 24 1022 33 10000 6.7 140 09:50 04.11.2020
5910 Clear 24 1022 33 10000 6.7 90 09:22 04.11.2020
5911 Clear 25 1022 33 10000 7.7 90 08:45 04.11.2020
5912 Clear 25 1023 33 10000 4.6 140 08:19 04.11.2020
5913 Clear 24 1023 36 10000 5.1 140 07:44 04.11.2020
5914 Clear 24 1023 36 10000 5.1 140 07:26 04.11.2020
5915 Clear 24 1024 40 10000 4.1 70 06:42 04.11.2020
5916 Clear 24 1024 38 10000 5.1 90 05:59 04.11.2020
5917 Clear 19 1027 52 10000 6.7 100 02:32 04.11.2020
5918 Clear 17 1027 55 10000 4.6 80 01:40 04.11.2020
5919 Clear 16 1027 63 10000 7.7 110 00:40 04.11.2020
5920 Clear 15 1026 71 10000 7.7 110 23:34 03.11.2020
5921 Clear 13 1025 67 10000 7.7 110 22:59 03.11.2020
5922 Clear 14 1025 71 10000 7.7 110 22:40 03.11.2020
5923 Clear 14 1024 71 10000 7.7 110 22:20 03.11.2020
5924 Clear 14 1024 71 10000 7.7 110 21:55 03.11.2020
5925 Clouds 14 1024 76 10000 4.1 120 21:36 03.11.2020
5926 Clear 14 1024 67 10000 5.7 130 21:18 03.11.2020
5927 Clear 14 1024 67 10000 7.7 110 20:42 03.11.2020
5928 Clear 14 1024 67 10000 8.2 120 20:19 03.11.2020
5929 Clear 14 1024 67 10000 5.1 130 19:42 03.11.2020
5930 Clear 14 1024 72 10000 6.2 110 19:19 03.11.2020
5931 Clouds 14 1025 82 10000 3.1 170 18:41 03.11.2020
5932 Clouds 14 1025 82 10000 3.1 170 18:41 03.11.2020
5933 Clear 14 1025 82 10000 3.6 190 18:20 03.11.2020
5934 Clear 14 1025 82 10000 3.6 190 17:54 03.11.2020
5935 Clear 14 1025 82 10000 4.6 190 17:36 03.11.2020
5936 Clear 15 1024 77 10000 4.6 190 16:54 03.11.2020
5937 Clear 15 1024 77 10000 4.6 200 16:31 03.11.2020
5938 Clear 16 1024 72 10000 4.6 190 15:59 03.11.2020
5939 Clear 16 1024 72 10000 5.1 200 15:41 03.11.2020
5940 Clear 16 1024 67 10000 5.1 190 15:21 03.11.2020
5941 Clear 16 1024 67 10000 5.7 200 14:46 03.11.2020
5942 Rain 17 1024 67 10000 6.2 210 14:27 03.11.2020
5943 Rain 17 1024 67 10000 5.7 200 14:27 03.11.2020
5944 Clouds 17 1024 72 10000 4.6 200 13:43 03.11.2020
5945 Rain 17 1023 63 10000 5.1 210 13:23 03.11.2020
5946 Clear 17 1023 63 10000 6.2 210 12:48 03.11.2020
5947 Rain 18 1023 63 10000 6.2 210 12:27 03.11.2020
5948 Rain 18 1022 63 10000 6.7 210 11:57 03.11.2020
5949 Clouds 18 1022 52 10000 7.2 230 11:39 03.11.2020
5950 Rain 19 1022 59 10000 7.7 210 11:18 03.11.2020
5951 Clouds 20 1021 49 10000 8.2 240 10:39 03.11.2020
5952 Rain 20 1021 49 10000 8.2 240 10:19 03.11.2020
5953 Clouds 21 1021 49 10000 7.7 230 09:48 03.11.2020
5954 Rain 21 1021 49 10000 7.7 230 09:27 03.11.2020
5955 Rain 22 1021 46 10000 6.7 230 08:52 03.11.2020
5956 Clouds 21 1021 46 10000 6.7 230 08:34 03.11.2020
5957 Rain 22 1021 49 10000 5.7 240 07:49 03.11.2020
5958 Rain 22 1021 46 10000 5.1 240 07:22 03.11.2020
5959 Rain 22 1021 49 10000 5.1 220 06:43 03.11.2020
5960 Rain 21 1021 49 10000 4.6 230 04:40 03.11.2020
5961 Clouds 16 1020 100 10000 1.5 210 00:46 03.11.2020
5962 Clouds 15 1020 100 10000 1.5 210 00:25 03.11.2020
5963 Clouds 15 1019 100 10000 1.5 190 23:47 02.11.2020
5964 Rain 15 1019 100 10000 1.5 190 23:28 02.11.2020
5965 Rain 14 1018 93 6000 0.5 280 22:45 02.11.2020
5966 Drizzle 14 1018 93 6000 0.5 280 22:27 02.11.2020
5967 Rain 15 1018 93 10000 1.5 350 21:56 02.11.2020
5968 Rain 14 1017 93 10000 2.6 180 21:36 02.11.2020
5969 Rain 14 1017 93 10000 2.6 180 21:36 02.11.2020
5970 Rain 14 1016 93 10000 2.6 180 21:18 02.11.2020
5971 Clouds 14 1016 100 10000 2.12 160 20:38 02.11.2020
5972 Rain 14 1016 93 10000 2.6 180 20:18 02.11.2020
5973 Rain 14 1016 93 10000 2.6 180 20:18 02.11.2020
5974 Rain 14 1016 93 10000 2.7 177 19:43 02.11.2020
5975 Clouds 14 1016 93 10000 3.25 182 19:25 02.11.2020
5976 Rain 15 1016 93 10000 3.53 192 18:43 02.11.2020
5977 Clouds 15 1016 93 10000 1.5 330 18:22 02.11.2020
5978 Rain 15 1016 93 10000 1.5 330 17:58 02.11.2020
5979 Rain 15 1015 93 10000 1.5 350 17:40 02.11.2020
5980 Clouds 15 1015 93 10000 0.5 200 17:20 02.11.2020
5981 Rain 15 1015 93 10000 2.6 160 16:42 02.11.2020
5982 Rain 16 1015 87 10000 3.1 180 16:23 02.11.2020
5983 Rain 16 1015 87 10000 4.1 200 15:42 02.11.2020
5984 Clouds 16 1015 87 10000 2.6 290 15:24 02.11.2020
5985 Clouds 16 1015 87 10000 2.6 290 14:54 02.11.2020
5986 Rain 17 1014 87 10000 3.6 230 14:21 02.11.2020
5987 Rain 17 1014 87 10000 3.6 230 13:56 02.11.2020
5988 Clouds 17 1013 72 7000 4.1 230 13:38 02.11.2020
5989 Clouds 17 1013 68 10000 5.1 220 13:19 02.11.2020
5990 Rain 18 1012 68 10000 4.6 240 12:31 02.11.2020
5991 Rain 18 1012 68 10000 5.1 240 11:58 02.11.2020
5992 Clouds 18 1011 68 10000 6.2 240 11:38 02.11.2020
5993 Clouds 19 1011 63 10000 6.7 260 11:19 02.11.2020
5994 Rain 19 1010 63 10000 5.7 270 10:42 02.11.2020
5995 Clouds 20 1010 56 10000 5.7 280 10:21 02.11.2020
5996 Clouds 20 1009 56 10000 5.1 290 09:49 02.11.2020
5997 Rain 20 1009 56 10000 5.1 290 09:24 02.11.2020
5998 Clouds 21 1009 60 10000 5.7 280 08:42 02.11.2020
5999 Rain 21 1008 64 10000 5.7 290 08:22 02.11.2020
6000 Clouds 21 1008 64 10000 5.7 290 07:50 02.11.2020
6001 Rain 21 1008 60 10000 7.2 280 06:59 02.11.2020
6002 Rain 19 1009 82 10000 6.7 350 06:36 02.11.2020
6003 Rain 20 1008 64 10000 3.1 20 03:27 02.11.2020
6004 Clouds 17 1008 77 10000 3.6 40 01:24 02.11.2020
6005 Clouds 17 1008 77 10000 3.6 40 01:24 02.11.2020
6006 Clouds 15 1008 87 10000 3.6 30 00:35 02.11.2020
6007 Clouds 14 1008 93 10000 3.6 50 23:41 01.11.2020
6008 Clouds 14 1007 93 10000 3.1 80 23:23 01.11.2020
6009 Drizzle 14 1007 87 5000 3.1 30 22:46 01.11.2020
6010 Drizzle 14 1007 87 5000 3.1 30 22:25 01.11.2020
6011 Drizzle 14 1007 87 5000 3.1 30 22:25 01.11.2020
6012 Clouds 14 1007 93 10000 2.79 35 21:58 01.11.2020
6013 Clouds 14 1007 87 10000 1.5 30 21:38 01.11.2020
6014 Clear 14 1006 87 10000 2.6 80 21:20 01.11.2020
6015 Clear 14 1006 87 10000 2.6 90 20:41 01.11.2020
6016 Clear 14 1006 93 10000 3.1 100 20:23 01.11.2020
6017 Clear 14 1006 93 10000 2.1 120 19:43 01.11.2020
6018 Clear 14 1006 93 10000 2.1 120 19:24 01.11.2020
6019 Clouds 14 1007 87 10000 2.6 100 18:43 01.11.2020
6020 Clouds 14 1007 87 10000 2.6 110 18:20 01.11.2020
6021 Clouds 14 1007 87 10000 2.6 110 18:20 01.11.2020
6022 Clouds 14 1007 87 10000 2.6 110 18:20 01.11.2020
6023 Clouds 14 1007 87 10000 2.6 110 17:58 01.11.2020
6024 Clouds 14 1007 87 10000 3.6 120 17:40 01.11.2020
6025 Clouds 14 1007 87 10000 3.6 110 17:21 01.11.2020
6026 Clouds 14 1007 87 10000 3.6 110 17:21 01.11.2020
6027 Clouds 14 1007 87 10000 2.1 80 16:40 01.11.2020
6028 Clouds 15 1006 87 10000 5.7 130 16:19 01.11.2020
6029 Clear 15 1007 87 10000 2.1 80 15:41 01.11.2020
6030 Clear 15 1007 87 10000 2.1 80 15:22 01.11.2020
6031 Clouds 15 1007 87 10000 2.1 360 14:58 01.11.2020
6032 Clouds 15 1007 87 10000 5.7 100 14:39 01.11.2020
6033 Clouds 15 1007 87 10000 1.5 50 14:21 01.11.2020
6034 Clear 15 1007 87 10000 2.33 30 13:47 01.11.2020
6035 Clear 15 1007 87 10000 1.83 15 13:28 01.11.2020
6036 Clear 15 1007 87 10000 1 60 12:43 01.11.2020
6037 Clear 15 1007 87 10000 2.6 20 12:23 01.11.2020
6038 Rain 15 1006 87 10000 3.1 60 11:51 01.11.2020
6039 Clear 15 1006 82 10000 2.6 50 11:19 01.11.2020
6040 Rain 15 1005 77 10000 4.6 60 10:43 01.11.2020
6041 Rain 15 1005 77 10000 4.6 60 10:43 01.11.2020
6042 Rain 15 1005 77 10000 4.6 60 10:24 01.11.2020
6043 Rain 15 1005 82 10000 7.7 70 09:57 01.11.2020
6044 Rain 15 1006 87 10000 5.7 80 09:39 01.11.2020
6045 Rain 15 1006 87 10000 5.7 60 08:47 01.11.2020
6046 Rain 15 1006 87 10000 4.6 30 08:23 01.11.2020
6047 Rain 15 1007 87 10000 5.1 20 07:40 01.11.2020
6048 Rain 16 1005 93 9000 2.1 80 04:31 01.11.2020
6049 Rain 15 1005 93 9000 2.6 60 01:51 01.11.2020
6050 Rain 15 1004 93 4000 3.1 250 00:43 01.11.2020
6051 Rain 16 1003 87 6000 3.1 250 23:26 31.10.2020
6052 Rain 16 1003 87 8000 3.6 260 22:58 31.10.2020
6053 Rain 16 1002 93 5000 2.1 270 22:39 31.10.2020
6054 Rain 16 1002 93 4000 4.1 290 22:20 31.10.2020
6055 Rain 16 1002 93 5000 4.6 360 21:44 31.10.2020
6056 Rain 17 1002 88 7000 4.6 360 21:19 31.10.2020
6057 Rain 17 1002 88 8000 4.1 10 20:38 31.10.2020
6058 Rain 17 1002 88 9000 4.1 350 20:18 31.10.2020
6059 Rain 17 1002 82 10000 4.1 350 19:41 31.10.2020
6060 Rain 17 1002 82 10000 4.1 350 19:22 31.10.2020
6061 Rain 18 1003 77 10000 4.6 360 18:47 31.10.2020
6062 Rain 18 1003 77 10000 4.6 360 18:24 31.10.2020
6063 Rain 18 1003 72 10000 4.1 360 17:40 31.10.2020
6064 Clouds 19 1003 72 10000 4.1 10 17:22 31.10.2020
6065 Clouds 19 1004 72 10000 3.6 360 16:44 31.10.2020
6066 Clouds 19 1004 72 10000 3.6 360 16:25 31.10.2020
6067 Clouds 19 1004 72 10000 3.6 360 16:25 31.10.2020
6068 Clouds 19 1004 72 10000 4.1 310 15:45 31.10.2020
6069 Clouds 19 1005 77 10000 5.1 320 15:24 31.10.2020
6070 Rain 19 1005 72 10000 5.1 310 14:50 31.10.2020
6071 Rain 19 1005 72 10000 5.1 310 14:31 31.10.2020
6072 Rain 19 1005 72 10000 5.7 310 13:50 31.10.2020
6073 Rain 19 1005 72 10000 5.7 310 13:26 31.10.2020
6074 Clouds 19 1005 72 10000 4.6 310 12:43 31.10.2020
6075 Clouds 19 1005 68 10000 4.6 300 11:51 31.10.2020
6076 Clouds 19 1005 68 10000 4.6 300 11:30 31.10.2020
6077 Clouds 19 1005 68 10000 5.1 300 10:59 31.10.2020
6078 Clouds 20 1005 64 10000 5.7 310 10:36 31.10.2020
6079 Clouds 20 1005 72 10000 6.2 300 09:47 31.10.2020
6080 Clouds 20 1004 64 10000 5.7 290 09:28 31.10.2020
6081 Clear 21 1004 60 10000 5.1 280 08:47 31.10.2020
6082 Rain 22 1005 56 10000 6.2 310 07:59 31.10.2020
6083 Clear 22 1005 53 10000 4.6 280 07:27 31.10.2020
6084 Clear 23 1005 56 10000 2.6 320 06:42 31.10.2020
6085 Clouds 23 1005 56 10000 1.5 0 06:20 31.10.2020
6086 Clouds 23 1006 60 10000 5.1 250 03:46 31.10.2020
6087 Clouds 23 1006 69 10000 3.1 290 01:30 31.10.2020
6088 Clouds 23 1006 69 10000 3.1 290 01:30 31.10.2020
6089 Clouds 21 1007 88 10000 1.5 330 00:47 31.10.2020
6090 Clouds 19 1007 82 10000 2.1 360 23:53 30.10.2020
6091 Clear 19 1007 88 10000 1.5 60 23:26 30.10.2020
6092 Clouds 18 1007 88 10000 4.1 270 22:53 30.10.2020
6093 Clear 18 1007 93 10000 3.1 20 22:27 30.10.2020
6094 Clouds 18 1007 88 10000 4.1 270 21:58 30.10.2020
6095 Clear 19 1007 88 10000 3.1 10 21:39 30.10.2020
6096 Clear 18 1007 82 10000 3.6 20 21:20 30.10.2020
6097 Clear 18 1007 82 10000 3.6 20 20:42 30.10.2020
6098 Clear 19 1007 82 10000 3.6 20 20:24 30.10.2020
6099 Clear 18 1007 72 10000 3.1 30 19:49 30.10.2020
6100 Clear 19 1008 63 10000 3.6 40 19:19 30.10.2020
6101 Clear 19 1008 63 10000 3.1 30 18:50 30.10.2020
6102 Clear 19 1008 63 10000 3.1 30 18:28 30.10.2020
6103 Clear 19 1008 72 10000 2.6 40 17:54 30.10.2020
6104 Clear 20 1008 72 10000 0.92 125 17:36 30.10.2020
6105 Clear 19 1009 68 10000 0.9 125 17:18 30.10.2020
6106 Clear 20 1009 68 10000 2.1 40 16:48 30.10.2020
6107 Clear 20 1009 68 10000 0.83 123 16:19 30.10.2020
6108 Clear 21 1009 63 10000 0.83 123 15:40 30.10.2020
6109 Clear 22 1010 56 10000 2.1 20 15:20 30.10.2020
6110 Clear 23 1010 52 10000 2.6 80 14:45 30.10.2020
6111 Clear 23 1010 52 10000 2.6 80 14:25 30.10.2020
6112 Clear 24 1010 43 10000 1.73 143 13:47 30.10.2020
6113 Clear 25 1010 38 10000 1.5 290 13:23 30.10.2020
6114 Clear 26 1010 38 10000 1.5 290 12:56 30.10.2020
6115 Clear 28 1009 23 10000 4.6 240 12:23 30.10.2020
6116 Clear 29 1009 23 10000 5.1 210 11:57 30.10.2020
6117 Clear 29 1009 23 10000 4.6 240 11:57 30.10.2020
6118 Clear 30 1009 23 10000 5.1 210 11:36 30.10.2020
6119 Clear 30 1009 24 10000 5.1 250 11:18 30.10.2020
6120 Clear 32 1009 22 10000 7.2 250 10:40 30.10.2020
6121 Clear 32 1009 21 10000 6.2 250 10:21 30.10.2020
6122 Clear 34 1009 21 10000 5.7 260 09:43 30.10.2020
6123 Clear 34 1009 19 10000 5.7 260 09:20 30.10.2020
6124 Clear 35 1010 16 10000 2.6 350 08:39 30.10.2020
6125 Clear 35 1010 16 10000 5.1 250 08:20 30.10.2020
6126 Clear 36 1010 17 10000 5.1 250 07:46 30.10.2020
6127 Clear 36 1010 17 10000 5.1 250 07:27 30.10.2020
6128 Clear 34 1012 16 10000 5.1 250 06:21 30.10.2020
6129 Clear 32 1013 17 10000 6.2 20 04:26 30.10.2020
6130 Clear 24 1014 37 10000 6.2 70 01:39 30.10.2020
6131 Clear 21 1014 45 10000 6.2 70 00:31 30.10.2020
6132 Clear 18 1014 48 10000 7.2 70 23:47 29.10.2020
6133 Clear 18 1014 48 10000 7.2 70 23:29 29.10.2020
6134 Clear 18 1013 45 10000 3.1 90 22:48 29.10.2020
6135 Clear 18 1013 45 10000 3.1 90 22:48 29.10.2020
6136 Clear 18 1013 45 10000 3.1 90 22:27 29.10.2020
6137 Clear 19 1013 45 10000 4.6 90 21:50 29.10.2020
6138 Clear 19 1013 42 10000 9.3 90 21:26 29.10.2020
6139 Clear 20 1013 42 10000 9.3 90 20:57 29.10.2020
6140 Clear 20 1013 42 10000 6.2 110 20:39 29.10.2020
6141 Clear 20 1013 37 10000 7.2 80 20:18 29.10.2020
6142 Clear 21 1013 32 10000 9.8 90 19:39 29.10.2020
6143 Clear 22 1013 28 10000 11.3 90 19:19 29.10.2020
6144 Clear 22 1014 24 10000 11.3 100 18:46 29.10.2020
6145 Clear 22 1014 24 10000 11.3 100 18:26 29.10.2020
6146 Clear 23 1015 24 10000 10.8 100 17:43 29.10.2020
6147 Clear 23 1014 19 10000 11.8 90 17:24 29.10.2020
6148 Clear 24 1014 19 10000 11.8 90 16:54 29.10.2020
6149 Clear 24 1015 17 10000 9.8 100 16:23 29.10.2020
6150 Clear 24 1015 17 10000 9.8 100 15:59 29.10.2020
6151 Clear 24 1015 17 10000 7.7 100 15:40 29.10.2020
6152 Clear 24 1015 28 10000 6.2 110 15:22 29.10.2020
6153 Clear 24 1015 28 10000 6.2 110 14:58 29.10.2020
6154 Clear 24 1016 22 10000 3.6 110 14:39 29.10.2020
6155 Clear 24 1016 22 10000 3.6 110 14:39 29.10.2020
6156 Clear 24 1016 27 10000 3.1 150 14:18 29.10.2020
6157 Clear 24 1015 27 10000 3.1 160 13:40 29.10.2020
6158 Clear 25 1015 27 10000 4.1 170 13:22 29.10.2020
6159 Clear 26 1014 24 10000 4.6 170 12:41 29.10.2020
6160 Clear 27 1014 26 10000 4.6 150 12:19 29.10.2020
6161 Clear 29 1014 21 10000 5.7 130 11:47 29.10.2020
6162 Clear 30 1014 22 10000 5.7 120 11:25 29.10.2020
6163 Clear 30 1014 22 10000 6.2 130 10:38 29.10.2020
6164 Clear 31 1015 20 10000 5.7 110 10:20 29.10.2020
6165 Clear 31 1015 20 10000 5.7 110 09:53 29.10.2020
6166 Clear 31 1015 22 10000 6.7 100 09:28 29.10.2020
6167 Clear 31 1015 22 10000 6.7 120 08:56 29.10.2020
6168 Clear 31 1015 25 10000 6.2 110 08:34 29.10.2020
6169 Clear 31 1015 25 10000 5.7 110 07:54 29.10.2020
6170 Clear 31 1016 25 10000 6.2 110 07:35 29.10.2020
6171 Clear 30 1016 28 10000 6.7 110 06:57 29.10.2020
6172 Clear 27 1019 34 10000 7.2 70 04:52 29.10.2020
6173 Clear 25 1020 36 10000 7.2 100 03:58 29.10.2020
6174 Clear 19 1021 56 10000 4.02 84 01:22 29.10.2020
6175 Clear 17 1021 65 10000 4.02 84 00:31 29.10.2020
6176 Clear 15 1021 70 10000 4.02 85 23:46 28.10.2020
6177 Clear 15 1021 71 10000 3.13 88 23:21 28.10.2020
6178 Clear 14 1019 58 10000 12.9 100 22:45 28.10.2020
6179 Clear 14 1019 58 10000 12.9 100 22:26 28.10.2020
6180 Clear 14 1019 58 10000 12.9 100 21:58 28.10.2020
6181 Clear 14 1019 58 10000 7.7 100 21:40 28.10.2020
6182 Clear 14 1019 58 10000 7.7 90 21:19 28.10.2020
6183 Clear 15 1019 58 10000 7.7 90 20:41 28.10.2020
6184 Clear 15 1019 62 10000 6.7 110 20:22 28.10.2020
6185 Clear 16 1018 59 10000 4.6 100 19:50 28.10.2020
6186 Clear 16 1018 59 10000 4.6 100 19:28 28.10.2020
6187 Clear 17 1019 55 10000 5.7 90 18:47 28.10.2020
6188 Clear 17 1018 55 10000 8.2 90 18:21 28.10.2020
6189 Clear 16 1018 59 10000 8.2 90 17:45 28.10.2020
6190 Clear 15 1018 82 10000 8.2 90 17:25 28.10.2020
6191 Clear 15 1018 82 10000 8.2 90 16:57 28.10.2020
6192 Clear 15 1019 87 10000 2.6 180 16:38 28.10.2020
6193 Clear 15 1019 76 10000 8.2 90 16:19 28.10.2020
6194 Clear 16 1019 72 10000 3.6 200 15:37 28.10.2020
6195 Clear 16 1019 80 10000 3.38 151 15:18 28.10.2020
6196 Clear 17 1019 63 10000 7.2 210 14:42 28.10.2020
6197 Clear 17 1019 77 10000 0.45 170 14:22 28.10.2020
6198 Clear 18 1019 73 10000 1.79 204 12:41 28.10.2020
6199 Clear 18 1019 72 10000 3.58 207 12:22 28.10.2020
6200 Clear 19 1019 71 10000 2.68 204 11:55 28.10.2020
6201 Clear 19 1014 67 10000 4.02 228 11:36 28.10.2020
6202 Clear 20 1018 67 10000 3.58 211 11:18 28.10.2020
6203 Clear 21 1018 63 10000 3.13 223 10:42 28.10.2020
6204 Clear 21 1018 59 10000 4.02 224 10:24 28.10.2020
6205 Clear 23 1017 40 10000 8.7 230 09:43 28.10.2020
6206 Clear 23 1017 38 10000 8.7 230 09:22 28.10.2020
6207 Clear 23 1017 41 10000 9.3 250 08:49 28.10.2020
6208 Clear 23 1017 41 10000 9.3 250 08:28 28.10.2020
6209 Clear 23 1017 44 10000 7.2 240 07:50 28.10.2020
6210 Clear 23 1017 44 10000 7.2 240 07:31 28.10.2020
6211 Clouds 24 1018 44 10000 5.7 230 06:42 28.10.2020
6212 Clouds 24 1018 41 10000 3.6 240 05:53 28.10.2020
6213 Clouds 24 1018 41 10000 3.6 230 05:21 28.10.2020
6214 Clouds 23 1018 40 10000 5.7 170 04:26 28.10.2020
6215 Clouds 21 1019 52 10000 5.1 170 02:26 28.10.2020
6216 Clouds 20 1019 60 10000 5.7 180 01:51 28.10.2020
6217 Clouds 17 1018 93 10000 2.22 161 00:22 28.10.2020
6218 Clouds 16 1017 93 10000 2.1 60 23:45 27.10.2020
6219 Clouds 15 1017 93 10000 2.1 50 23:20 27.10.2020
6220 Clouds 15 1017 87 10000 2.6 50 22:44 27.10.2020
6221 Clouds 16 1016 87 10000 2.6 190 22:19 27.10.2020
6222 Clouds 16 1016 87 10000 2.6 190 22:19 27.10.2020
6223 Clouds 16 1016 87 10000 2.6 190 21:56 27.10.2020
6224 Clouds 16 1016 82 10000 2.6 180 21:37 27.10.2020
6225 Clouds 16 1016 82 10000 2.6 180 21:37 27.10.2020
6226 Clouds 16 1016 82 10000 2.6 180 21:37 27.10.2020
6227 Clouds 16 1016 82 10000 2.6 190 21:19 27.10.2020
6228 Clouds 17 1015 87 10000 3.1 180 20:45 27.10.2020
6229 Clouds 17 1015 93 10000 3.1 180 20:23 27.10.2020
6230 Clouds 17 1015 93 10000 2.6 180 19:40 27.10.2020
6231 Clouds 17 1015 87 10000 2.1 120 19:21 27.10.2020
6232 Clouds 17 1015 87 10000 2.1 120 18:59 27.10.2020
6233 Clouds 17 1015 88 10000 3.1 120 18:40 27.10.2020
6234 Clouds 17 1015 88 10000 3.1 120 18:40 27.10.2020
6235 Clouds 17 1015 88 10000 3.1 120 18:40 27.10.2020
6236 Clouds 17 1015 88 10000 3.1 180 18:20 27.10.2020
6237 Rain 17 1016 88 10000 6.2 230 17:44 27.10.2020
6238 Rain 18 1016 77 10000 6.7 220 17:22 27.10.2020
6239 Clouds 18 1015 72 10000 7.2 230 16:57 27.10.2020
6240 Rain 18 1016 100 5000 5.1 220 16:39 27.10.2020
6241 Rain 18 1016 100 6000 5.7 230 16:20 27.10.2020
6242 Clouds 19 1015 72 10000 4.1 250 15:40 27.10.2020
6243 Clouds 19 1016 64 10000 4.1 270 15:21 27.10.2020
6244 Clouds 19 1016 60 10000 3.6 260 14:48 27.10.2020
6245 Clouds 19 1016 60 10000 3.6 260 14:29 27.10.2020
6246 Clouds 19 1015 60 10000 3.6 270 13:54 27.10.2020
6247 Clouds 20 1015 60 10000 4.6 240 13:24 27.10.2020
6248 Clouds 19 1015 63 10000 5.1 250 12:42 27.10.2020
6249 Clouds 19 1015 56 10000 5.7 250 12:24 27.10.2020
6250 Clouds 19 1014 56 10000 6.2 250 11:43 27.10.2020
6251 Clouds 20 1014 52 10000 7.2 240 11:25 27.10.2020
6252 Clouds 21 1014 49 10000 4.6 270 10:48 27.10.2020
6253 Clouds 22 1014 49 10000 4.6 270 10:30 27.10.2020
6254 Clouds 22 1013 49 10000 6.7 240 09:47 27.10.2020
6255 Clouds 22 1013 49 10000 6.7 230 09:26 27.10.2020
6256 Clouds 23 1013 49 10000 6.7 240 08:44 27.10.2020
6257 Clouds 23 1013 49 10000 6.7 240 08:26 27.10.2020
6258 Clouds 22 1013 56 10000 6.7 250 07:47 27.10.2020
6259 Clouds 22 1013 56 10000 6.7 250 07:28 27.10.2020
6260 Clouds 23 1013 53 10000 6.2 290 06:38 27.10.2020
6261 Clouds 23 1013 53 10000 5.1 290 06:19 27.10.2020
6262 Clouds 23 1014 49 10000 6.2 260 05:43 27.10.2020
6263 Clouds 23 1014 49 10000 5.7 270 04:51 27.10.2020
6264 Clouds 21 1014 64 10000 3.6 310 02:35 27.10.2020
6265 Clouds 19 1014 82 10000 3.1 10 00:58 27.10.2020
6266 Clouds 16 1014 100 10000 2.6 360 23:47 26.10.2020
6267 Clouds 15 1014 100 10000 2.6 360 23:29 26.10.2020
6268 Mist 15 1013 93 9000 3.1 20 22:51 26.10.2020
6269 Mist 15 1013 93 9000 3.1 20 22:27 26.10.2020
6270 Mist 15 1013 93 10000 3.1 20 21:50 26.10.2020
6271 Mist 15 1013 93 10000 2.6 50 21:21 26.10.2020
6272 Mist 15 1013 93 10000 2.6 50 20:58 26.10.2020
6273 Clouds 16 1012 93 10000 2.6 50 20:40 26.10.2020
6274 Clouds 16 1012 93 10000 2.1 20 20:21 26.10.2020
6275 Clouds 16 1012 93 10000 2.6 50 19:47 26.10.2020
6276 Clouds 16 1012 93 10000 2.6 50 19:25 26.10.2020
6277 Clouds 15 1012 93 10000 3.1 40 18:46 26.10.2020
6278 Clouds 15 1012 100 10000 1.5 50 18:25 26.10.2020
6279 Clouds 15 1012 100 10000 1.5 50 17:59 26.10.2020
6280 Clouds 16 1013 93 10000 2.1 70 17:39 26.10.2020
6281 Clouds 16 1013 93 10000 2.6 50 17:21 26.10.2020
6282 Clouds 16 1013 93 10000 2.6 210 16:43 26.10.2020
6283 Clouds 16 1013 82 10000 2.6 230 16:21 26.10.2020
6284 Clouds 17 1013 88 10000 2.6 220 15:43 26.10.2020
6285 Clouds 17 1013 88 10000 2.6 220 15:24 26.10.2020
6286 Clouds 18 1013 77 10000 3.1 230 14:53 26.10.2020
6287 Clouds 18 1013 77 10000 3.1 230 14:32 26.10.2020
6288 Clouds 19 1013 77 10000 4.1 240 13:44 26.10.2020
6289 Clouds 19 1013 77 10000 4.1 240 13:44 26.10.2020
6290 Clear 19 1013 82 10000 2.6 230 13:24 26.10.2020
6291 Clouds 19 1012 72 10000 4.1 240 12:51 26.10.2020
6292 Clouds 20 1012 72 10000 4.6 250 12:29 26.10.2020
6293 Clear 20 1012 77 10000 4.1 220 11:57 26.10.2020
6294 Clouds 20 1012 73 10000 5.1 220 11:37 26.10.2020
6295 Clouds 21 1012 64 10000 6.7 240 11:19 26.10.2020
6296 Clouds 21 1012 73 10000 7.2 230 10:46 26.10.2020
6297 Clouds 22 1012 60 10000 7.2 250 10:25 26.10.2020
6298 Clouds 23 1012 60 10000 6.2 250 09:51 26.10.2020
6299 Clouds 23 1012 64 10000 7.7 260 09:26 26.10.2020
6300 Clouds 24 1011 50 10000 7.7 250 08:48 26.10.2020
6301 Clouds 24 1011 47 10000 7.2 240 08:22 26.10.2020
6302 Clouds 24 1011 47 10000 7.2 270 07:38 26.10.2020
6303 Clear 24 1011 44 10000 8.2 250 07:18 26.10.2020
6304 Clear 25 1011 22 10000 6.7 270 05:30 26.10.2020
6305 Clear 25 1011 36 10000 5.7 230 04:18 26.10.2020
6306 Clear 24 1012 38 10000 5.1 260 03:20 26.10.2020
6307 Clear 24 1012 38 10000 5.1 260 03:20 26.10.2020
6308 Clear 22 1011 60 10000 4.1 260 01:34 26.10.2020
6309 Clear 20 1010 72 10000 2.91 273 00:33 26.10.2020
6310 Clear 18 1009 72 10000 3.6 330 23:45 25.10.2020
6311 Clear 17 1008 76 10000 2.6 60 23:22 25.10.2020
6312 Clear 16 1008 87 10000 3.1 90 22:42 25.10.2020
6313 Clear 16 1008 82 10000 2.1 200 22:24 25.10.2020
6314 Clear 17 1008 77 10000 3.6 270 21:48 25.10.2020
6315 Clear 17 1008 77 10000 3.6 270 21:29 25.10.2020
6316 Clear 17 1008 77 10000 3.6 270 21:29 25.10.2020
6317 Clear 17 1007 67 10000 1.5 120 20:57 25.10.2020
6318 Clear 17 1007 67 10000 3.1 160 20:38 25.10.2020
6319 Clear 18 1007 55 10000 2.6 190 20:19 25.10.2020
6320 Clear 18 1007 48 10000 2.57 15 19:49 25.10.2020
6321 Clear 18 1007 48 10000 2.96 29 19:24 25.10.2020
6322 Clear 19 1007 68 10000 2.6 240 18:55 25.10.2020
6323 Clear 20 1007 68 10000 2.6 240 18:37 25.10.2020
6324 Clear 21 1007 27 10000 2.6 320 18:19 25.10.2020
6325 Clear 21 1007 22 10000 3.1 20 17:39 25.10.2020
6326 Clear 23 1007 22 10000 3.6 40 17:21 25.10.2020
6327 Clear 23 1007 22 10000 3.6 40 16:58 25.10.2020
6328 Clear 23 1007 23 10000 3.6 50 16:38 25.10.2020
6329 Clear 24 1007 25 10000 3.6 50 16:18 25.10.2020
6330 Clear 24 1008 27 10000 4.6 80 15:46 25.10.2020
6331 Clear 24 1008 27 10000 4.6 80 15:25 25.10.2020
6332 Clear 24 1008 27 10000 4.6 80 15:25 25.10.2020
6333 Clear 22 1008 43 10000 2.1 350 14:46 25.10.2020
6334 Clear 23 1008 43 10000 2.1 350 14:28 25.10.2020
6335 Clear 24 1008 40 10000 3.1 200 13:43 25.10.2020
6336 Clear 25 1008 36 10000 3.1 190 13:21 25.10.2020
6337 Clear 25 1008 36 10000 3.1 190 13:21 25.10.2020
6338 Clear 26 1008 26 10000 3.6 210 12:49 25.10.2020
6339 Clear 26 1008 26 10000 3.6 210 12:27 25.10.2020
6340 Clear 26 1008 26 10000 3.6 210 12:27 25.10.2020
6341 Clear 30 1007 22 10000 3.1 210 11:55 25.10.2020
6342 Clear 32 1007 17 10000 4.1 220 11:37 25.10.2020
6343 Clear 33 1007 15 10000 3.6 30 11:18 25.10.2020
6344 Clear 33 1007 14 10000 5.1 50 10:44 25.10.2020
6345 Clear 33 1007 14 10000 5.1 50 10:25 25.10.2020
6346 Clear 33 1007 14 10000 3.1 20 09:48 25.10.2020
6347 Clear 33 1008 13 10000 4.6 50 09:20 25.10.2020
6348 Clear 33 1008 15 10000 6.2 60 08:47 25.10.2020
6349 Clear 33 1008 15 10000 6.2 60 08:29 25.10.2020
6350 Clear 33 1009 15 10000 5.7 70 07:50 25.10.2020
6351 Clear 33 1009 15 10000 5.7 70 07:32 25.10.2020
6352 Clear 33 1010 15 10000 5.1 50 06:50 25.10.2020
6353 Clear 32 1011 18 10000 6.2 40 05:47 25.10.2020
6354 Clear 30 1012 20 10000 6.7 70 04:52 25.10.2020
6355 Clear 24 1014 31 10000 8.2 60 02:59 25.10.2020
6356 Clear 19 1014 45 10000 8.2 60 01:20 25.10.2020
6357 Clear 19 1013 48 10000 8.2 70 00:47 25.10.2020
6358 Clear 18 1013 48 10000 8.7 70 00:19 25.10.2020
6359 Clear 18 1013 48 10000 8.7 70 23:43 24.10.2020
6360 Clear 18 1013 48 10000 8.7 70 23:24 24.10.2020
6361 Clear 18 1012 48 10000 8.7 70 22:42 24.10.2020
6362 Clear 18 1012 48 10000 8.7 70 22:24 24.10.2020
6363 Clear 18 1012 45 10000 9.3 70 21:57 24.10.2020
6364 Clear 18 1012 42 10000 9.8 80 21:38 24.10.2020
6365 Clear 19 1012 48 10000 8.7 80 21:20 24.10.2020
6366 Clear 19 1012 42 10000 9.8 90 20:46 24.10.2020
6367 Clear 19 1012 37 10000 9.8 90 20:22 24.10.2020
6368 Clear 19 1012 34 10000 10.8 90 19:45 24.10.2020
6369 Clear 20 1012 34 10000 10.8 90 19:26 24.10.2020
6370 Clear 20 1012 32 10000 7.7 90 18:55 24.10.2020
6371 Clear 20 1012 32 10000 7.7 90 18:36 24.10.2020
6372 Clear 20 1013 32 10000 10.3 90 17:56 24.10.2020
6373 Clear 19 1013 48 10000 10.3 90 17:27 24.10.2020
6374 Clear 18 1013 67 10000 10.3 90 16:59 24.10.2020
6375 Clear 18 1014 59 10000 2.6 220 16:41 24.10.2020
6376 Clear 19 1015 55 10000 4.6 190 15:59 24.10.2020
6377 Clear 20 1014 52 10000 4.6 180 15:38 24.10.2020
6378 Clear 21 1014 49 10000 10.3 90 15:19 24.10.2020
6379 Clear 21 1014 43 10000 7.7 180 14:42 24.10.2020
6380 Clear 22 1014 40 10000 8.2 180 14:22 24.10.2020
6381 Clear 22 1014 40 10000 6.7 190 13:44 24.10.2020
6382 Clear 23 1014 38 10000 6.2 200 13:20 24.10.2020
6383 Clear 24 1014 41 10000 7.2 210 12:41 24.10.2020
6384 Clear 25 1014 34 10000 6.7 230 12:20 24.10.2020
6385 Clear 26 1014 30 10000 6.7 230 11:51 24.10.2020
6386 Clear 27 1014 30 10000 6.7 230 11:24 24.10.2020
6387 Clear 28 1013 20 10000 2.6 240 10:48 24.10.2020
6388 Clear 28 1013 20 10000 2.6 240 10:29 24.10.2020
6389 Clear 28 1014 21 10000 0.5 90 09:48 24.10.2020
6390 Clear 28 1014 21 10000 3.1 90 09:27 24.10.2020
6391 Clear 28 1014 21 10000 3.1 90 08:58 24.10.2020
6392 Clear 28 1014 23 10000 6.2 230 08:19 24.10.2020
6393 Clear 28 1014 23 10000 6.2 230 07:51 24.10.2020
6394 Clear 27 1015 24 10000 5.1 70 07:21 24.10.2020
6395 Clear 27 1015 29 10000 6.2 90 06:50 24.10.2020
6396 Clear 25 1016 33 10000 5.7 80 05:47 24.10.2020
6397 Clear 18 1018 55 10000 5.1 100 02:26 24.10.2020
6398 Clear 15 1017 62 10000 4.6 80 00:57 24.10.2020
6399 Clear 14 1017 62 10000 7.7 90 00:37 24.10.2020
6400 Clear 13 1016 62 10000 7.7 90 00:19 24.10.2020
6401 Clear 13 1016 62 10000 3.1 80 23:41 23.10.2020
6402 Clear 13 1016 62 10000 3.1 80 23:22 23.10.2020
6403 Clear 13 1015 58 10000 5.1 100 22:42 23.10.2020
6404 Clear 14 1015 58 10000 5.1 100 22:22 23.10.2020
6405 Clear 14 1015 58 10000 8.7 90 21:56 23.10.2020
6406 Clear 14 1015 58 10000 12.3 90 21:38 23.10.2020
6407 Clear 14 1014 58 10000 12.3 90 21:20 23.10.2020
6408 Clear 15 1014 54 10000 11.8 100 20:39 23.10.2020
6409 Clear 15 1014 51 10000 10.8 100 20:19 23.10.2020
6410 Clear 16 1014 48 10000 11.8 100 19:45 23.10.2020
6411 Rain 16 1014 48 10000 11.8 100 19:26 23.10.2020
6412 Clear 17 1015 39 10000 7.7 110 18:47 23.10.2020
6413 Clear 17 1015 39 10000 7.7 110 18:29 23.10.2020
6414 Clear 17 1016 48 10000 4.1 160 17:47 23.10.2020
6415 Clear 17 1016 48 10000 4.1 160 17:22 23.10.2020
6416 Clear 17 1016 59 10000 5.7 180 16:51 23.10.2020
6417 Clear 17 1016 59 10000 5.7 180 16:33 23.10.2020
6418 Rain 18 1017 55 10000 10.3 100 15:58 23.10.2020
6419 Clear 18 1017 55 10000 8.2 180 15:39 23.10.2020
6420 Clear 19 1017 52 10000 8.7 190 15:19 23.10.2020
6421 Clear 19 1016 49 10000 8.2 190 14:47 23.10.2020
6422 Rain 20 1016 49 10000 8.2 190 14:29 23.10.2020
6423 Clear 20 1016 43 10000 8.2 200 13:42 23.10.2020
6424 Rain 21 1015 40 10000 8.7 200 13:23 23.10.2020
6425 Clear 22 1015 40 10000 8.7 210 12:50 23.10.2020
6426 Clear 22 1015 40 10000 8.7 210 12:30 23.10.2020
6427 Rain 24 1014 38 10000 8.2 230 11:50 23.10.2020
6428 Rain 24 1014 38 10000 8.2 230 11:26 23.10.2020
6429 Rain 24 1014 36 10000 8.2 240 10:52 23.10.2020
6430 Rain 24 1014 36 10000 8.2 240 10:26 23.10.2020
6431 Rain 24 1014 36 10000 7.7 240 09:57 23.10.2020
6432 Clear 24 1014 38 10000 6.7 250 09:38 23.10.2020
6433 Clear 24 1015 36 10000 5.7 250 09:19 23.10.2020
6434 Clear 25 1015 29 10000 6.2 260 08:49 23.10.2020
6435 Clear 25 1015 27 10000 6.2 230 08:23 23.10.2020
6436 Rain 25 1015 29 10000 4.1 160 07:26 23.10.2020
6437 Rain 24 1016 36 10000 3.1 40 06:46 23.10.2020
6438 Rain 24 1016 33 10000 6.2 230 06:19 23.10.2020
6439 Rain 20 1018 52 10000 6.7 70 03:29 23.10.2020
6440 Clear 18 1017 63 10000 7.7 80 02:26 23.10.2020
6441 Clear 14 1016 71 10000 9.8 80 00:49 23.10.2020
6442 Clear 13 1016 76 10000 10.3 80 23:59 22.10.2020
6443 Clear 13 1016 76 10000 10.8 90 23:31 22.10.2020
6444 Clear 13 1016 76 10000 10.8 90 22:56 22.10.2020
6445 Clear 14 1015 71 10000 11.3 90 22:38 22.10.2020
6446 Clear 14 1015 71 10000 11.3 90 22:19 22.10.2020
6447 Clear 14 1015 71 10000 11.3 100 21:43 22.10.2020
6448 Clear 14 1015 71 10000 11.3 100 21:24 22.10.2020
6449 Clear 15 1015 67 10000 10.3 100 20:58 22.10.2020
6450 Clear 15 1015 67 10000 10.8 100 20:39 22.10.2020
6451 Clear 15 1015 67 10000 10.3 100 20:18 22.10.2020
6452 Clear 15 1016 67 10000 6.7 110 19:41 22.10.2020
6453 Clear 15 1016 59 10000 8.7 100 19:19 22.10.2020
6454 Clear 16 1016 55 10000 7.7 110 18:43 22.10.2020
6455 Clear 15 1016 62 10000 4.6 160 18:21 22.10.2020
6456 Clear 14 1017 81 10000 3.1 210 17:46 22.10.2020
6457 Clear 15 1017 81 10000 3.1 210 17:26 22.10.2020
6458 Rain 15 1016 81 10000 7.2 100 16:56 22.10.2020
6459 Clear 15 1017 71 10000 3.6 190 16:37 22.10.2020
6460 Clear 15 1017 63 10000 3.6 200 16:19 22.10.2020
6461 Clear 16 1017 63 10000 4.1 210 15:43 22.10.2020
6462 Clear 16 1016 63 10000 7.2 100 15:22 22.10.2020
6463 Clear 17 1016 59 10000 7.2 100 14:47 22.10.2020
6464 Clear 17 1017 67 10000 4.1 180 14:24 22.10.2020
6465 Clear 18 1016 68 10000 5.1 210 13:48 22.10.2020
6466 Clear 18 1016 59 10000 5.7 210 13:24 22.10.2020
6467 Clear 18 1016 59 10000 5.7 210 13:24 22.10.2020
6468 Clear 19 1016 59 10000 6.7 210 12:47 22.10.2020
6469 Clear 19 1015 56 10000 7.2 210 12:23 22.10.2020
6470 Clear 21 1015 46 10000 7.7 230 11:50 22.10.2020
6471 Clear 21 1015 43 10000 7.7 250 11:20 22.10.2020
6472 Clear 22 1015 46 10000 8.2 240 10:51 22.10.2020
6473 Clear 22 1015 46 10000 8.2 240 10:27 22.10.2020
6474 Clear 23 1015 38 10000 7.7 230 09:47 22.10.2020
6475 Clear 23 1015 38 10000 7.7 230 09:28 22.10.2020
6476 Clear 22 1015 38 10000 7.7 230 08:49 22.10.2020
6477 Clear 22 1015 38 10000 7.7 230 08:28 22.10.2020
6478 Clouds 22 1016 46 10000 6.7 290 07:57 22.10.2020
6479 Clouds 22 1016 46 10000 6.7 290 07:57 22.10.2020
6480 Clouds 22 1016 35 10000 6.7 270 07:34 22.10.2020
6481 Clouds 22 1016 38 10000 3.6 180 06:58 22.10.2020
6482 Clouds 21 1017 43 10000 7.2 230 06:26 22.10.2020
6483 Clouds 21 1017 40 10000 3.6 170 05:40 22.10.2020
6484 Clouds 18 1018 52 10000 4.6 150 03:46 22.10.2020
6485 Clear 15 1017 67 10000 5.1 190 01:43 22.10.2020
6486 Clouds 12 1016 71 10000 3.6 170 00:25 22.10.2020
6487 Clear 12 1016 76 10000 3.6 180 23:47 21.10.2020
6488 Clear 12 1016 76 10000 3.6 180 23:28 21.10.2020
6489 Clear 13 1015 71 10000 3.6 150 22:40 21.10.2020
6490 Clear 13 1014 67 10000 4.6 150 22:19 21.10.2020
6491 Clear 13 1014 67 10000 5.1 140 21:47 21.10.2020
6492 Clear 14 1014 67 10000 4.6 150 21:20 21.10.2020
6493 Clear 14 1014 67 10000 4.6 150 20:59 21.10.2020
6494 Clear 14 1014 71 10000 4.6 170 20:41 21.10.2020
6495 Clear 15 1014 67 10000 5.1 140 20:18 21.10.2020
6496 Clear 15 1014 67 10000 6.7 140 19:41 21.10.2020
6497 Clear 15 1014 63 10000 6.7 150 19:23 21.10.2020
6498 Clear 16 1014 63 10000 6.7 150 18:54 21.10.2020
6499 Clear 16 1014 67 10000 4.1 170 18:31 21.10.2020
6500 Rain 17 1014 63 10000 5.7 150 17:51 21.10.2020
6501 Clear 17 1014 63 10000 6.2 160 17:22 21.10.2020
6502 Clear 17 1014 63 10000 6.2 160 16:59 21.10.2020
6503 Clear 17 1014 59 10000 5.7 170 16:40 21.10.2020
6504 Clear 18 1014 59 10000 4.6 180 16:20 21.10.2020
6505 Rain 18 1014 63 10000 6.2 170 15:48 21.10.2020
6506 Clear 18 1014 63 10000 6.2 170 15:28 21.10.2020
6507 Rain 18 1013 59 10000 5.1 210 14:56 21.10.2020
6508 Rain 18 1013 59 10000 5.1 210 14:38 21.10.2020
6509 Clear 18 1013 63 10000 4.1 210 14:19 21.10.2020
6510 Clear 19 1013 63 10000 5.7 230 13:41 21.10.2020
6511 Clear 19 1012 56 10000 6.7 230 13:20 21.10.2020
6512 Rain 19 1012 56 10000 7.2 220 12:41 21.10.2020
6513 Clear 20 1012 52 10000 7.7 230 12:20 21.10.2020
6514 Rain 21 1012 49 10000 8.2 230 11:46 21.10.2020
6515 Clear 21 1012 49 10000 8.2 230 11:21 21.10.2020
6516 Clear 22 1012 53 10000 9.3 220 10:49 21.10.2020
6517 Clear 22 1012 53 10000 9.3 220 10:27 21.10.2020
6518 Clear 22 1011 38 10000 9.3 230 09:58 21.10.2020
6519 Clear 23 1011 38 10000 9.3 240 09:38 21.10.2020
6520 Clear 23 1011 41 10000 8.7 230 08:57 21.10.2020
6521 Clear 23 1011 41 10000 9.8 220 08:39 21.10.2020
6522 Clouds 24 1011 44 10000 6.7 250 08:21 21.10.2020
6523 Clouds 24 1011 31 10000 5.7 230 07:38 21.10.2020
6524 Rain 24 1012 31 10000 7.7 200 06:55 21.10.2020
6525 Clouds 24 1012 31 10000 7.7 200 06:32 21.10.2020
6526 Clouds 23 1013 40 10000 3.6 180 04:47 21.10.2020
6527 Clouds 19 1013 63 10000 1.5 140 02:26 21.10.2020
6528 Clouds 15 1013 72 10000 4.6 180 23:51 20.10.2020
6529 Clouds 15 1013 72 10000 3.6 170 23:20 20.10.2020
6530 Clouds 16 1012 67 10000 3.6 110 22:29 20.10.2020
6531 Clouds 15 1013 72 10000 6.2 90 21:51 20.10.2020
6532 Rain 16 1013 72 10000 3.6 110 21:21 20.10.2020
6533 Rain 16 1013 72 10000 3.6 110 21:21 20.10.2020
6534 Clouds 16 1013 72 10000 3.6 110 20:57 20.10.2020
6535 Clouds 16 1013 82 10000 2.6 100 20:38 20.10.2020
6536 Clouds 15 1013 87 9000 2.6 190 20:20 20.10.2020
6537 Clouds 16 1013 82 9000 4.1 200 19:44 20.10.2020
6538 Clouds 16 1013 77 9000 4.1 210 19:22 20.10.2020
6539 Clouds 16 1013 82 9000 3.6 210 18:54 20.10.2020
6540 Clouds 16 1013 82 9000 3.6 210 18:36 20.10.2020
6541 Clouds 17 1013 77 9000 4.6 210 17:50 20.10.2020
6542 Clouds 17 1013 77 9000 4.6 210 17:31 20.10.2020
6543 Clouds 17 1013 77 10000 4.6 210 16:48 20.10.2020
6544 Clouds 17 1013 77 10000 4.6 210 16:28 20.10.2020
6545 Clouds 18 1014 77 10000 4.6 210 15:57 20.10.2020
6546 Clouds 18 1014 77 10000 4.6 210 15:38 20.10.2020
6547 Clouds 18 1013 77 10000 5.1 210 15:19 20.10.2020
6548 Clouds 18 1013 77 10000 5.7 210 14:41 20.10.2020
6549 Clouds 18 1013 77 10000 5.7 210 14:22 20.10.2020
6550 Clouds 18 1013 72 10000 7.2 220 13:44 20.10.2020
6551 Clouds 19 1013 72 10000 7.2 220 13:24 20.10.2020
6552 Clouds 19 1012 64 10000 5.1 200 12:58 20.10.2020
6553 Clouds 19 1012 64 10000 5.1 200 12:40 20.10.2020
6554 Clouds 19 1012 68 10000 7.7 220 12:21 20.10.2020
6555 Clouds 21 1012 53 10000 5.1 200 11:43 20.10.2020
6556 Clouds 21 1012 53 10000 5.1 200 11:25 20.10.2020
6557 Clouds 22 1012 53 10000 9.3 230 10:37 20.10.2020
6558 Clouds 22 1012 53 10000 9.3 230 10:19 20.10.2020
6559 Clouds 23 1011 53 10000 8.2 240 09:38 20.10.2020
6560 Clouds 24 1011 53 10000 8.2 240 09:18 20.10.2020
6561 Clouds 23 1012 50 10000 8.2 240 08:37 20.10.2020
6562 Clouds 24 1012 53 10000 8.2 270 07:53 20.10.2020
6563 Clouds 23 1012 50 10000 7.7 270 07:26 20.10.2020
6564 Clouds 24 1012 47 10000 4.1 260 06:31 20.10.2020
6565 Clouds 24 1013 44 10000 2.6 230 05:43 20.10.2020
6566 Clear 22 1014 53 10000 1.5 200 03:56 20.10.2020
6567 Clear 19 1014 68 10000 3.6 180 02:19 20.10.2020
6568 Clear 16 1014 77 10000 3.6 190 00:59 20.10.2020
6569 Clear 16 1014 87 10000 2.6 200 00:41 20.10.2020
6570 Clear 15 1013 87 10000 3.1 200 00:20 20.10.2020
6571 Clear 15 1013 87 10000 3.6 190 23:41 19.10.2020
6572 Clear 15 1013 77 10000 3.6 190 23:21 19.10.2020
6573 Clear 16 1012 77 10000 3.6 190 22:44 19.10.2020
6574 Clear 16 1012 77 10000 3.1 180 22:21 19.10.2020
6575 Clear 16 1012 77 10000 4.6 180 21:43 19.10.2020
6576 Clear 17 1012 77 10000 4.1 190 21:22 19.10.2020
6577 Clear 16 1012 93 10000 4.1 190 20:46 19.10.2020
6578 Clear 16 1012 93 10000 4.1 190 20:27 19.10.2020
6579 Clear 16 1012 93 10000 2.6 180 19:50 19.10.2020
6580 Clear 16 1012 93 10000 3.1 170 19:24 19.10.2020
6581 Clear 17 1012 88 10000 3.6 190 18:54 19.10.2020
6582 Clear 17 1012 88 10000 3.6 190 18:36 19.10.2020
6583 Clear 17 1012 82 10000 2.1 210 18:18 19.10.2020
6584 Clear 18 1012 77 10000 2.6 210 17:43 19.10.2020
6585 Clear 18 1012 82 10000 2.6 210 17:23 19.10.2020
6586 Clear 18 1012 77 10000 3.1 210 16:43 19.10.2020
6587 Clear 19 1012 77 10000 3.1 210 16:24 19.10.2020
6588 Clear 19 1008 100 10000 1.79 227 15:43 19.10.2020
6589 Clear 19 1008 100 10000 2.24 225 15:24 19.10.2020
6590 Clear 19 1012 80 10000 1.34 223 14:51 19.10.2020
6591 Clear 19 1012 78 10000 1.34 222 14:24 19.10.2020
6592 Clear 20 1011 78 10000 0.89 229 13:52 19.10.2020
6593 Clear 20 1011 80 10000 0.89 247 13:32 19.10.2020
6594 Clear 21 1011 73 10000 0.89 259 12:51 19.10.2020
6595 Clear 21 1010 70 10000 1.34 252 12:33 19.10.2020
6596 Clear 22 1010 65 10000 1.79 227 11:51 19.10.2020
6597 Clear 23 1010 41 10000 6.7 240 11:26 19.10.2020
6598 Clear 24 1010 41 10000 6.7 240 10:56 19.10.2020
6599 Clear 24 1010 41 10000 6.7 240 10:38 19.10.2020
6600 Clear 24 1009 41 10000 6.2 250 10:19 19.10.2020
6601 Clear 25 1009 34 10000 7.2 260 09:42 19.10.2020
6602 Clear 25 1009 34 10000 7.2 250 09:19 19.10.2020
6603 Clear 27 1009 32 10000 7.7 250 08:48 19.10.2020
6604 Clear 27 1009 32 10000 7.7 250 08:23 19.10.2020
6605 Clear 27 1009 36 10000 6.7 260 07:39 19.10.2020
6606 Clear 27 1009 32 10000 3.6 250 07:18 19.10.2020
6607 Clear 27 1010 36 10000 3.6 220 06:18 19.10.2020
6608 Clear 24 1011 43 10000 1.5 90 03:48 19.10.2020
6609 Clear 21 1010 52 10000 7.7 70 02:23 19.10.2020
6610 Clear 18 1010 59 10000 4.6 60 00:46 19.10.2020
6611 Clear 17 1009 55 10000 2.6 40 00:19 19.10.2020
6612 Clear 16 1009 71 10000 2.1 70 23:43 18.10.2020
6613 Clear 16 1009 67 10000 2.61 77 23:21 18.10.2020
6614 Clear 16 1009 71 10000 3.1 30 22:46 18.10.2020
6615 Clear 16 1009 76 10000 3.6 40 22:21 18.10.2020
6616 Clear 17 1009 72 10000 2.6 60 21:50 18.10.2020
6617 Clear 18 1009 72 10000 2.6 60 21:30 18.10.2020
6618 Clear 16 1009 63 10000 3.6 70 20:56 18.10.2020
6619 Clear 16 1009 67 10000 2.1 80 20:38 18.10.2020
6620 Clear 16 1009 72 10000 2.6 90 20:19 18.10.2020
6621 Clear 16 1009 87 10000 3.1 220 19:41 18.10.2020
6622 Clear 15 1009 87 10000 1.5 320 19:19 18.10.2020
6623 Clear 17 1009 82 10000 2.1 350 18:46 18.10.2020
6624 Clear 17 1010 82 10000 1.5 50 18:24 18.10.2020
6625 Clear 17 1010 77 10000 3.6 50 17:43 18.10.2020
6626 Clear 18 1010 77 10000 3.6 50 17:24 18.10.2020
6627 Clear 19 1011 77 10000 2.6 20 16:44 18.10.2020
6628 Clear 19 1011 77 10000 2.6 20 16:26 18.10.2020
6629 Clear 19 1011 82 10000 2.1 270 15:55 18.10.2020
6630 Clear 19 1011 77 10000 2.6 10 15:37 18.10.2020
6631 Clear 19 1011 72 10000 3.1 70 15:18 18.10.2020
6632 Clear 20 1011 68 10000 2.6 330 14:43 18.10.2020
6633 Clouds 20 1010 64 10000 3.1 70 14:25 18.10.2020
6634 Clear 21 1010 60 10000 4.1 260 13:45 18.10.2020
6635 Clouds 22 1010 60 10000 4.1 260 13:26 18.10.2020
6636 Clouds 23 1009 47 10000 5.1 270 12:44 18.10.2020
6637 Clouds 24 1008 44 10000 6.2 70 12:24 18.10.2020
6638 Clouds 25 1008 44 10000 6.2 70 11:58 18.10.2020
6639 Clouds 26 1008 25 10000 5.7 300 11:40 18.10.2020
6640 Clouds 26 1008 25 10000 5.7 300 11:22 18.10.2020
6641 Clouds 29 1007 25 10000 7.7 140 10:40 18.10.2020
6642 Clouds 30 1008 28 10000 6.7 60 10:19 18.10.2020
6643 Clouds 30 1009 25 10000 3.1 350 09:47 18.10.2020
6644 Clouds 30 1009 30 10000 6.7 30 09:21 18.10.2020
6645 Clouds 30 1009 30 10000 6.7 30 08:52 18.10.2020
6646 Clouds 29 1009 28 10000 5.7 30 08:26 18.10.2020
6647 Clouds 29 1008 30 10000 2.6 100 07:56 18.10.2020
6648 Clear 26 1011 34 10000 6.2 130 05:58 18.10.2020
6649 Clear 23 1011 43 10000 8.2 80 03:58 18.10.2020
6650 Clear 20 1012 49 10000 5.7 90 02:54 18.10.2020
6651 Clear 16 1013 62 10000 4.1 70 01:33 18.10.2020
6652 Clear 15 1013 67 10000 8.2 100 00:46 18.10.2020
6653 Clear 14 1012 67 10000 8.2 100 00:22 18.10.2020
6654 Clear 14 1012 62 10000 5.7 100 23:41 17.10.2020
6655 Clear 14 1012 62 10000 6.7 120 23:21 17.10.2020
6656 Clear 15 1012 62 10000 6.7 120 22:57 17.10.2020
6657 Clear 15 1012 58 10000 8.2 100 22:38 17.10.2020
6658 Clear 15 1012 62 10000 4.6 110 22:18 17.10.2020
6659 Clear 15 1012 62 10000 3.6 150 21:43 17.10.2020
6660 Clear 16 1012 59 10000 5.7 120 21:20 17.10.2020
6661 Clear 16 1013 59 10000